ECMWFFLT2_sfc_temp_000.txt.gz
Temp
88 88 91 90 94 73 83 84 77 82 92 88 77 76 81 79 75 69 80 75 80 90 93 94 95 95 95 97 99 100 98 99 96 95 96 98 98 97 96 95 95 93 94 93 93 93 94 94 94 93 91 91 91 91 91 90 90 91 91 90 90 90 90
89 94 93 93 93 95 89 78 84 92 96 91 79 70 72 70 66 70 79 73 75 77 72 90 92 92 95 96 97 100 99 98 95 96 95 95 97 97 96 95 95 95 94 93 95 96 96 95 95 93 91 92 92 92 92 90 90 89 91 91 91 91 90
88 92 91 88 93 96 89 86 96 83 72 70 77 74 64 63 63 65 73 78 78 80 77 86 87 90 92 94 96 97 99 99 96 97 97 96 98 98 96 96 95 94 95 95 94 97 99 96 94 94 93 93 93 93 93 94 91 92 92 94 92 91 90
87 87 87 74 82 90 93 95 90 93 85 75 72 72 75 73 65 65 67 76 70 82 84 89 88 90 92 95 95 97 99 98 97 97 98 96 95 95 97 97 96 95 97 98 99 99 99 97 95 96 97 97 97 95 92 93 94 93 92 92 91 90 91
87 75 82 79 83 79 81 83 82 84 83 91 86 82 77 70 67 66 66 67 74 84 91 91 91 92 93 94 95 96 98 100 101 99 98 97 96 95 96 96 96 96 98 101 101 100 100 100 98 98 99 98 98 99 97 96 93 94 94 93 93 90 91
76 81 87 86 86 88 84 84 79 83 82 75 69 68 85 81 71 60 67 65 78 89 96 92 93 95 96 97 96 97 99 101 100 101 99 98 96 96 96 98 98 98 98 100 102 100 99 101 100 98 99 99 100 99 100 99 99 97 98 94 92 90 90
78 84 90 91 92 91 90 87 83 87 85 83 75 60 70 79 79 81 76 71 74 92 96 93 94 95 98 98 99 98 100 101 103 103 103 99 97 97 98 98 99 99 98 98 99 97 96 97 96 97 98 100 99 100 100 100 98 98 99 99 95 91 90
85 87 91 91 92 90 87 88 90 88 82 85 81 79 78 73 78 72 73 67 76 92 91 94 96 96 99 99 99 97 99 101 101 101 99 97 95 95 98 99 100 98 99 98 96 95 94 94 94 95 97 97 99 100 100 101 100 99 99 100 98 92 91
71 77 82 84 89 88 85 84 87 88 88 87 85 85 83 72 76 77 71 64 75 88 92 92 92 94 97 97 100 99 97 96 98 98 96 95 93 93 96 96 96 97 98 96 93 93 91 91 94 94 95 95 98 98 100 100 100 101 100 100 99 96 94
55 55 58 64 71 77 83 85 86 87 86 84 81 74 75 63 72 74 71 72 79 89 90 91 93 94 93 96 98 102 100 97 97 99 96 92 92 90 92 93 95 95 94 94 92 92 91 92 93 92 93 95 97 97 97 100 101 100 100 101 101 98 96
67 69 73 81 83 82 75 79 82 83 87 88 85 80 74 68 70 72 68 77 79 83 89 88 91 92 92 94 96 97 98 98 97 94 93 92 90 89 92 91 93 92 91 91 91 91 92 93 93 93 94 94 96 93 94 98 99 99 98 99 97 97 97
75 80 78 83 83 79 80 79 80 83 83 84 81 76 73 78 74 64 69 76 77 81 87 89 89 92 91 93 94 97 97 98 98 97 91 89 91 91 90 90 90 90 90 90 90 90 91 92 92 93 94 95 94 93 93 95 98 99 98 96 96 94 93
79 81 82 83 82 82 81 82 82 81 83 82 79 78 82 79 73 70 76 76 77 82 88 91 93 92 92 95 96 98 99 100 99 97 94 93 93 91 90 89 88 89 89 89 89 90 91 93 92 92 93 93 92 92 94 93 98 97 96 95 93 93 92
77 79 81 82 81 81 81 81 81 83 83 81 81 82 84 83 76 80 81 79 79 86 89 92 93 96 97 98 99 98 98 99 96 96 93 96 95 93 91 89 90 89 89 89 89 89 90 91 91 92 91 91 92 92 93 95 93 97 95 93 91 91 90
71 76 79 81 80 80 78 81 82 83 83 84 84 84 84 82 81 83 83 79 78 89 92 93 95 96 98 96 98 98 97 97 98 97 96 95 95 94 92 90 90 89 89 90 89 89 89 90 90 90 91 91 92 96 96 96 93 95 96 91 91 90 87
68 75 75 77 79 80 78 78 80 80 80 78 82 79 84 81 76 79 80 76 77 88 92 94 95 95 92 93 94 95 95 98 97 95 95 95 93 94 94 91 90 89 90 89 89 89 91 91 90 91 90 91 92 94 95 95 96 96 94 92 92 89 88
65 74 77 76 77 76 71 72 79 81 82 83 85 86 86 86 86 78 74 76 86 89 91 90 91 94 92 93 95 94 95 94 94 93 92 92 93 92 91 90 89 91 92 91 89 91 93 93 91 92 92 93 90 92 92 93 94 94 94 94 91 89 85
65 70 73 75 67 58 62 81 88 85 82 82 80 81 84 87 87 84 87 87 89 90 90 89 89 90 91 93 94 94 91 90 89 91 92 92 92 92 92 92 91 90 91 91 91 93 92 93 96 95 93 93 92 94 94 93 92 92 91 92 90 86 83
64 70 70 62 55 59 77 88 89 89 88 87 84 84 87 87 88 88 87 87 88 90 93 92 91 92 90 89 89 92 93 89 89 89 91 89 90 90 90 90 92 89 90 90 90 90 93 95 94 93 93 94 93 94 92 91 91 89 89 89 87 84 82
69 64 61 50 55 73 81 85 87 90 90 88 85 82 85 89 89 87 86 87 89 90 91 93 91 89 89 90 87 87 90 90 90 90 92 92 92 91 92 90 88 87 90 89 91 90 92 92 93 96 95 97 96 95 95 91 89 89 88 87 86 83 82
59 61 62 62 69 70 75 76 79 83 79 81 80 73 79 87 89 89 87 87 89 91 93 91 89 88 90 86 88 91 92 90 90 92 93 96 95 95 93 94 91 90 90 91 92 91 92 94 94 95 97 98 97 95 94 91 88 88 87 86 85 83 81
67 60 57 58 59 55 66 76 79 83 82 82 80 77 77 86 91 91 89 87 88 90 91 88 86 86 84 81 86 91 92 91 89 91 93 92 93 95 95 92 91 89 90 93 92 93 92 94 96 97 98 96 92 90 89 89 88 87 85 85 85 82 81
64 60 55 53 51 61 68 70 76 80 82 81 79 76 71 84 89 91 90 89 89 90 88 86 84 81 79 81 88 86 87 89 92 91 91 93 94 93 92 90 90 92 91 91 92 92 93 95 94 94 93 91 90 88 87 87 87 85 85 85 85 84 82
61 60 56 54 60 62 67 73 75 81 81 80 75 61 66 83 87 90 88 89 89 88 87 87 83 81 79 84 86 87 89 88 89 89 89 90 90 91 92 94 92 89 88 89 91 93 93 90 92 91 91 89 87 87 86 87 87 86 86 85 86 86 84
60 57 57 61 64 70 72 74 77 80 81 78 63 56 75 80 85 86 86 88 87 86 85 85 83 83 83 83 84 90 90 89 88 90 91 90 91 91 92 90 86 89 90 92 93 94 90 89 90 90 90 89 86 86 86 87 86 88 87 86 86 85 83
61 62 57 58 64 69 72 77 79 81 74 63 65 74 75 78 79 82 86 86 86 86 85 87 84 83 87 88 89 88 89 88 87 89 91 91 92 92 89 88 91 94 96 92 92 91 88 90 89 90 89 86 85 86 87 87 87 89 86 85 85 84 83
65 61 58 53 46 64 74 73 76 78 68 70 72 76 80 83 83 84 85 88 87 87 82 84 84 87 88 89 88 88 88 88 88 88 89 88 89 89 89 90 93 94 92 91 89 88 89 91 93 92 91 85 85 86 86 87 89 87 86 85 83 82 82
59 58 53 51 62 67 75 73 66 71 72 76 77 78 78 81 82 82 83 83 84 86 84 84 84 84 84 85 87 88 88 89 89 90 90 90 91 93 96 96 94 92 87 85 84 86 87 88 90 89 85 83 84 85 85 88 87 86 85 83 82 81 80
66 62 65 66 68 72 75 75 73 75 77 78 79 81 81 80 81 82 79 79 82 84 84 83 83 82 84 84 87 85 86 87 88 88 89 91 92 93 92 94 91 92 88 84 83 82 82 83 85 87 87 83 81 82 83 84 84 84 83 82 81 80 81
67 68 68 68 68 71 73 78 77 78 79 81 81 79 78 79 80 81 81 83 83 83 83 82 81 81 82 82 84 85 86 86 85 85 85 87 89 90 89 87 89 90 90 89 87 84 83 85 85 85 87 87 81 79 81 82 83 83 82 81 80 80 80
62 53 65 64 64 67 70 75 77 79 80 79 80 77 77 79 81 81 81 81 81 82 81 80 80 81 83 81 81 80 80 81 82 83 82 83 83 83 83 83 86 88 88 88 86 85 82 85 88 87 84 83 81 80 80 82 83 82 81 79 79 79 79
63 60 62 64 65 66 70 75 73 74 75 78 80 79 80 79 81 82 82 82 81 82 80 80 79 79 81 79 78 79 79 79 79 79 80 80 81 82 83 83 84 86 86 85 84 82 81 83 85 87 86 84 82 82 83 83 83 81 79 79 80 79 79
63 62 62 63 64 63 65 69 68 72 73 74 75 78 80 82 81 80 81 81 81 81 80 78 76 75 77 79 77 77 77 78 78 78 79 79 80 81 81 81 82 82 83 82 82 82 81 82 83 81 80 80 82 81 83 85 81 80 79 78 79 80 81
59 56 55 61 54 53 59 61 65 67 72 73 73 74 75 78 78 78 78 78 79 80 80 78 76 73 73 76 76 77 77 77 77 78 79 80 81 81 81 80 80 81 82 82 81 81 81 82 81 81 81 81 83 86 87 84 80 78 77 79 80 81 81
60 61 63 63 59 56 57 58 62 65 69 72 70 68 68 71 75 77 76 75 75 76 78 80 77 75 75 76 77 78 78 76 77 78 78 78 79 80 80 78 78 79 81 81 81 80 81 81 81 81 81 83 82 83 84 82 81 78 79 79 81 83 79
62 67 67 66 59 54 56 59 60 62 64 68 70 67 66 66 69 73 74 75 74 74 75 76 78 77 77 77 77 74 75 77 77 77 78 79 80 82 81 79 78 79 80 80 80 80 81 81 81 81 82 81 80 83 83 84 82 80 81 82 83 84 83
64 69 69 66 62 59 58 58 58 60 62 63 63 65 66 67 68 69 69 72 75 76 75 74 75 76 76 77 77 75 75 75 75 75 74 74 77 78 81 80 78 78 78 80 81 81 81 81 81 81 81 80 82 84 83 84 83 81 80 81 82 83 81

ECMWFFLT2_sfc_temp_003.txt.gz
Temp
92 92 94 94 97 76 87 89 79 84 94 89 78 79 83 81 74 70 82 80 85 93 95 98 98 99 100 102 102 103 102 103 101 101 103 99 99 98 97 97 97 96 97 96 96 95 96 96 95 94 92 92 92 92 92 90 90 91 91 90 91 91 91
93 98 96 96 97 97 91 80 85 95 98 94 82 71 73 71 66 69 80 76 79 80 75 94 94 94 97 97 98 103 102 103 102 103 100 100 99 100 99 97 97 98 97 97 98 98 98 97 96 94 92 94 93 94 93 91 91 90 91 92 92 92 91
92 96 95 90 95 99 91 89 99 84 75 73 80 76 64 63 63 68 75 80 80 81 80 90 88 91 95 94 97 98 100 101 101 102 101 100 102 101 99 99 98 98 98 98 96 99 100 98 95 95 95 96 96 95 95 96 92 93 94 95 94 92 92
92 92 89 75 83 93 97 98 93 97 89 80 74 75 77 74 66 66 69 76 72 83 87 91 89 92 94 96 96 98 99 99 100 102 102 101 100 98 100 100 99 99 100 100 101 100 101 99 97 98 99 99 99 97 95 96 96 94 93 93 93 92 93
90 78 84 80 84 80 83 85 84 88 87 92 88 86 80 74 68 68 66 66 74 85 96 93 91 93 96 98 96 97 99 101 105 106 105 102 99 97 97 98 100 100 100 102 102 101 101 101 100 100 100 100 100 99 98 98 95 95 96 95 95 93 93
79 82 90 89 89 90 86 85 82 86 83 78 73 71 87 82 75 65 68 66 78 91 99 95 95 96 98 99 98 97 99 100 99 103 105 103 99 96 97 98 104 102 101 101 102 101 101 101 100 100 101 101 101 100 100 99 100 98 97 96 93 93 93
81 86 92 96 95 94 92 90 86 89 89 86 77 64 71 81 81 84 78 73 75 92 96 97 99 99 101 101 101 100 101 102 104 104 107 104 100 98 101 98 98 103 101 101 101 98 98 99 98 100 100 101 101 101 101 100 99 99 100 98 96 93 92
89 91 94 95 94 92 89 90 92 90 84 87 83 79 80 77 78 74 74 69 77 93 96 97 100 98 102 101 101 98 101 103 104 103 103 98 99 99 102 100 99 103 103 101 98 97 96 96 96 97 99 99 101 101 102 102 101 101 101 102 99 95 93
74 81 85 86 92 90 85 85 89 91 91 90 90 89 86 76 77 78 73 65 76 88 96 97 98 99 99 99 102 102 99 100 103 103 99 99 97 97 100 98 98 100 102 98 96 95 93 94 99 97 98 99 101 100 102 103 103 103 102 100 98 97 95
58 59 62 66 73 80 85 88 89 90 89 86 83 77 77 67 73 77 73 72 81 92 92 93 96 96 95 99 101 105 104 101 103 104 103 97 98 98 98 98 99 100 97 97 95 95 93 96 98 95 95 99 101 101 101 104 104 103 103 102 101 98 96
70 72 76 84 86 85 79 83 85 87 89 90 88 85 76 70 73 74 72 76 81 85 90 90 93 93 94 96 99 100 100 101 101 99 100 100 98 97 99 97 98 97 96 96 95 95 97 99 98 98 99 99 101 98 99 104 104 103 101 99 97 99 98
79 84 82 87 86 82 84 83 83 86 87 87 85 79 74 79 76 69 74 78 80 84 88 89 89 94 94 95 96 98 99 99 102 101 95 94 97 97 97 97 96 95 95 95 94 95 97 98 98 99 99 100 99 98 99 101 105 105 102 98 97 95 92
82 84 86 88 87 86 85 86 85 84 86 86 82 80 84 82 76 73 79 78 79 84 90 91 94 94 94 97 97 100 102 102 101 100 100 98 98 96 95 94 94 94 95 94 94 95 96 98 97 98 98 98 97 98 100 99 105 103 101 98 96 96 93
81 82 83 85 84 85 85 87 86 86 86 85 85 86 87 86 79 82 84 80 82 88 92 94 95 98 99 100 101 100 99 99 97 100 99 102 98 95 95 95 95 94 95 95 94 94 94 96 95 98 96 96 98 99 100 102 100 103 100 97 94 94 92
78 82 83 84 83 84 82 84 86 87 87 86 86 86 87 85 84 86 86 82 82 93 94 94 97 97 100 100 99 100 97 98 101 100 102 102 103 103 101 98 96 94 94 95 94 93 93 93 94 94 95 96 98 102 102 102 99 101 103 95 95 93 92
72 80 81 82 83 83 81 81 83 84 84 82 86 82 86 82 79 82 83 79 80 89 94 97 97 97 96 95 96 98 98 101 99 99 100 100 99 100 102 100 96 93 93 93 93 93 95 95 94 95 94 96 98 99 100 100 102 103 100 97 96 92 92
68 76 80 79 80 77 72 75 80 83 86 86 87 89 91 89 88 81 77 79 88 90 94 92 93 97 95 96 97 96 98 97 99 98 99 100 100 100 97 95 95 97 96 95 93 95 97 96 96 97 96 97 95 97 96 98 98 100 101 100 94 88 88
67 75 77 79 71 60 62 80 87 85 83 85 83 84 87 90 90 86 88 88 90 93 93 91 90 92 94 95 96 99 97 96 96 100 100 102 102 103 101 98 100 97 95 97 96 97 96 97 101 100 98 97 96 98 99 98 97 96 95 95 93 88 86
67 73 73 66 58 61 78 86 89 89 89 87 85 86 90 91 91 91 90 91 90 92 93 93 93 94 97 99 99 102 102 99 100 98 100 99 100 98 97 97 100 95 96 96 96 95 98 100 99 98 98 98 98 99 98 97 95 93 93 92 90 85 85
72 67 64 53 58 75 83 86 88 90 90 88 85 81 87 91 92 90 89 90 92 93 94 96 96 95 98 100 99 99 102 102 103 101 101 102 101 99 100 97 96 95 97 96 99 96 98 99 100 100 98 100 100 101 101 97 94 93 92 91 90 85 85
62 64 65 63 73 73 77 78 81 84 79 80 78 68 73 84 90 92 89 90 92 95 97 97 97 97 98 94 95 103 101 101 101 103 103 104 103 103 100 102 99 97 97 98 99 96 98 100 100 99 100 101 100 100 98 96 93 92 92 91 91 86 85
70 64 63 65 64 58 68 77 80 85 85 84 82 74 73 84 87 90 92 88 90 92 95 95 95 95 92 89 91 97 102 104 102 102 103 105 105 105 104 101 101 97 97 98 98 98 98 98 99 100 100 98 96 94 93 93 92 91 91 90 89 87 87
67 64 60 60 59 64 75 75 80 83 85 84 83 75 68 81 87 90 93 93 92 92 93 94 93 89 84 84 87 95 101 103 105 102 101 103 105 104 103 101 99 98 96 96 98 97 97 98 98 97 96 95 94 92 92 91 91 90 90 90 89 88 87
65 64 62 61 67 65 68 78 80 83 85 84 79 61 65 82 87 89 89 90 93 93 92 94 91 87 82 83 90 99 103 106 102 98 98 99 101 101 103 103 101 96 94 94 94 96 95 94 96 96 96 95 92 91 90 91 92 91 90 89 89 89 88
64 60 65 67 70 76 78 80 82 84 84 80 65 57 70 76 81 83 84 85 86 91 92 93 89 90 92 93 95 99 98 99 98 99 99 99 99 100 102 101 92 95 94 94 95 97 95 95 97 96 95 94 91 90 90 90 89 91 90 89 87 87 86
64 65 62 63 70 78 82 81 83 85 78 63 64 74 77 80 79 83 83 82 85 88 92 93 92 97 97 96 98 97 97 96 94 96 98 99 100 100 97 93 93 94 96 93 95 97 95 96 96 95 93 90 88 88 89 89 90 92 89 88 87 86 85
69 66 63 60 53 69 80 80 81 81 70 71 74 77 80 82 81 80 80 80 83 87 88 93 93 93 96 97 93 95 95 94 92 93 95 94 96 96 93 92 94 95 93 94 95 93 96 96 96 95 93 88 88 89 88 89 91 90 89 88 86 85 84
62 63 60 59 73 74 81 80 72 76 78 79 79 79 77 80 80 78 76 74 81 88 89 91 94 94 91 90 93 90 90 93 94 94 93 94 94 93 95 96 95 97 93 91 91 93 96 95 96 94 90 88 88 88 88 90 89 87 87 86 84 83 83
70 68 73 72 76 78 82 80 78 79 80 81 81 80 77 74 77 81 78 77 81 85 88 87 85 84 90 88 88 89 92 92 92 91 90 92 93 95 95 96 93 92 91 89 91 92 94 93 93 92 92 88 87 86 88 88 86 86 85 84 83 82 81
73 74 75 76 78 78 80 83 83 82 81 83 83 79 75 76 75 78 74 76 86 87 83 80 77 77 79 85 90 90 92 92 93 91 93 93 94 95 94 90 91 90 91 90 89 88 88 90 89 89 90 90 85 85 87 86 86 85 84 82 81 81 80
66 55 70 73 74 77 79 78 80 83 83 81 81 77 77 74 71 73 73 67 67 79 79 78 77 74 79 85 85 87 86 87 87 87 86 87 90 90 90 90 91 91 91 90 89 90 89 91 92 93 90 89 87 86 85 85 83 81 80 79 79 81 80
67 62 68 68 71 71 74 76 73 76 81 82 80 79 78 75 70 70 69 68 66 75 78 77 78 81 79 77 77 79 80 82 83 83 84 84 85 86 88 88 88 89 89 88 87 87 87 89 90 90 89 87 85 84 84 83 83 82 81 81 81 81 82
62 68 69 69 69 70 71 71 71 71 75 77 79 78 76 76 76 77 77 75 68 69 78 80 79 77 78 80 80 80 79 81 83 82 82 83 83 85 85 85 85 85 85 85 84 84 84 86 86 85 85 85 87 86 87 88 85 83 82 81 80 82 83
59 60 64 69 64 61 66 68 68 68 71 72 72 74 77 79 78 75 74 76 80 80 80 78 79 77 77 79 80 80 79 79 81 83 83 84 85 85 85 85 84 83 84 83 82 82 83 84 84 84 85 87 88 91 91 89 86 82 80 82 82 82 82
57 70 72 72 68 64 65 66 68 68 69 70 68 66 68 72 75 76 75 73 72 74 77 80 79 77 76 78 80 80 80 77 78 81 83 83 84 84 85 84 83 82 82 82 82 81 82 83 84 85 86 88 88 90 87 86 86 82 82 82 83 83 81
70 73 72 71 68 62 63 66 67 68 69 68 66 67 69 70 72 73 71 73 73 73 75 76 77 77 77 78 79 77 78 79 79 79 81 83 84 85 85 84 82 82 82 82 82 81 83 83 84 84 86 86 85 85 83 82 82 81 82 81 81 81 81
66 68 69 68 65 64 65 66 67 67 66 65 62 64 66 68 69 72 72 72 73 73 71 73 75 75 75 77 78 77 76 78 79 79 78 77 80 82 84 84 82 81 82 83 83 83 83 82 83 83 82 83 84 84 82 82 82 81 81 82 83 82 81

ECMWFFLT2_sfc_temp_006.txt.gz
Temp
93 92 95 93 95 74 85 86 77 81 92 87 76 77 82 81 75 69 80 78 82 92 95 97 96 97 96 97 98 98 97 97 96 95 97 98 95 93 93 93 92 91 93 92 91 92 94 94 93 91 89 89 89 88 88 87 86 87 86 86 87 87 86
93 98 96 95 95 94 89 79 84 93 96 92 80 68 71 71 66 69 79 74 77 78 72 91 92 92 94 95 96 99 97 97 96 97 97 96 94 94 95 94 93 93 93 93 94 95 96 96 94 91 89 90 90 90 90 87 87 86 87 87 87 87 86
93 97 95 90 94 96 88 87 99 83 73 71 78 73 62 65 63 66 73 79 77 78 77 88 89 90 92 92 93 95 95 96 95 97 97 94 96 96 95 96 94 94 94 94 93 96 99 97 93 92 92 92 92 92 92 92 89 89 89 90 89 88 88
92 92 89 75 82 92 94 95 90 95 86 78 72 74 74 73 65 64 67 74 70 82 84 89 89 90 91 95 93 94 98 98 98 98 95 94 94 94 95 96 96 95 97 99 98 98 98 97 95 95 95 95 95 94 92 92 92 90 89 88 88 87 89
91 78 84 79 83 79 81 83 81 86 86 91 87 84 77 72 66 65 66 66 73 83 93 92 92 92 94 96 93 92 96 99 101 102 97 93 94 95 96 97 97 96 97 99 100 100 100 99 97 97 97 95 96 96 94 94 90 91 91 90 90 88 89
80 83 90 89 89 88 85 82 80 83 81 76 70 68 85 80 72 62 66 64 75 89 98 94 95 96 97 96 95 95 97 100 97 99 102 96 95 95 96 99 101 100 98 98 99 99 98 99 99 97 97 96 96 95 96 95 94 93 92 91 89 88 88
83 87 93 94 94 93 91 88 83 88 86 84 75 61 69 79 79 82 76 70 73 91 95 95 96 97 100 99 99 96 98 98 101 101 104 100 96 97 100 101 103 101 98 98 97 94 93 95 95 96 96 96 96 96 96 95 94 93 94 93 92 89 89
88 93 94 95 94 92 88 89 90 87 82 85 82 79 79 75 77 73 74 66 75 91 92 95 98 95 100 99 99 97 101 100 101 101 101 96 95 96 101 101 102 97 97 95 93 91 91 91 92 94 95 95 96 96 97 96 95 95 95 95 94 91 89
73 79 85 87 92 90 85 84 87 89 89 88 88 87 84 74 77 79 72 63 74 88 93 93 97 98 99 100 102 101 98 98 101 101 97 94 92 93 97 95 94 93 94 91 89 90 88 89 93 93 94 95 96 96 97 97 96 97 96 95 95 93 92
57 57 62 67 73 79 84 86 87 88 87 85 81 74 76 67 72 74 72 72 81 90 90 92 94 95 93 98 100 102 100 95 98 96 93 91 91 90 92 92 92 92 90 89 88 88 88 90 93 91 91 95 97 96 96 98 97 97 97 97 96 93 93
68 71 75 85 85 83 78 82 83 86 88 89 85 81 75 71 72 72 71 75 79 83 90 88 92 92 93 96 97 97 97 99 96 90 91 92 91 91 93 91 91 89 88 87 87 87 91 94 94 94 94 95 96 93 95 98 98 98 96 96 93 94 93
77 83 81 87 86 81 83 82 82 85 85 86 83 78 74 78 74 68 72 76 77 80 86 88 88 93 92 94 93 97 96 94 98 95 89 92 94 95 92 92 90 89 88 88 87 88 91 93 94 95 95 96 95 94 95 97 99 99 98 94 93 91 91
82 84 85 86 87 86 84 84 84 83 84 84 81 79 83 80 74 70 76 76 76 81 88 91 91 91 91 95 96 97 99 99 95 93 94 95 97 95 95 91 89 89 89 87 88 90 91 94 93 94 95 95 94 93 96 95 100 99 96 93 92 92 90
80 82 83 85 84 85 85 84 85 86 86 84 84 84 86 85 77 80 82 78 81 87 89 93 95 95 97 97 96 97 96 98 95 97 94 101 100 99 95 94 94 92 92 91 91 91 91 92 91 95 93 92 95 95 96 98 96 99 95 93 90 91 90
77 82 83 84 83 83 81 85 86 87 86 86 86 85 86 85 84 85 84 79 79 90 91 92 96 95 96 95 95 97 95 96 99 98 100 99 99 99 95 91 93 92 93 93 92 91 90 91 91 92 92 93 95 99 99 100 96 99 98 91 91 90 89
72 80 82 81 82 82 81 80 83 83 83 81 84 81 86 82 77 80 82 78 80 89 92 94 94 94 92 92 90 91 91 97 96 95 98 96 94 96 94 92 93 92 93 92 92 92 94 93 92 93 91 93 95 97 98 99 101 101 97 94 92 89 90
69 77 81 81 81 77 72 74 80 84 85 85 87 88 88 87 87 80 76 78 86 88 90 90 91 95 94 92 92 92 92 89 94 94 94 96 97 94 93 92 91 95 96 95 93 95 97 95 95 96 94 95 93 95 95 96 97 100 98 96 91 89 89
68 76 78 79 70 60 64 82 88 86 84 85 81 85 89 89 88 84 87 87 89 90 90 89 88 90 91 91 92 94 92 90 90 95 95 98 99 100 98 96 96 95 94 95 96 96 95 96 100 99 97 97 95 97 98 95 95 94 93 93 90 89 88
68 73 73 64 58 62 77 87 90 90 89 88 87 87 88 89 91 91 88 88 88 89 91 91 90 90 91 93 95 98 100 95 95 92 96 94 95 96 96 94 97 93 93 94 94 94 98 100 98 98 98 98 97 98 97 96 94 91 91 90 89 89 87
72 67 66 55 57 75 83 85 88 91 90 89 86 83 88 91 89 88 88 87 89 90 91 93 94 92 96 97 95 95 99 99 98 99 98 99 100 99 100 94 93 91 95 95 98 95 97 97 99 100 100 101 101 100 101 97 94 92 91 89 89 88 88
62 65 65 64 73 72 76 76 81 84 79 80 78 71 78 87 89 89 83 82 87 88 89 95 95 95 96 91 91 100 101 99 101 103 103 104 103 103 100 101 96 94 96 96 98 95 96 99 98 99 101 101 99 99 99 98 92 93 92 89 88 86 85
70 64 61 62 62 57 66 77 86 89 87 86 83 74 72 82 85 86 84 83 84 83 85 84 91 93 88 84 87 95 102 104 103 104 105 107 104 104 103 100 99 95 96 97 97 98 97 97 99 99 100 98 95 93 94 95 93 92 91 86 87 86 86
66 63 59 59 57 62 73 78 85 88 89 88 84 76 69 82 86 87 85 85 85 84 86 84 82 82 81 82 87 95 100 102 104 103 103 106 107 106 103 103 101 99 95 95 99 96 96 97 97 96 96 95 93 92 92 92 91 91 89 86 87 86 86
64 62 60 59 66 64 71 80 84 88 88 87 80 61 65 76 84 83 84 82 83 83 82 83 82 78 73 80 90 101 102 102 103 100 99 100 102 103 103 105 104 96 92 92 95 97 96 94 97 96 95 94 92 91 91 93 93 92 89 86 87 88 87
61 56 59 64 67 73 78 82 87 86 87 80 65 56 72 77 81 82 83 83 83 82 81 83 78 81 83 85 89 97 103 103 103 103 100 98 101 101 104 103 96 95 93 94 95 98 96 94 96 96 94 94 91 90 90 90 90 93 91 87 87 86 85
60 62 58 60 67 74 78 83 86 84 78 63 62 75 79 80 80 83 84 83 82 80 78 77 78 81 89 91 94 94 96 100 95 95 95 94 96 100 98 93 93 95 97 93 94 97 93 94 95 95 93 90 89 89 90 89 90 92 88 87 87 86 84
66 64 58 56 49 69 81 77 80 83 68 69 76 79 81 82 82 81 82 78 73 75 74 77 77 79 80 85 89 92 91 96 93 90 90 90 93 91 88 93 97 96 94 93 95 95 97 98 98 96 95 89 88 88 88 87 90 89 87 87 86 85 84
59 59 56 56 70 77 81 77 68 76 79 79 79 80 78 81 80 78 76 73 74 75 74 73 74 76 77 79 81 87 91 92 95 91 91 91 92 92 93 94 92 96 91 90 91 94 97 96 96 95 91 86 86 85 85 88 87 87 86 85 84 83 82
66 62 67 71 76 81 84 80 79 80 80 82 81 79 76 74 74 76 73 71 74 74 75 74 73 73 74 76 81 81 81 82 81 81 83 85 85 86 85 90 89 90 90 89 91 92 94 92 91 89 88 86 83 82 84 85 85 85 84 83 82 82 82
70 73 73 76 77 79 80 82 83 83 81 80 80 76 74 73 74 74 72 72 73 73 74 74 73 73 74 75 77 77 77 77 78 78 79 78 77 78 76 74 74 82 90 91 92 88 86 87 87 87 86 85 82 82 84 83 84 83 82 81 81 81 81
63 52 69 74 73 75 77 78 79 82 81 78 78 74 73 74 74 74 74 72 71 71 70 69 70 71 71 71 73 74 73 74 74 76 74 74 73 73 72 73 77 80 77 81 80 85 85 85 86 87 87 86 84 83 82 82 83 82 81 80 79 79 79
57 59 65 68 71 70 72 75 77 76 76 77 76 75 76 76 77 76 75 74 72 73 70 69 68 67 67 66 67 70 72 72 73 73 71 70 70 70 70 73 72 71 72 72 71 72 73 78 79 78 80 84 85 84 85 85 84 82 79 79 79 79 79
55 64 68 69 69 69 70 70 71 74 77 75 75 76 76 76 75 74 74 75 74 73 71 70 68 66 65 66 66 67 66 67 70 71 73 71 72 72 71 72 75 79 78 79 79 80 78 78 81 80 82 85 86 85 85 85 82 81 79 78 79 80 80
52 53 58 67 62 58 64 68 70 70 72 73 73 73 73 74 74 74 73 73 74 74 73 70 68 65 65 65 66 65 65 65 67 68 69 70 70 72 73 74 74 73 72 73 74 74 76 81 82 83 84 85 87 88 86 85 83 79 79 80 80 80 81
51 57 63 65 67 64 65 67 70 71 72 72 70 70 71 72 72 72 71 70 69 70 70 71 69 68 67 67 68 67 66 66 66 69 72 73 75 75 78 77 75 77 77 79 80 81 81 83 84 84 85 86 86 86 84 84 83 81 81 80 81 82 80
58 63 63 66 66 63 65 68 69 69 71 71 70 71 71 71 71 71 70 69 68 67 68 69 70 68 68 69 70 69 68 70 70 67 73 79 79 80 81 80 78 79 79 80 80 81 83 83 84 84 86 86 84 85 84 84 83 81 81 80 80 80 80
57 64 65 67 67 67 68 68 69 69 70 70 68 67 69 70 71 72 70 69 70 69 67 67 68 69 68 68 69 71 71 70 72 75 75 75 78 78 80 81 80 79 79 80 80 82 82 83 84 84 84 85 86 87 84 84 83 81 80 81 82 81 79

ECMWFFLT2_sfc_temp_009.txt.gz
Temp
85 85 89 87 87 65 72 78 71 75 80 76 64 66 70 69 62 59 68 68 71 75 79 80 83 86 86 87 88 90 87 88 88 87 89 90 91 90 89 88 87 85 86 86 87 87 88 87 86 86 85 85 85 84 83 82 82 82 82 82 82 82 82
86 89 89 89 88 87 75 70 75 84 86 83 69 57 60 58 51 57 69 65 60 65 58 80 82 80 85 86 86 90 89 87 86 88 88 89 90 90 89 88 88 87 86 86 88 89 89 88 87 86 86 86 85 85 84 83 82 82 82 83 83 83 82
85 89 88 83 88 90 81 74 87 75 61 65 63 64 51 52 53 54 59 65 66 65 64 76 78 78 80 83 85 88 86 86 86 89 90 89 91 90 89 89 88 87 87 87 87 89 90 89 87 87 87 87 86 86 85 85 83 84 83 84 84 83 83
85 85 82 68 75 85 88 88 79 86 74 66 61 64 64 61 50 55 57 63 55 69 70 75 77 81 81 82 84 87 89 87 88 89 90 90 90 89 90 90 89 88 89 89 89 89 89 89 88 88 88 89 88 87 85 85 85 84 84 84 83 83 83
84 72 77 73 75 72 75 76 74 74 75 77 73 72 68 61 54 48 50 50 61 67 75 80 77 77 83 84 83 86 89 88 90 91 91 90 90 90 90 90 89 89 90 91 90 90 90 90 89 89 90 89 89 89 87 86 84 84 84 84 84 83 83
73 76 83 83 82 81 77 75 73 74 68 62 61 59 75 72 61 48 53 55 60 72 90 80 80 83 82 85 83 84 88 90 90 92 92 91 90 89 90 90 91 90 90 91 91 90 90 90 90 89 90 90 90 89 88 88 87 86 85 85 84 83 83
72 80 86 88 88 86 83 81 76 79 74 70 61 47 53 69 69 72 63 58 56 72 78 84 86 85 85 87 86 86 88 91 91 92 93 91 90 89 90 91 91 91 90 90 90 89 88 89 89 89 89 90 90 90 89 89 87 86 87 86 85 84 83
79 84 87 87 88 86 81 81 82 79 73 74 69 62 63 60 62 62 59 57 60 79 86 81 82 82 86 85 88 86 90 91 91 89 91 89 88 89 91 92 93 92 91 89 88 87 87 88 87 88 89 90 90 90 90 90 88 88 88 87 86 85 84
59 69 73 78 84 84 78 76 79 81 80 79 78 76 67 66 65 63 56 53 56 72 79 80 79 80 86 85 86 90 89 86 89 88 86 89 88 88 90 90 90 90 89 87 85 86 86 87 88 88 88 89 90 90 91 90 90 89 89 88 87 85 85
49 50 53 57 65 72 77 79 79 80 79 77 73 66 61 50 59 65 58 57 61 71 81 86 87 83 78 82 84 88 86 86 87 88 83 87 87 87 88 88 88 87 86 86 85 85 85 87 88 87 87 89 90 90 91 92 91 90 89 89 88 86 85
59 62 61 74 76 75 71 75 78 78 81 81 77 67 60 56 51 59 60 64 62 67 77 83 85 84 81 81 83 79 82 82 80 81 83 86 86 86 87 86 87 87 84 85 85 85 86 88 88 88 88 89 90 89 90 92 92 91 90 89 87 86 86
68 71 72 78 78 74 76 76 76 79 78 78 76 68 65 66 61 46 52 60 68 71 72 73 77 80 83 80 78 81 80 80 81 81 83 87 87 87 87 87 86 86 85 85 84 85 86 87 88 88 89 90 89 89 90 91 92 91 91 89 88 86 85
74 77 77 79 79 78 78 78 77 76 78 76 73 71 74 67 63 60 60 60 63 72 78 81 79 76 76 82 87 82 83 82 80 79 84 85 86 84 83 82 83 84 83 83 83 83 84 86 86 87 87 88 88 88 90 90 92 91 90 88 87 86 85
74 76 77 78 77 77 78 79 78 79 78 77 77 75 76 74 63 66 70 63 65 72 79 80 81 77 82 82 83 85 81 83 81 83 83 87 87 86 85 83 84 84 83 82 82 82 83 85 85 87 87 87 88 89 90 91 91 92 90 88 87 86 85
71 76 77 78 77 76 74 77 79 79 79 78 78 79 77 72 72 73 72 65 64 71 77 80 79 78 79 82 84 84 82 82 84 84 86 86 86 85 82 81 82 82 82 83 82 81 82 84 85 87 87 88 89 91 91 92 91 92 91 88 87 86 85
61 74 75 76 77 76 74 73 76 77 77 74 76 73 78 73 64 65 69 65 67 70 75 79 78 79 78 78 77 79 79 83 82 83 85 86 86 86 86 84 84 83 83 83 82 82 84 85 86 87 87 88 89 90 91 92 93 92 91 89 88 86 86
57 69 75 75 75 72 67 69 74 74 76 77 79 80 80 79 79 70 62 62 67 69 72 75 76 80 75 76 78 78 80 79 81 81 84 85 85 88 86 85 85 87 86 85 84 85 87 88 88 89 89 89 88 89 90 91 92 92 91 90 88 86 86
57 69 72 74 66 56 59 75 79 78 76 76 76 75 74 78 80 75 73 69 70 74 73 74 72 77 79 78 77 79 78 74 76 78 79 85 85 87 89 88 88 88 87 87 87 87 88 88 90 91 90 90 90 91 92 91 91 91 90 90 88 86 85
54 62 64 58 53 57 71 79 83 83 83 81 76 75 79 78 77 80 79 79 79 77 76 75 73 72 74 78 78 82 87 87 86 82 84 81 81 86 89 88 89 87 88 88 88 88 89 90 90 90 90 91 91 92 91 90 90 89 89 88 87 86 85
63 58 56 50 53 67 76 79 80 82 81 79 76 73 76 76 75 74 70 71 72 72 73 74 73 74 77 78 77 77 81 83 86 90 90 87 86 84 86 85 86 88 89 88 89 89 90 90 90 91 91 92 92 92 93 90 89 89 89 87 86 85 85
57 57 54 55 64 65 69 70 73 73 69 69 67 59 64 72 74 73 71 71 73 74 76 77 78 76 78 72 71 79 85 85 85 85 84 86 85 87 83 87 87 85 88 88 90 89 89 91 90 92 93 93 92 91 91 91 88 88 88 87 86 85 85
60 56 54 55 54 52 58 68 76 81 81 77 73 64 62 71 74 76 73 71 71 72 73 75 74 75 70 65 68 77 84 86 86 87 88 90 89 88 90 85 87 86 88 90 90 90 90 91 92 93 93 92 90 88 89 89 88 87 87 87 87 86 85
53 52 50 53 51 55 63 67 78 80 79 81 77 66 56 67 72 75 75 72 72 71 72 71 73 69 62 62 69 77 82 84 87 86 88 91 93 92 91 94 91 90 89 90 91 90 91 91 91 91 91 91 89 87 88 88 88 87 87 88 88 87 86
53 53 51 52 59 58 63 73 78 80 79 81 72 53 51 65 72 73 71 69 69 70 69 71 69 65 60 62 70 79 83 84 84 82 81 80 81 82 84 87 90 92 90 89 89 90 90 90 92 91 91 90 88 87 87 89 89 88 88 89 89 89 88
54 53 51 55 59 65 72 74 77 78 81 72 58 45 58 69 70 70 70 69 70 69 68 69 64 66 70 71 75 80 80 81 82 83 84 83 83 82 84 84 83 86 89 89 88 90 89 89 90 91 89 89 87 87 87 87 88 90 91 91 89 88 86
50 53 52 50 56 64 71 74 76 76 72 53 50 62 69 70 68 70 70 69 69 69 68 67 66 69 73 75 77 77 77 77 76 79 81 82 83 84 82 82 82 85 88 88 89 91 90 90 90 90 89 87 86 86 86 87 89 92 91 89 87 85 84
54 54 48 41 36 58 76 73 69 70 57 56 67 67 69 71 69 68 68 69 69 70 67 70 69 70 71 73 73 73 74 74 74 75 74 74 77 77 77 78 79 83 81 83 84 84 87 89 91 91 90 86 86 85 86 87 90 90 87 86 84 83 82
43 47 46 43 57 65 76 73 59 62 66 68 70 69 65 68 68 67 66 66 67 70 68 67 67 67 68 69 70 70 71 72 72 72 72 72 72 73 76 77 76 79 75 73 72 70 69 74 77 80 84 85 84 84 85 88 87 84 83 83 82 81 80
50 47 50 59 62 63 72 72 70 70 72 72 71 69 67 65 65 68 65 65 67 68 67 65 64 64 66 66 68 67 68 69 70 70 70 70 69 70 69 71 73 73 71 70 71 71 72 72 71 70 70 71 76 83 84 83 82 83 82 81 80 79 79
59 63 62 59 61 61 63 74 74 72 72 72 71 68 65 66 67 67 65 65 66 66 66 64 63 64 65 65 66 66 67 67 68 69 69 69 69 69 69 69 70 71 71 70 70 70 69 71 72 72 71 70 68 69 73 73 72 71 70 69 69 70 71
50 44 61 58 58 60 60 68 72 73 73 71 70 68 67 67 68 68 68 67 66 66 65 64 63 63 64 64 64 65 65 65 66 68 67 67 68 67 67 67 68 69 69 69 68 68 67 69 71 72 71 70 70 70 71 73 73 72 71 70 70 70 71
51 51 57 59 61 61 60 63 68 68 69 70 70 69 69 69 69 69 68 68 66 67 65 65 64 64 64 63 63 64 64 64 64 65 66 67 67 68 68 68 69 68 67 67 68 67 67 68 70 71 70 70 70 71 71 71 72 72 70 70 70 70 71
54 58 60 60 61 61 61 62 69 69 69 69 70 70 69 69 68 67 68 68 66 66 65 66 65 64 63 64 63 63 63 63 63 63 65 66 66 67 67 66 68 68 69 68 68 68 68 70 71 71 71 71 71 71 71 72 72 71 69 70 73 73 75
48 50 53 56 51 51 55 60 64 66 67 67 66 67 67 67 66 66 65 66 67 67 66 64 64 62 62 64 64 63 63 63 63 64 65 66 66 67 68 68 67 68 68 68 68 68 68 70 71 71 71 71 72 73 73 72 72 70 71 72 75 76 76
48 55 57 58 57 57 57 58 63 66 67 67 65 64 64 65 65 65 64 63 63 63 64 66 64 62 62 63 65 65 64 63 64 65 66 67 69 68 69 68 68 68 68 69 69 69 69 70 71 72 71 71 71 72 71 71 72 72 73 73 74 76 76
55 57 59 59 57 56 58 61 62 63 64 66 65 66 66 65 65 65 64 64 62 62 63 64 65 64 63 64 65 64 65 66 65 65 67 69 69 68 68 68 67 68 67 67 68 68 70 71 71 71 73 74 75 75 75 74 75 75 74 73 74 75 75
52 59 59 60 59 59 60 61 61 63 65 65 64 64 65 65 66 66 64 63 64 64 62 62 64 65 64 64 65 64 64 65 66 67 67 67 68 67 67 68 69 69 69 68 68 68 69 71 72 74 74 74 74 76 76 77 77 76 76 75 75 74 74

ECMWFFLT2_sfc_temp_012.txt.gz
Temp
79 78 82 80 80 62 66 72 65 65 72 73 59 56 62 62 57 55 51 62 58 62 71 73 75 80 80 82 83 84 83 84 84 84 84 84 85 86 86 85 85 84 84 84 85 85 85 85 84 84 83 83 82 81 81 80 80 80 80 80 80 80 80
80 84 81 83 83 73 66 66 68 73 78 77 66 53 57 55 48 51 60 61 54 60 54 67 72 72 77 79 80 83 83 84 83 84 85 84 85 85 86 86 86 85 85 84 86 86 86 86 85 84 84 84 83 83 82 80 80 79 80 80 80 80 80
79 83 80 76 82 84 76 69 76 73 55 58 57 56 52 50 50 47 54 59 58 60 58 65 68 71 74 76 78 81 81 82 83 84 85 85 86 86 85 86 85 85 85 85 85 86 87 86 85 85 85 85 84 83 83 83 81 81 81 82 82 81 81
78 78 76 64 70 79 81 77 72 77 64 65 56 60 52 54 51 52 49 54 52 61 61 64 71 72 76 78 78 79 82 83 84 85 85 85 85 85 86 86 86 86 86 86 87 87 87 86 85 85 86 86 85 84 83 83 83 82 82 81 81 81 81
75 66 69 69 72 68 70 72 68 68 70 68 72 63 65 52 43 41 48 50 51 55 64 73 75 75 74 79 79 80 83 84 85 86 87 86 86 87 87 86 86 87 87 88 88 88 88 88 86 86 86 86 85 85 83 83 82 82 81 82 82 81 81
65 69 75 77 77 77 73 72 69 71 65 57 59 57 69 66 55 42 46 53 50 61 74 74 76 80 81 78 81 82 84 86 86 87 88 88 87 87 88 88 88 88 88 88 88 88 87 87 86 86 86 86 86 85 84 84 84 83 82 82 81 81 81
67 70 76 81 83 81 79 77 72 74 66 58 57 46 45 59 61 58 54 53 61 66 75 79 76 76 78 78 81 82 84 86 87 87 89 89 88 89 90 89 89 89 88 88 87 86 86 86 85 85 85 86 86 85 85 84 84 83 84 83 83 82 81
71 75 77 76 80 81 77 77 78 74 69 69 59 49 49 59 52 58 54 55 60 66 67 71 75 74 77 73 78 81 85 85 87 87 88 87 87 88 90 91 90 89 89 87 85 84 84 84 84 84 85 86 86 86 86 85 84 84 84 84 83 82 81
56 66 69 69 73 77 74 73 76 77 77 74 67 63 55 58 57 58 53 53 56 64 69 80 82 77 78 77 77 81 83 83 85 86 86 87 87 88 89 88 88 88 88 84 83 83 83 83 84 84 84 85 86 86 86 85 85 85 85 85 84 83 82
46 46 50 54 59 67 73 75 75 77 76 71 64 63 57 48 48 56 53 57 46 55 65 78 83 83 76 73 71 77 81 83 85 86 86 86 86 85 86 86 86 86 85 84 82 82 82 83 84 83 84 85 86 86 86 87 86 85 85 85 85 83 83
57 59 57 59 63 68 67 71 73 74 77 76 72 61 54 57 45 55 51 52 56 67 70 71 80 82 83 80 76 74 77 78 77 78 83 85 85 85 86 85 86 85 81 82 82 82 83 84 84 84 85 85 86 85 86 87 87 86 85 85 84 83 83
67 68 66 70 71 69 72 71 71 74 74 75 71 64 62 54 55 56 54 49 61 63 64 68 72 79 79 75 72 74 72 75 79 77 77 84 85 86 86 85 84 82 81 82 81 81 83 83 84 85 85 86 86 85 86 87 87 86 86 85 84 83 82
70 72 72 74 72 70 72 74 73 71 73 73 70 67 66 61 64 60 57 51 59 62 67 69 71 73 72 73 75 76 77 74 72 75 79 80 82 84 85 84 83 82 81 80 81 82 82 84 84 84 85 85 85 86 87 87 88 87 86 85 84 83 82
64 71 72 74 73 72 69 71 73 74 73 72 73 72 71 66 62 64 58 53 61 62 71 74 76 74 74 73 71 72 73 73 74 75 76 82 84 84 83 83 83 82 82 82 81 81 81 83 83 84 84 84 85 85 86 87 87 88 86 85 83 83 82
58 68 72 73 73 72 69 70 72 73 73 73 74 74 73 69 67 64 62 60 62 63 63 69 70 70 69 72 72 77 74 72 74 75 77 79 80 81 80 81 83 83 83 82 81 81 81 82 83 84 84 85 86 87 87 88 87 88 87 84 84 83 82
51 64 69 71 72 72 69 67 68 70 71 69 71 69 72 68 61 61 61 56 60 60 63 68 79 70 71 74 71 72 73 74 72 75 77 78 78 77 79 78 79 78 79 79 79 80 82 83 84 84 83 85 85 86 87 88 89 88 87 85 84 83 83
46 56 63 69 70 67 63 64 68 68 71 73 76 76 74 73 68 63 59 60 61 67 69 70 74 77 72 71 69 70 71 69 73 76 77 78 79 80 79 78 78 80 81 80 80 82 83 84 85 85 85 85 84 86 86 87 88 88 87 86 85 83 83
48 56 58 64 62 53 57 73 75 73 71 69 70 72 74 76 75 68 69 70 63 65 65 69 71 75 70 67 69 70 71 73 72 74 78 80 81 82 82 82 82 83 83 83 83 84 84 85 87 88 87 87 87 88 88 88 87 87 86 86 85 83 83
47 54 56 51 50 54 69 70 74 77 76 73 69 65 65 67 70 69 65 64 63 64 70 72 68 65 70 72 72 75 76 76 75 74 75 78 80 81 81 81 83 82 82 83 82 82 84 86 87 87 87 87 88 88 87 86 86 85 85 85 84 83 82
50 49 49 44 49 61 67 72 75 73 76 72 70 63 65 65 65 64 65 67 66 67 67 66 68 71 71 72 72 72 74 75 77 78 78 76 77 81 83 82 83 82 84 83 84 83 85 85 86 88 88 89 88 88 88 87 86 85 85 84 84 83 82
44 46 50 50 56 63 63 67 67 69 66 66 67 53 60 64 64 65 66 63 66 67 68 67 69 68 72 69 70 73 74 73 74 78 79 81 80 80 82 86 85 86 87 85 86 84 84 85 86 87 89 89 88 88 87 87 85 85 85 84 84 83 82
52 46 44 49 52 50 51 61 70 71 72 74 69 65 55 63 66 66 64 64 64 66 66 64 63 67 71 61 63 70 74 76 76 75 77 79 79 78 82 82 84 86 86 87 87 88 87 86 87 88 89 88 86 85 85 86 85 84 84 84 84 83 83
48 45 43 46 47 49 56 59 66 73 75 74 71 62 50 59 64 64 64 63 62 63 66 64 62 62 54 57 61 69 72 73 74 73 75 76 77 77 77 79 84 83 83 85 87 85 85 85 86 86 86 86 85 84 84 85 84 84 84 85 85 84 84
46 45 42 46 52 48 55 61 61 65 71 73 69 50 48 58 63 64 65 63 62 62 62 67 65 61 56 57 63 70 72 72 71 70 69 70 72 74 76 76 75 78 82 81 82 84 84 84 86 85 85 84 84 83 84 85 85 84 85 86 87 87 86
44 46 44 46 52 58 60 60 61 66 70 70 55 42 55 62 63 64 64 64 63 64 64 64 62 61 63 65 67 71 70 70 69 70 70 69 70 71 73 74 75 73 78 82 84 86 86 86 86 87 86 85 84 83 84 84 84 86 87 88 87 87 86
39 42 42 44 51 57 61 62 61 69 70 58 47 56 63 63 62 64 65 64 64 64 64 63 63 64 66 68 67 67 68 67 67 67 68 69 70 72 70 72 73 73 73 73 73 72 71 75 77 78 80 82 83 84 83 83 85 88 88 87 87 87 85
46 44 42 38 33 50 63 59 61 65 55 54 62 63 64 65 63 63 62 63 64 64 62 63 63 63 64 65 64 64 65 66 66 66 66 66 66 66 67 69 70 73 71 70 70 70 72 74 75 76 79 80 76 73 74 75 78 80 82 84 85 85 84
41 41 37 38 50 55 62 59 50 57 60 64 64 64 60 63 62 61 61 61 62 63 62 61 61 62 62 62 63 63 64 65 65 66 66 66 66 67 68 69 68 70 68 68 69 70 71 72 72 72 72 69 70 71 70 73 76 78 79 80 80 79 78
47 44 49 53 56 57 61 61 60 62 66 65 65 64 62 61 60 61 61 60 62 62 62 61 61 60 61 61 62 62 62 63 64 65 66 66 66 66 65 66 67 67 66 66 68 69 70 70 72 71 71 70 68 68 69 72 75 76 77 78 78 77 76
55 58 55 58 58 58 58 61 62 62 65 67 65 63 61 61 61 62 61 61 61 61 61 61 59 59 59 60 61 62 62 62 62 64 65 66 67 66 66 66 66 66 66 66 68 68 69 69 69 70 71 71 68 68 70 70 72 74 75 74 73 73 73
48 42 57 56 56 58 58 58 61 62 63 64 65 62 62 62 63 63 63 62 62 62 61 61 59 59 60 60 60 60 61 61 61 62 63 64 64 64 64 66 66 66 66 66 67 68 67 68 69 68 68 69 69 69 69 70 70 70 71 72 72 72 72
49 48 54 55 58 59 59 57 56 56 58 62 64 63 63 63 63 63 62 62 61 62 61 60 60 60 60 60 59 60 60 60 61 61 62 63 64 65 65 65 66 66 67 67 67 67 67 68 68 68 68 68 69 70 70 71 71 71 70 70 70 71 71
52 56 56 55 57 58 58 58 58 58 58 59 62 64 64 64 62 62 63 63 61 61 60 60 60 60 59 59 59 61 60 61 61 62 63 64 64 64 65 65 66 66 67 67 68 68 67 68 68 68 68 68 69 69 70 71 71 70 69 69 70 69 69
46 48 50 53 49 49 53 55 57 58 59 60 61 63 63 62 61 61 61 61 62 62 61 60 60 59 59 59 60 61 61 61 61 62 64 64 65 65 66 67 67 67 68 68 67 68 68 67 67 68 68 68 69 70 70 70 70 69 69 69 70 69 69
45 53 54 55 55 55 54 55 58 59 60 60 60 60 61 62 62 62 61 60 60 60 61 62 61 60 59 60 61 61 61 61 61 62 63 64 64 65 66 66 67 67 68 69 69 68 68 68 67 68 67 68 68 70 70 70 70 70 70 68 69 69 69
54 56 56 57 55 53 55 57 58 58 59 59 60 61 62 61 61 62 61 60 59 58 60 61 61 61 61 61 62 61 61 62 62 62 63 65 65 65 65 65 65 66 66 67 67 67 68 69 68 68 67 68 67 70 70 70 70 70 70 68 68 68 68
51 57 57 58 58 56 57 57 58 59 60 61 60 60 62 61 62 63 61 60 60 60 59 60 60 61 62 62 62 61 61 62 63 64 64 64 65 65 66 65 65 65 65 66 67 66 66 66 67 69 68 68 68 69 69 70 70 69 69 69 69 68 68

ECMWFFLT2_sfc_temp_015.txt.gz
Temp
71 73 76 74 75 58 61 66 60 64 65 66 55 53 54 53 49 51 48 57 55 57 67 69 70 75 76 78 80 82 82 82 80 79 81 81 82 82 82 82 82 82 82 82 83 83 83 83 82 82 81 81 81 80 79 78 79 79 79 79 79 79 79
74 77 75 76 78 69 62 61 65 67 70 71 61 49 52 52 46 48 53 56 53 58 52 60 68 68 73 74 77 81 81 81 77 79 80 81 82 83 83 83 83 83 83 82 83 84 84 84 83 82 82 82 82 81 81 79 79 78 79 79 79 79 79
72 77 74 69 74 78 74 67 71 69 51 56 52 51 49 45 46 45 44 51 54 56 55 62 63 67 71 71 73 76 78 79 78 79 80 81 83 83 83 83 82 82 83 83 83 84 85 85 84 84 83 83 82 82 82 81 80 80 80 80 80 80 80
72 72 69 60 67 72 75 71 68 69 61 61 54 56 45 51 44 45 46 50 57 59 60 62 69 67 71 73 72 74 78 79 80 80 81 81 81 82 83 84 84 84 84 84 84 85 85 85 84 84 84 84 83 83 82 81 82 81 80 80 80 79 80
69 60 63 64 67 65 66 64 65 63 64 62 68 57 60 52 43 40 45 46 56 55 61 67 69 69 70 73 73 75 78 80 81 82 83 82 82 82 83 84 84 84 85 85 85 86 86 86 86 85 85 84 84 84 82 82 80 80 80 80 80 80 80
59 61 69 73 72 73 69 68 65 68 63 54 56 53 63 54 51 42 43 50 56 51 67 73 71 70 71 71 74 75 77 80 81 83 84 84 83 83 84 85 86 86 86 86 86 86 86 86 85 84 85 85 84 83 83 83 82 81 81 80 80 80 80
63 67 72 76 78 76 75 72 68 68 62 55 54 44 50 54 59 54 50 48 58 62 68 72 74 73 74 74 74 76 77 79 81 83 85 85 85 84 85 86 87 87 86 86 85 84 84 84 84 84 84 84 84 84 84 83 82 82 82 82 81 80 80
64 68 70 69 71 75 71 72 72 69 64 65 64 62 51 56 49 54 50 51 55 64 67 69 74 72 74 72 72 75 78 78 81 82 84 84 83 84 86 87 87 87 87 86 84 83 82 83 83 83 84 84 85 84 84 84 83 83 83 83 82 81 80
54 59 61 64 67 68 66 67 71 72 71 69 65 56 48 57 54 55 50 50 56 60 59 67 70 72 77 73 71 74 76 77 79 81 81 82 82 83 84 84 85 85 85 83 82 82 82 82 83 83 83 84 84 84 84 84 84 84 84 83 83 81 81
41 43 45 48 54 60 63 66 69 72 72 68 61 62 52 52 48 54 52 53 44 51 59 67 70 71 70 70 70 73 76 77 79 80 81 81 81 81 82 83 84 83 83 83 81 81 81 82 83 82 82 84 84 84 84 85 84 84 84 84 83 82 81
44 46 47 54 55 60 63 67 67 69 72 74 70 63 54 54 41 52 53 51 52 64 69 65 70 69 73 77 68 69 72 73 75 76 79 81 81 82 83 83 85 83 80 80 81 81 82 83 83 83 83 83 84 83 84 85 85 84 84 83 82 82 81
50 54 52 58 59 61 67 66 67 69 69 70 69 63 60 52 50 53 49 44 58 60 60 63 65 68 69 72 75 69 68 70 74 76 75 79 80 82 83 84 83 81 80 80 80 81 82 82 83 83 83 84 83 83 83 84 85 84 84 83 82 81 81
53 55 56 58 59 60 65 68 68 68 68 68 66 66 59 59 62 60 53 49 57 57 60 66 67 69 71 74 75 73 72 71 69 71 75 76 79 81 82 82 82 81 80 79 80 81 81 82 82 82 82 83 83 83 84 84 85 84 84 83 82 81 80
51 54 55 58 58 60 63 66 69 70 70 68 69 69 65 65 63 64 59 53 62 64 67 65 68 67 70 71 67 65 68 73 70 72 74 78 80 81 81 81 82 80 81 81 80 81 80 81 81 82 82 82 83 83 84 84 84 85 83 82 81 81 80
47 52 56 58 57 57 57 64 67 70 71 71 71 71 68 65 66 67 57 53 58 62 65 74 74 73 68 67 68 72 72 70 69 70 73 76 78 80 81 81 81 81 81 81 80 79 79 80 81 82 82 82 83 84 84 85 84 85 84 82 81 81 80
42 51 53 54 56 57 56 58 63 65 68 66 69 67 70 62 60 61 56 53 56 60 64 63 65 65 66 68 66 65 68 70 68 69 72 75 76 78 80 80 80 79 80 80 79 79 81 81 82 82 82 82 82 83 84 84 85 85 83 82 81 81 81
38 48 52 52 54 54 54 58 64 67 67 69 71 71 72 71 70 63 61 65 65 68 69 65 66 68 67 64 62 62 63 63 65 68 69 72 75 77 79 80 79 80 81 81 81 82 82 82 82 83 84 83 82 83 83 84 85 84 83 83 82 81 81
39 47 50 52 47 40 51 67 71 70 68 67 65 67 68 69 70 70 73 74 72 69 63 65 67 71 68 63 65 65 66 63 63 65 67 70 72 73 75 77 80 80 80 81 82 83 83 83 84 85 85 84 84 85 85 84 84 83 83 83 82 81 80
38 46 47 43 36 42 59 62 70 74 74 68 67 65 64 67 64 64 65 65 67 66 68 68 67 63 64 65 64 65 65 65 66 67 69 67 68 70 70 71 76 78 79 80 80 80 82 83 84 84 84 85 84 84 84 83 83 82 83 82 81 81 80
43 41 40 33 35 50 60 63 63 62 68 68 65 60 60 59 59 59 61 61 64 61 60 61 63 66 65 65 65 65 67 66 65 67 69 69 70 74 73 72 72 72 77 80 80 81 83 83 83 85 85 86 85 85 85 84 83 83 82 81 81 81 80
35 39 39 42 52 53 55 55 55 55 51 54 60 59 56 60 58 58 61 62 59 60 62 66 65 64 66 66 65 68 68 67 67 67 67 70 71 70 70 74 76 73 75 75 78 80 81 82 83 84 86 86 85 85 84 83 82 82 81 81 81 80 80
46 38 36 38 39 39 44 52 58 62 62 60 57 55 56 57 59 59 58 61 62 63 65 66 66 62 68 61 63 67 69 69 68 68 68 70 69 69 70 69 72 74 76 76 77 77 79 81 84 85 85 84 83 81 82 82 81 81 81 81 81 81 81
45 39 35 35 36 40 47 51 58 60 61 61 58 56 54 56 59 59 60 60 59 64 67 65 61 61 57 55 56 65 66 67 68 66 66 68 69 69 69 70 68 69 72 76 77 76 77 79 82 83 83 83 81 81 81 81 81 80 81 82 82 81 82
43 41 37 34 43 44 50 55 59 60 61 61 59 51 47 55 60 60 60 59 59 59 60 64 61 64 61 58 59 64 66 66 66 65 64 65 66 67 68 69 69 69 69 73 75 78 78 79 78 78 80 82 81 81 80 81 81 81 81 82 83 84 84
43 43 38 40 44 53 56 57 59 60 62 57 55 46 51 58 59 60 59 59 59 58 61 62 60 57 59 60 62 65 65 65 65 65 66 65 66 65 67 68 70 69 68 71 75 78 79 77 77 78 77 77 78 79 80 79 80 82 84 84 83 83 84
38 39 38 37 44 52 57 60 59 61 56 48 44 53 59 60 59 60 60 61 61 62 62 62 61 61 62 63 63 64 64 64 64 65 66 66 67 67 67 69 68 68 68 67 68 68 68 69 76 78 78 77 77 76 77 79 82 85 84 84 84 83 83
41 40 38 37 33 46 59 57 58 61 49 51 57 59 59 61 59 59 59 61 60 62 60 60 60 61 61 61 62 63 63 64 64 64 65 65 65 64 65 66 67 68 66 67 67 67 69 69 72 77 79 78 76 75 76 79 80 79 78 79 80 81 80
37 38 36 36 47 52 59 56 49 54 55 59 60 58 57 59 58 58 58 59 59 61 60 59 59 59 59 59 60 61 61 63 65 66 65 65 65 65 67 66 65 66 66 67 68 68 68 68 69 73 78 76 76 75 77 75 71 74 76 77 78 78 78
46 42 45 52 54 55 58 57 57 58 60 61 60 59 58 56 57 58 58 58 59 60 60 59 59 58 58 58 59 59 59 60 61 62 64 65 64 65 65 65 66 66 66 67 68 68 68 67 67 68 71 74 73 74 73 68 71 74 77 77 77 77 77
54 56 54 56 56 56 56 60 60 58 59 62 61 59 57 58 58 58 57 57 59 59 59 59 57 58 57 58 58 59 59 60 60 62 62 63 64 65 66 66 66 66 67 67 67 67 67 67 67 67 67 68 70 72 71 71 74 75 75 74 74 74 74
47 41 54 55 55 56 56 57 59 60 60 59 59 57 57 57 59 59 59 58 59 59 59 58 57 57 57 58 58 58 59 60 61 63 63 63 64 65 65 66 66 66 66 67 67 66 67 67 67 68 66 67 67 69 70 72 74 75 75 74 73 72 72
44 46 53 54 57 56 57 56 55 56 57 59 59 59 59 59 59 59 59 60 58 59 58 57 58 57 58 58 58 59 59 59 61 62 62 62 63 65 66 67 67 67 67 67 67 67 66 67 68 67 67 67 67 67 68 69 70 73 74 74 74 74 74
50 53 53 54 55 57 57 58 58 57 57 57 59 60 59 60 59 60 60 60 59 58 57 57 58 58 57 57 58 59 58 59 59 60 61 61 62 63 65 66 67 67 67 67 67 67 67 68 68 67 67 67 67 67 68 69 69 69 69 70 73 74 73
45 46 48 52 48 48 53 55 57 58 59 60 59 59 59 59 58 58 59 59 60 60 59 58 58 57 57 57 58 59 59 59 59 60 61 62 63 63 64 66 66 67 68 68 67 67 67 67 67 68 68 68 68 69 68 68 68 68 69 68 68 68 69
44 52 53 54 54 53 53 55 57 59 60 59 58 58 58 59 59 59 59 58 58 58 58 59 59 58 58 58 59 59 59 59 60 60 61 62 63 63 64 65 65 66 66 67 67 66 66 67 67 68 68 68 68 69 69 69 68 68 68 68 68 67 67
52 54 54 55 54 51 54 57 58 57 58 59 59 59 59 59 58 59 59 58 58 57 58 58 59 59 59 59 60 59 59 60 60 61 62 63 62 63 64 64 65 65 66 66 66 65 66 66 66 67 68 69 68 70 70 69 69 68 68 66 65 65 65
50 55 56 56 56 56 56 57 58 58 59 60 58 59 59 59 59 60 58 58 58 59 58 58 58 59 60 60 60 59 59 60 61 62 62 63 63 63 64 64 64 65 65 66 66 66 66 66 65 66 66 68 68 69 69 70 70 69 68 67 67 66 66

ECMWFFLT2_sfc_temp_018.txt.gz
Temp
69 71 71 69 71 54 56 62 56 60 63 63 52 50 51 51 47 45 44 52 54 57 62 67 67 67 72 74 76 77 77 79 78 77 78 79 80 80 80 80 80 80 80 80 81 81 81 81 81 80 79 79 79 79 78 77 77 78 77 77 77 77 77
68 71 74 71 74 64 59 56 61 63 68 65 56 44 46 47 41 42 48 51 48 53 53 57 65 65 69 70 72 76 77 78 77 77 77 78 79 80 81 81 81 81 81 81 82 83 83 82 82 81 80 81 80 80 80 78 78 77 78 78 78 78 77
67 68 69 64 70 71 68 63 67 66 47 50 50 51 44 40 41 38 40 43 50 53 55 55 62 64 67 68 70 73 75 76 77 78 79 79 80 80 80 80 80 80 81 81 81 83 84 83 82 82 82 82 81 81 81 81 79 80 80 80 79 78 78
64 66 67 55 61 66 69 65 65 64 58 53 47 52 41 46 39 43 38 43 53 56 59 61 64 66 68 69 68 70 75 77 78 79 81 80 78 79 81 81 82 82 82 83 83 83 83 83 83 83 83 84 83 82 81 81 82 80 80 79 79 78 79
63 55 59 61 63 60 61 60 59 59 60 58 63 52 56 47 40 38 40 42 54 56 61 67 68 68 69 71 70 70 74 77 79 80 81 81 79 79 81 82 82 82 83 84 84 84 85 85 84 85 84 83 83 84 82 82 80 80 81 81 80 79 79
53 55 64 69 68 69 65 63 61 62 58 52 51 46 59 52 49 38 38 48 53 53 62 70 70 70 71 71 72 73 74 76 77 80 81 81 79 80 81 82 84 84 83 84 85 85 84 84 84 84 84 84 84 83 84 83 83 82 82 81 80 79 79
55 60 66 71 74 73 71 68 64 66 59 52 49 41 46 51 54 48 47 45 56 59 64 67 70 69 71 72 72 73 74 75 77 78 81 81 81 81 82 83 84 84 84 83 84 83 82 83 83 84 84 84 84 84 84 83 83 82 83 83 82 80 79
57 63 63 65 66 67 65 67 67 64 62 63 60 57 48 50 45 51 47 47 52 59 62 68 71 71 72 71 70 73 75 75 75 76 78 79 78 79 82 83 84 84 84 83 81 80 80 81 81 82 83 84 84 84 84 84 83 83 83 83 83 81 80
51 55 59 60 60 64 60 60 65 66 66 66 65 61 46 54 51 54 48 48 51 63 54 62 63 66 70 70 69 69 73 73 73 73 74 76 77 78 79 78 80 81 82 80 79 80 79 80 82 82 83 83 84 83 84 84 84 85 84 84 83 82 81
39 39 40 43 47 49 51 57 61 66 66 63 58 58 51 49 47 52 46 54 41 49 53 62 64 64 65 68 69 69 68 69 71 71 72 74 75 75 76 77 77 79 79 80 79 79 79 81 82 81 81 83 84 84 84 85 85 84 84 84 84 82 81
38 40 40 48 51 50 48 53 54 57 65 67 66 60 52 53 42 52 53 55 46 60 64 61 66 64 66 71 70 69 70 70 69 67 70 73 74 75 77 77 78 77 76 77 78 78 81 82 82 82 83 83 84 82 83 85 85 84 84 83 82 82 81
45 48 47 51 52 48 50 50 53 57 59 64 63 60 57 50 49 50 54 50 58 57 58 61 62 65 64 66 67 67 67 68 71 69 66 71 71 72 73 74 74 75 76 77 77 78 80 81 81 82 83 84 83 83 83 84 85 85 84 83 82 81 80
48 49 50 52 51 52 52 54 55 54 57 59 61 61 58 56 59 56 55 50 54 56 59 64 64 66 69 71 72 72 70 67 65 66 69 70 72 73 74 73 74 75 76 76 77 78 79 81 81 81 82 82 82 82 84 83 85 85 84 82 81 81 80
46 48 50 51 50 51 52 52 54 56 57 58 61 63 64 61 59 59 59 52 58 62 65 65 68 67 70 69 66 65 65 68 67 68 68 72 73 73 74 75 76 75 77 78 78 78 77 79 80 81 81 81 82 83 83 84 83 85 83 82 80 80 80
43 48 50 51 51 50 49 52 53 55 56 57 60 63 65 61 61 63 61 52 53 60 62 70 69 62 63 64 66 70 67 66 66 65 69 71 72 74 73 73 75 76 77 78 77 76 76 78 79 80 81 81 83 84 84 85 83 85 84 81 81 80 79
39 46 47 49 50 50 49 49 52 54 55 54 60 59 64 61 57 58 60 59 56 58 63 61 63 63 63 66 67 66 66 65 64 65 68 69 70 71 73 73 72 73 75 77 77 77 78 80 80 81 80 82 82 83 84 84 85 85 84 82 81 80 80
33 44 47 47 48 48 49 53 56 57 58 61 63 65 64 67 67 61 59 62 63 64 65 66 68 70 70 66 67 67 64 58 62 66 68 70 71 71 69 69 71 74 77 79 78 80 81 81 81 83 83 83 81 83 83 84 84 84 84 83 81 80 80
33 44 45 47 42 35 44 54 56 56 56 58 59 62 65 64 66 68 70 70 67 65 63 66 71 70 71 72 65 60 64 61 59 61 64 67 68 68 69 70 72 73 75 78 80 81 80 81 84 85 84 84 83 85 85 84 83 82 82 82 81 80 79
33 41 43 38 33 40 51 58 60 58 57 55 54 59 65 68 66 66 65 64 63 64 68 71 73 73 63 61 63 64 64 61 61 61 62 62 64 65 67 67 70 71 72 74 75 77 80 82 82 82 83 84 84 84 83 82 82 80 80 80 80 80 79
39 37 34 30 34 46 55 57 57 60 57 56 55 56 61 65 64 60 63 65 65 62 64 67 65 62 63 63 63 63 64 64 63 62 62 64 65 65 66 66 67 68 72 74 77 77 79 79 81 82 83 85 84 84 84 83 81 81 80 80 80 79 79
32 33 34 37 47 48 50 48 51 53 49 51 51 45 50 56 54 57 62 64 64 62 62 65 60 62 63 63 65 65 65 64 64 64 64 66 65 66 66 67 67 68 70 73 75 75 76 78 80 82 84 85 84 83 83 82 80 80 80 79 79 79 79
43 35 33 34 33 33 40 50 55 58 59 57 56 51 49 55 56 57 57 60 63 61 58 60 61 62 67 61 64 66 65 66 65 65 65 66 66 66 67 67 68 68 68 71 74 78 76 77 80 81 83 82 80 80 80 81 80 80 79 79 80 79 80
38 37 32 31 32 37 44 47 54 58 58 58 55 50 46 53 56 58 57 57 59 60 62 60 61 65 64 60 61 63 63 65 66 64 64 66 66 66 66 67 67 68 68 68 73 75 76 77 77 78 79 80 79 79 79 79 79 79 79 80 80 80 80
39 37 34 34 38 41 46 52 55 58 60 58 53 44 42 52 57 59 58 57 59 60 62 63 65 68 62 62 64 63 65 65 65 64 64 64 65 66 67 69 68 68 68 70 72 74 75 75 76 77 78 78 78 78 78 80 80 80 80 81 81 82 82
40 43 36 40 41 48 52 53 56 59 60 56 46 42 48 54 57 60 59 59 59 57 60 64 67 61 62 63 63 64 64 64 64 66 66 65 65 66 67 67 69 68 68 68 68 68 69 72 76 77 77 78 77 77 77 78 78 81 82 82 81 81 80
36 38 36 36 41 48 53 56 57 60 56 44 42 53 57 58 58 60 61 59 59 59 59 59 61 61 63 64 65 64 64 63 64 64 65 65 65 66 67 67 67 68 68 68 68 69 68 68 72 76 76 76 76 75 75 77 79 82 82 81 80 79 79
41 40 37 36 33 45 55 54 55 58 49 50 55 56 58 60 58 57 58 59 58 61 60 61 61 61 62 63 62 62 63 64 63 63 64 64 64 64 65 65 66 67 67 67 68 68 68 69 69 71 76 75 74 74 75 77 79 79 79 79 78 78 78
36 36 35 36 44 49 55 55 48 54 55 58 58 57 55 59 58 57 57 59 59 60 60 59 60 60 59 59 60 61 61 62 63 64 64 65 65 65 66 66 66 66 66 67 67 67 67 67 68 68 69 71 73 73 75 76 78 77 78 78 77 77 77
42 41 44 48 51 53 55 56 55 57 59 60 59 58 58 58 59 60 58 57 59 59 59 58 57 57 58 58 59 60 61 62 62 63 64 64 65 65 65 65 66 66 66 66 66 66 67 67 68 67 67 68 68 69 69 70 72 74 77 77 76 77 77
49 51 51 53 53 53 54 57 58 57 59 60 60 58 56 58 59 60 58 58 57 57 58 57 57 57 57 59 60 61 62 62 63 64 64 65 66 66 66 66 66 67 67 67 66 66 66 67 67 67 67 67 66 67 68 70 71 71 72 74 74 75 76
42 38 53 52 52 53 55 56 58 60 60 59 59 58 57 56 57 58 58 58 58 57 58 58 58 59 60 60 60 61 62 62 62 63 63 64 65 65 66 66 67 67 67 66 66 66 66 67 68 68 68 68 68 68 68 69 70 70 71 71 72 73 73
41 43 50 52 54 53 55 55 55 56 58 59 59 59 59 58 59 58 58 58 58 59 58 58 59 58 59 59 59 60 61 61 62 62 63 63 64 65 66 67 68 68 68 67 66 66 66 67 68 68 69 68 69 69 69 70 70 70 69 69 70 71 72
41 46 50 53 53 54 55 56 57 57 58 58 58 59 59 59 58 58 59 59 58 57 57 58 58 57 57 58 59 60 60 61 61 62 62 63 64 64 65 66 67 67 67 67 67 67 67 68 68 68 68 69 69 69 69 70 70 69 69 69 70 70 70
37 38 45 52 47 45 51 54 57 58 59 59 58 58 59 58 57 57 58 59 60 60 59 58 58 57 58 59 59 60 60 60 61 62 63 63 64 64 65 66 67 67 67 67 66 66 66 66 67 67 68 68 69 70 70 70 70 69 69 69 69 69 69
38 47 51 52 52 51 53 55 57 58 59 59 57 56 57 58 58 58 57 57 57 58 59 59 59 58 58 59 60 60 61 60 60 62 63 63 63 64 65 65 65 66 66 67 67 66 66 66 66 66 67 68 68 70 69 70 70 70 70 69 68 67 67
48 50 50 50 52 51 53 56 57 57 58 58 58 58 58 58 58 59 58 57 56 56 58 59 60 59 59 59 59 59 60 60 60 61 62 63 64 65 65 65 65 65 65 66 65 65 66 66 66 66 66 67 68 70 70 70 70 70 69 68 67 66 66
45 52 54 54 53 54 56 57 57 57 59 59 57 58 58 58 59 59 57 57 58 58 57 58 59 60 59 60 59 59 59 60 61 62 63 63 64 64 64 65 64 64 65 66 66 67 67 67 67 67 67 66 67 68 69 69 70 69 69 68 68 67 67

ECMWFFLT2_sfc_temp_021.txt.gz
Temp
77 78 79 77 79 60 69 71 63 67 78 72 64 62 64 63 60 57 68 65 70 79 80 83 84 82 83 86 87 87 87 88 86 86 87 87 87 87 86 86 86 85 86 85 85 85 86 86 85 85 83 84 83 83 83 82 82 83 82 81 82 82 82
77 83 81 79 80 80 71 63 70 78 80 77 66 56 59 58 54 58 64 62 65 66 63 79 82 81 84 84 84 87 86 87 86 86 86 86 87 87 87 86 86 86 86 86 87 88 88 87 87 85 83 85 84 84 84 83 82 81 82 82 82 82 81
75 79 80 74 80 82 75 72 82 69 58 57 64 61 50 51 52 55 60 64 65 68 68 76 75 78 81 82 83 84 85 86 86 87 87 87 88 88 87 87 86 86 87 87 86 88 90 89 86 86 86 86 87 86 86 87 84 85 84 85 84 83 83
73 75 75 62 68 76 77 80 74 80 72 65 58 61 62 61 55 54 57 60 60 71 73 79 79 79 82 85 83 83 86 88 88 88 90 88 86 86 87 88 88 88 88 89 90 89 90 89 88 89 89 89 89 88 86 86 87 85 85 84 83 82 84
73 64 70 68 70 66 68 70 69 70 71 75 73 68 64 60 56 56 56 56 65 73 81 81 81 83 83 84 84 82 84 88 90 90 90 89 87 86 87 88 88 89 89 91 91 91 91 92 91 91 91 90 90 90 89 88 86 86 86 86 85 83 84
65 69 75 77 76 76 72 71 68 70 68 62 58 56 69 67 61 52 56 55 67 77 80 82 84 86 87 86 85 85 87 88 88 89 91 90 88 87 88 90 91 91 90 90 92 91 91 91 91 91 91 91 91 90 90 90 89 88 88 86 84 83 84
67 72 76 81 81 80 78 76 72 75 74 71 63 53 58 65 67 68 65 59 64 80 78 82 85 87 89 89 87 86 88 88 90 89 92 91 89 89 90 90 92 92 90 90 90 89 88 89 89 91 91 91 91 91 91 91 90 89 90 89 87 84 84
70 74 76 76 77 76 73 75 78 75 71 72 69 67 67 63 64 60 62 56 66 77 77 82 86 85 88 87 87 85 89 89 89 87 88 87 87 87 89 90 92 91 91 89 88 87 86 86 87 89 90 90 91 91 91 92 91 91 91 91 89 85 84
59 65 72 73 73 74 70 70 74 75 76 76 75 73 64 63 64 65 61 54 65 76 75 76 78 81 84 86 87 85 85 86 87 87 86 86 85 85 87 87 88 88 90 87 85 86 84 85 88 88 89 89 91 90 91 92 92 92 91 91 90 88 87
45 45 48 55 61 63 62 64 65 68 71 72 69 63 61 56 63 65 62 63 70 77 74 76 78 79 79 83 86 87 84 82 85 86 84 82 82 82 84 85 86 86 85 85 84 84 84 86 88 86 86 89 91 91 91 93 92 92 92 92 91 88 88
54 52 50 53 55 59 60 61 62 63 66 68 71 69 63 58 61 62 64 67 70 73 78 77 81 79 81 84 87 86 85 85 83 80 80 82 82 82 85 84 85 84 84 83 84 84 86 89 88 88 89 89 90 88 89 92 93 92 91 90 89 89 89
52 55 55 58 57 53 56 57 60 63 62 63 63 64 62 66 63 57 65 67 67 71 76 78 78 81 80 81 83 85 83 83 84 84 80 79 82 83 82 82 82 82 82 83 83 83 86 87 88 89 90 90 89 88 89 91 93 92 91 89 88 87 86
55 57 58 59 57 57 57 58 58 59 62 61 60 60 64 65 64 61 67 67 65 71 78 81 82 81 81 85 85 86 86 85 83 79 81 83 86 86 85 82 81 82 82 82 83 84 85 87 87 88 89 89 88 88 90 90 92 92 90 88 87 87 86
54 56 58 59 56 57 57 58 59 60 61 61 62 62 65 65 62 65 68 68 69 75 79 82 85 86 86 86 83 82 82 88 84 83 82 86 88 88 86 84 84 82 82 83 82 83 83 85 85 88 88 87 89 89 90 91 90 92 90 88 86 87 86
52 56 58 58 57 56 55 59 60 61 62 62 63 64 65 65 64 67 68 65 66 76 77 80 86 86 84 80 82 87 86 86 86 85 87 87 86 87 86 84 84 83 83 83 83 83 83 83 85 86 87 88 89 92 92 92 90 91 91 87 87 87 85
50 55 55 56 58 58 58 58 60 61 61 60 63 61 66 64 62 65 67 64 66 76 78 80 80 78 77 80 81 83 83 85 82 80 84 85 84 85 86 84 83 82 83 83 83 83 86 86 86 87 86 88 89 90 92 92 92 93 91 89 88 85 86
47 54 56 55 56 57 54 57 63 64 66 67 68 69 70 70 72 66 63 66 75 78 80 79 80 83 82 80 81 82 82 79 80 81 82 85 86 86 82 80 80 83 86 86 83 86 88 88 87 89 88 89 87 89 89 90 91 92 91 91 87 85 86
47 52 54 56 51 44 49 62 62 62 62 63 61 64 67 71 73 71 74 75 78 79 79 78 79 81 82 83 83 83 83 82 78 81 82 84 85 84 83 82 83 83 83 85 87 88 87 88 91 91 90 90 89 91 91 90 90 88 88 88 87 86 85
46 51 52 48 41 46 60 62 67 66 65 63 60 61 65 68 71 73 74 76 77 78 80 81 81 82 85 84 80 82 80 77 81 82 83 78 78 78 79 78 81 81 80 81 82 84 89 91 90 90 90 91 91 91 90 90 88 86 86 86 86 86 85
51 47 47 37 44 56 61 65 64 66 65 65 62 63 67 66 66 65 66 71 76 78 79 81 82 82 82 80 75 76 78 77 79 80 82 82 80 80 81 78 77 76 79 80 83 84 87 89 91 91 91 93 93 93 93 91 88 87 86 85 86 85 84
42 46 48 47 56 55 60 61 60 62 59 59 58 55 62 64 63 62 62 64 68 71 75 79 80 78 79 78 78 78 79 76 76 78 79 79 78 78 77 78 78 77 77 78 80 81 84 89 90 91 93 94 93 93 92 91 87 87 86 85 85 84 84
50 46 44 46 46 42 52 59 64 65 65 64 62 59 57 62 63 64 62 61 65 66 70 72 74 74 74 73 78 80 79 77 76 76 76 77 77 77 77 77 78 78 78 79 81 81 85 87 90 91 93 92 89 88 88 89 88 87 86 86 86 85 86
47 45 42 43 41 48 59 59 62 65 66 65 65 58 57 60 62 63 63 62 64 65 66 68 70 71 70 73 79 82 78 77 76 76 76 77 78 77 76 76 77 78 78 77 81 83 84 87 89 89 89 89 87 86 86 87 86 86 85 86 86 86 86
44 45 43 42 49 49 58 63 63 66 68 65 62 51 55 57 61 62 63 61 62 63 64 66 68 69 70 76 79 78 77 75 74 72 73 74 75 76 77 78 78 76 77 80 82 84 84 83 86 87 88 87 86 85 86 88 88 87 86 87 87 88 88
42 41 43 48 51 59 63 63 65 67 66 64 54 47 58 60 61 63 62 62 62 62 62 65 65 71 68 67 69 73 73 73 73 74 73 74 73 73 74 75 76 77 78 78 78 78 77 79 83 86 86 87 85 84 85 85 86 88 88 88 87 87 87
40 43 41 43 51 60 65 66 67 68 63 52 53 62 61 63 63 64 64 63 63 61 61 64 68 69 69 71 72 71 72 70 70 70 71 72 73 74 74 72 75 77 77 75 76 77 77 80 82 84 84 84 83 84 84 84 86 89 88 87 87 87 86
45 43 39 39 33 55 66 64 63 66 57 59 62 62 65 65 65 64 64 64 64 62 60 63 65 67 67 68 68 67 68 69 67 67 68 68 69 70 72 74 76 77 73 72 72 74 76 78 81 84 86 82 82 83 82 79 83 86 88 88 87 86 85
39 39 35 37 51 56 60 60 56 63 64 65 64 63 63 65 66 64 62 63 63 63 62 62 64 65 65 65 66 66 66 67 67 68 69 70 70 71 73 74 74 75 72 71 71 72 73 74 76 78 81 79 78 78 75 77 80 83 86 86 86 85 85
39 42 47 54 56 57 61 60 60 64 65 66 65 64 63 63 64 64 62 61 63 64 63 62 63 63 63 63 64 65 65 66 66 67 67 69 69 70 70 71 72 72 71 70 71 71 73 72 73 74 76 75 73 71 72 76 78 81 82 84 84 84 84
50 52 53 55 57 59 60 65 65 63 65 66 66 65 64 63 63 63 61 63 63 64 65 64 62 62 63 63 64 64 65 65 66 68 68 68 69 71 72 71 71 72 73 73 72 70 71 72 72 72 73 73 71 71 74 76 78 79 81 81 81 82 83
42 37 54 55 57 59 57 59 62 65 65 65 65 64 64 64 64 64 65 64 64 63 65 65 64 64 65 64 64 64 65 65 65 66 66 67 68 69 69 71 72 72 73 72 71 71 70 72 73 73 73 73 73 74 75 77 78 79 79 79 79 79 80
40 41 50 53 56 55 56 56 55 59 64 65 65 65 66 66 66 66 66 66 65 66 65 64 65 66 65 64 64 64 64 64 64 65 66 66 68 69 71 72 73 73 72 71 71 71 70 72 73 73 73 73 74 75 76 77 77 77 77 78 79 78 79
45 48 49 51 53 54 56 59 60 61 62 64 64 65 65 66 66 66 67 67 66 66 65 65 65 64 64 65 64 64 64 64 64 64 65 66 67 68 70 71 73 72 71 70 69 70 71 72 73 73 73 74 75 76 77 79 78 76 74 75 77 78 78
36 39 46 52 46 48 56 59 61 62 64 65 64 64 64 65 64 64 65 66 68 67 66 65 64 62 62 64 64 64 64 63 63 64 66 67 67 68 70 72 72 71 70 69 69 69 70 72 72 72 73 75 76 77 78 78 78 77 76 76 76 76 77
40 49 52 53 51 50 52 55 58 60 61 63 65 62 62 63 63 64 64 64 66 66 67 67 65 63 63 63 64 65 65 64 65 65 66 67 67 67 69 71 71 70 69 70 70 70 70 71 72 73 73 74 76 77 77 77 77 77 77 75 75 75 75
49 52 52 52 48 46 52 57 59 60 61 60 64 64 63 61 63 65 64 64 63 64 66 67 66 64 63 64 64 64 66 66 65 65 67 68 68 69 69 68 68 68 70 71 71 71 73 73 72 72 72 74 75 78 77 78 78 77 76 75 74 74 75
45 52 53 53 52 53 57 58 59 59 60 59 63 64 64 63 63 64 63 64 65 65 64 65 66 67 65 66 66 66 66 67 66 66 66 66 67 66 67 67 67 67 69 71 72 73 74 73 72 71 71 71 73 76 76 78 78 77 76 76 76 76 75

ECMWFFLT2_sfc_temp_024.txt.gz
Temp
84 83 87 85 88 67 77 79 70 75 86 80 70 71 73 72 68 65 77 73 78 87 87 90 92 92 93 96 98 99 98 100 98 98 99 99 99 98 96 95 95 92 94 92 93 92 93 92 92 91 89 89 89 88 88 87 86 87 87 86 86 87 87
85 89 88 88 88 88 82 71 78 86 89 84 73 63 67 65 61 65 74 70 73 73 70 89 89 88 92 93 95 98 97 98 97 98 98 98 99 99 97 96 94 94 94 93 94 95 95 94 93 91 89 90 90 90 90 88 87 86 87 87 87 87 86
84 89 87 83 88 90 84 79 91 76 65 63 71 67 58 59 59 63 71 75 75 77 75 83 84 87 89 91 93 95 96 97 97 98 98 98 99 99 97 97 95 94 94 94 93 95 97 95 92 92 92 92 92 92 92 93 89 90 90 91 89 88 88
84 84 82 69 76 86 89 90 83 88 80 72 66 67 70 69 62 63 66 72 69 80 82 87 85 87 90 92 93 94 97 97 98 98 100 99 97 97 98 98 97 96 96 97 98 97 98 96 95 95 95 95 95 94 92 92 93 91 90 90 89 88 89
83 71 78 75 77 73 76 77 77 79 78 85 81 78 71 68 64 65 65 65 73 82 91 89 88 89 90 93 92 93 95 98 101 100 100 100 98 97 98 98 98 98 97 99 100 99 99 100 98 98 97 96 96 96 95 95 91 92 92 92 91 89 89
73 76 84 84 83 82 79 77 75 78 74 70 64 63 78 75 69 59 64 64 76 85 93 91 91 93 94 94 94 94 96 99 99 100 102 101 99 98 98 100 101 101 99 99 100 100 99 100 100 98 98 98 98 97 97 96 96 95 95 93 90 89 89
75 80 85 88 89 88 84 82 78 82 80 78 70 58 66 74 74 77 73 68 72 89 90 92 93 94 96 96 97 95 98 98 101 101 104 103 100 99 100 99 101 102 100 98 99 97 96 97 97 99 98 99 98 98 98 97 96 96 97 96 94 90 89
81 85 88 87 88 87 82 83 85 82 77 79 76 74 76 71 73 69 70 64 74 87 89 91 94 93 96 97 98 96 98 100 100 100 101 100 96 96 99 99 101 100 101 98 96 95 94 94 95 97 98 98 99 99 99 99 98 98 98 98 96 92 90
67 72 77 79 85 85 81 79 82 83 84 83 82 81 80 70 73 74 69 62 73 85 89 89 91 94 95 95 98 98 96 97 99 100 98 97 94 94 96 97 97 98 99 96 93 94 92 92 96 96 96 97 99 98 99 100 99 100 98 98 97 95 93
52 53 55 60 67 72 79 82 82 82 82 80 76 70 72 62 69 72 70 71 79 84 85 87 89 92 91 94 97 100 99 96 97 98 97 92 92 91 93 94 95 95 94 94 92 92 91 94 95 93 94 97 99 99 99 101 101 99 99 99 98 95 94
64 65 64 69 73 78 72 77 79 80 83 84 81 77 71 65 68 68 71 74 78 78 84 85 89 90 90 92 94 95 96 98 97 92 92 94 92 91 93 92 93 92 92 92 92 91 94 96 96 96 96 96 98 96 97 100 101 100 98 97 95 96 95
61 65 65 69 70 73 77 76 74 79 79 80 78 73 70 76 71 64 72 75 74 78 82 85 86 89 89 91 92 94 96 94 96 96 93 91 97 94 92 93 91 90 90 91 91 91 93 95 95 96 97 97 96 96 96 98 101 101 100 97 95 94 93
64 65 67 70 69 69 69 73 76 74 76 76 73 73 77 76 70 67 74 75 73 79 85 88 88 88 89 93 94 96 98 97 97 95 95 97 100 100 96 90 90 90 90 89 90 92 92 95 95 95 96 96 95 95 97 97 101 100 98 96 94 95 93
63 65 66 68 67 67 68 69 70 72 74 74 74 75 78 77 71 73 74 73 74 82 85 88 90 92 93 94 95 95 95 96 93 95 96 100 101 102 101 97 93 90 91 90 90 91 91 93 93 96 95 94 96 96 97 98 97 99 98 95 93 93 93
61 65 66 65 67 66 65 69 70 71 72 73 74 74 74 73 74 77 76 73 72 83 85 86 89 90 92 91 91 93 92 93 95 95 97 98 99 100 100 97 96 94 92 92 91 90 90 91 92 93 94 95 96 99 99 99 97 98 100 94 94 93 92
59 64 64 65 65 66 65 66 68 69 69 68 72 69 75 72 68 71 73 69 71 81 86 88 88 88 87 88 89 90 91 95 94 94 96 96 96 98 99 99 97 94 94 92 91 91 93 94 93 93 92 95 96 97 99 99 100 100 98 96 95 91 93
58 64 64 63 63 62 60 63 68 71 73 74 76 77 77 76 77 71 67 70 80 83 85 85 86 88 88 89 90 90 91 91 93 93 93 95 97 97 97 97 95 98 99 97 93 95 97 96 96 96 95 96 94 96 96 97 98 99 99 99 94 91 92
57 60 61 62 58 50 55 73 78 76 72 73 71 73 76 79 79 77 80 81 83 85 85 83 83 85 87 88 90 93 91 90 90 94 95 97 98 99 100 100 99 97 95 96 98 98 96 98 102 100 98 97 96 98 98 98 97 95 95 96 94 91 90
53 59 58 53 47 53 68 74 76 77 79 78 76 77 79 79 80 81 80 81 81 83 84 85 85 86 89 91 92 94 97 94 93 91 94 93 94 94 94 95 98 96 93 92 92 93 97 100 99 99 99 99 99 99 98 98 96 93 93 92 92 91 89
58 55 55 44 50 62 68 72 73 76 76 75 72 70 73 76 79 78 76 78 81 81 82 84 86 86 89 91 91 92 94 95 94 94 94 96 97 97 97 94 90 88 91 91 94 94 95 97 99 100 100 102 101 100 101 98 96 94 93 91 92 91 90
49 53 54 55 63 61 66 65 69 72 68 69 69 64 71 77 73 74 74 75 77 80 82 82 84 84 85 83 86 94 96 96 97 98 97 98 96 93 91 93 92 89 88 88 91 91 91 95 98 99 102 102 101 101 99 99 94 94 93 91 91 90 90
57 52 51 53 53 49 59 68 73 76 76 74 73 69 69 72 75 74 73 72 74 76 79 79 78 80 78 77 83 93 99 101 99 98 95 94 92 92 91 89 89 89 89 90 90 91 92 92 95 98 100 100 97 95 96 97 96 93 92 92 92 91 91
54 51 48 50 48 55 65 69 72 75 77 76 74 67 64 70 74 73 74 74 75 75 75 75 75 75 75 78 85 84 86 89 91 90 91 91 91 90 88 88 89 89 87 86 89 91 91 93 95 95 96 97 95 93 94 95 94 92 92 93 93 92 92
52 52 49 48 56 57 64 71 72 76 77 74 70 56 61 67 73 73 73 73 74 75 74 73 72 72 74 81 83 84 86 86 87 84 84 84 85 87 87 89 87 85 84 85 87 91 93 91 93 94 94 94 93 92 93 96 96 94 92 93 94 94 94
50 48 51 56 58 66 69 70 75 75 76 72 59 52 60 69 72 73 73 74 74 74 73 73 70 75 78 79 82 86 85 85 85 85 85 84 84 84 86 85 81 86 87 87 88 90 88 87 91 93 93 93 91 91 92 92 93 95 95 94 93 93 93
49 51 48 50 58 66 71 75 76 77 69 57 58 62 69 73 71 74 74 73 74 74 73 73 73 74 77 79 81 82 84 82 81 81 83 83 85 86 84 81 82 86 87 84 86 88 86 89 89 92 91 90 89 90 90 91 92 97 96 94 93 92 91
53 52 48 47 40 61 68 68 69 73 62 61 62 68 73 74 74 74 75 74 74 74 72 73 73 74 76 78 79 79 79 79 79 79 79 79 81 81 80 83 85 86 84 83 83 84 88 90 93 93 93 89 89 89 89 90 94 95 95 95 93 92 91
46 47 42 45 57 59 67 65 60 63 64 67 68 67 70 75 75 74 73 75 74 74 71 70 72 73 73 74 76 76 77 79 79 80 79 80 81 82 83 82 80 81 79 79 81 83 84 85 87 91 91 87 88 88 85 86 90 91 92 92 91 91 90
46 49 56 60 59 63 68 67 66 66 69 70 69 69 68 69 74 75 73 73 73 72 70 69 69 69 71 72 73 72 73 75 77 78 78 78 78 80 78 78 78 79 79 78 80 81 83 82 83 84 86 85 83 82 82 86 87 88 89 90 89 89 90
56 58 58 60 62 64 66 70 69 67 68 70 68 67 66 70 72 74 73 73 71 69 69 67 68 70 70 70 72 72 73 73 73 74 75 76 78 79 79 78 79 80 81 79 78 77 78 80 81 82 83 83 80 80 83 84 86 87 88 88 88 88 88
49 44 59 60 61 64 65 65 67 68 68 68 69 66 66 66 69 72 73 72 70 69 68 67 65 68 70 70 70 70 71 72 72 74 75 75 76 76 77 77 78 79 79 78 77 77 76 78 80 80 80 81 81 82 83 85 85 86 86 87 86 87 87
47 48 56 58 61 62 63 64 64 65 67 69 71 71 70 70 70 70 72 73 72 71 69 68 66 66 68 67 67 68 68 68 69 72 73 74 75 76 77 77 77 77 76 77 77 76 76 78 79 80 80 81 82 83 83 84 85 86 84 85 86 86 86
53 57 58 59 60 61 62 65 67 68 69 68 67 69 68 68 70 73 74 74 74 71 69 68 67 66 66 67 67 68 68 68 69 70 71 73 74 76 76 76 76 75 75 75 76 76 77 78 78 79 79 81 82 83 84 84 84 83 83 82 84 85 87
47 50 54 58 52 54 62 65 64 62 64 65 65 66 66 67 66 69 71 72 76 74 71 69 67 65 65 67 68 67 67 67 68 70 71 73 74 75 76 76 76 75 75 75 75 75 76 77 78 78 80 82 83 84 84 85 85 84 84 84 85 85 87
48 57 59 59 58 57 59 60 63 64 64 64 63 64 64 65 65 68 69 67 71 72 72 71 69 67 66 67 69 69 68 67 68 69 69 71 73 74 76 76 76 76 76 76 76 75 76 77 78 80 81 82 83 85 84 84 84 83 84 83 83 84 83
56 59 58 58 56 54 58 61 62 63 64 63 62 64 66 65 63 64 66 67 66 72 72 71 72 71 71 71 71 69 69 69 69 69 70 71 71 72 74 75 75 76 76 77 77 75 77 77 77 78 80 81 82 86 85 85 85 83 83 83 82 84 84
54 59 59 59 58 59 62 63 63 64 64 63 62 62 64 65 65 63 63 67 70 73 71 71 73 74 72 72 71 70 69 70 71 70 69 68 69 69 71 72 73 73 74 75 76 77 77 77 77 78 78 80 82 84 84 85 84 82 81 83 85 85 83

ECMWFFLT2_sfc_temp_027.txt.gz
Temp
89 88 91 90 94 71 82 83 74 80 90 86 76 77 82 81 76 70 82 78 82 92 92 95 95 97 98 99 100 102 101 102 100 100 100 100 102 103 101 100 99 96 98 96 96 95 96 96 95 95 92 93 91 91 90 88 88 88 88 87 88 88 88
90 94 92 92 93 93 86 75 81 91 94 90 78 68 72 69 65 70 81 76 77 77 73 91 92 92 96 97 98 101 99 100 100 101 99 99 101 102 102 99 99 98 98 97 97 98 98 97 96 95 93 94 93 93 92 89 89 87 89 89 89 89 88
89 93 91 87 93 95 88 83 95 80 70 69 77 72 63 63 62 67 75 80 80 79 77 88 87 88 92 95 96 98 98 99 99 101 102 100 102 103 102 99 99 99 99 98 96 98 100 98 95 96 96 96 96 95 94 94 91 92 91 93 92 90 90
88 88 86 73 81 90 93 95 89 92 85 76 70 72 74 73 66 65 69 76 73 84 86 90 89 90 91 94 95 97 100 100 101 101 103 102 101 101 103 104 103 100 100 101 100 100 100 99 97 98 98 98 98 97 95 94 95 93 92 92 91 90 91
87 75 81 78 81 78 80 82 82 84 83 89 85 83 75 72 68 69 69 68 75 85 95 94 92 93 93 94 94 95 98 101 103 103 103 102 102 102 103 103 101 101 101 102 102 101 102 102 100 100 100 99 99 99 97 97 94 94 94 94 93 91 91
77 79 87 87 87 87 83 82 80 83 78 75 69 67 83 79 73 63 69 68 80 92 99 96 96 96 96 98 97 96 98 102 101 102 103 102 101 101 103 105 104 104 102 102 103 102 102 102 101 100 100 100 100 99 99 98 98 97 97 95 92 91 92
79 84 90 92 93 92 89 87 83 88 85 83 75 62 70 78 79 82 79 73 76 90 95 96 96 98 100 99 100 99 100 101 104 103 106 104 102 102 103 104 106 104 102 102 102 100 99 100 99 100 100 100 100 100 100 100 99 98 99 98 96 92 92
86 89 92 91 92 92 87 87 89 87 82 84 81 79 80 75 77 73 74 68 78 90 94 96 97 96 100 99 100 98 101 103 103 103 104 102 101 102 105 105 107 104 105 102 100 98 97 97 98 99 99 99 100 101 101 101 100 100 100 100 99 94 93
74 79 83 84 89 89 85 83 86 88 89 88 87 86 85 74 77 78 73 64 76 86 92 93 96 97 98 99 101 101 100 100 103 103 103 102 100 100 102 102 103 103 101 100 97 97 95 95 100 99 99 99 101 100 101 102 102 103 101 101 100 97 96
59 58 61 65 71 77 84 87 86 87 86 85 81 74 76 66 75 77 74 74 82 87 89 91 95 96 95 99 100 103 103 100 102 103 98 96 97 96 99 100 101 101 99 98 96 96 95 98 100 97 97 100 101 101 101 103 103 102 102 103 102 98 97
69 70 70 82 84 81 77 81 84 84 87 89 85 81 76 69 74 74 76 80 77 82 87 89 93 93 93 96 98 98 99 99 97 96 97 98 95 95 98 97 99 97 97 97 96 95 99 101 100 100 101 100 101 99 100 103 104 103 101 101 99 99 98
71 72 74 78 80 80 81 82 82 85 84 85 82 77 74 79 75 68 76 80 79 82 85 88 90 93 94 96 97 98 98 98 99 98 96 95 98 98 97 97 96 95 95 96 95 95 98 99 100 100 101 102 100 99 100 101 104 104 103 100 99 97 96
77 76 73 77 79 81 81 83 83 82 84 83 80 79 83 81 75 72 77 78 77 83 88 90 92 93 92 95 97 99 99 100 99 98 98 100 102 99 99 95 94 94 94 94 94 96 96 99 99 99 100 100 99 99 100 100 104 104 102 100 98 98 96
74 74 75 76 76 77 78 81 85 86 85 83 84 84 85 84 78 82 82 79 82 88 90 93 94 95 97 97 97 97 96 97 94 96 96 100 103 104 99 97 97 94 95 94 93 94 94 96 97 99 99 98 100 100 101 102 100 104 102 99 97 97 97
70 74 75 75 74 73 73 77 80 85 85 86 86 85 85 84 84 85 83 78 79 90 93 94 95 93 94 94 93 94 93 94 96 96 98 98 100 101 102 99 98 96 96 95 94 93 93 94 96 97 98 98 100 103 102 103 100 102 104 98 98 97 95
63 70 72 73 75 75 74 74 76 79 84 80 83 81 86 83 79 80 81 74 76 87 90 91 90 91 89 89 90 91 93 96 95 95 96 97 96 98 100 101 101 97 97 96 95 95 97 97 97 97 96 99 100 101 102 102 103 104 102 101 99 95 96
60 70 73 71 72 70 65 68 75 79 79 82 86 87 86 85 85 78 72 75 84 86 87 87 88 90 91 91 92 92 93 93 94 94 94 96 98 99 98 99 99 103 103 99 96 99 101 100 99 100 99 100 98 99 99 101 101 103 103 103 98 94 95
60 70 72 72 65 56 59 78 84 80 78 79 78 79 81 84 85 82 84 84 87 87 87 86 86 88 89 90 92 95 92 92 92 96 97 98 99 99 100 100 101 101 101 102 102 103 101 103 107 105 102 101 100 101 102 101 101 99 98 99 98 95 93
61 66 66 60 53 57 74 82 84 85 84 83 80 80 84 86 86 86 85 86 85 87 89 89 89 89 91 92 93 95 98 95 95 94 96 97 97 98 98 98 100 96 96 97 98 98 102 105 104 104 105 104 102 102 101 101 99 96 96 95 95 95 93
64 63 58 48 53 69 78 81 82 85 85 84 82 79 83 85 87 85 83 85 87 87 88 89 90 88 90 93 92 93 96 98 97 98 98 99 101 100 101 97 95 94 97 95 97 97 98 100 104 105 105 107 106 104 104 102 100 97 96 94 95 95 93
54 59 61 59 66 66 71 72 73 77 74 77 76 69 75 83 87 87 84 85 87 88 88 88 89 89 90 86 87 96 97 97 100 101 101 102 102 101 99 100 97 94 94 95 96 95 96 98 101 104 106 108 107 106 103 102 97 98 97 94 94 94 93
62 57 57 58 59 54 62 72 80 82 84 84 83 76 74 84 86 87 84 80 81 82 85 86 86 84 80 79 84 93 98 98 97 98 97 99 99 98 97 95 96 96 96 95 96 96 96 96 99 101 104 104 102 100 100 101 100 98 96 95 95 94 95
60 57 54 55 53 61 72 74 78 82 83 84 80 72 67 80 85 84 82 83 83 83 83 85 82 79 75 79 85 88 92 92 95 93 93 95 95 95 95 95 95 94 91 90 92 93 94 96 98 99 99 99 100 98 98 99 98 97 96 96 96 95 96
57 57 54 54 62 62 70 77 79 81 81 81 76 58 62 75 80 81 82 82 82 82 80 80 79 77 76 80 86 88 92 91 93 90 89 89 90 92 94 96 93 89 89 90 91 94 97 94 97 98 98 96 97 97 97 100 100 98 96 96 97 97 97
55 53 57 61 64 68 73 75 78 79 81 75 61 55 65 72 76 78 79 80 81 80 79 80 77 81 83 85 86 90 90 91 90 90 90 90 90 90 93 91 86 90 92 92 91 93 92 90 93 95 95 96 94 95 95 95 97 100 99 98 96 96 95
54 57 54 56 64 71 77 78 77 78 69 57 57 62 70 72 73 78 79 78 79 79 78 78 79 80 84 85 87 86 87 87 86 88 89 89 90 92 91 87 88 89 92 90 90 92 91 93 94 94 93 92 92 93 94 94 96 100 99 97 96 95 94
57 57 54 51 45 60 74 71 74 74 63 57 65 68 71 75 76 77 78 79 79 79 77 79 78 80 82 82 82 83 84 85 85 85 86 85 85 86 87 88 89 88 88 87 87 88 92 92 93 95 96 91 91 92 92 93 97 98 99 98 96 95 94
49 51 49 50 62 64 74 72 63 63 67 70 71 69 69 72 73 71 73 78 79 80 77 76 76 77 78 79 81 81 82 83 84 85 85 85 85 86 90 90 88 87 85 85 85 87 88 88 89 89 92 91 90 91 91 94 95 96 97 97 95 94 93
53 53 60 60 62 66 71 71 70 71 72 72 73 72 72 71 71 73 72 72 75 78 77 76 75 75 79 79 81 80 80 81 82 82 82 83 83 85 85 87 85 86 86 84 85 85 87 86 86 87 90 90 90 89 88 90 91 93 95 95 94 93 92
62 63 62 64 66 67 70 74 73 70 71 75 75 73 71 72 72 73 72 73 75 75 76 75 75 75 76 76 79 80 81 81 80 80 81 82 83 84 85 86 85 85 88 85 84 83 85 86 85 85 87 88 86 84 88 88 90 91 91 91 90 91 91
53 47 63 64 65 67 67 68 70 71 72 73 74 72 71 72 73 73 74 73 73 75 74 74 72 72 74 74 75 74 75 75 76 79 80 80 80 80 80 81 81 82 82 82 80 81 81 84 87 87 86 86 86 87 87 89 89 89 89 89 89 89 90
53 54 62 65 68 67 67 68 67 69 72 73 72 72 72 72 73 74 74 73 72 74 75 74 74 74 74 72 72 73 74 74 74 76 77 79 79 81 81 81 81 81 81 80 79 80 80 81 83 84 84 85 86 87 88 89 89 88 88 88 89 89 90
59 62 63 64 65 66 66 68 70 71 72 69 69 71 71 72 72 73 74 74 72 72 74 76 75 73 73 73 72 72 73 73 74 75 76 78 79 79 79 79 80 79 79 79 79 80 79 80 81 83 83 85 86 86 87 87 88 89 88 86 88 90 91
51 53 58 62 55 57 65 69 71 71 69 69 68 69 70 70 69 70 71 73 74 73 72 73 74 71 71 72 72 72 72 71 71 72 74 77 79 79 80 81 80 79 79 79 78 78 79 80 82 83 84 85 86 88 88 88 88 86 86 87 88 88 90
52 60 63 64 63 62 63 64 66 68 70 68 67 66 67 68 70 70 69 68 69 69 71 72 73 73 72 72 73 72 72 72 73 73 73 75 77 78 80 80 79 78 78 79 79 78 80 84 86 86 86 87 88 89 87 87 87 87 88 87 87 88 85
61 64 64 65 63 60 63 67 67 68 69 68 67 68 69 69 68 68 68 68 67 68 70 71 72 73 74 74 73 71 71 73 72 72 73 75 77 78 79 78 78 79 79 79 79 78 80 81 82 84 86 87 88 91 89 89 88 87 88 87 86 88 88
57 64 65 65 64 65 67 67 68 69 69 67 66 66 68 68 68 68 67 68 70 69 68 69 71 75 74 75 74 72 72 72 72 73 73 72 74 76 79 79 78 78 78 79 80 80 81 81 82 82 83 83 85 88 87 87 87 84 84 86 89 88 86

ECMWFFLT2_sfc_temp_030.txt.gz
Temp
90 89 92 90 93 71 81 83 74 78 89 83 74 75 80 79 73 67 79 76 80 89 92 95 96 96 96 97 99 100 100 97 94 93 94 96 98 93 92 92 91 87 87 82 84 88 91 93 93 92 89 89 88 87 86 85 85 85 85 85 85 85 85
91 95 93 92 93 93 85 74 80 90 93 89 77 67 71 69 64 68 77 73 75 75 70 91 92 92 95 96 96 99 98 99 96 94 93 95 98 99 95 94 92 90 88 86 86 88 92 94 93 92 89 91 90 89 88 86 85 84 85 86 86 86 85
90 94 91 87 92 96 87 82 94 79 69 68 76 72 62 63 62 67 73 78 78 78 75 86 86 89 90 93 95 96 97 98 97 94 95 96 98 99 96 94 93 93 94 93 92 96 97 95 93 93 93 93 92 91 90 89 87 87 87 89 88 87 87
89 89 85 71 79 90 94 95 87 91 83 75 69 72 73 71 64 64 67 75 71 84 84 88 88 90 91 92 94 95 97 99 100 97 96 95 96 97 96 96 95 96 96 97 97 97 97 96 95 96 96 96 95 93 90 89 89 88 88 88 87 86 88
88 75 80 76 79 77 80 82 81 83 82 88 84 81 74 70 66 66 65 66 73 85 94 92 91 91 92 93 92 93 96 99 102 98 96 97 97 98 97 97 98 98 98 99 97 98 99 99 98 97 97 96 95 95 93 91 89 89 89 89 89 87 88
78 79 87 86 85 85 83 81 79 82 77 74 67 66 82 78 71 61 67 65 77 90 98 95 94 95 95 95 95 95 97 100 98 99 99 96 97 97 98 100 101 100 98 99 100 98 96 98 97 97 97 97 96 95 94 93 92 91 90 90 88 87 88
81 85 89 91 92 91 88 86 82 87 84 81 73 60 68 77 78 81 77 71 72 90 95 97 97 97 98 97 98 97 98 99 101 100 104 97 96 98 101 101 101 101 98 97 96 93 92 93 97 97 97 97 96 96 95 94 93 92 93 92 91 88 88
83 90 92 91 92 90 86 87 88 86 81 82 79 77 78 73 75 71 73 67 76 90 92 96 98 97 100 97 99 97 99 100 101 101 101 98 95 97 102 100 102 98 97 96 91 90 91 92 94 96 96 96 97 97 96 96 94 94 94 94 93 90 89
69 79 83 84 88 88 83 82 85 87 88 87 86 85 83 73 75 76 71 64 73 86 91 93 95 97 98 98 100 100 97 98 101 101 100 97 95 95 100 98 94 95 95 92 88 89 89 92 97 96 96 96 97 97 97 97 96 96 95 95 94 92 91
56 58 60 64 70 75 83 86 85 86 85 85 80 73 75 64 72 75 72 73 79 86 88 91 93 93 93 97 100 102 101 98 99 95 96 93 94 92 95 95 93 94 91 90 88 88 89 94 97 94 93 97 98 98 98 99 98 97 97 97 96 93 92
67 71 73 83 84 80 75 81 84 83 86 88 85 80 75 69 73 72 74 78 75 80 86 87 91 91 93 95 96 97 95 95 94 91 91 94 92 93 96 94 93 90 89 89 89 89 94 98 98 98 97 97 98 95 96 99 99 99 97 96 95 95 93
73 75 74 79 81 79 80 80 82 85 84 85 83 77 73 78 75 67 75 78 76 80 85 88 89 93 92 94 94 93 93 94 96 94 90 94 98 97 95 93 90 90 88 89 90 91 95 97 97 98 99 98 97 96 97 98 100 100 100 97 95 93 92
76 79 79 80 79 79 81 83 83 82 84 83 80 79 83 81 75 71 76 80 79 83 89 90 90 91 92 97 97 97 97 97 94 92 95 97 97 96 96 92 91 89 89 88 90 93 94 97 97 98 99 98 96 96 98 97 101 101 98 96 95 95 92
76 77 79 81 77 78 76 80 84 85 84 83 83 84 86 85 78 82 82 81 83 88 90 92 94 96 94 94 97 94 92 93 92 97 96 99 99 98 97 94 95 93 93 92 90 91 92 95 95 98 97 95 97 98 98 100 97 100 98 96 93 94 94
70 76 78 78 78 75 75 77 85 86 85 85 85 85 86 85 83 85 85 78 80 90 92 93 94 92 95 95 94 92 92 95 97 97 99 100 99 98 96 92 95 92 92 92 92 91 91 92 94 95 95 96 99 101 100 101 98 100 101 95 95 94 93
63 72 75 79 78 77 74 74 77 82 84 80 83 80 86 82 78 81 83 75 79 86 87 89 90 91 89 88 89 91 92 96 94 94 97 95 94 97 97 95 94 92 93 92 92 93 95 96 95 96 93 97 99 100 101 101 102 102 100 98 96 92 94
60 69 74 74 74 70 66 69 78 83 80 85 87 87 87 87 88 80 77 77 86 86 89 89 89 91 88 90 92 90 92 90 94 93 93 95 96 97 95 93 92 96 96 94 92 95 97 96 97 99 97 99 95 97 97 98 99 101 101 101 96 92 93
60 67 69 74 67 55 58 78 85 82 80 83 83 84 86 89 90 86 87 87 88 87 87 87 85 88 88 89 90 93 89 89 89 95 95 98 99 100 100 100 100 96 95 95 96 98 96 97 101 101 99 99 97 99 100 98 98 96 96 97 96 92 91
58 66 68 61 55 58 75 84 86 87 87 84 79 83 89 89 90 91 89 86 88 86 88 88 89 89 91 94 93 95 96 93 93 91 95 95 95 97 96 95 97 93 93 94 95 95 102 102 101 100 99 101 100 100 99 99 96 92 93 92 92 92 90
64 60 59 49 53 71 79 81 84 87 88 85 82 81 89 91 91 87 86 86 88 88 89 91 91 90 93 93 91 92 95 97 95 96 95 97 98 99 98 91 89 90 93 93 96 92 92 97 102 103 103 104 103 102 103 100 97 94 93 91 92 91 90
54 59 59 60 69 71 75 76 78 83 78 79 77 71 77 86 88 86 84 86 89 89 89 90 90 90 90 86 87 93 95 96 99 99 98 93 92 93 93 96 93 92 93 94 94 93 95 96 98 100 104 106 104 103 101 101 94 96 94 91 91 91 90
62 56 56 57 58 54 64 74 83 88 88 86 85 78 74 83 90 90 85 85 86 88 90 90 88 88 82 78 82 92 95 94 92 92 93 94 93 94 95 94 93 90 90 92 94 94 93 94 96 98 100 100 97 96 97 98 97 95 94 93 92 91 92
57 56 51 54 53 59 71 74 81 86 85 85 86 75 69 71 75 86 88 88 82 82 84 84 85 79 75 76 82 85 90 92 92 89 90 91 92 93 94 91 90 91 90 89 91 93 93 93 95 96 97 96 94 94 95 96 95 94 94 94 94 93 93
54 55 52 51 61 58 62 74 82 85 86 84 77 59 60 65 74 79 80 86 84 85 83 83 80 77 74 79 77 87 88 90 89 88 87 88 89 90 93 92 90 90 90 91 91 93 93 89 93 94 95 94 93 92 92 98 99 96 94 94 94 95 95
55 52 55 60 59 59 65 70 79 83 87 79 63 55 58 68 75 78 78 81 80 79 79 80 77 79 79 79 83 87 87 87 87 89 90 89 89 89 91 89 86 89 91 90 89 92 89 89 93 94 92 92 91 91 91 92 94 98 97 95 93 93 92
52 56 52 56 57 59 67 71 75 73 72 60 55 58 67 72 72 73 76 78 76 77 76 78 76 77 82 83 85 84 85 85 85 86 88 88 89 91 89 88 88 88 89 88 88 90 90 91 91 91 91 89 88 89 91 92 94 98 97 94 93 92 91
55 55 52 49 42 55 68 69 67 68 58 52 61 66 69 75 72 73 73 72 74 76 74 77 76 78 80 81 81 81 83 83 83 84 84 83 85 85 86 89 89 88 87 86 87 88 90 90 90 91 90 88 90 90 89 92 95 96 96 96 93 92 91
48 49 46 45 52 56 71 68 56 62 64 69 70 67 61 70 73 71 71 72 73 75 75 74 76 77 77 77 79 79 81 82 83 83 82 83 83 85 88 89 88 87 86 85 85 87 87 87 87 87 87 87 90 90 89 91 93 94 94 96 92 92 91
51 50 53 55 59 65 70 67 66 69 72 73 74 71 66 67 71 73 72 71 73 73 73 75 76 76 76 76 78 78 78 79 80 80 81 82 83 84 84 86 86 86 86 85 85 85 86 86 86 85 86 87 86 84 86 89 88 90 92 95 92 91 91
61 62 62 62 64 67 67 70 70 71 72 75 75 72 65 68 70 72 71 72 73 73 73 73 73 75 76 76 77 77 77 77 79 78 79 80 81 83 83 84 82 83 86 86 84 83 84 86 86 86 85 86 84 85 87 87 89 89 88 91 91 90 90
53 46 63 63 64 67 69 68 70 72 73 73 73 70 70 69 70 72 73 72 72 73 73 71 70 72 75 75 75 75 75 76 76 78 77 78 79 80 81 81 82 82 82 83 82 82 81 82 84 86 86 86 86 87 87 88 88 88 88 89 89 89 89
53 53 61 64 65 65 67 71 67 67 69 72 72 71 71 71 72 73 72 72 72 73 72 71 71 71 73 73 74 74 75 75 75 76 76 77 77 80 81 81 81 81 81 81 81 81 80 81 83 84 84 85 86 87 88 89 89 89 88 89 89 89 90
58 62 64 65 65 65 67 69 71 71 71 70 70 71 71 72 71 71 72 73 72 72 72 73 72 71 71 73 73 74 75 75 75 75 75 76 77 79 80 80 80 79 80 80 80 80 80 82 83 83 84 85 87 87 87 88 89 87 87 87 88 89 90
51 54 59 64 57 57 65 69 70 70 70 70 70 70 69 70 69 69 70 71 73 73 72 72 72 71 70 71 72 73 74 74 74 75 75 76 77 79 81 81 81 80 80 80 79 79 80 81 83 83 84 85 87 88 88 88 88 87 86 86 87 88 89
52 60 64 65 64 63 64 66 69 71 71 69 67 67 67 68 69 70 69 68 69 69 71 73 72 71 70 71 72 73 75 75 75 76 75 75 77 78 81 81 80 79 79 80 80 80 80 81 83 84 86 87 87 88 87 87 88 87 86 85 86 84 83
60 63 62 63 62 59 63 67 70 70 70 69 67 68 69 69 69 69 69 69 67 67 69 71 73 72 72 72 72 71 73 75 76 76 76 77 78 79 80 79 79 79 79 79 79 79 81 82 83 84 87 87 86 92 87 87 85 81 83 86 84 85 85
58 64 65 65 64 65 67 67 67 69 70 69 67 67 68 68 69 70 69 68 69 69 68 69 72 73 72 73 72 71 72 74 75 75 75 75 76 77 79 78 78 78 78 79 79 80 81 81 81 83 83 84 86 87 85 87 86 83 81 84 88 86 85

ECMWFFLT2_sfc_temp_033.txt.gz
Temp
82 82 86 85 86 63 73 75 67 70 77 74 60 64 69 68 60 54 64 64 70 76 76 83 87 86 87 86 88 88 87 87 86 86 87 87 87 87 87 86 85 84 85 85 86 86 86 86 86 86 85 85 84 83 82 81 81 81 81 81 81 82 81
83 87 87 86 87 84 75 68 72 80 82 80 64 53 55 54 50 54 66 62 61 64 59 78 79 83 85 86 87 89 87 88 86 87 87 87 87 87 87 87 86 85 85 85 87 87 87 87 87 87 85 86 85 84 83 82 81 80 81 82 82 82 81
83 87 86 81 86 89 78 74 84 72 59 60 61 62 49 49 49 51 60 67 64 65 65 75 76 78 82 84 86 89 85 87 87 87 86 87 88 88 87 87 86 85 85 85 86 87 88 88 87 88 87 87 86 85 85 84 82 83 83 83 83 83 82
82 83 80 66 74 84 86 86 79 83 71 63 56 62 61 58 47 54 55 62 56 70 72 78 78 80 81 83 83 88 87 87 88 88 87 87 87 87 87 87 87 87 86 86 87 87 88 88 87 89 89 89 88 87 85 84 85 84 83 83 83 82 83
81 70 75 71 74 71 74 73 71 74 72 75 71 69 64 55 52 49 52 51 61 67 80 81 81 82 82 84 79 85 89 87 89 89 89 87 88 87 88 88 88 88 87 88 88 89 90 90 89 90 90 89 89 88 86 86 84 84 83 84 84 83 83
71 73 81 81 79 79 76 73 70 73 69 62 60 55 72 68 58 46 52 52 59 74 88 85 85 85 86 86 83 81 88 88 88 89 90 88 88 88 88 89 89 89 88 88 88 88 89 90 89 90 91 90 89 88 88 87 86 85 84 84 83 83 83
72 79 83 86 86 84 82 79 74 78 75 70 59 46 56 66 67 72 64 57 58 71 79 85 87 87 88 87 86 82 87 90 89 90 91 90 89 89 90 90 90 89 88 88 87 87 87 88 88 90 90 90 90 89 89 87 86 85 86 85 85 84 83
76 83 86 85 86 84 79 80 80 78 73 74 67 61 62 62 62 59 59 54 60 71 79 82 86 88 90 88 89 84 87 90 89 90 91 90 88 89 91 92 91 90 89 87 86 85 86 87 87 89 90 91 91 90 90 89 87 87 87 87 86 85 84
60 68 73 77 82 81 76 75 78 79 79 79 77 73 67 62 63 64 58 47 57 68 77 81 85 88 89 87 88 87 89 85 89 90 90 91 87 88 90 90 89 89 89 87 85 86 86 86 88 88 89 90 91 91 90 89 88 88 87 87 87 86 85
46 47 51 58 64 70 75 78 78 79 78 76 73 63 59 50 57 64 58 57 63 71 74 77 80 80 80 86 87 87 89 84 89 89 90 90 88 86 89 89 88 88 88 87 86 86 86 88 88 87 88 90 92 92 91 91 89 89 88 88 87 86 86
50 55 57 72 75 73 69 73 76 77 79 79 76 66 58 54 53 60 57 60 61 70 75 76 80 78 79 79 80 80 81 81 84 86 87 89 87 87 89 88 89 88 86 86 86 86 87 89 89 89 90 91 92 91 91 92 91 90 89 88 87 87 86
61 65 67 76 78 72 74 74 74 78 78 77 73 68 61 60 59 49 59 62 66 67 72 74 74 77 76 80 80 80 80 81 83 86 88 88 88 88 89 88 87 85 85 84 85 85 86 88 89 90 91 92 92 91 91 92 92 91 91 89 88 87 86
67 70 71 73 75 76 76 76 76 75 77 76 72 68 72 67 57 55 60 64 65 68 74 76 75 77 78 81 84 84 83 85 83 83 88 88 88 86 88 86 85 85 84 83 82 84 86 88 88 90 91 91 91 91 92 92 93 92 91 89 88 88 86
65 67 70 75 75 73 72 75 76 77 77 76 76 74 77 72 65 68 67 65 71 77 76 77 78 81 83 82 84 85 83 83 83 86 87 88 87 87 87 86 85 84 84 83 82 83 84 87 88 90 90 90 91 91 92 93 93 94 92 90 88 88 87
59 64 66 68 73 73 69 72 73 73 76 78 78 78 77 74 73 75 73 65 65 72 80 80 80 80 83 83 82 83 82 84 86 86 89 88 87 87 86 83 85 83 83 83 83 83 84 86 88 90 90 91 92 93 93 94 93 94 93 90 89 88 87
52 59 61 68 72 71 69 68 68 70 70 71 76 74 77 71 66 69 71 65 63 72 79 80 79 79 79 78 79 79 81 84 83 83 85 84 84 86 86 84 84 83 84 83 84 85 87 88 88 90 88 91 92 93 94 94 95 95 94 91 90 88 88
51 63 67 67 68 66 60 59 67 70 72 73 79 80 79 77 77 69 62 64 71 74 78 78 77 79 77 77 79 80 79 79 84 84 84 84 85 83 81 81 82 85 86 84 85 88 90 90 90 92 90 91 90 92 92 93 94 95 95 94 90 88 89
48 58 61 64 56 48 50 69 77 75 73 73 71 76 79 78 78 71 73 71 73 76 77 75 75 78 77 76 76 79 79 78 79 82 83 84 84 85 85 85 85 83 83 84 86 87 86 87 91 90 90 90 89 92 94 93 93 93 93 94 91 88 88
46 54 56 49 45 48 66 75 78 79 78 77 72 66 71 78 79 79 76 75 75 77 78 77 76 76 78 81 82 83 82 81 81 80 82 81 81 81 82 83 83 82 82 82 83 84 86 89 87 87 89 90 89 90 90 90 91 89 90 90 89 86 87
51 48 48 41 46 61 74 76 77 79 78 77 72 67 66 65 64 69 75 77 76 76 77 78 78 79 81 82 81 81 83 84 83 82 82 83 83 82 81 79 79 81 83 83 84 83 85 87 89 91 90 92 92 92 93 90 87 87 87 87 89 85 86
43 46 49 51 61 63 67 68 63 60 61 67 65 55 58 64 67 68 68 74 78 80 80 81 80 81 80 75 76 83 83 83 85 85 84 85 84 83 83 84 82 80 82 83 84 83 83 84 86 87 90 92 92 93 92 92 86 86 86 85 87 85 85
49 43 44 51 51 47 50 56 65 68 71 75 76 65 56 64 67 70 69 71 74 77 78 79 78 78 71 66 69 78 83 84 84 84 85 86 85 84 84 83 83 82 81 82 84 84 84 84 85 85 87 86 86 85 84 88 89 87 85 85 85 84 85
47 45 40 44 45 49 53 56 64 67 69 73 77 64 53 62 66 69 69 69 73 76 76 75 75 70 63 61 67 76 80 82 83 82 83 84 85 84 83 83 82 82 81 80 84 84 83 83 84 85 84 83 82 82 85 83 85 87 87 87 85 85 84
47 46 42 42 47 45 54 59 63 67 68 74 68 50 47 60 65 69 68 68 68 69 70 71 69 66 60 62 68 78 80 81 81 80 80 80 81 83 84 84 83 81 81 82 82 83 83 81 83 85 84 83 82 82 81 83 85 85 87 87 86 87 86
47 47 45 49 50 55 58 60 65 66 70 69 51 41 50 61 66 68 67 66 68 70 69 69 65 67 69 71 75 79 80 79 79 80 81 81 81 81 83 81 82 81 82 81 81 82 79 80 82 83 82 83 81 79 80 80 80 83 86 86 85 86 85
43 45 41 44 49 54 59 61 64 65 63 46 44 54 62 63 67 68 67 66 67 68 69 68 68 70 74 75 76 75 76 76 76 78 79 80 81 83 82 82 82 81 82 79 80 81 80 82 82 82 81 80 80 79 78 79 81 86 85 85 87 85 85
49 47 42 40 33 51 62 61 61 63 50 50 59 61 64 68 67 67 66 67 67 67 66 70 70 71 72 73 73 73 74 74 75 75 75 76 77 78 79 80 81 82 78 78 79 79 81 81 82 82 82 79 78 80 78 78 81 82 84 84 84 85 85
40 41 37 37 49 54 63 60 49 56 59 59 62 61 59 65 66 65 64 66 67 68 66 66 67 69 70 71 72 72 72 73 74 75 74 75 76 78 80 81 79 80 77 76 77 78 80 79 79 79 79 77 79 78 77 80 80 81 81 82 82 83 83
44 43 46 52 55 57 63 62 60 61 64 67 66 64 62 61 62 66 64 64 67 68 67 66 66 66 67 69 72 70 71 72 72 72 73 73 74 76 76 77 78 78 77 76 76 77 77 77 78 78 78 77 77 77 78 79 80 81 81 81 81 81 82
56 58 58 59 58 61 62 66 64 60 63 65 67 65 61 62 63 65 64 65 66 66 67 65 65 66 67 67 68 70 71 71 71 72 72 72 73 74 76 75 76 76 78 77 75 74 75 76 77 78 78 77 76 77 78 80 79 80 80 80 80 80 80
47 41 58 58 59 61 63 63 64 65 65 63 65 63 62 62 64 65 66 65 65 65 65 65 64 65 67 66 67 68 69 69 69 71 70 70 71 72 72 73 75 74 73 74 74 74 73 75 76 78 77 78 77 78 79 80 80 80 80 80 80 80 80
47 48 55 58 60 62 62 62 59 62 64 65 65 64 64 63 64 66 65 66 65 65 65 64 64 65 66 65 65 66 67 68 69 69 69 69 70 72 73 74 74 72 72 72 73 73 72 74 75 76 76 77 78 78 78 80 80 80 80 80 80 80 81
52 56 57 58 60 61 62 64 63 64 64 63 64 66 67 67 65 64 65 66 65 64 64 65 64 64 64 66 65 66 67 67 69 69 70 70 70 71 72 73 75 72 72 72 73 73 72 74 75 75 76 76 78 79 79 79 79 78 78 80 79 80 80
44 46 51 54 47 48 55 59 62 62 64 64 64 64 65 65 63 61 61 64 66 66 65 63 64 62 62 64 65 65 66 67 68 69 69 70 71 72 74 75 74 74 74 73 72 72 72 74 75 75 76 77 79 81 81 80 79 77 79 78 78 78 78
40 48 51 53 51 52 56 58 61 63 64 63 61 61 61 62 64 64 61 61 62 62 63 64 64 63 63 64 65 65 66 67 69 70 70 70 71 71 73 73 73 73 73 74 74 73 72 74 75 76 76 78 79 80 79 79 78 76 75 76 76 76 76
50 53 53 54 52 49 53 56 59 61 62 62 61 62 62 62 62 63 62 62 61 61 61 63 64 64 64 65 65 64 65 68 69 70 71 72 72 72 73 72 72 72 73 72 73 72 73 73 74 75 77 77 77 81 79 79 78 77 76 77 77 77 77
46 53 54 54 53 54 56 57 59 61 63 63 61 61 61 61 61 62 62 62 63 63 61 62 63 64 64 64 65 64 65 66 68 70 70 71 72 71 72 73 72 71 71 71 71 72 72 73 73 74 74 75 75 77 78 79 78 77 76 77 79 78 77

ECMWFFLT2_sfc_temp_036.txt.gz
Temp
75 76 79 78 78 59 68 70 63 65 68 69 56 54 57 56 50 53 50 57 60 65 70 75 74 74 76 80 79 81 81 83 82 82 83 83 83 84 83 83 83 82 83 84 84 84 84 84 84 83 82 82 81 81 80 79 80 80 80 80 80 80 80
78 80 80 81 81 72 68 63 67 72 76 71 62 45 50 49 43 46 56 59 53 59 53 68 74 72 75 76 78 80 80 81 80 82 83 83 83 83 84 84 83 83 84 84 85 85 85 85 85 84 83 83 82 82 81 80 80 79 80 80 80 80 79
76 81 78 74 81 81 75 71 77 71 54 58 55 52 46 44 44 41 49 57 54 55 58 61 71 73 75 74 75 78 78 80 80 82 83 83 84 84 83 83 83 83 83 84 84 85 86 86 85 85 84 84 83 83 83 82 81 81 81 82 81 81 81
75 77 74 61 69 79 79 78 75 73 64 61 53 56 47 53 41 49 45 53 50 59 62 70 71 73 77 78 73 77 79 80 81 82 83 83 83 83 83 83 83 83 84 85 85 86 86 85 85 86 85 85 84 84 83 82 83 82 81 81 81 80 81
72 64 70 66 69 67 67 70 68 71 67 66 65 62 58 48 42 42 44 45 51 62 74 76 75 76 77 80 76 76 80 82 83 83 84 83 83 83 84 84 84 84 84 85 86 86 87 87 86 87 86 85 85 85 83 83 82 81 81 82 82 81 81
57 66 75 76 74 74 70 68 66 70 66 56 58 51 65 59 51 39 44 48 50 68 82 80 79 81 82 81 82 76 81 82 83 84 84 84 84 84 84 85 85 85 84 85 86 86 86 86 86 86 87 86 85 84 84 84 83 83 82 82 81 81 81
58 67 75 80 80 79 75 72 68 74 70 61 58 46 52 61 58 57 52 48 53 63 72 80 81 82 84 84 83 79 81 83 84 85 86 85 85 85 85 85 85 85 85 85 85 85 84 85 85 86 86 86 85 85 85 84 83 83 83 83 83 82 81
64 71 76 75 80 79 74 72 71 72 69 69 65 58 51 58 55 55 52 49 56 68 67 75 82 82 84 85 84 80 82 84 85 85 85 85 84 85 86 87 86 85 85 85 84 83 83 83 83 85 86 86 86 86 85 84 83 83 84 84 83 82 81
51 60 64 68 75 77 72 71 72 73 75 73 65 64 55 59 58 56 50 46 59 59 68 71 73 78 82 83 82 83 82 84 85 85 85 85 84 84 85 85 84 84 84 82 82 83 82 83 84 84 85 86 86 86 86 85 84 85 84 84 84 83 82
39 41 42 44 55 67 72 74 73 73 73 70 64 60 54 48 52 56 51 51 59 62 70 71 73 75 79 82 79 83 85 84 85 85 85 84 83 82 83 84 83 83 82 82 81 81 82 83 84 84 85 86 87 87 86 86 85 85 85 85 84 83 82
42 45 48 57 62 61 66 70 72 71 73 74 71 57 49 52 45 56 53 61 58 62 70 67 71 74 77 74 74 78 81 84 85 84 84 84 83 83 84 83 84 82 80 80 81 81 83 84 85 85 85 86 87 86 86 87 87 86 85 85 84 83 83
51 55 55 61 64 61 65 70 70 72 71 70 69 62 59 51 54 47 53 54 62 63 64 66 65 69 69 72 74 76 81 83 84 84 83 84 84 84 84 84 82 80 80 80 80 81 82 84 84 85 86 87 87 86 86 87 87 86 86 85 84 83 82
53 56 57 61 65 66 66 71 72 70 72 69 67 65 63 58 57 53 57 54 59 63 69 67 67 67 70 74 76 78 82 84 84 83 83 83 84 84 84 83 82 81 80 79 80 81 82 83 84 84 86 86 87 87 88 87 88 87 86 85 84 83 82
50 54 59 65 64 65 66 70 72 73 72 70 70 68 65 66 58 61 63 55 62 66 66 69 71 72 72 73 73 74 78 82 82 83 83 84 84 84 84 83 83 81 81 81 80 81 81 83 83 84 85 85 87 87 87 88 87 88 87 85 83 83 83
47 56 60 63 65 65 62 66 72 73 73 73 71 70 68 65 64 62 61 58 62 66 68 69 70 71 73 74 74 75 77 81 83 83 83 84 84 84 84 83 83 82 81 81 81 80 81 82 83 84 85 86 87 88 88 89 88 88 87 85 84 83 83
43 55 53 58 64 63 61 59 62 66 67 68 70 65 68 64 59 58 62 58 60 68 70 73 72 72 72 71 71 73 73 79 82 83 83 84 83 84 84 83 83 82 81 80 80 81 83 84 84 85 85 86 87 88 89 89 89 89 88 86 84 83 84
41 52 53 55 59 55 52 51 55 61 63 63 63 59 60 60 64 63 55 57 66 66 70 71 69 71 70 70 70 71 72 72 77 81 83 83 83 84 83 82 82 83 83 82 82 83 84 85 85 86 86 87 86 88 88 89 90 89 88 87 85 84 84
41 49 50 53 48 41 42 57 62 64 58 57 55 55 57 60 62 59 64 68 65 67 69 69 68 69 70 71 72 73 72 73 74 75 75 77 78 78 79 79 80 78 78 79 81 83 84 85 88 88 88 88 88 89 90 89 89 89 88 87 86 84 84
40 47 47 46 41 43 56 64 63 63 65 62 58 57 59 59 61 63 64 66 68 67 71 71 71 72 73 75 75 76 77 76 75 74 75 75 76 76 77 77 77 76 77 77 78 80 82 85 84 85 87 88 88 89 89 89 88 87 87 87 85 84 83
44 40 38 38 39 52 59 60 62 62 63 61 61 57 58 60 60 61 60 63 67 68 70 71 72 72 74 75 75 76 78 78 77 76 76 77 77 76 76 76 76 77 79 80 81 79 80 82 83 84 85 88 89 90 91 89 88 87 86 86 86 84 84
37 40 37 39 51 53 54 52 54 56 52 54 53 49 53 60 61 61 60 62 65 70 72 72 72 73 73 70 70 76 76 77 79 79 78 78 78 78 78 78 77 77 78 79 80 80 80 82 82 82 84 87 89 90 89 90 87 87 86 85 85 84 84
43 37 35 35 38 36 44 50 57 60 62 62 61 58 53 60 62 64 61 61 65 66 68 68 68 72 67 61 64 72 75 77 77 78 79 80 80 79 79 78 79 78 79 80 80 80 79 79 80 80 82 81 79 80 82 84 85 85 85 85 86 84 84
43 38 35 34 33 39 47 49 54 58 61 61 62 59 49 59 61 64 62 61 63 65 65 66 67 65 58 58 63 70 73 74 76 76 77 78 79 79 79 78 77 78 77 78 79 79 78 78 78 79 79 78 79 77 77 77 79 81 82 85 85 84 84
40 40 36 32 36 34 45 50 53 58 61 63 59 47 45 55 60 64 63 61 61 63 65 66 64 61 57 59 63 71 73 74 74 74 74 75 76 77 78 79 78 77 77 77 77 77 77 76 77 78 78 77 78 77 76 76 78 78 80 82 83 85 86
41 43 40 41 38 48 51 51 54 58 63 62 47 39 47 56 59 64 64 62 62 63 63 65 61 63 65 66 69 72 73 72 72 74 75 75 76 76 77 77 78 77 77 76 76 76 75 76 77 77 77 77 76 76 76 74 75 77 78 79 81 82 81
39 41 40 39 41 46 51 53 56 61 57 42 41 52 59 57 57 63 64 63 63 64 63 63 64 66 69 70 70 70 71 70 70 71 72 73 74 77 77 78 77 76 76 75 76 76 75 77 77 76 76 75 75 75 73 74 76 79 78 77 78 80 81
43 42 39 36 31 43 53 52 55 58 47 47 55 57 58 58 57 60 62 63 63 64 62 64 64 65 66 67 67 68 69 69 69 69 69 70 71 72 73 74 76 77 74 73 74 74 75 76 77 76 76 75 76 75 74 75 77 77 78 78 76 79 80
36 37 35 35 44 48 53 51 43 50 54 56 59 58 53 56 56 57 59 62 63 63 62 62 63 64 64 64 66 66 67 68 69 69 69 70 70 72 73 75 74 75 73 72 72 73 74 75 75 75 74 74 76 75 74 76 76 77 78 77 75 77 79
41 39 45 51 53 52 55 55 54 55 60 61 59 60 58 56 55 57 57 58 63 63 62 62 62 62 63 63 65 64 65 66 66 67 67 68 69 70 70 71 73 74 72 71 72 73 73 73 74 74 74 73 74 74 75 76 76 77 77 77 76 76 77
52 54 54 55 54 56 55 58 57 57 57 62 61 58 56 58 58 57 55 57 60 63 62 61 61 61 62 63 63 64 65 65 66 67 67 68 69 70 71 71 71 72 72 72 71 71 72 73 73 74 74 73 73 74 75 76 76 76 76 77 77 75 76
44 38 52 49 50 55 58 58 56 58 57 57 60 58 59 58 58 61 58 57 58 60 61 59 58 60 61 62 62 63 64 64 65 66 66 66 67 68 68 70 71 70 70 70 70 71 71 72 72 73 73 73 74 74 76 76 76 76 77 78 77 75 75
44 44 48 50 52 56 56 55 51 52 54 57 57 59 61 61 61 62 61 60 59 59 59 58 58 59 60 60 60 62 62 63 64 64 65 66 67 68 69 70 71 68 69 69 69 69 70 71 71 72 72 73 74 74 75 75 75 76 77 77 77 75 75
46 51 51 49 51 53 55 55 56 56 56 55 56 56 59 62 62 62 63 63 61 60 59 59 58 58 59 59 60 61 62 62 63 64 65 66 66 67 68 69 71 68 68 69 69 69 70 70 71 71 72 72 74 74 74 74 74 74 75 77 77 74 76
37 40 43 47 40 41 48 51 54 55 56 56 57 56 56 59 59 60 61 62 62 61 60 58 58 56 57 58 58 60 60 61 62 63 65 65 66 67 68 70 70 70 69 69 69 69 69 71 72 72 72 72 73 75 75 74 73 73 72 74 73 74 73
35 43 46 48 47 46 48 51 54 54 56 56 54 55 55 56 60 61 61 61 61 59 58 58 58 57 56 58 58 59 60 60 62 63 64 65 65 66 68 68 68 70 69 70 70 69 69 71 71 71 71 72 72 74 74 74 73 72 72 73 73 72 73
44 47 47 47 45 43 47 50 51 52 54 54 55 56 57 56 57 59 59 61 60 59 57 57 58 58 58 58 58 58 59 61 61 62 65 66 66 67 68 68 68 69 69 68 69 68 68 69 69 70 71 72 71 74 73 74 75 74 73 73 72 72 73
41 47 47 47 46 47 49 50 51 52 54 55 54 56 58 57 57 58 58 58 60 60 58 57 59 58 58 59 58 59 58 61 62 64 66 66 67 67 67 68 68 68 67 67 67 67 68 68 69 69 70 71 71 72 72 74 75 74 73 73 73 72 72

ECMWFFLT2_sfc_temp_039.txt.gz
Temp
70 73 75 73 74 55 63 65 58 63 65 64 54 50 54 52 47 52 47 53 54 58 65 69 67 70 75 79 80 81 80 80 80 79 80 81 82 82 82 82 81 81 82 82 82 82 82 82 82 81 80 81 80 80 79 78 79 79 78 78 78 79 79
73 76 76 75 76 68 62 58 64 67 71 69 58 46 47 46 44 44 48 53 51 55 52 63 66 68 71 73 78 81 81 80 78 80 80 81 82 82 82 82 82 82 82 82 83 83 83 83 83 82 81 82 81 81 80 79 79 78 78 79 79 79 78
68 76 72 70 76 77 70 66 73 65 53 54 57 51 45 42 41 40 44 50 52 53 54 58 66 68 67 69 73 78 80 80 79 80 81 82 82 83 82 82 82 82 82 82 82 83 84 84 83 83 82 82 82 81 81 81 80 80 79 80 80 79 79
61 65 70 57 62 73 77 72 70 69 60 59 53 56 47 49 39 45 46 48 52 56 62 64 69 69 70 69 69 74 79 80 80 80 81 81 81 82 82 82 83 83 83 83 84 84 83 83 83 83 83 83 82 82 81 81 81 81 80 80 79 79 79
59 52 62 62 64 61 64 65 63 65 63 61 64 55 53 52 36 36 42 46 47 52 60 68 71 71 72 70 70 73 78 80 81 82 82 82 82 82 83 83 83 83 83 84 84 85 85 85 84 84 84 83 82 82 81 81 80 80 80 80 80 79 79
45 52 62 67 69 69 65 65 63 65 61 53 54 50 56 49 48 37 40 46 47 57 70 73 73 74 76 73 72 73 76 80 81 82 83 83 82 83 83 84 84 84 83 84 85 85 84 84 84 83 84 83 83 82 82 82 81 81 80 80 79 79 79
45 53 60 64 63 64 67 68 65 69 64 56 54 44 48 55 54 51 46 46 56 67 69 73 76 77 79 79 75 76 77 79 81 83 84 84 84 84 84 84 85 84 84 84 84 83 83 83 83 83 83 83 83 82 82 82 81 81 82 81 81 80 79
50 55 60 61 64 66 63 66 70 68 64 66 64 59 50 55 50 54 49 48 57 64 62 68 75 76 78 78 74 75 78 80 81 82 83 83 83 83 85 85 85 84 84 83 82 82 82 82 82 83 83 83 83 83 83 82 81 82 82 82 82 80 79
45 56 59 60 65 66 62 61 67 70 71 69 62 55 51 57 54 58 48 47 57 71 61 64 66 69 73 74 75 78 78 79 81 81 82 83 82 83 83 83 83 83 83 81 80 81 81 81 83 83 83 83 83 83 83 82 82 83 82 83 82 81 80
33 39 40 39 40 46 52 56 64 69 69 67 59 57 52 52 50 53 50 52 58 68 65 67 66 66 66 71 75 79 81 80 81 81 81 81 81 81 81 82 81 81 81 81 80 80 81 82 83 82 82 83 84 84 83 84 83 83 83 83 82 81 81
32 36 38 47 50 49 46 53 55 59 70 71 66 52 48 52 43 52 52 58 63 67 73 73 71 66 68 68 69 74 77 79 82 81 80 81 81 80 81 81 81 81 79 79 80 80 81 82 83 83 83 83 84 83 83 84 84 83 83 83 82 81 81
41 44 45 49 50 44 47 48 52 57 59 67 65 60 58 51 50 48 48 51 61 68 72 73 69 67 67 65 68 74 77 79 80 80 79 81 80 80 81 80 79 79 79 79 79 80 81 82 83 83 84 84 84 83 83 84 84 84 84 82 82 81 80
46 47 47 49 48 49 51 54 56 56 61 63 64 63 59 55 60 54 51 52 57 67 73 74 67 65 67 69 70 76 79 80 79 79 79 79 79 79 79 79 79 79 79 78 79 80 80 81 81 82 83 83 83 83 84 84 84 84 84 82 81 81 80
43 45 46 49 50 51 54 55 57 60 60 61 67 66 60 63 56 60 59 54 60 70 64 63 67 65 66 67 67 70 74 77 78 78 78 79 79 79 80 79 80 79 80 79 79 79 79 80 81 82 82 82 83 83 84 84 84 84 84 82 81 81 80
39 44 50 52 51 52 52 55 53 55 59 65 67 68 62 59 58 59 59 54 56 56 59 61 62 63 64 65 67 72 75 77 78 79 79 79 79 80 80 79 80 80 80 79 79 78 79 80 81 82 82 83 84 84 85 85 84 85 84 82 81 81 80
35 45 48 47 49 50 52 50 50 51 53 56 59 54 53 55 56 52 58 55 53 58 66 65 64 66 65 64 61 63 67 75 79 78 79 79 79 80 80 81 81 80 79 78 78 79 80 81 81 82 82 83 83 84 85 85 85 85 84 83 81 80 81
32 44 47 45 45 48 45 43 47 51 54 54 54 56 56 54 53 53 54 50 55 59 62 63 64 66 66 65 65 63 64 70 75 78 79 80 80 80 80 80 79 80 80 79 79 80 81 82 82 83 83 83 83 84 84 85 86 85 84 83 82 80 81
34 42 44 44 42 36 39 53 56 53 54 54 51 51 53 55 56 53 57 59 62 64 64 62 62 64 64 66 67 69 65 65 70 73 75 80 81 81 81 81 81 80 80 80 80 81 81 82 84 85 84 84 84 86 86 85 85 84 83 83 82 81 81
33 41 40 40 34 39 54 58 57 56 57 56 54 54 55 55 56 57 57 59 60 63 65 65 64 65 67 69 69 69 71 70 68 68 69 70 73 74 75 75 77 76 76 76 77 78 80 82 81 82 83 84 83 84 85 84 84 83 83 82 81 81 80
40 38 34 33 36 50 56 59 56 56 57 55 55 55 55 56 56 57 55 58 62 64 64 65 66 67 69 69 69 69 71 73 71 71 70 72 73 73 74 74 73 74 76 77 78 77 79 80 81 83 84 85 85 85 86 85 84 83 82 82 82 81 81
32 38 34 35 45 48 51 48 49 50 46 48 47 46 51 57 57 57 57 58 61 63 64 65 65 66 68 66 65 70 71 71 74 74 73 73 73 74 74 75 74 75 76 77 77 78 78 80 80 82 83 85 85 85 85 85 82 82 82 81 81 81 81
39 33 32 33 37 34 40 47 52 55 56 56 56 53 51 57 57 59 58 58 60 62 64 64 64 66 64 59 61 68 70 71 72 74 75 76 75 75 75 75 76 76 76 77 78 78 76 76 76 77 82 84 82 81 82 83 82 82 82 82 82 81 82
37 34 31 30 28 34 41 45 50 54 56 55 55 52 46 54 55 57 58 57 59 61 62 63 65 64 58 57 61 67 69 70 71 71 73 74 74 75 75 76 75 75 75 76 76 76 76 75 74 75 77 81 81 80 81 81 82 81 82 83 83 82 83
35 36 33 30 34 32 41 46 51 54 57 56 51 44 42 52 54 56 57 57 57 60 62 64 61 59 56 57 61 68 69 70 70 70 70 71 73 74 74 75 75 75 76 76 75 74 74 73 74 75 76 77 78 76 76 78 81 81 82 83 84 85 84
37 38 37 37 36 45 49 49 52 54 58 56 44 37 44 53 54 55 56 57 58 59 60 61 57 59 61 63 66 68 68 68 68 70 71 72 73 73 74 74 76 74 74 74 73 73 72 73 74 75 76 76 75 75 74 75 75 77 76 76 78 80 81
33 36 34 34 37 44 50 52 52 56 55 41 39 48 54 54 53 55 56 56 58 59 60 59 59 61 65 66 66 66 66 66 66 68 69 70 71 73 74 75 74 73 74 73 73 73 73 74 74 74 75 75 74 74 74 74 75 77 76 76 75 76 78
39 37 35 34 29 41 51 50 50 52 44 43 51 54 54 55 54 54 56 56 58 60 59 61 61 63 64 64 64 64 65 66 66 66 67 67 68 68 70 71 73 73 71 71 71 71 72 73 74 74 75 74 74 73 73 73 74 74 76 75 74 74 75
34 33 30 30 39 44 51 48 39 46 48 51 52 53 51 54 53 53 55 57 59 61 60 60 61 62 62 63 63 63 64 65 66 66 66 67 68 69 70 71 71 72 70 70 70 70 71 71 71 72 72 73 74 72 71 72 73 74 74 74 74 72 73
38 34 38 44 47 50 51 50 48 49 51 52 51 51 53 52 52 55 55 56 59 60 60 60 60 60 61 62 63 63 63 65 65 65 65 65 66 67 67 68 70 70 69 69 70 69 69 70 70 70 71 72 72 71 71 72 73 73 73 74 74 74 72
46 49 47 49 48 49 50 52 52 50 51 53 52 50 49 52 54 55 54 56 58 59 60 59 59 60 60 61 62 62 63 64 64 65 65 65 66 67 68 68 69 69 69 69 69 68 68 69 69 70 70 70 70 69 70 72 72 71 73 73 75 74 72
39 35 48 45 45 47 50 51 53 53 52 51 51 49 50 51 53 55 57 57 58 58 59 58 57 58 60 59 60 60 61 62 64 64 64 64 64 65 66 68 69 67 68 68 68 68 67 68 69 70 70 70 70 70 72 71 72 72 73 75 75 74 73
39 39 45 46 47 49 51 49 48 49 50 51 51 50 51 54 54 55 56 57 57 58 57 57 57 58 59 57 56 58 59 60 62 63 63 63 64 65 66 67 69 67 67 67 67 67 67 67 68 69 69 69 70 70 71 71 71 71 74 74 73 72 72
42 46 47 45 46 50 50 50 51 50 49 49 51 51 52 54 53 54 56 58 57 57 56 57 57 57 57 58 56 57 59 60 60 61 62 63 63 64 65 66 68 66 65 67 66 67 66 66 68 68 68 69 70 70 70 71 70 71 73 75 73 71 71
35 37 40 43 35 37 46 49 51 51 51 51 50 51 51 52 52 52 53 55 57 57 57 57 56 55 56 57 56 57 58 58 59 60 61 63 63 64 65 67 67 67 67 66 67 67 66 67 68 68 68 69 70 71 70 71 71 71 71 72 71 71 71
33 40 43 44 44 44 46 48 50 51 51 50 49 49 50 51 52 53 53 54 55 55 57 59 57 56 56 56 55 56 58 58 58 59 61 62 62 63 64 65 66 67 67 68 68 67 66 68 68 68 68 68 69 70 70 71 71 71 70 70 70 70 71
42 44 44 46 44 41 44 48 49 49 50 49 49 50 51 51 52 53 53 54 54 54 56 58 59 57 56 57 55 55 56 58 58 59 62 62 62 63 64 64 65 66 66 66 65 65 66 67 67 67 68 68 68 70 70 71 71 71 71 70 69 69 70
39 46 46 46 45 46 47 48 49 50 51 51 48 49 51 51 52 54 54 55 57 56 55 55 57 58 56 57 56 55 54 57 60 62 63 63 64 63 63 65 64 65 64 64 64 65 66 66 67 67 67 67 68 68 69 70 71 70 70 71 71 70 69

ECMWFFLT2_sfc_temp_042.txt.gz
Temp
60 64 70 69 70 52 58 61 54 58 64 62 52 47 50 48 43 49 47 50 50 57 63 68 65 67 71 74 77 78 78 78 76 77 78 79 80 81 80 80 80 79 80 80 81 81 81 81 81 80 79 80 79 79 78 77 78 78 78 78 78 78 78
62 64 63 69 72 64 58 54 60 64 68 66 54 44 45 43 40 40 43 53 49 53 53 63 64 64 68 70 73 76 77 77 75 77 78 79 80 81 81 81 81 81 81 81 81 82 82 82 82 81 79 81 80 80 80 78 78 77 78 78 78 78 78
58 61 63 63 71 72 66 62 69 62 48 50 55 48 41 40 38 36 41 47 51 54 56 55 63 64 66 67 70 73 74 75 76 77 78 79 81 81 81 81 80 80 81 81 81 82 83 83 82 82 81 81 81 81 81 81 79 79 79 80 80 79 79
53 57 57 52 59 69 73 67 66 65 56 56 50 52 43 45 36 39 44 46 48 54 60 62 67 66 68 69 68 71 75 76 77 78 79 79 79 80 81 81 81 81 82 82 83 83 83 82 82 83 83 83 82 82 81 81 81 80 79 79 79 78 79
54 46 54 57 60 57 60 60 57 61 59 57 61 52 51 47 38 36 39 42 44 50 58 66 69 69 69 71 70 71 74 77 79 79 80 79 80 80 81 82 82 82 82 83 83 84 84 84 83 83 83 82 82 82 81 81 80 80 80 80 80 79 79
40 46 55 55 54 54 54 60 58 60 57 50 50 46 56 52 47 36 40 43 42 56 63 69 70 71 72 72 74 73 75 77 78 80 81 80 80 81 82 83 84 83 83 83 84 84 84 83 83 83 83 83 83 82 82 82 82 81 80 80 79 79 79
42 49 55 59 59 58 55 56 58 63 57 52 51 43 44 51 54 49 44 42 50 61 63 69 72 73 73 73 73 75 76 77 79 81 82 82 81 82 83 84 84 84 83 83 83 82 82 82 82 83 83 83 82 82 82 82 81 81 82 81 81 79 79
47 51 55 56 57 55 55 57 58 60 59 59 59 54 46 51 45 50 51 47 55 62 63 68 72 70 73 72 73 74 76 77 78 79 81 81 80 81 83 84 85 84 84 83 81 80 80 81 80 81 82 82 83 83 83 82 82 82 82 82 81 80 79
42 52 53 52 53 54 49 47 50 53 57 60 58 51 48 52 51 55 47 44 56 61 60 64 67 69 71 70 70 71 75 77 78 79 80 81 80 80 81 82 82 82 82 80 79 80 79 80 82 81 82 82 82 82 83 82 82 83 82 82 82 81 80
32 34 38 36 34 40 46 49 51 53 53 50 52 56 50 46 47 52 50 52 61 61 60 64 64 65 67 65 66 69 71 72 74 75 78 79 79 79 80 80 81 80 80 80 79 79 79 81 82 80 80 82 83 82 82 83 83 82 83 83 82 81 80
33 36 35 42 44 43 40 45 47 48 51 54 52 50 48 51 41 50 50 57 62 59 64 63 65 62 66 68 66 69 70 72 74 73 76 79 79 79 80 79 80 79 78 78 79 79 81 82 82 82 82 82 83 81 81 83 83 83 82 82 81 81 81
40 42 43 46 47 42 43 43 44 48 50 51 51 48 51 50 47 49 49 51 55 64 67 66 64 64 62 62 63 67 69 73 76 77 74 78 79 80 79 79 78 78 78 78 78 79 80 81 82 82 83 83 82 81 81 82 83 83 83 82 81 80 79
42 44 44 46 45 45 45 46 46 46 49 50 48 49 52 51 57 54 54 48 55 64 66 61 59 61 62 67 70 73 73 73 74 74 76 77 79 79 78 77 77 78 78 77 78 79 80 81 81 81 82 82 81 81 82 82 83 83 82 81 80 80 79
41 43 43 46 43 44 45 46 48 50 50 50 51 52 54 55 54 57 55 50 58 62 57 60 62 61 61 62 63 64 64 68 70 73 75 77 78 78 78 78 78 78 78 78 78 78 78 80 80 81 81 80 82 82 82 83 82 83 82 81 79 80 79
37 42 45 45 45 46 45 49 50 50 51 52 52 53 56 53 55 58 59 55 57 57 59 60 63 62 63 63 63 63 63 66 71 72 75 76 77 78 78 77 79 78 78 78 78 77 78 79 80 80 81 81 82 83 83 83 82 83 83 80 80 80 79
32 40 43 45 46 46 45 46 48 49 50 48 50 50 51 49 48 49 54 54 50 56 62 62 62 63 62 62 63 63 64 64 67 71 74 75 76 77 78 79 79 78 78 77 77 78 79 80 80 81 80 81 82 83 83 83 84 84 83 81 80 79 80
30 39 42 42 42 46 43 43 46 49 51 53 54 53 54 52 51 48 48 49 56 58 61 61 62 63 63 63 64 64 65 65 64 69 73 75 77 78 77 78 77 78 79 79 78 80 81 81 81 82 82 82 81 82 82 83 83 83 83 82 80 79 80
29 38 39 41 40 38 37 50 53 51 48 50 48 48 50 52 53 51 55 56 59 60 61 62 63 63 63 64 65 67 65 64 64 67 69 73 76 77 79 79 79 79 79 80 80 81 81 82 84 84 83 83 83 84 84 83 83 82 81 81 80 79 79
28 35 37 38 35 39 49 54 55 54 54 53 49 53 52 52 53 53 54 56 58 60 63 63 63 66 68 69 67 68 69 67 66 65 69 71 74 73 74 75 78 78 78 78 78 79 81 82 81 82 82 83 82 83 83 83 82 80 80 80 79 79 78
34 32 29 33 35 47 52 53 53 55 56 53 51 52 52 53 52 52 51 54 57 60 63 64 65 64 68 69 69 68 69 69 68 68 66 69 74 74 75 76 75 75 78 78 79 79 81 81 82 83 83 84 84 84 85 83 82 81 80 79 79 79 79
26 31 29 34 44 46 45 45 45 48 44 46 44 42 48 52 53 51 50 53 56 59 62 64 65 66 69 66 66 69 69 69 70 70 70 69 71 73 73 76 74 74 76 78 79 79 80 82 82 83 83 84 84 84 83 83 81 81 80 79 79 79 79
36 27 28 30 36 33 38 43 49 53 54 53 53 47 48 53 53 53 51 51 54 57 60 61 64 65 64 59 60 66 67 69 69 71 72 72 72 73 74 74 75 75 76 77 79 81 79 80 82 82 83 83 81 80 81 81 81 80 80 80 80 79 80
32 28 26 27 31 35 38 40 45 50 54 53 54 47 43 49 52 52 51 51 53 56 57 58 62 63 57 56 59 63 66 68 69 69 71 72 72 72 73 75 76 76 77 78 80 79 79 79 79 80 82 81 80 79 80 80 80 80 80 81 81 80 81
32 31 28 26 33 31 38 43 46 50 53 53 50 40 39 48 51 52 51 50 52 54 58 58 57 55 54 55 58 63 65 68 69 69 69 70 71 72 73 74 74 75 76 77 77 78 78 77 79 80 81 80 80 79 79 80 81 80 81 81 82 83 83
34 35 33 36 36 44 45 45 48 51 51 51 42 35 41 50 51 52 52 51 52 54 56 56 51 54 56 58 61 64 67 67 67 69 70 71 71 71 72 73 74 73 74 75 74 75 74 75 78 81 80 80 79 78 78 78 79 81 82 82 82 82 82
33 35 34 35 37 42 47 47 49 49 50 40 37 46 52 51 50 52 52 51 52 54 55 56 53 53 58 61 62 64 66 66 66 67 68 69 70 72 73 74 73 72 73 72 73 73 73 75 78 79 79 78 76 76 77 77 78 80 79 80 81 81 81
37 34 34 34 29 40 48 46 47 47 40 39 44 48 49 50 49 50 51 51 51 53 52 56 55 55 56 57 59 63 64 65 65 66 67 66 67 68 69 70 72 72 70 70 70 72 73 75 78 79 79 76 76 76 75 75 76 76 78 78 78 79 79
32 32 29 30 37 42 48 45 37 43 44 47 47 47 44 48 48 47 49 51 52 52 53 53 54 55 55 56 58 61 63 64 65 66 66 66 67 68 69 70 71 71 69 69 69 70 71 73 75 77 77 75 75 74 73 74 75 76 76 76 76 77 78
35 34 37 41 45 45 47 48 46 47 49 49 48 47 46 45 46 49 48 49 51 53 53 54 55 53 55 55 57 58 60 62 64 65 65 65 66 67 67 68 70 70 68 68 69 69 70 71 72 73 75 75 74 72 72 73 74 75 75 76 75 74 74
44 46 46 47 46 45 46 50 50 48 47 49 48 47 45 47 48 49 47 49 50 52 53 52 54 54 54 54 57 58 60 61 63 64 65 65 66 66 68 68 69 69 69 69 69 69 69 70 71 72 73 75 73 72 73 73 73 74 75 75 76 75 74
38 35 46 43 42 44 46 48 51 50 49 47 47 47 47 48 48 49 50 50 51 52 52 53 53 55 56 54 54 57 59 60 61 62 63 64 65 65 65 67 68 67 68 68 68 68 68 69 70 71 71 72 72 72 73 73 73 74 76 76 76 74 73
38 37 43 43 45 47 48 48 47 46 47 48 48 48 48 49 50 50 51 51 51 53 51 53 53 54 56 55 54 54 57 59 60 60 61 63 64 65 66 67 68 67 67 67 67 67 67 68 69 70 70 70 70 71 71 72 73 76 76 76 74 72 72
41 45 45 43 45 49 48 49 48 47 46 46 47 48 48 49 49 50 51 53 51 52 52 54 54 53 54 55 54 54 56 58 59 59 60 63 63 64 65 66 68 67 67 67 67 67 67 67 69 69 69 69 70 70 71 71 72 75 75 75 72 71 72
34 35 38 41 34 35 42 44 46 46 48 48 47 47 47 48 48 49 49 50 53 53 54 55 54 52 53 55 55 54 55 58 58 59 61 62 63 64 65 66 67 67 68 67 66 67 67 68 68 68 69 69 70 71 71 72 72 73 73 72 71 71 71
33 40 43 44 43 41 43 45 47 48 48 47 46 45 46 48 49 49 49 48 50 51 54 57 55 54 53 55 55 55 55 57 59 59 60 61 61 62 64 64 65 66 67 68 67 67 67 68 68 69 69 69 69 71 71 71 72 72 72 71 71 71 72
42 45 44 45 43 40 44 47 48 48 48 47 46 47 48 48 49 50 49 50 49 50 52 56 56 55 54 55 55 54 55 58 58 59 60 61 62 63 64 63 64 64 65 66 66 66 66 67 67 68 69 68 68 70 70 71 72 71 71 71 70 70 71
40 46 46 46 45 46 47 48 49 49 51 50 48 47 48 48 49 51 50 50 51 51 52 53 54 55 54 55 55 55 54 56 58 60 61 62 63 63 63 63 63 64 64 65 65 65 66 67 67 68 68 68 68 69 70 71 72 71 71 71 71 71 71

ECMWFFLT2_sfc_temp_045.txt.gz
Temp
66 65 66 69 76 56 67 69 60 64 75 69 60 61 62 62 58 53 65 62 67 74 76 81 82 81 83 86 87 87 87 88 86 85 87 87 88 88 87 87 86 85 86 85 86 85 86 86 86 85 84 84 83 83 83 82 82 83 82 82 82 82 82
66 68 68 69 71 74 70 60 67 75 78 73 63 53 57 54 50 54 62 59 62 63 59 79 78 77 81 83 84 87 87 88 85 86 86 87 88 88 88 87 87 87 86 86 87 88 88 87 87 86 84 85 85 85 85 83 82 81 83 83 83 83 82
64 68 70 69 74 76 70 68 80 65 55 54 62 58 48 48 48 52 58 62 63 66 65 73 75 76 79 81 83 85 86 87 86 87 87 87 89 89 88 88 87 87 87 87 86 88 89 88 87 87 86 87 87 86 87 87 84 85 85 86 85 84 84
61 65 67 57 65 74 76 77 72 76 70 61 56 58 59 58 51 51 53 59 57 69 71 76 76 79 81 83 81 82 86 86 86 87 88 88 87 87 88 88 88 88 88 89 89 89 89 89 88 89 88 89 88 88 87 87 87 86 85 85 84 84 85
61 56 63 62 66 64 65 65 65 69 67 73 70 67 61 56 52 53 53 51 60 71 78 78 79 81 83 84 82 81 84 87 89 88 88 88 87 87 88 89 89 89 89 90 90 90 91 91 90 90 90 89 89 89 88 88 86 87 86 86 86 84 85
55 60 66 63 61 61 61 63 64 67 63 59 54 52 67 63 57 50 52 51 63 76 80 81 82 84 85 87 86 85 86 89 88 88 89 88 87 88 89 90 91 90 89 90 91 90 90 91 90 90 90 90 90 89 89 89 89 88 88 87 85 84 85
53 60 64 66 64 62 62 63 61 67 68 68 60 49 56 63 63 66 62 56 60 78 81 79 83 86 88 88 88 88 89 90 90 89 91 89 88 89 90 90 91 91 90 90 90 89 88 88 88 89 90 90 89 89 90 89 89 88 89 89 88 85 85
57 61 64 63 63 63 58 59 63 64 61 64 63 63 65 60 62 58 58 53 62 77 81 82 83 83 85 85 86 87 92 92 90 88 89 88 87 87 90 91 92 91 91 90 88 86 86 86 86 88 89 89 90 90 90 90 89 89 90 90 89 86 85
50 56 60 60 62 63 59 58 59 59 60 61 62 63 63 58 62 62 58 50 61 76 77 81 83 83 82 84 86 85 84 86 88 89 88 88 86 86 88 89 89 89 90 87 85 85 84 85 88 88 88 88 90 89 90 90 90 91 90 90 89 87 87
37 38 41 46 51 54 56 56 55 57 57 57 59 57 60 52 60 63 59 59 69 76 75 77 81 82 79 82 85 86 86 84 85 86 86 85 86 84 86 87 88 88 87 86 85 84 84 87 88 86 86 88 90 89 89 91 90 90 90 90 89 88 88
43 45 40 44 49 51 51 54 55 55 56 58 56 56 56 55 60 59 63 66 68 71 76 77 81 80 82 85 84 84 85 85 84 82 84 86 84 84 86 86 87 86 85 85 84 84 87 89 89 88 88 88 89 87 88 90 91 90 89 89 87 88 88
46 49 48 50 51 47 51 51 53 56 55 55 54 54 57 57 59 55 64 66 66 70 75 75 75 77 78 79 79 81 80 79 80 82 81 82 86 87 86 86 85 84 84 84 84 84 86 88 89 89 89 89 88 87 88 89 91 91 90 88 87 86 86
49 51 50 51 49 50 50 52 52 52 55 55 53 54 57 57 56 57 63 66 64 69 71 70 72 71 71 74 75 75 75 78 80 79 80 83 86 87 87 84 83 84 84 83 84 85 86 88 87 88 89 89 88 87 88 89 91 90 88 87 86 86 85
47 49 50 50 49 50 51 51 53 55 55 56 57 57 60 60 56 59 62 63 64 65 66 69 71 71 71 72 73 75 75 75 74 76 78 82 85 88 88 86 86 84 85 84 83 84 84 86 86 88 87 87 88 87 88 89 88 90 88 86 85 85 85
44 49 51 52 52 51 48 52 54 56 57 59 58 59 59 59 59 62 63 62 62 67 68 68 71 71 74 73 73 73 72 73 74 74 77 79 82 85 88 86 86 85 85 85 84 83 83 85 85 86 86 87 88 90 89 90 88 89 89 85 86 86 84
40 48 49 51 52 52 50 50 54 55 56 53 53 51 53 52 53 56 59 59 62 63 67 69 71 71 70 70 70 71 71 72 72 73 75 76 78 82 85 88 88 86 86 85 84 84 86 87 86 87 85 88 89 89 89 89 90 91 89 87 86 84 86
38 48 48 48 48 48 46 48 53 55 54 55 55 54 54 52 54 55 58 61 58 60 64 65 68 70 69 69 68 68 69 69 71 72 73 76 78 80 82 84 86 88 88 87 85 87 88 88 88 89 88 89 87 88 88 89 89 90 89 89 86 84 85
39 45 46 48 44 36 42 58 61 59 54 54 50 48 50 52 53 51 54 54 58 59 60 62 65 67 67 67 68 70 68 68 69 71 74 76 78 80 85 87 89 88 87 88 88 88 87 89 91 91 90 89 89 90 90 89 89 87 86 87 86 84 84
36 43 44 41 34 41 51 56 58 60 58 57 53 51 51 51 52 52 53 53 55 57 59 63 65 68 70 71 70 70 71 70 69 69 73 75 77 78 82 85 89 87 86 87 87 87 89 90 90 90 90 91 90 90 89 88 88 85 85 85 84 84 83
39 38 39 29 39 50 53 54 54 58 59 58 56 50 50 52 51 52 50 52 54 56 60 64 67 68 72 74 72 70 70 70 69 70 72 76 77 78 82 86 86 85 88 87 88 87 89 90 91 91 90 91 91 90 91 89 88 86 85 84 84 84 83
30 37 40 41 45 45 50 49 47 49 47 49 50 43 45 51 53 51 49 51 53 55 59 63 67 71 73 72 71 71 69 68 69 71 72 76 79 80 82 88 88 87 88 88 90 88 89 91 90 91 92 92 91 91 90 89 86 87 86 84 84 83 83
39 36 36 38 37 33 40 46 51 54 53 53 54 51 46 52 53 53 50 50 51 53 57 60 63 70 70 64 63 67 67 67 66 71 74 77 80 81 83 87 87 86 87 89 88 90 89 90 91 91 92 91 89 87 88 88 87 86 85 85 85 84 84
36 36 32 34 33 36 39 43 49 53 55 54 55 51 43 49 50 50 50 50 52 52 53 57 60 64 59 55 57 62 62 62 63 67 72 75 78 81 82 84 87 88 86 87 89 89 88 89 90 90 90 90 88 86 87 87 86 86 85 85 86 85 85
36 37 35 33 35 33 41 46 50 54 56 54 52 43 40 46 49 49 49 49 50 51 53 56 56 51 48 48 52 59 60 61 62 69 70 72 75 78 81 84 86 86 85 85 86 87 88 87 89 89 90 88 87 86 86 88 87 86 86 86 87 87 87
37 36 36 38 38 44 46 47 50 54 54 51 44 38 39 47 48 49 48 48 49 50 52 53 50 53 53 54 56 59 61 60 64 70 72 73 75 76 79 79 80 85 86 87 88 89 88 86 89 90 88 88 86 85 85 85 86 88 88 88 87 87 86
34 36 34 36 38 42 46 49 50 51 47 39 36 42 48 48 46 48 48 48 49 49 51 52 52 53 56 57 58 58 58 59 63 68 70 72 74 78 79 78 79 82 86 86 88 90 86 87 88 88 87 85 84 84 85 85 86 90 89 88 87 86 86
40 37 34 34 29 40 48 46 48 48 42 38 45 46 48 49 47 47 47 48 48 49 49 53 53 54 55 55 56 56 57 59 62 65 67 68 70 72 75 78 80 81 81 82 85 86 88 89 89 89 89 84 84 84 83 85 88 89 88 88 87 86 86
33 35 32 30 36 41 47 45 36 42 44 47 48 47 44 48 48 46 46 48 49 50 50 51 52 54 54 54 55 56 58 59 61 64 66 68 70 71 74 77 78 81 79 79 80 83 87 88 88 88 87 83 83 83 83 86 88 88 88 87 86 86 85
34 33 35 39 43 45 47 47 46 46 49 49 48 47 47 45 45 49 47 48 50 50 51 51 51 52 53 53 55 54 55 57 60 61 63 65 67 69 70 73 76 79 79 78 79 80 82 83 85 86 86 84 83 82 83 84 85 86 86 86 85 85 85
43 44 42 44 44 44 46 50 50 48 50 51 50 48 46 47 48 49 47 48 49 50 51 50 51 52 53 54 55 56 57 58 60 61 62 64 66 68 69 71 73 75 79 79 79 78 78 81 82 83 85 85 82 81 82 83 85 85 85 84 84 84 85
38 33 42 41 41 45 48 47 49 51 50 50 50 48 47 48 48 49 50 50 50 50 51 51 51 52 54 55 55 56 57 58 59 60 60 62 64 65 66 69 71 72 74 75 76 77 76 78 80 82 82 82 81 81 81 83 84 84 84 84 83 84 84
37 36 42 43 45 46 49 46 45 47 48 50 50 49 50 50 50 49 50 52 51 51 50 52 52 53 56 56 54 55 56 57 58 59 60 61 63 65 66 68 71 72 72 72 72 74 75 76 77 78 79 79 80 81 82 83 84 83 83 84 84 84 84
42 45 45 44 45 48 49 48 49 49 49 48 48 49 49 50 49 50 52 53 52 52 51 52 52 53 55 57 56 56 56 57 58 59 60 61 61 63 65 67 69 70 72 73 74 74 75 76 77 77 77 78 79 80 81 82 83 83 81 81 82 84 85
36 35 38 41 35 36 42 45 48 49 51 50 48 48 48 50 50 50 50 51 53 53 53 53 52 52 54 57 57 55 56 57 58 59 61 62 61 61 64 66 68 70 71 72 74 74 75 76 76 77 77 78 78 80 81 82 83 82 81 80 80 80 83
33 40 42 43 42 41 43 46 50 51 51 50 48 47 47 49 52 52 50 49 50 51 53 55 53 53 54 55 57 56 56 57 59 60 61 62 62 62 63 65 65 66 69 71 73 74 75 76 77 77 77 78 78 80 80 80 80 81 81 80 81 81 81
43 45 44 45 43 41 44 48 50 50 51 50 49 49 49 50 51 53 51 50 49 50 52 54 54 54 54 56 57 55 56 58 59 60 62 63 63 64 63 64 64 65 66 68 70 71 74 75 77 77 79 79 77 81 80 80 80 80 81 82 81 82 83
40 46 46 46 46 47 48 49 50 51 52 51 49 48 49 49 51 53 51 51 52 52 51 52 55 56 55 56 56 56 56 57 60 62 62 62 64 64 64 64 63 64 65 67 69 72 74 75 76 77 77 77 78 79 79 80 81 80 79 82 84 83 81

ECMWFFLT2_sfc_temp_048.txt.gz
Temp
77 78 80 80 82 63 74 75 66 71 82 77 68 68 72 71 66 62 74 70 74 83 84 86 87 88 90 92 92 93 93 95 94 94 96 97 97 97 96 95 94 92 93 92 92 92 92 92 91 91 89 90 89 89 88 86 86 87 86 85 86 86 86
76 80 82 82 82 82 79 68 73 82 85 81 70 59 64 62 57 61 71 67 69 69 65 85 85 85 88 90 91 94 93 94 94 94 95 96 97 98 98 96 94 94 93 92 93 94 94 93 93 91 89 91 90 90 90 88 87 86 87 87 88 87 86
75 77 76 75 81 84 76 76 86 71 62 60 68 64 54 56 55 59 66 70 71 73 71 80 81 83 85 88 90 92 93 94 94 95 96 96 98 98 97 97 95 95 94 94 92 95 96 94 92 93 92 93 93 92 92 92 89 90 90 91 90 88 88
73 73 72 60 68 79 82 82 77 83 76 68 63 65 66 65 58 59 62 68 64 76 78 83 82 84 86 88 89 91 94 95 95 96 97 97 96 96 98 98 97 96 96 97 96 96 96 95 94 95 95 95 95 94 92 92 93 91 90 90 89 88 90
69 60 69 66 70 67 70 71 69 73 74 80 77 74 66 62 59 60 61 60 67 78 86 86 85 86 87 89 88 90 92 95 98 98 98 97 97 97 98 99 99 98 97 98 98 97 98 98 97 97 96 95 95 95 94 94 91 92 92 92 91 89 90
61 63 74 74 74 76 74 71 68 73 68 65 60 58 75 70 63 56 60 59 71 83 90 88 88 90 90 91 91 91 93 96 96 98 99 98 98 98 99 101 102 101 98 98 99 98 98 98 97 97 97 97 97 96 96 95 96 94 94 93 91 89 90
60 69 75 78 75 73 70 72 72 76 75 73 65 54 63 70 69 72 69 64 68 85 88 89 90 91 93 93 94 92 95 96 97 98 101 100 98 99 101 101 103 103 100 98 98 96 95 96 95 96 97 97 97 97 97 96 96 95 96 96 94 90 90
64 67 71 73 75 73 69 71 74 75 70 72 70 69 71 67 68 64 65 59 68 84 87 88 90 90 92 93 94 93 96 97 98 98 99 98 97 97 101 102 104 102 100 98 96 95 94 94 94 95 96 96 97 97 97 98 97 97 97 97 95 92 91
54 59 65 68 73 72 69 70 74 74 76 77 74 70 68 61 68 71 64 56 67 81 87 87 88 90 92 92 94 95 93 95 98 100 99 99 96 96 99 100 100 99 100 96 94 94 91 92 96 94 95 95 97 96 98 98 98 99 97 97 96 94 93
40 43 46 49 55 61 67 70 72 74 71 68 67 61 64 56 64 67 65 66 75 83 84 85 86 88 88 92 94 96 96 94 96 95 95 95 97 94 96 97 98 97 96 95 93 92 91 94 96 93 93 95 97 97 97 99 99 98 98 98 97 95 94
46 50 46 55 59 58 58 66 68 67 70 73 70 67 63 58 64 64 67 69 73 77 82 82 85 86 88 89 89 89 90 90 91 90 91 94 92 92 93 93 95 94 93 93 92 91 94 96 96 96 95 95 97 95 95 98 99 98 96 96 95 95 94
51 54 55 57 58 54 57 58 61 67 66 67 66 63 60 67 63 58 68 71 69 76 80 82 82 83 81 83 83 85 86 87 89 90 87 87 93 94 93 93 93 92 92 92 91 91 93 95 96 96 96 97 96 95 95 97 99 99 98 96 94 93 92
54 57 57 59 58 58 58 59 60 60 64 64 63 64 69 69 62 60 68 70 70 75 81 80 80 79 80 82 82 84 86 88 87 86 88 91 94 94 94 91 91 91 92 90 90 91 92 95 94 95 96 96 95 95 96 96 99 98 96 95 94 94 92
52 54 56 59 57 57 59 59 60 63 63 63 65 66 68 70 65 68 70 69 71 79 77 77 79 81 83 84 84 86 84 84 83 85 86 90 92 93 95 94 93 91 92 91 89 90 90 93 93 95 95 94 96 95 95 97 96 98 96 94 92 93 92
48 54 57 58 58 57 55 59 61 62 64 65 66 67 69 69 68 71 70 68 69 75 73 76 79 82 85 84 82 82 81 82 83 83 85 86 86 88 89 89 94 93 92 92 90 89 89 91 92 93 94 94 96 98 97 98 95 97 98 93 93 93 91
44 52 52 55 58 59 56 56 58 60 62 60 64 63 67 66 64 67 68 64 67 75 70 75 79 80 80 80 80 80 79 80 79 79 81 82 82 85 87 88 88 90 94 93 92 91 93 94 94 94 93 95 96 97 97 97 98 99 97 94 93 91 92
42 51 54 54 56 55 52 54 59 62 64 65 60 61 61 64 64 61 60 65 68 63 67 69 74 78 80 79 79 76 75 74 75 75 76 79 81 83 84 86 87 90 92 96 94 94 95 95 95 96 95 96 94 95 95 96 97 98 97 96 92 90 92
40 48 51 53 48 39 44 64 69 67 64 62 56 55 61 63 63 63 63 62 63 64 64 66 68 72 74 76 76 76 72 71 72 74 75 77 79 81 84 86 88 88 89 92 97 97 95 96 99 99 97 97 96 97 97 96 96 95 94 94 92 90 90
39 46 47 42 36 41 60 66 70 72 70 63 59 59 62 61 62 62 63 63 60 60 62 65 69 71 75 79 76 75 73 72 72 72 74 75 76 77 80 83 87 87 87 91 94 96 98 99 97 98 98 99 97 98 97 96 95 92 92 91 90 90 89
45 41 40 29 39 52 60 61 58 62 68 64 61 56 56 58 58 58 58 58 60 59 62 67 71 72 76 79 75 75 74 73 71 71 72 74 75 76 80 82 83 85 89 90 96 96 97 99 100 100 98 99 99 98 99 97 95 93 92 90 90 89 88
35 40 39 40 50 48 51 48 52 52 52 54 54 47 49 56 58 58 56 56 55 56 61 68 70 74 77 76 73 74 72 70 72 71 70 71 72 76 81 86 87 88 89 92 96 96 98 100 100 99 100 100 99 99 98 97 93 94 92 89 89 88 88
45 37 35 38 41 35 44 45 53 55 57 58 57 55 48 55 58 60 57 54 53 54 59 64 68 73 73 69 71 69 70 70 69 70 71 72 73 79 84 86 88 90 93 95 97 98 98 97 100 100 99 98 96 94 95 96 95 93 92 90 90 89 90
40 37 32 32 33 40 44 47 50 53 55 56 56 52 46 51 57 59 59 55 52 53 56 61 66 69 67 68 64 64 64 65 66 67 69 70 73 80 85 88 89 90 92 94 97 96 97 97 98 98 98 96 95 93 93 94 93 92 91 91 91 90 91
41 39 34 33 42 40 45 49 49 50 55 53 50 42 43 49 57 58 57 53 51 52 54 58 59 57 56 54 57 61 61 63 64 64 64 65 70 78 84 89 89 88 89 91 94 96 96 95 98 97 98 96 94 92 93 95 94 92 91 91 92 92 93
41 37 36 41 44 52 51 51 52 51 52 50 40 38 43 52 55 56 56 53 52 52 53 54 51 54 56 57 59 62 62 63 63 65 66 67 71 76 81 85 83 88 91 93 94 96 95 94 98 98 96 95 92 91 91 91 91 93 94 93 92 92 91
38 39 35 37 44 45 50 55 54 51 46 40 39 44 51 54 54 57 57 53 53 53 53 54 55 56 59 60 61 61 62 61 61 63 65 67 71 76 79 81 85 88 93 92 93 97 95 96 96 96 94 91 90 89 90 91 92 96 94 93 92 92 90
42 40 35 33 30 44 51 51 52 51 40 39 43 49 54 56 55 55 55 54 53 54 52 55 54 56 57 58 59 59 61 61 60 61 63 64 66 69 73 79 85 89 89 91 94 96 97 97 98 98 96 90 89 89 89 90 94 95 94 94 92 91 90
32 35 32 32 37 44 52 48 39 43 44 46 49 50 52 57 58 55 54 54 54 53 53 53 55 55 56 57 58 58 60 61 61 62 64 64 66 68 73 79 81 85 86 85 89 95 96 96 96 95 93 89 88 88 88 92 94 94 93 92 91 90 89
35 33 36 43 48 50 52 51 49 48 50 50 49 51 53 54 56 57 52 51 53 54 53 53 54 53 55 55 57 57 58 59 60 61 61 62 63 65 68 73 77 83 86 85 87 91 94 93 94 93 93 89 88 87 90 91 92 92 92 91 89 89 89
44 44 46 49 51 51 49 49 49 48 49 50 50 50 51 55 56 58 55 53 53 53 55 53 54 54 54 54 56 57 59 59 60 61 62 63 64 64 67 69 73 78 86 87 88 86 88 91 92 91 92 91 87 88 91 91 92 92 90 89 88 88 88
39 34 47 47 47 50 49 48 51 52 51 49 49 49 51 54 57 58 58 56 54 54 55 54 53 54 55 55 55 57 58 58 59 60 60 62 62 62 63 65 70 73 79 83 82 84 84 88 90 91 90 91 90 90 90 91 91 90 89 88 87 88 88
37 38 45 48 51 52 51 48 46 48 49 49 50 51 53 55 57 59 59 59 57 57 56 55 55 55 55 55 54 55 56 57 58 58 60 62 61 62 64 65 68 71 73 77 80 82 82 84 86 86 87 88 89 89 90 91 92 90 88 88 88 88 89
42 47 47 47 49 51 49 50 50 50 50 49 49 51 52 54 56 58 60 60 57 56 55 56 54 55 55 56 56 55 56 58 58 57 59 61 60 61 63 64 67 69 72 74 76 79 80 83 85 85 85 86 88 88 89 90 90 88 87 86 88 90 91
37 35 38 42 36 37 42 47 48 49 50 50 49 50 51 53 54 56 56 58 58 57 57 57 57 54 55 55 56 55 56 57 58 58 58 60 61 63 64 64 66 69 71 72 75 77 79 82 83 83 84 85 87 89 90 90 89 88 87 87 87 88 90
34 41 43 44 43 43 45 47 49 49 50 50 49 48 50 52 55 56 56 56 56 55 56 58 57 58 56 55 56 56 56 57 58 59 59 59 61 62 63 62 63 67 70 73 74 76 78 80 82 82 82 85 86 88 87 89 89 88 88 87 88 90 89
45 46 45 45 43 41 45 48 49 50 50 49 49 50 51 52 54 56 55 56 54 53 54 56 58 58 58 57 57 55 56 58 58 58 59 61 63 64 64 62 62 65 68 72 73 75 77 79 81 82 84 84 84 88 87 88 88 88 88 88 88 90 91
41 47 46 47 47 48 49 50 50 51 51 50 48 49 51 52 54 56 55 55 56 54 53 54 56 59 59 60 59 56 55 57 58 59 59 61 63 63 63 63 62 64 66 71 74 75 77 78 79 80 80 81 82 86 86 87 86 86 86 89 92 92 90

ECMWFFLT2_sfc_temp_051.txt.gz
Temp
82 83 85 83 85 65 78 79 69 74 85 80 70 71 76 78 72 66 79 76 80 88 90 92 92 95 94 96 97 97 97 98 99 98 99 99 99 100 97 94 95 92 94 95 96 95 95 95 95 94 92 93 92 91 90 88 88 88 88 87 88 88 88
81 85 86 84 84 84 81 73 77 86 88 85 73 63 67 66 63 66 76 73 75 74 69 88 88 89 93 94 95 97 96 98 98 99 98 98 100 102 100 94 94 95 94 95 97 98 97 96 96 95 93 94 93 93 92 89 89 87 89 89 90 89 88
79 84 84 81 85 87 78 78 91 75 66 63 71 68 57 59 58 63 72 76 77 77 75 84 83 85 88 91 93 94 95 96 97 98 99 100 101 101 101 99 94 93 94 94 96 98 99 97 95 96 96 96 96 95 94 94 90 91 91 93 92 90 90
78 79 77 63 72 82 85 86 79 87 80 72 65 68 69 68 62 63 65 73 69 82 84 87 86 87 88 91 92 93 96 96 96 97 99 100 99 100 101 100 98 98 97 97 98 99 99 98 97 98 98 98 97 96 95 94 94 92 91 92 91 90 92
77 66 74 70 73 70 75 74 73 76 76 83 80 78 70 66 62 64 65 64 71 82 91 90 89 90 91 91 91 92 95 97 99 98 99 99 100 100 101 101 98 95 94 95 97 101 101 101 99 99 99 98 98 98 97 96 93 94 93 94 93 91 92
65 69 78 78 77 78 75 75 72 76 72 68 64 62 79 74 66 58 63 63 76 90 95 93 93 94 93 94 94 94 96 99 98 99 100 100 100 101 101 103 102 100 98 98 98 97 99 101 99 99 100 99 99 98 98 97 97 95 95 94 92 91 92
66 73 79 83 83 82 79 78 75 79 77 75 68 57 65 74 73 76 73 68 72 87 93 94 95 95 96 96 96 96 97 98 100 101 103 102 101 101 103 104 103 100 98 95 95 95 96 99 98 99 99 99 99 99 99 98 97 96 97 97 96 92 92
68 72 74 77 82 80 71 71 78 76 72 76 72 71 74 70 72 67 68 63 73 88 90 91 95 95 98 96 98 95 98 99 100 100 102 101 100 100 103 103 105 102 99 97 95 97 96 97 97 98 99 99 99 100 100 99 98 98 98 98 97 94 93
57 61 68 69 74 74 70 70 73 75 76 79 78 76 76 67 71 74 67 59 71 87 89 92 94 94 95 96 98 99 97 98 100 100 100 102 99 100 102 101 101 100 100 98 94 94 94 96 99 98 98 98 100 99 100 100 100 100 99 99 98 96 95
42 44 47 52 58 66 71 75 76 77 76 73 72 66 65 58 68 66 63 68 77 88 89 88 89 90 89 94 98 99 98 96 99 98 101 99 100 97 99 100 100 100 99 96 94 95 95 98 100 96 96 99 100 100 100 101 101 100 100 101 99 96 96
50 56 55 59 61 61 57 63 69 71 75 78 76 73 67 62 67 66 67 69 74 78 86 86 89 89 89 91 94 94 94 96 96 94 93 98 99 98 100 99 99 98 97 94 95 95 98 100 100 100 99 99 100 98 98 102 102 101 99 99 97 97 96
55 58 58 62 61 57 60 62 62 65 67 68 66 65 66 71 68 60 69 73 71 72 82 83 83 87 90 90 92 92 92 92 95 94 93 92 100 101 100 100 99 99 98 96 95 95 98 99 100 100 100 100 99 98 99 100 102 102 101 99 97 96 95
60 61 61 63 61 60 60 60 61 62 65 65 62 63 72 70 64 61 70 74 72 77 77 77 81 80 84 88 89 90 91 92 91 91 93 97 99 97 97 95 94 96 97 96 94 96 97 99 98 99 100 99 98 98 99 99 103 102 100 99 97 97 94
60 61 62 64 61 61 62 62 63 65 65 65 66 66 72 72 67 71 73 72 75 78 75 78 79 83 86 86 88 88 88 86 85 89 90 91 91 94 95 95 97 96 96 96 95 95 94 97 97 100 99 97 99 99 99 101 100 102 100 98 96 96 95
55 60 63 62 61 61 58 61 64 65 65 65 67 68 70 72 71 73 73 71 72 77 77 79 81 82 87 87 85 84 83 84 85 85 87 87 87 89 88 89 90 93 96 97 96 94 94 95 96 97 98 98 99 102 101 101 100 101 102 96 97 96 94
49 57 59 61 61 60 59 59 61 63 63 61 65 65 70 67 65 69 70 66 68 76 76 80 80 80 83 82 80 82 81 82 82 82 84 84 84 85 86 86 88 90 94 95 96 95 97 97 97 98 96 98 100 100 101 101 102 104 101 98 97 94 95
46 56 59 60 60 57 53 55 60 63 65 66 68 70 71 72 73 65 62 65 74 72 74 74 77 79 80 79 78 77 78 78 81 81 81 83 83 84 84 85 86 91 91 93 96 98 98 98 98 100 100 100 97 99 99 100 101 102 101 100 96 94 95
45 53 56 58 50 39 45 66 71 68 65 65 63 66 71 74 74 71 73 73 73 71 71 71 72 74 75 78 80 78 76 76 77 80 81 81 82 83 84 84 86 86 88 89 91 94 96 99 102 102 101 101 99 101 101 100 100 98 98 97 96 94 93
42 50 52 45 37 41 60 70 71 68 65 66 68 68 71 73 74 74 72 72 71 69 70 71 73 75 78 82 80 79 78 77 77 76 78 78 79 80 81 81 83 83 84 87 90 91 95 99 100 100 101 102 101 102 102 101 100 96 96 95 94 93 92
50 46 44 30 39 58 63 67 62 64 67 62 59 63 70 72 72 71 68 71 72 70 71 72 75 75 80 84 78 78 77 78 76 76 76 77 78 79 80 79 80 81 85 87 91 91 93 96 102 103 101 103 103 102 104 101 100 98 96 94 94 93 92
41 45 43 43 54 54 58 58 53 56 49 49 47 44 61 68 69 67 66 68 70 69 71 73 75 77 79 79 77 76 77 75 77 76 76 77 77 78 79 81 81 82 85 88 93 93 95 97 99 104 104 105 103 103 102 102 97 98 97 94 93 91 91
51 44 42 42 44 37 48 50 59 61 58 57 56 50 49 66 69 69 67 65 67 67 69 71 72 74 72 70 76 71 74 75 75 76 76 76 76 78 78 79 81 82 86 90 93 94 95 97 99 103 104 103 101 98 99 101 99 97 97 95 94 92 93
47 44 39 38 35 41 46 51 56 61 60 58 57 51 45 57 63 65 64 64 64 63 64 66 71 70 68 71 71 67 70 72 73 73 73 75 75 76 77 78 79 82 83 84 88 91 92 96 99 101 104 102 101 98 97 99 98 96 95 95 95 93 93
46 45 41 38 47 43 49 54 58 63 61 57 52 38 40 46 55 60 60 59 59 60 63 65 69 64 62 66 63 69 69 71 72 71 71 70 72 73 76 79 79 78 79 82 87 92 94 95 100 101 103 101 98 97 97 100 98 96 95 95 95 95 95
45 42 44 48 51 51 53 55 59 60 59 54 41 36 40 48 53 59 59 59 59 60 61 63 62 64 64 65 66 68 69 69 70 71 72 71 71 71 73 74 72 77 80 85 91 95 95 96 100 103 102 100 97 95 96 96 96 97 97 96 95 94 93
45 47 43 45 50 45 53 56 59 59 53 41 37 41 48 49 52 57 59 58 59 60 60 61 62 64 68 70 67 67 67 67 67 68 69 70 71 73 71 70 72 75 78 81 86 96 96 99 100 101 99 96 94 93 95 95 96 99 97 96 95 94 92
50 47 43 40 34 47 55 54 56 57 46 42 44 46 50 53 52 55 58 59 58 59 58 61 62 64 66 65 65 65 66 66 65 65 66 65 67 66 67 68 71 74 76 79 84 91 99 101 101 100 102 95 94 93 93 94 98 98 97 96 94 93 92
34 40 37 36 41 48 54 51 42 48 48 49 49 47 47 51 53 54 57 59 59 59 58 59 60 62 63 62 63 64 65 65 65 65 65 65 65 66 67 68 69 72 74 78 82 91 94 98 99 99 98 93 92 92 92 95 98 97 96 95 93 92 91
41 38 41 46 52 53 55 52 51 52 54 54 53 52 50 49 49 55 54 56 58 59 58 59 60 59 61 60 62 61 62 63 63 62 62 64 64 63 62 63 66 69 72 75 82 89 93 95 97 97 97 93 91 91 93 94 94 95 94 93 92 91 92
46 51 51 50 52 55 55 56 55 52 54 56 56 54 51 53 53 52 52 54 57 59 59 56 58 59 60 59 60 60 61 61 61 61 62 62 62 62 62 63 65 67 71 75 85 90 88 94 96 94 96 95 91 91 94 93 94 94 93 91 90 90 90
40 35 46 48 51 55 54 50 52 55 56 55 56 55 54 54 53 52 54 56 57 58 59 58 57 59 60 58 58 59 59 59 59 60 60 60 60 59 59 62 64 64 66 72 81 87 86 91 95 96 95 95 92 92 92 94 94 93 92 90 89 89 89
37 39 47 51 55 55 52 51 50 52 54 55 56 56 57 56 55 55 55 57 56 58 58 59 58 59 61 59 58 58 58 58 58 59 60 60 58 59 60 62 63 63 64 69 77 83 83 84 88 92 93 92 91 92 93 94 95 93 90 89 89 90 91
45 50 51 52 53 51 49 52 54 54 54 54 55 56 56 57 55 55 57 58 57 58 58 60 59 58 60 62 62 59 58 58 58 59 59 59 58 58 60 61 62 61 63 67 76 81 84 84 86 86 88 91 92 91 92 93 93 91 89 88 89 91 92
40 39 42 46 39 40 47 50 53 54 56 55 54 54 54 55 53 54 54 56 58 59 60 61 61 58 59 62 64 61 59 57 58 58 59 59 59 59 61 61 61 61 63 65 73 79 80 83 84 84 86 88 90 92 93 93 92 89 88 88 89 90 91
36 44 47 47 45 44 47 50 52 55 56 54 52 51 52 53 54 54 53 53 55 56 59 62 60 59 59 60 62 63 61 59 59 58 58 58 59 59 60 60 60 60 62 64 75 79 80 82 83 83 84 87 87 91 92 92 91 89 89 88 89 91 91
48 50 49 48 44 43 47 51 53 54 54 53 52 53 54 54 54 54 53 54 54 55 57 60 62 61 60 60 61 61 62 62 59 59 59 60 60 59 61 60 60 60 60 62 72 75 77 78 82 84 86 86 86 90 90 92 92 89 89 89 90 92 93
45 52 52 51 50 49 51 53 54 55 55 54 52 52 53 53 54 55 53 54 55 55 56 57 61 63 61 61 62 61 60 61 61 59 59 59 60 59 59 59 60 60 60 63 71 74 76 76 77 79 80 81 84 87 88 89 91 90 89 91 93 94 93

ECMWFFLT2_sfc_temp_054.txt.gz
Temp
84 84 84 82 84 64 76 78 69 73 83 78 69 69 73 72 66 62 77 75 79 87 88 92 93 93 94 95 97 98 98 98 95 88 90 91 91 92 92 91 90 89 90 88 89 89 89 90 90 90 89 91 90 89 88 86 85 86 86 85 85 85 85
83 86 87 85 85 83 78 70 76 85 87 83 71 60 65 63 59 63 73 71 74 74 68 88 89 89 92 93 94 96 97 98 96 88 91 89 90 91 92 92 91 90 90 89 91 92 92 91 92 90 88 92 91 91 89 87 86 85 86 87 87 86 85
81 85 84 79 84 89 78 75 88 74 65 62 70 66 54 56 56 60 68 73 74 77 76 84 84 86 89 91 93 93 95 99 98 94 89 91 93 93 91 91 91 91 90 90 90 91 92 91 89 89 91 94 95 93 92 91 87 88 88 90 88 87 87
78 80 78 64 73 83 85 85 78 82 74 68 65 66 66 65 57 59 62 69 66 81 82 88 86 88 88 90 91 92 95 95 95 97 96 93 94 92 90 91 92 90 91 92 92 93 93 92 91 91 93 95 94 93 93 91 90 89 89 89 88 87 89
75 64 72 68 72 70 74 73 71 74 75 80 76 76 70 63 59 59 60 61 69 80 91 91 91 90 89 90 90 92 94 96 97 97 98 97 95 92 92 94 93 93 92 94 93 93 94 93 92 90 89 87 91 92 94 92 89 90 90 90 90 88 88
63 67 77 77 77 77 76 75 72 73 70 66 61 58 77 73 64 56 60 58 71 87 94 93 92 93 91 92 92 93 96 98 96 97 99 99 97 91 94 93 95 94 95 95 95 95 94 93 92 87 84 82 85 88 91 93 92 91 91 90 89 88 88
64 71 77 81 81 78 74 75 75 78 76 75 67 54 63 73 74 74 70 64 68 87 92 91 94 96 98 96 96 93 96 97 98 99 101 101 97 97 94 95 95 96 95 95 95 93 92 92 88 85 84 84 83 85 88 94 93 92 92 92 91 89 89
67 71 75 76 77 76 74 74 76 77 74 73 68 69 71 66 70 65 66 60 68 87 89 91 95 96 99 96 97 94 96 98 98 98 99 97 96 97 96 95 98 93 94 94 91 90 90 90 88 85 85 86 87 90 88 95 94 93 93 93 93 90 90
56 61 67 69 75 74 71 71 75 77 78 77 75 72 68 58 65 70 65 57 68 83 90 91 92 94 95 97 99 99 96 96 98 99 99 98 94 95 99 99 93 93 93 91 89 89 88 89 90 88 89 90 91 92 91 89 93 95 94 94 93 91 91
40 42 47 51 58 64 70 73 73 74 77 74 69 62 64 55 62 64 62 65 75 85 86 87 91 91 90 93 95 98 97 97 97 99 99 95 94 92 95 96 91 91 90 91 89 88 88 92 94 90 90 91 93 93 93 96 95 95 95 95 94 92 92
48 54 57 61 64 61 58 63 66 66 70 72 69 65 61 60 63 63 66 66 72 77 82 76 78 86 90 91 93 90 91 95 95 92 92 95 95 93 96 95 93 89 88 89 89 88 92 94 95 95 94 95 95 92 93 94 95 96 95 95 93 93 92
54 57 57 61 61 57 59 60 62 67 67 66 64 61 56 63 56 51 61 68 71 74 78 80 79 78 83 83 82 90 87 89 90 88 86 92 101 96 96 95 93 89 88 89 88 89 92 95 95 96 95 95 94 93 94 94 97 98 97 95 93 92 91
58 60 60 62 60 61 60 61 61 60 64 65 61 60 65 64 56 52 63 64 65 75 77 77 76 77 79 81 78 80 86 87 88 87 88 86 89 98 96 90 90 89 90 88 89 91 92 95 95 96 96 96 95 95 96 97 97 98 96 95 93 93 91
57 59 61 62 61 61 62 62 63 64 64 64 64 65 68 66 62 64 65 65 67 77 76 78 76 75 79 78 77 79 78 83 83 86 85 86 87 86 86 86 88 87 90 91 89 90 90 94 94 97 96 95 97 97 97 98 96 99 96 95 92 93 92
53 58 60 60 60 60 59 63 64 65 64 64 65 65 65 65 65 67 68 66 67 74 75 78 80 75 80 78 75 76 77 80 83 83 84 84 83 84 84 84 86 87 87 88 86 86 91 93 94 95 95 96 98 99 99 99 97 99 99 94 94 93 91
47 55 56 58 60 60 59 59 61 61 61 59 63 62 66 64 61 65 67 64 67 69 76 78 77 73 71 75 74 74 76 79 80 80 81 81 81 82 83 83 84 86 86 85 83 78 79 82 84 91 93 97 99 99 99 99 100 101 99 96 95 92 92
43 54 58 57 57 56 52 54 60 63 64 65 66 68 69 69 70 65 62 64 69 69 73 72 72 73 74 73 74 74 76 77 77 78 79 79 80 81 80 81 82 84 83 84 85 86 83 79 80 80 80 90 95 98 97 99 99 101 100 99 94 91 93
45 52 53 56 49 39 43 63 69 67 63 65 63 64 66 70 72 68 72 74 72 75 71 70 68 71 71 73 73 73 73 74 74 77 78 78 79 80 81 81 81 80 81 82 84 86 88 91 94 94 95 96 98 100 100 99 98 96 96 97 95 92 91
41 50 50 42 35 39 59 67 67 65 65 65 60 60 67 70 73 74 74 75 74 74 72 72 72 71 76 74 72 74 75 75 75 74 76 75 75 77 77 77 79 78 79 81 82 84 88 89 87 90 96 100 98 98 97 96 97 93 94 94 92 92 90
48 44 44 29 35 53 62 65 60 64 65 63 60 60 65 69 67 60 57 59 68 75 77 75 74 73 76 77 73 72 72 75 74 74 73 75 75 75 76 76 77 77 79 79 82 83 85 88 91 92 93 98 99 98 99 96 96 94 93 92 92 91 90
37 41 42 42 53 51 55 55 52 56 52 53 53 48 58 58 59 61 60 61 64 67 68 69 70 72 74 73 67 72 71 73 74 74 74 75 75 76 76 78 78 78 79 81 82 82 84 85 86 90 94 97 97 99 97 96 93 95 95 91 91 90 90
48 42 39 40 41 35 45 45 57 62 62 62 60 54 53 55 57 60 60 58 61 62 64 65 67 71 69 66 66 68 71 73 72 74 74 75 75 76 76 77 78 78 78 78 80 80 81 83 87 89 92 96 95 93 94 95 95 94 94 93 92 90 92
44 42 37 35 33 40 45 50 52 60 63 62 60 52 47 51 55 57 60 59 60 61 59 61 65 65 62 64 62 67 69 71 72 71 72 73 74 74 75 75 75 75 74 75 78 79 82 84 87 90 92 92 94 93 93 95 95 93 93 94 93 92 92
41 43 38 37 46 39 45 52 56 61 64 60 56 39 40 48 55 57 57 57 59 60 60 60 62 60 54 55 60 69 70 70 72 70 70 70 71 73 74 75 73 72 73 74 76 79 81 82 86 86 90 92 90 93 93 96 96 95 94 94 94 94 94
41 41 44 47 47 46 51 53 58 59 61 57 42 36 44 50 54 57 57 57 60 60 59 59 55 59 60 62 65 69 70 69 69 71 71 71 71 71 72 72 70 72 73 73 74 76 78 80 83 86 87 92 93 91 92 93 94 97 97 96 94 93 92
38 43 41 43 45 42 52 56 57 59 53 42 41 45 50 52 53 56 57 55 58 60 59 57 58 60 64 66 67 67 67 67 68 69 69 69 70 71 71 69 70 70 70 71 73 75 77 79 82 85 86 88 89 90 92 93 95 99 96 95 94 92 91
43 42 40 38 33 43 55 53 56 56 45 42 46 50 54 56 55 54 54 55 56 57 55 59 59 61 63 64 65 66 66 67 66 67 66 66 66 66 67 68 69 68 67 68 71 72 76 79 81 84 85 87 90 90 91 92 97 97 96 95 93 92 90
34 35 35 34 40 46 55 52 41 50 51 54 55 54 52 57 57 56 54 55 56 56 56 56 57 60 61 62 64 65 65 67 67 66 66 65 65 66 67 67 67 66 65 66 68 71 74 76 79 81 84 86 89 90 90 93 95 96 94 93 91 91 89
39 36 39 45 50 52 56 56 54 55 56 57 57 56 55 54 56 58 55 54 56 56 56 56 57 57 60 60 63 64 64 65 64 63 63 63 64 64 64 64 65 64 64 64 67 69 73 75 76 79 85 88 89 89 91 92 92 93 92 92 90 89 90
50 53 53 54 55 54 56 56 56 54 55 58 58 56 54 55 56 57 55 56 56 56 57 55 57 57 59 60 62 63 65 65 63 63 63 63 63 63 64 63 63 63 65 65 66 67 69 73 75 78 85 89 88 89 92 91 92 92 91 89 88 88 88
42 38 50 50 51 54 56 54 56 57 57 56 57 56 55 56 57 58 58 56 56 57 57 57 56 58 60 60 61 62 63 64 64 62 60 61 61 61 61 61 62 62 62 63 63 65 66 70 73 78 84 88 91 91 90 92 92 91 90 88 87 87 87
39 39 46 50 52 54 55 53 51 52 54 55 56 56 57 58 58 58 58 59 57 59 58 59 57 57 59 60 60 61 61 63 64 63 61 60 60 61 61 61 61 60 61 61 62 64 65 68 71 76 83 86 91 91 92 93 94 91 88 87 88 88 89
43 48 50 50 51 53 51 52 53 54 54 54 55 57 57 58 57 57 58 59 58 58 58 59 58 56 58 60 60 61 62 62 63 62 61 60 60 60 60 59 60 59 59 60 61 63 65 68 71 77 83 85 89 91 90 91 91 90 87 86 87 90 91
38 38 41 46 38 39 46 50 52 53 55 55 55 55 56 56 55 56 55 56 58 59 59 59 59 57 57 59 60 60 61 61 61 62 61 60 60 60 60 59 58 59 60 60 61 62 64 67 73 80 82 81 80 86 90 93 91 89 87 86 87 88 89
36 45 47 48 46 44 48 50 53 54 55 55 53 52 53 54 56 56 54 53 54 56 58 61 59 57 57 58 61 60 60 60 61 62 62 60 60 60 60 58 57 57 58 60 61 62 63 68 75 78 79 81 81 82 78 74 77 80 83 85 87 88 87
49 51 50 50 46 43 48 51 52 53 55 54 52 53 54 54 54 55 55 54 53 54 57 59 60 58 58 59 60 60 61 61 61 62 62 62 61 61 60 58 57 57 57 58 60 60 62 69 74 76 78 76 74 77 77 76 73 70 69 71 79 87 89
47 53 52 51 50 50 50 51 52 53 55 53 52 52 53 53 54 56 54 54 55 55 55 56 58 60 59 60 61 61 61 61 62 62 61 61 61 60 58 57 57 57 57 58 59 62 66 70 73 73 74 76 76 76 76 77 76 73 71 70 70 76 85

ECMWFFLT2_sfc_temp_057.txt.gz
Temp
74 73 78 78 77 54 64 69 58 64 73 68 57 58 65 64 55 51 62 61 67 73 77 79 82 84 85 87 85 82 82 82 81 80 81 82 84 84 85 85 85 84 86 86 87 87 87 87 87 87 86 86 85 83 82 81 81 82 81 81 81 81 81
75 77 76 78 79 77 68 58 64 76 79 75 62 49 53 51 46 51 63 58 60 63 53 79 78 79 83 83 85 83 81 81 80 80 81 83 83 85 85 86 85 86 86 86 87 88 88 88 88 88 86 87 86 85 84 82 82 81 82 82 82 81 81
71 76 76 72 77 79 69 67 79 64 50 52 57 55 44 44 44 48 54 62 62 62 60 73 75 76 78 80 82 84 78 80 80 81 82 83 85 85 85 85 85 86 86 86 87 88 89 88 88 88 88 88 88 86 85 85 83 83 83 84 83 83 82
68 69 68 53 64 75 78 77 70 74 63 57 51 56 56 53 44 49 50 58 51 67 67 74 76 78 79 81 81 85 80 81 81 82 83 84 84 85 86 86 86 86 86 87 87 88 88 88 87 88 89 89 89 88 86 85 85 84 84 84 83 82 83
66 54 62 59 62 58 61 62 61 65 65 70 64 64 57 50 47 46 45 45 55 66 78 79 77 80 82 83 78 81 87 82 84 84 85 85 85 86 86 87 87 87 87 87 88 88 89 89 89 89 89 89 89 89 87 86 84 84 84 85 84 83 83
52 58 68 67 65 66 62 60 58 60 58 54 50 48 67 62 53 43 47 47 58 73 85 79 80 79 84 87 81 77 85 86 84 86 87 87 86 87 87 87 88 88 87 87 88 89 89 89 88 88 88 89 89 89 89 87 86 85 85 85 84 84 84
53 60 66 70 71 70 68 66 63 67 64 62 54 41 48 59 59 62 56 51 57 76 79 80 78 78 81 85 84 81 83 84 86 88 89 88 88 88 88 89 89 89 88 87 87 87 87 88 88 88 88 89 89 90 89 88 86 86 86 86 86 85 84
59 64 68 69 70 69 64 66 68 66 62 64 59 56 57 51 57 52 50 48 57 75 78 79 78 77 79 83 86 83 83 84 86 87 88 87 87 88 89 90 90 89 88 88 87 86 87 87 87 87 88 89 90 90 90 89 87 87 87 87 87 86 85
44 50 56 59 65 65 59 58 63 64 64 65 64 63 60 52 55 56 49 42 51 69 76 77 76 76 76 76 78 83 82 83 83 83 85 87 87 87 88 88 88 88 88 86 85 86 85 86 87 87 87 88 88 89 90 89 88 88 88 88 87 87 86
30 32 34 36 41 49 56 60 61 62 63 62 56 48 51 40 48 51 48 48 58 67 71 74 74 74 72 74 77 80 83 81 81 80 81 83 87 86 87 88 87 86 86 86 85 85 85 87 87 85 86 87 88 88 89 89 88 88 88 88 88 87 86
36 40 43 52 55 52 49 54 57 58 61 62 60 53 48 44 48 48 50 52 55 60 67 69 71 72 71 71 74 75 77 79 80 80 79 81 81 82 87 87 87 86 85 85 85 85 86 87 87 86 86 86 87 87 87 88 88 88 88 89 88 88 87
48 51 50 54 55 51 53 53 54 58 58 60 56 49 47 53 50 41 52 54 55 58 65 67 68 70 68 72 73 74 76 76 78 78 78 80 81 81 81 80 83 85 84 85 85 85 86 87 87 87 87 87 87 86 87 88 88 88 89 89 88 87 87
52 54 55 56 54 55 55 56 56 55 57 57 55 54 58 55 48 46 52 54 55 61 66 66 67 68 71 68 74 74 76 77 76 76 76 77 78 78 78 78 78 78 80 83 84 85 86 87 86 86 86 87 87 87 88 88 89 89 89 89 88 88 87
50 51 52 55 53 54 55 55 56 57 57 56 58 58 61 60 53 56 58 56 59 65 62 64 67 70 72 67 73 73 73 73 73 74 74 75 75 75 76 76 77 78 78 78 78 79 81 86 86 87 86 86 87 87 88 89 89 90 89 88 87 88 87
45 50 53 54 54 53 51 55 56 56 56 58 60 61 61 61 58 61 60 56 56 62 63 65 68 70 71 68 66 69 70 71 72 72 71 72 72 74 74 74 75 75 76 78 78 78 76 76 78 82 84 88 88 89 90 91 90 91 91 88 88 88 87
40 48 49 51 53 53 51 51 53 54 55 53 57 55 59 56 53 57 58 53 54 61 64 64 68 69 65 63 64 65 67 69 70 69 69 70 70 72 72 73 73 73 73 75 76 76 79 78 77 76 74 78 85 89 90 91 92 93 91 90 89 88 88
37 46 49 49 49 48 44 46 52 55 57 58 59 60 61 61 62 55 49 51 56 59 61 59 61 66 65 62 61 60 62 66 68 68 68 69 70 70 71 71 72 73 72 73 75 77 78 77 75 75 76 76 75 74 74 74 74 74 79 88 91 88 88
35 44 45 47 40 31 35 55 61 57 54 54 52 53 56 60 60 54 57 57 59 61 60 59 61 63 63 63 62 62 61 62 65 67 67 68 69 70 71 71 71 72 73 68 71 74 75 77 81 78 75 75 78 80 78 77 77 77 76 73 73 83 88
35 42 42 36 28 32 51 60 58 58 59 57 54 54 58 55 55 57 57 57 58 61 61 61 62 64 67 66 65 65 64 64 65 65 66 66 67 68 68 69 70 71 71 71 69 69 70 74 77 79 81 81 81 80 80 78 78 76 77 77 76 74 83
41 37 34 22 29 46 55 58 54 58 59 57 54 53 54 53 53 53 53 56 58 59 60 61 63 63 67 66 66 66 67 65 64 65 65 66 67 67 68 68 69 69 69 69 71 71 71 72 73 76 76 82 84 79 82 82 81 80 79 79 79 80 84
30 35 32 34 45 45 48 49 47 50 46 49 46 39 46 50 53 52 51 54 56 58 58 60 61 64 67 63 59 65 66 66 66 66 66 67 67 68 68 69 69 69 69 70 71 72 73 73 77 78 79 77 80 86 86 83 82 82 82 81 82 83 86
40 33 31 30 32 27 38 45 52 56 55 57 54 48 45 49 51 54 53 51 55 56 57 58 60 63 61 57 55 61 64 66 65 64 66 68 68 68 68 68 67 68 69 69 70 71 72 74 75 77 78 76 78 80 83 85 83 84 85 85 85 86 87
36 35 30 28 25 31 40 44 49 54 57 57 54 47 41 47 49 52 53 51 53 55 55 56 58 55 51 50 54 59 63 65 65 62 62 66 67 67 67 66 66 66 67 68 69 70 70 71 73 75 75 74 75 78 80 82 86 86 87 88 89 88 88
37 35 31 29 36 33 42 47 50 55 57 55 49 33 36 45 48 52 52 51 51 53 54 56 54 49 45 47 52 60 62 64 63 62 59 60 65 66 67 67 67 66 67 67 66 66 67 68 71 72 74 75 75 77 78 81 82 86 89 90 91 91 90
36 36 33 36 36 44 47 46 49 52 56 51 35 30 39 46 49 52 53 52 53 53 53 54 48 52 53 56 59 62 63 62 62 63 63 62 65 65 65 65 66 66 65 65 65 65 66 67 70 71 73 73 74 75 76 78 79 83 88 91 90 88 88
34 35 32 34 37 39 46 50 51 53 48 35 32 42 46 47 49 53 54 53 54 54 52 52 53 54 57 59 60 61 61 61 61 63 62 62 63 65 65 65 65 64 64 63 64 65 66 68 69 70 71 70 71 72 74 75 78 83 86 89 90 88 85
37 35 33 31 27 38 49 49 50 52 39 40 46 47 50 53 52 52 53 53 54 55 52 54 54 55 56 57 58 60 60 61 60 61 61 59 59 61 62 62 64 64 62 62 63 64 66 67 68 69 69 68 69 71 71 74 78 81 84 88 89 89 87
30 31 30 30 35 41 47 46 37 45 48 51 52 51 48 52 52 51 51 53 54 55 54 53 53 54 54 56 58 59 60 60 61 60 61 61 62 62 63 63 63 63 62 62 62 64 65 66 67 67 67 66 67 68 70 74 77 81 84 87 88 88 87
35 32 34 40 45 46 50 51 48 49 52 54 54 54 53 51 51 53 51 51 53 55 55 54 54 53 54 55 57 57 58 59 60 58 60 61 60 61 60 61 62 62 61 61 62 63 64 65 66 66 67 66 66 67 70 74 76 79 83 86 88 88 88
45 47 47 47 48 50 51 54 52 51 52 55 55 53 51 53 53 53 51 53 54 55 56 54 53 53 54 54 56 57 58 59 60 60 59 60 61 60 61 61 61 62 62 62 62 61 62 64 65 65 66 66 65 67 70 73 76 79 82 84 85 86 87
37 30 45 46 47 49 51 51 53 53 54 53 54 53 52 53 53 53 54 55 55 55 56 55 54 54 56 55 55 56 56 57 58 59 58 58 59 59 58 60 62 61 60 60 60 61 60 62 64 65 65 66 67 68 70 74 79 81 82 83 84 85 85
36 37 44 46 48 49 51 49 48 49 52 53 54 53 53 54 54 54 55 55 54 56 54 55 54 55 56 55 54 55 55 56 57 57 58 58 59 59 60 60 61 61 60 59 59 60 60 62 63 64 65 65 67 68 72 78 79 79 81 83 85 85 86
42 46 47 46 47 49 50 49 50 51 52 51 52 54 53 54 53 53 54 56 55 55 55 55 55 54 55 56 55 55 55 56 57 57 57 58 59 59 59 59 60 59 58 59 59 59 60 62 63 64 64 66 68 72 77 78 75 76 80 82 84 86 87
36 36 39 44 36 36 43 47 49 50 51 51 51 52 52 53 52 52 51 53 55 56 56 55 55 53 54 55 55 54 55 55 56 57 57 58 59 58 59 60 59 58 59 58 58 59 60 62 63 63 65 69 72 76 77 76 75 74 74 80 83 84 85
35 43 46 46 44 43 46 48 50 51 51 51 50 49 49 51 52 53 52 51 51 53 55 56 55 54 53 54 55 55 55 55 57 58 58 57 58 58 59 58 57 57 57 58 58 59 60 62 63 65 67 69 72 75 76 75 74 74 72 72 76 79 82
46 49 48 49 45 42 46 49 50 50 51 51 50 51 52 51 51 52 51 51 50 51 53 54 56 55 55 55 55 54 55 56 56 57 58 58 58 59 58 57 56 57 56 57 57 58 60 62 63 64 66 68 70 73 75 74 74 72 72 72 72 72 75
44 50 50 50 48 48 49 50 51 52 52 51 49 50 51 51 51 53 52 52 53 52 52 52 54 56 55 55 55 54 54 56 58 59 60 61 60 59 56 56 56 56 56 57 57 59 61 62 62 63 64 67 70 70 72 74 74 72 72 71 72 72 72

ECMWFFLT2_sfc_temp_060.txt.gz
Temp
65 65 69 67 70 51 57 61 55 60 62 61 50 51 55 57 51 46 49 58 59 62 71 75 76 77 80 77 80 80 79 79 78 77 78 79 80 81 81 81 82 82 83 83 84 84 84 84 83 83 82 82 81 81 80 79 79 79 79 79 79 79 79
66 70 70 68 71 66 59 55 56 65 67 64 52 44 45 43 38 41 53 50 49 53 52 65 69 72 75 74 76 80 79 79 76 77 78 79 80 81 82 82 82 83 83 83 85 85 85 85 84 84 83 83 83 82 82 80 80 79 79 80 80 80 79
63 70 68 65 68 70 62 58 69 58 46 51 46 48 42 42 40 41 45 51 52 53 53 63 65 66 69 71 72 77 78 77 77 77 78 79 81 82 81 82 82 83 83 84 85 85 86 86 85 85 85 84 84 83 83 83 81 81 81 81 81 80 80
61 62 61 45 54 66 69 68 64 65 57 51 48 47 45 43 38 43 41 47 49 57 57 65 64 66 68 70 71 73 79 78 78 78 79 79 80 81 81 82 83 83 84 85 86 86 86 86 85 85 85 85 84 84 83 83 83 82 81 81 81 80 81
58 46 53 50 53 51 55 57 55 58 57 59 58 54 51 43 39 38 39 40 45 57 64 68 66 67 69 70 71 71 78 80 80 80 80 80 80 81 82 83 83 84 84 85 86 87 87 87 87 86 86 85 85 85 83 83 82 82 82 82 81 81 81
44 49 59 60 59 58 55 53 51 54 52 49 43 42 55 55 48 38 43 41 47 63 73 70 69 70 70 72 71 71 74 81 80 80 81 81 81 82 83 83 84 84 85 85 86 87 87 87 86 85 86 86 85 85 84 84 84 83 82 82 81 81 81
47 54 59 63 63 62 61 58 54 58 55 53 44 36 41 48 50 55 45 43 48 63 69 70 70 70 71 72 73 71 72 73 78 81 82 82 82 82 83 84 85 85 85 85 86 86 86 86 86 86 86 86 85 85 85 84 83 83 84 83 83 82 81
49 55 60 61 61 60 55 56 58 57 52 53 51 47 49 46 46 40 40 43 46 63 69 70 71 70 71 73 72 71 71 72 74 75 79 81 81 82 84 85 86 86 86 85 85 84 84 85 85 85 86 86 86 86 85 85 84 84 84 84 84 83 82
43 48 48 50 55 56 50 49 54 57 57 57 56 53 50 43 47 49 42 38 43 59 68 69 69 69 68 69 71 72 69 71 72 73 73 77 80 82 83 84 84 84 85 84 83 84 83 84 85 85 86 86 86 86 86 85 85 85 85 85 84 83 83
27 27 28 32 37 44 50 54 53 55 55 54 51 43 44 34 43 46 42 40 48 60 65 65 66 66 64 66 68 70 71 69 70 71 72 72 74 74 77 81 83 83 83 83 83 83 83 85 85 85 85 86 87 87 87 87 85 85 85 85 85 84 83
30 34 39 47 51 48 44 49 51 52 55 55 52 47 43 40 42 43 43 46 49 55 61 61 63 64 61 61 64 65 67 69 69 69 70 71 71 72 72 71 73 76 78 81 82 82 84 85 86 86 86 86 87 87 87 88 87 86 85 85 84 84 84
41 44 44 49 50 46 48 48 49 52 52 52 48 43 41 47 44 34 42 46 50 53 58 60 60 62 61 60 62 64 66 67 68 68 68 70 70 71 71 71 71 71 72 73 76 79 83 85 86 86 87 87 87 87 87 88 88 87 87 85 84 84 83
47 48 48 50 48 49 49 49 49 49 51 50 47 46 50 48 42 41 46 47 48 54 58 60 61 61 60 60 61 63 65 67 67 66 66 66 67 68 69 69 69 69 69 70 72 74 76 80 83 85 86 86 86 87 88 88 88 87 87 85 85 84 83
44 46 47 49 47 48 48 49 50 51 51 50 50 50 52 52 48 51 51 48 51 56 56 60 62 62 62 61 62 62 62 63 65 65 64 65 65 66 67 68 68 68 68 68 69 70 71 72 73 80 82 81 85 86 87 88 87 88 87 85 84 84 84
40 45 47 48 48 47 45 48 49 50 51 51 52 52 53 53 50 52 52 47 48 56 58 60 62 61 62 60 59 59 59 61 63 63 62 64 64 65 66 66 67 67 67 67 68 68 69 69 72 73 74 80 83 85 86 87 86 87 87 85 84 84 83
34 42 44 46 47 47 44 44 46 48 48 46 49 47 51 49 45 48 48 44 45 53 58 60 62 60 57 57 57 57 57 59 59 61 60 61 63 63 64 65 66 65 65 65 66 67 68 69 70 71 72 74 79 85 86 86 87 87 86 85 84 83 84
30 41 43 44 44 41 38 39 45 49 49 50 50 51 52 50 51 44 41 43 50 53 57 55 56 59 57 57 57 56 56 57 58 58 59 60 61 63 63 62 62 63 64 65 65 66 68 68 69 71 72 74 73 74 79 85 86 85 85 86 85 84 84
30 40 41 42 35 25 29 45 53 51 49 48 46 46 47 49 51 47 50 49 52 53 54 53 53 56 57 57 58 59 57 55 56 58 59 60 61 62 64 63 62 61 63 64 65 66 67 69 71 72 72 73 75 77 76 75 79 82 82 82 82 82 83
30 36 38 32 22 28 44 52 52 53 53 51 49 46 48 49 50 50 49 50 51 52 54 54 55 56 60 60 59 60 61 59 57 56 57 58 59 61 62 63 63 62 61 61 62 63 64 67 69 71 72 73 74 74 75 77 77 77 79 79 79 80 80
35 32 30 18 24 40 48 51 50 53 52 51 48 45 46 47 48 48 47 48 51 52 53 54 56 57 60 60 58 59 60 61 58 57 56 58 59 59 61 62 63 63 64 63 63 63 64 65 67 69 69 71 72 72 74 76 78 77 78 80 80 81 80
26 30 28 31 41 41 44 45 43 45 41 43 42 36 41 45 48 48 46 47 49 50 52 53 55 57 59 56 53 59 60 60 61 60 59 59 58 60 61 64 64 64 65 65 66 66 66 66 66 65 66 69 70 71 73 75 76 78 78 77 78 80 80
37 32 27 24 28 24 34 42 47 50 50 50 51 45 39 45 47 49 47 46 48 49 50 51 53 56 55 51 49 55 58 61 61 61 61 61 61 61 61 63 64 64 64 65 66 66 66 66 67 66 67 68 69 69 71 74 76 77 78 79 79 79 80
33 31 28 27 23 29 35 39 44 48 49 49 49 43 38 45 45 47 48 47 48 48 48 49 51 49 45 45 48 54 57 59 61 60 59 61 61 61 62 62 62 63 63 64 65 65 65 65 66 67 68 67 68 68 70 71 73 74 76 79 80 80 81
34 34 31 27 32 28 38 42 45 49 50 49 43 31 34 45 45 47 48 48 48 49 49 50 47 44 41 43 48 55 57 59 60 60 59 60 60 61 61 63 63 63 63 63 63 63 63 63 66 67 67 67 67 67 68 70 70 72 74 77 79 82 83
34 34 32 34 34 41 43 44 46 48 50 47 34 30 39 44 45 46 47 48 49 49 48 48 43 47 50 51 54 56 57 58 58 60 61 61 61 61 62 61 62 62 63 63 62 63 63 63 65 66 66 65 65 66 66 67 68 71 74 76 77 78 79
32 34 30 32 33 36 43 45 46 47 45 31 30 42 44 42 44 47 49 48 49 49 49 48 48 49 53 56 56 56 56 57 57 59 60 61 61 63 62 63 62 61 62 62 62 63 64 65 65 65 65 64 64 65 65 65 68 71 72 73 75 76 77
34 33 31 30 26 38 46 45 45 49 36 35 43 44 44 47 46 47 47 48 48 49 48 50 50 51 53 53 54 55 56 56 56 57 58 58 58 59 59 60 62 62 61 61 61 62 64 65 65 65 65 63 63 64 63 65 68 70 71 72 73 74 76
24 25 24 28 35 39 45 44 35 41 45 46 46 45 43 47 47 46 46 47 48 49 48 49 50 51 51 52 53 54 55 56 57 58 58 58 59 60 61 61 61 62 60 60 60 62 63 64 64 64 63 62 63 63 63 67 68 69 70 71 71 73 74
32 27 30 38 41 43 46 46 46 47 48 48 47 46 46 45 46 48 46 47 48 49 50 50 50 50 51 52 53 53 54 55 55 55 57 58 58 58 58 59 61 61 60 59 60 61 62 62 63 63 63 62 62 62 64 67 67 67 68 69 70 72 74
40 43 44 44 43 44 46 50 50 47 47 48 48 47 46 47 47 48 47 48 48 49 50 49 50 50 51 51 52 53 54 55 55 55 56 57 58 58 58 59 60 61 60 60 60 59 60 62 62 63 63 63 62 63 65 67 68 68 69 69 70 73 75
34 28 39 42 42 44 47 49 49 49 49 47 48 46 46 47 49 49 49 49 49 49 49 48 49 50 51 51 52 53 53 53 54 54 54 56 57 57 57 58 61 60 60 58 58 58 58 60 61 62 63 63 64 65 66 68 70 71 70 71 73 74 74
32 31 37 40 43 43 46 45 45 47 48 47 47 47 48 49 49 50 50 50 49 49 49 49 49 50 51 51 51 51 52 52 53 53 54 55 56 57 58 59 60 60 59 57 57 58 58 59 60 61 62 63 65 65 67 69 71 72 72 73 73 73 74
36 40 42 42 43 44 44 44 46 47 47 46 47 48 48 48 48 49 49 50 49 49 49 49 49 49 50 51 51 51 52 52 52 52 53 54 55 56 56 57 59 58 57 57 57 57 58 59 60 61 62 64 65 65 67 69 70 69 70 72 72 73 74
30 33 35 39 35 34 39 44 46 47 48 47 46 46 46 47 47 48 47 48 50 50 50 49 49 48 49 50 51 51 51 51 51 52 53 54 54 55 56 57 57 57 58 57 57 57 58 59 59 60 62 63 64 66 67 68 68 67 68 70 72 72 73
32 37 40 41 41 41 43 45 46 46 46 46 45 44 45 46 48 48 47 47 47 48 49 51 49 49 49 50 52 51 52 52 53 53 53 53 54 55 55 55 56 56 57 58 57 57 58 59 59 61 62 64 64 65 66 67 67 66 66 67 70 71 71
42 43 43 43 42 41 44 46 47 46 46 45 45 45 46 46 47 48 47 47 46 47 49 50 52 52 52 52 52 51 52 53 53 53 54 54 55 56 56 56 56 56 56 57 57 56 57 58 59 61 62 63 64 65 66 66 66 65 65 66 68 70 71
41 42 44 45 44 46 48 48 48 47 48 48 46 45 46 46 47 48 48 48 49 48 48 48 50 52 52 52 53 52 52 53 54 54 55 57 57 57 57 57 57 56 56 56 56 57 57 58 59 60 61 62 64 65 65 65 65 64 65 66 69 70 70

ECMWFFLT2_sfc_temp_063.txt.gz
Temp
60 60 62 63 63 49 54 57 52 55 59 53 44 47 48 47 41 42 42 52 54 56 61 67 68 68 68 70 71 72 72 75 74 75 77 78 79 80 80 80 80 81 82 81 82 82 82 82 81 81 80 80 79 78 78 77 77 77 77 77 77 77 77
63 65 62 62 65 63 53 47 54 62 61 57 49 43 38 33 37 39 46 47 46 47 44 64 64 64 65 66 68 69 69 70 73 75 76 77 79 80 80 81 81 82 82 82 82 83 83 82 82 82 81 81 80 80 79 78 77 76 77 78 78 77 77
59 65 61 60 64 66 57 53 64 52 48 50 43 44 38 38 38 39 45 47 47 49 50 59 59 60 62 64 65 66 66 67 68 75 77 77 79 80 79 80 81 81 82 82 82 83 84 84 83 83 83 82 81 81 80 80 78 79 78 79 79 78 78
55 56 56 42 51 62 64 61 57 59 50 45 44 47 40 43 34 40 40 41 41 52 56 62 61 62 62 63 63 63 65 66 67 69 76 77 77 78 79 80 81 82 82 82 83 83 83 83 83 83 83 83 82 82 81 80 80 80 79 79 79 78 79
53 45 50 46 48 46 51 52 49 51 50 54 53 50 48 44 37 33 36 35 44 53 62 64 64 64 63 63 62 63 64 66 67 68 70 77 77 78 79 80 81 82 83 83 83 84 85 85 84 83 83 83 83 83 82 81 79 79 79 79 79 79 79
43 46 53 54 54 54 51 49 46 47 46 43 39 43 48 48 41 35 35 35 42 55 68 65 65 65 65 64 64 64 64 65 65 67 68 72 78 78 80 81 82 83 83 83 84 84 84 84 83 82 83 83 83 82 83 82 81 81 80 80 79 79 79
44 49 55 57 57 57 55 54 49 53 49 48 37 30 40 42 44 50 42 39 42 54 62 64 66 66 66 65 65 64 65 65 66 66 68 68 73 77 79 80 82 83 83 83 83 83 83 83 83 83 83 83 83 83 83 82 82 81 81 81 81 80 79
45 51 55 55 57 55 50 52 54 52 48 48 46 41 44 41 42 37 37 38 45 55 61 63 65 64 65 65 65 64 65 65 65 66 65 66 67 68 73 78 81 80 81 81 82 81 82 82 82 83 83 83 84 84 83 83 82 82 82 82 82 80 80
35 42 42 46 50 53 46 45 50 52 52 52 50 47 44 38 42 43 37 35 42 54 62 61 63 63 62 62 65 65 63 64 65 65 65 66 65 67 68 67 69 73 77 78 79 81 81 82 83 83 83 83 84 84 84 83 83 83 83 83 82 81 80
28 29 26 29 35 40 44 48 49 50 51 48 46 38 39 31 39 40 37 35 41 55 58 59 60 60 59 61 63 65 65 64 64 65 65 64 64 64 65 65 66 67 67 68 70 73 77 81 83 83 83 84 84 84 84 84 84 83 83 84 83 82 81
27 33 36 42 47 41 38 44 46 47 49 49 47 42 35 34 37 39 37 43 45 50 54 55 56 57 57 58 60 60 62 63 65 65 64 64 64 63 63 64 64 65 64 65 67 68 71 77 81 83 83 84 84 84 84 85 85 84 84 83 82 82 81
37 39 40 44 47 41 43 42 44 46 46 46 45 41 39 43 38 30 37 43 44 48 52 54 54 55 56 56 58 59 61 62 63 64 64 65 64 63 63 63 62 62 63 64 65 66 69 70 72 77 82 84 84 83 84 85 85 84 84 83 82 81 81
42 43 44 45 43 45 44 44 43 44 46 45 43 43 45 44 39 37 41 43 43 47 52 56 55 55 55 55 55 58 60 61 62 61 61 62 62 62 62 61 62 62 62 63 64 65 66 68 69 71 72 77 82 84 84 85 85 85 84 83 82 82 81
40 41 42 44 42 43 44 44 44 45 45 45 45 46 48 47 42 44 46 43 46 49 53 56 56 57 57 56 57 57 57 58 59 59 59 59 60 61 61 61 62 62 63 63 63 64 64 66 67 69 70 72 73 80 84 85 85 85 84 83 82 81 81
35 39 43 43 43 41 40 42 44 45 45 46 47 47 48 48 45 46 46 44 44 51 55 56 58 57 57 56 54 54 55 56 57 58 57 58 58 60 61 61 61 62 63 63 63 63 64 65 66 67 69 70 73 74 80 86 84 85 85 83 82 82 81
32 37 40 41 42 42 40 39 41 42 44 42 44 42 45 45 42 42 44 42 41 48 53 54 55 56 54 52 53 53 53 55 56 56 56 57 57 58 59 60 61 61 61 62 62 62 64 65 65 67 67 69 70 71 72 77 86 86 85 83 82 81 82
26 36 40 40 40 39 35 34 41 45 45 46 47 47 47 47 46 42 40 38 46 47 52 51 51 53 53 52 52 52 53 54 55 55 56 57 58 58 58 59 60 61 60 62 62 63 64 64 65 66 68 68 67 68 69 71 74 83 84 84 83 81 82
27 35 37 39 33 26 25 38 47 47 45 44 43 42 44 46 47 44 46 45 47 48 49 48 48 50 51 52 54 55 54 53 54 55 56 57 58 58 59 60 60 59 60 60 62 63 64 65 66 67 68 67 68 69 70 70 71 74 77 81 82 81 81
28 31 34 31 22 27 40 46 48 49 48 46 44 44 45 45 46 46 45 46 46 47 49 49 51 52 54 55 55 55 56 56 54 54 56 56 57 57 59 59 61 60 59 59 60 60 62 64 65 66 66 67 68 69 69 71 72 73 73 74 77 80 80
30 29 26 16 25 35 44 47 47 49 49 45 44 41 44 44 45 45 43 45 46 47 48 50 51 53 55 57 54 55 56 56 56 54 54 56 57 57 59 59 60 59 61 61 61 61 63 63 63 65 65 66 67 68 70 71 72 73 74 74 75 76 79
26 27 25 30 37 39 41 41 41 42 39 40 39 34 38 43 44 44 43 44 45 47 48 50 50 52 53 52 50 55 56 55 57 57 56 57 58 59 60 61 60 61 63 63 63 64 63 62 63 63 63 64 65 67 69 70 70 71 71 72 73 74 76
34 27 24 21 25 21 32 41 44 46 47 46 44 41 37 43 43 45 44 43 44 45 47 48 49 51 49 45 48 52 55 57 56 57 58 59 59 60 60 61 62 62 63 63 65 64 63 63 63 63 64 63 64 65 67 68 68 69 70 71 73 74 75
29 30 24 21 18 24 33 38 43 45 47 47 45 41 35 41 43 44 45 44 44 45 45 47 48 46 41 41 46 51 55 55 56 55 56 58 59 59 60 60 60 62 62 63 64 64 63 62 62 63 63 64 64 64 66 66 67 67 68 70 71 72 74
31 30 26 23 30 23 36 40 43 46 47 47 43 29 31 41 43 44 44 44 44 45 46 47 44 42 38 41 45 52 55 56 56 55 55 56 57 59 60 61 62 62 63 63 63 62 62 62 63 62 62 62 64 64 65 66 66 66 68 69 70 72 72
33 34 32 34 34 39 41 40 44 45 46 45 33 28 36 41 43 45 44 44 45 45 44 45 41 43 46 48 51 53 54 55 55 56 57 57 58 59 60 60 62 61 61 62 62 63 63 63 64 63 62 61 62 63 64 64 64 66 68 69 69 70 70
29 31 30 32 35 36 41 42 44 44 43 29 29 38 42 41 42 45 45 44 46 45 45 44 44 46 49 52 53 52 53 53 53 55 55 56 58 59 61 61 61 61 61 61 62 63 63 64 64 63 62 60 60 62 62 63 65 67 68 68 69 69 69
34 32 30 29 25 37 44 43 43 47 36 34 41 41 42 44 44 44 44 45 46 46 45 47 47 47 49 50 51 51 51 52 53 53 53 53 54 55 57 58 60 61 59 60 61 61 63 64 64 63 63 60 60 61 61 63 65 66 67 67 68 69 69
23 26 27 27 33 39 43 43 34 39 43 44 44 42 41 44 44 44 44 44 45 47 46 46 47 47 47 48 49 50 51 51 52 53 54 54 55 55 57 59 59 60 59 59 59 61 63 63 63 63 61 59 60 60 61 64 65 66 66 67 68 69 70
30 26 30 35 36 39 41 43 42 44 46 46 45 45 43 42 42 45 43 44 46 46 47 47 47 46 46 47 49 49 50 51 51 52 53 53 53 54 54 56 59 59 59 58 59 59 61 62 63 62 61 59 59 59 62 64 64 65 66 67 68 70 70
36 39 41 42 41 41 42 44 45 44 44 45 46 45 42 44 45 45 44 45 45 46 46 45 46 47 47 46 48 49 50 50 51 52 52 53 54 53 54 55 57 58 59 59 59 59 60 61 62 62 61 60 58 59 62 64 64 65 65 67 68 69 71
34 28 35 39 39 41 43 43 45 45 45 44 45 44 43 44 45 45 46 45 45 46 46 45 45 46 48 47 47 48 49 49 50 50 50 51 52 52 53 54 57 56 57 56 57 58 58 60 61 61 61 61 61 61 62 63 64 65 65 66 67 68 69
32 34 35 38 39 40 41 42 41 42 43 44 45 45 45 46 46 46 46 46 46 46 45 46 46 46 48 47 47 47 48 49 49 49 50 50 51 52 53 54 56 56 55 55 55 57 58 60 61 61 61 61 61 62 62 64 64 64 64 65 65 66 68
36 39 41 42 41 42 42 42 42 43 44 44 44 45 45 45 45 46 46 46 46 46 46 47 46 46 47 48 47 47 48 48 49 49 50 50 51 52 52 53 55 54 54 54 55 56 58 60 60 60 61 61 62 62 63 64 64 63 63 64 65 65 66
30 33 37 37 33 34 36 39 43 44 45 45 44 44 44 44 44 45 45 46 47 47 47 47 46 45 46 47 47 47 48 48 48 49 49 50 51 51 52 53 53 54 55 54 54 56 58 59 60 60 61 61 62 63 64 65 64 63 63 64 64 65 66
32 40 41 40 42 39 42 44 45 45 45 43 43 43 43 44 45 45 44 44 45 46 47 48 47 46 46 47 48 47 48 48 49 50 50 50 50 51 52 52 52 52 53 55 56 56 58 59 59 60 60 61 62 63 64 64 64 63 63 62 63 64 65
43 42 40 40 40 40 42 43 44 45 45 44 43 44 44 44 44 45 45 45 44 45 46 47 48 48 47 48 48 47 48 49 49 50 51 51 51 52 53 52 52 52 53 54 55 57 58 58 58 58 59 61 62 63 63 64 64 63 63 62 62 63 64
43 43 43 42 43 44 45 45 45 45 46 46 43 43 43 44 45 46 45 46 47 46 45 46 47 48 47 47 47 47 47 48 50 51 53 54 55 54 54 53 53 53 54 55 56 56 57 56 57 58 58 60 62 63 63 63 63 62 62 63 63 64 65

ECMWFFLT2_sfc_temp_066.txt.gz
Temp
58 58 58 59 60 46 53 56 48 51 54 50 42 45 45 44 43 44 41 48 48 54 58 64 65 64 64 65 65 65 64 65 65 65 66 70 77 78 78 79 79 79 80 81 82 81 81 81 80 80 78 79 78 77 77 76 76 77 76 76 76 77 76
59 61 58 57 59 58 51 48 48 56 57 52 46 42 35 33 36 40 42 42 43 43 45 61 60 60 61 62 63 64 63 64 63 64 65 67 68 76 79 79 79 80 81 81 82 82 82 82 81 80 79 80 79 79 78 77 77 76 77 77 77 77 76
54 59 56 54 59 61 52 53 60 52 45 48 43 43 38 37 37 38 42 43 44 45 47 55 55 56 58 59 61 62 61 62 62 63 64 65 67 71 78 79 79 80 80 81 81 82 83 82 81 81 81 81 81 80 80 80 78 78 78 79 79 78 78
52 53 53 40 46 56 58 56 52 54 47 42 42 47 37 45 35 36 39 38 40 49 52 56 56 57 58 59 59 60 61 62 62 63 63 64 64 65 73 79 80 80 81 82 83 83 83 82 82 82 82 82 81 81 80 79 80 79 79 78 78 77 78
50 43 46 43 44 42 47 49 45 47 46 50 49 45 45 43 34 33 34 32 42 51 59 59 59 59 59 59 59 60 62 62 63 63 63 63 63 64 66 76 79 80 81 82 83 83 84 83 83 83 83 82 82 82 81 81 79 79 79 79 79 78 78
40 43 50 51 51 51 48 45 43 44 42 39 40 41 44 43 36 31 34 33 44 55 63 60 61 62 61 61 60 60 61 62 62 62 63 63 63 63 65 66 74 80 79 81 82 83 83 83 82 82 82 82 82 81 82 81 81 80 80 79 78 78 78
42 47 51 52 53 52 52 51 46 48 46 41 32 33 41 39 41 43 39 37 40 55 59 60 62 62 62 61 61 60 62 62 62 62 63 64 63 64 64 66 66 67 75 80 81 80 80 81 81 82 81 82 82 82 82 82 81 80 81 81 80 79 78
41 49 49 51 53 50 46 49 50 49 44 45 43 36 43 36 38 36 34 34 41 54 59 60 61 62 63 62 61 60 61 62 63 63 62 62 63 63 65 65 65 67 67 67 69 75 78 79 79 81 82 81 82 82 83 82 81 82 81 81 81 79 79
34 36 41 44 46 49 43 42 46 47 48 48 45 43 40 37 38 41 31 32 39 52 58 59 59 60 59 59 60 60 59 61 62 63 63 63 62 63 63 63 64 65 65 65 66 67 68 73 80 80 81 79 79 81 83 83 82 83 82 82 81 81 80
28 30 30 29 33 38 41 44 45 47 47 45 42 37 36 30 38 37 32 35 40 50 55 55 55 56 55 57 58 60 60 60 61 62 63 62 63 62 62 62 64 63 64 65 65 65 67 69 71 75 79 82 78 75 78 81 82 82 83 83 82 81 80
26 30 34 40 44 38 36 41 42 43 45 46 42 37 34 34 36 38 38 42 42 48 53 52 52 52 52 53 55 56 57 59 61 61 61 61 61 62 62 62 63 63 63 63 64 65 67 68 69 71 71 76 82 78 81 83 83 83 82 82 81 81 81
36 36 40 41 44 38 40 39 40 42 43 42 41 38 38 39 34 34 41 40 41 45 50 52 51 51 51 52 53 55 57 57 58 60 60 61 60 60 62 61 61 61 63 63 63 65 65 67 68 69 71 72 72 76 81 83 84 84 83 82 81 80 80
39 39 40 42 41 42 41 41 40 41 41 42 41 40 43 39 37 35 39 39 41 45 50 52 51 52 52 52 52 55 57 58 58 58 58 58 59 59 60 60 60 60 61 62 63 64 65 66 66 67 69 69 70 72 73 77 85 84 83 82 81 81 80
38 39 39 42 40 40 40 40 41 41 41 41 42 42 43 44 40 40 42 42 42 47 49 53 53 54 54 54 55 54 55 56 56 57 57 57 58 59 59 60 60 60 60 61 62 63 63 64 65 66 66 67 69 69 71 72 74 82 83 81 80 80 80
35 38 40 39 40 39 38 38 40 41 41 42 42 43 44 46 42 43 44 41 41 48 51 53 55 55 54 53 52 52 52 54 55 56 56 56 57 58 59 59 60 60 60 60 61 61 63 63 64 65 65 67 68 69 70 71 72 72 78 81 81 81 80
31 34 36 38 39 39 36 36 37 39 39 39 41 40 43 42 40 40 42 40 41 46 49 52 52 52 51 50 50 50 51 52 54 54 54 56 57 57 58 59 60 60 60 60 60 60 62 63 64 64 65 65 66 67 68 70 71 74 73 77 82 80 81
28 33 35 37 37 34 33 36 40 41 42 42 44 44 45 44 44 41 39 37 43 45 49 48 48 50 50 49 49 50 50 51 52 52 53 55 56 57 58 59 59 60 60 61 61 61 62 62 63 64 65 65 64 65 67 68 70 71 72 73 77 80 81
26 32 34 36 28 25 27 39 45 45 43 43 41 42 43 43 44 42 43 43 46 46 46 46 46 47 49 50 51 52 51 49 50 52 53 54 56 57 59 59 59 60 60 61 62 62 63 64 65 65 66 65 65 67 67 68 69 69 69 71 72 77 80
27 30 30 28 23 26 37 44 45 46 46 46 44 43 42 43 44 45 44 44 44 46 47 47 48 49 51 53 52 53 53 53 51 51 52 53 55 56 57 58 60 60 60 60 61 61 62 64 65 65 65 65 65 66 67 67 69 68 69 69 71 74 77
28 26 24 18 25 35 42 44 43 46 45 43 43 41 42 43 43 43 42 44 45 46 47 48 50 50 52 54 53 53 54 54 53 52 51 52 55 55 57 58 59 59 61 61 61 61 63 63 63 64 64 65 65 64 67 67 66 67 68 69 71 72 74
27 26 22 27 33 35 36 36 39 40 36 38 37 33 37 41 43 43 42 43 44 45 47 48 49 51 51 48 49 53 54 54 55 55 53 54 54 56 58 59 59 60 62 62 63 63 63 63 63 63 63 64 64 64 65 67 65 65 67 68 69 70 71
28 28 23 17 22 16 27 37 42 44 45 44 43 37 36 41 43 44 43 42 43 44 46 47 48 50 47 44 46 51 54 55 55 55 56 56 56 56 58 59 60 61 62 63 64 64 63 63 64 63 63 63 63 63 64 66 66 64 66 67 69 69 69
27 27 21 17 15 22 30 37 41 44 44 45 43 39 34 40 42 44 44 43 43 43 44 45 47 46 41 40 45 50 53 54 55 54 55 56 56 57 57 58 59 60 61 61 63 63 63 62 63 64 63 63 62 62 63 64 65 65 66 67 67 68 69
29 28 23 19 27 23 35 38 40 44 44 44 40 29 33 41 44 44 44 43 43 44 45 46 44 42 39 42 46 51 53 54 54 54 54 54 55 56 58 59 60 60 61 60 61 61 61 62 63 64 63 62 62 62 62 63 64 64 65 66 66 68 69
31 33 27 30 32 38 41 39 42 43 44 43 30 26 37 42 42 44 44 43 44 45 44 44 41 42 45 48 50 52 53 53 54 55 55 55 56 56 57 57 59 59 59 60 60 61 61 62 64 64 63 61 61 61 62 62 62 63 65 66 66 66 67
26 28 27 29 32 34 38 40 43 44 42 29 27 36 41 40 40 43 44 44 45 45 44 44 44 46 49 51 52 51 52 52 52 53 54 55 56 57 58 58 58 58 59 59 59 60 61 62 63 64 63 61 60 61 61 61 63 65 65 65 65 66 66
32 31 29 27 20 34 43 43 42 45 36 33 39 40 40 43 41 43 43 45 45 45 44 45 46 46 48 49 50 50 50 51 51 52 52 52 53 54 54 55 57 58 57 57 58 59 61 62 62 63 63 61 60 60 59 61 64 64 65 65 66 65 65
25 27 26 27 35 38 42 41 33 39 42 41 41 40 40 42 43 42 42 43 44 45 44 44 45 46 46 47 48 49 50 50 51 52 52 53 53 54 55 56 56 57 56 56 57 58 60 61 61 62 61 60 60 60 60 62 63 64 64 65 65 65 66
29 27 31 37 37 39 41 41 38 40 43 45 43 43 41 41 41 43 43 43 44 44 45 45 45 44 45 46 48 48 49 49 50 50 51 52 52 53 53 54 56 56 55 55 56 57 59 59 61 61 61 60 60 60 61 63 62 62 63 64 64 64 65
34 37 41 40 38 38 40 43 44 44 44 44 44 43 42 42 43 43 43 43 44 45 45 44 44 45 46 45 47 47 48 49 50 51 51 51 52 52 53 53 54 55 55 56 56 55 57 59 59 60 61 61 59 60 62 63 63 63 62 63 63 64 65
35 29 34 38 40 42 43 44 44 44 44 44 44 43 43 44 44 44 44 44 44 45 45 44 44 45 46 46 46 47 47 48 48 49 49 50 51 51 51 52 54 54 53 53 54 55 55 57 59 60 60 61 61 62 62 63 63 63 63 62 62 63 64
32 35 35 37 38 39 40 40 41 43 44 44 44 46 46 46 45 45 46 45 44 44 44 45 44 45 46 46 45 46 47 47 48 48 49 49 50 51 51 52 53 52 52 52 52 53 54 56 57 58 59 60 61 62 63 63 64 63 63 63 63 63 64
35 38 42 42 41 42 43 43 42 44 45 45 45 44 44 44 44 45 45 45 45 45 45 45 45 44 45 47 46 46 47 47 47 48 48 49 49 50 50 51 53 51 52 52 53 53 54 56 57 57 58 60 61 62 63 63 63 63 62 63 63 63 64
31 34 39 39 36 35 37 39 43 44 45 44 45 44 43 44 44 44 44 45 46 46 46 45 45 44 45 46 47 46 46 47 47 48 48 49 49 50 51 52 52 52 52 52 52 53 54 56 56 57 58 60 61 63 64 64 64 62 63 63 62 63 64
33 40 43 41 43 40 43 43 43 43 44 43 42 43 44 45 45 45 44 43 44 45 46 47 46 46 45 46 47 46 46 47 48 48 48 48 49 49 50 50 50 50 51 52 53 53 54 56 56 57 58 60 61 62 62 63 63 63 62 61 61 61 63
45 46 43 41 41 42 43 43 44 44 44 43 43 44 44 44 45 45 44 44 43 44 45 46 48 47 46 47 47 46 46 47 47 48 49 49 49 50 51 50 50 50 51 52 52 53 55 56 56 57 58 59 60 61 62 62 63 62 62 60 59 60 61
44 48 45 42 43 44 45 43 43 44 45 45 42 43 44 44 44 45 43 44 45 45 44 45 47 48 47 46 46 46 45 47 48 49 50 51 52 52 52 51 51 51 52 53 53 54 54 55 55 56 57 58 60 61 61 62 63 62 61 61 60 60 61

ECMWFFLT2_sfc_temp_069.txt.gz
Temp
66 65 66 66 67 58 65 67 60 65 70 70 58 58 59 62 62 56 61 58 61 66 69 71 70 70 69 70 70 70 69 70 71 70 71 73 74 77 78 81 86 85 86 85 86 86 87 87 86 86 84 84 84 83 83 82 82 83 82 81 82 82 82
68 68 67 68 67 67 68 61 66 68 71 71 64 56 56 58 55 53 59 56 57 58 53 67 68 66 66 67 67 68 68 69 68 69 70 70 72 74 76 79 82 86 87 86 87 88 88 87 88 87 84 86 85 85 85 83 82 81 83 83 83 83 82
64 69 66 66 71 70 66 66 69 65 57 56 58 59 50 51 53 51 53 56 55 56 55 61 62 62 63 65 66 66 65 65 66 68 70 70 72 73 74 76 81 85 87 86 87 89 89 88 87 87 87 87 87 87 87 87 84 85 85 86 85 84 84
62 65 65 54 58 69 68 67 68 64 65 63 58 60 61 62 51 50 49 55 50 56 55 57 60 62 63 64 64 64 64 64 65 66 68 69 70 71 72 75 79 85 86 87 89 89 89 88 87 88 89 89 89 88 87 87 88 86 85 86 85 84 85
62 55 57 53 56 56 62 65 61 64 62 62 66 63 60 59 54 55 51 48 51 57 59 58 61 63 64 64 63 64 64 65 65 65 66 67 69 70 72 73 76 80 85 89 89 90 91 91 89 89 89 89 89 89 88 88 86 87 87 87 86 84 85
53 53 58 57 59 59 58 58 54 56 57 58 56 53 60 57 57 49 54 49 52 58 61 60 61 64 64 64 64 64 65 66 64 65 66 66 67 69 71 73 74 76 77 78 82 89 91 91 89 88 88 89 89 89 90 88 89 88 88 87 85 84 85
53 55 58 61 60 61 60 60 55 59 58 57 58 52 53 57 55 57 59 53 49 57 60 61 63 64 65 65 65 64 66 65 65 65 66 66 66 67 70 72 73 74 74 75 77 77 78 84 89 88 89 87 85 83 80 85 86 88 90 89 88 85 85
56 58 61 60 61 60 59 60 60 59 55 55 55 55 57 57 54 55 55 51 49 57 61 63 64 64 65 66 65 64 65 65 66 65 64 63 64 65 68 70 72 72 73 74 73 73 75 77 79 85 88 84 81 77 76 76 84 78 79 86 88 86 85
51 55 57 57 59 60 55 54 57 57 59 58 56 57 56 55 51 53 56 48 49 56 62 63 64 64 64 63 65 66 63 65 65 65 65 64 63 63 65 66 68 69 70 70 69 71 72 74 78 78 83 83 80 76 77 78 82 80 83 85 86 87 87
41 41 44 48 50 51 54 55 55 56 56 55 55 54 55 49 49 50 54 49 52 57 60 60 62 62 62 63 64 66 66 65 65 65 65 64 63 62 63 64 65 65 66 68 68 69 71 73 74 74 76 81 82 77 78 80 81 79 82 86 87 86 87
49 47 45 48 51 53 50 51 53 53 56 57 56 55 54 52 51 51 49 53 51 54 57 58 59 60 59 60 61 62 63 64 66 65 65 65 63 63 63 62 62 63 63 64 66 67 70 71 71 73 75 76 78 78 79 81 82 82 83 84 84 86 87
48 49 48 50 51 49 49 49 51 54 53 54 56 54 50 52 54 45 50 53 52 52 55 56 57 59 59 59 60 61 62 62 64 64 64 65 65 64 64 63 62 60 61 62 64 65 67 68 69 71 73 75 75 76 77 79 83 84 83 83 84 85 85
48 50 50 51 51 51 50 51 51 51 52 53 52 51 53 53 52 49 50 52 51 53 56 56 57 58 58 58 58 61 62 63 63 63 64 63 63 62 62 62 62 61 61 61 61 63 64 65 66 68 70 71 73 75 77 78 80 81 83 84 84 86 85
48 49 50 51 51 50 51 51 51 51 51 51 51 51 53 54 51 53 53 53 53 55 56 57 59 60 60 59 60 61 61 62 62 63 63 63 62 61 61 61 62 62 62 62 61 62 62 63 64 65 67 68 70 73 75 78 77 79 79 82 84 86 86
45 48 49 51 50 48 48 50 51 51 51 51 52 52 52 53 53 54 54 51 49 54 58 58 60 60 61 60 58 57 58 60 62 62 62 62 62 63 62 62 62 63 62 63 63 62 62 62 63 64 64 66 68 71 73 75 76 78 80 79 82 86 85
43 46 47 49 49 49 49 49 50 51 51 50 51 51 53 53 51 52 52 50 49 54 58 60 59 58 58 57 57 57 57 59 60 60 60 61 61 62 63 62 62 62 62 62 62 62 63 64 64 65 63 65 66 67 70 72 74 78 78 79 80 79 84
42 47 46 46 47 48 46 46 48 50 51 52 53 53 54 53 54 53 52 52 57 56 59 57 57 59 57 56 57 57 57 57 58 59 59 61 61 62 62 62 62 62 62 62 62 63 64 64 65 66 66 65 64 65 66 69 71 73 73 77 78 79 81
43 45 45 47 45 40 42 51 52 50 49 50 49 51 52 53 55 54 56 55 55 56 56 56 54 55 55 57 56 59 58 57 57 59 60 60 62 63 63 63 63 62 62 62 63 64 64 66 67 68 67 67 67 67 67 68 69 70 71 73 75 77 79
42 45 44 43 37 41 48 53 54 53 52 52 51 52 53 53 54 55 54 53 53 54 56 56 56 57 58 60 59 59 60 60 59 58 58 59 61 61 62 62 64 62 61 61 62 63 64 65 67 67 67 68 69 68 68 68 69 68 69 71 74 76 76
45 43 43 32 38 45 50 52 52 53 55 54 52 51 51 52 53 54 53 52 54 55 55 56 57 58 60 60 60 60 61 61 60 59 59 59 60 61 62 62 62 62 63 62 62 62 65 66 66 67 66 68 68 67 69 69 67 68 69 71 73 73 74
39 42 42 41 45 45 46 47 49 52 49 49 49 47 48 50 53 53 52 52 54 55 56 57 58 60 61 57 57 61 61 61 62 61 61 61 60 62 63 64 64 64 65 65 65 64 65 65 65 65 65 66 67 67 68 69 67 66 68 69 70 70 71
45 41 40 38 40 34 43 48 53 53 53 53 53 50 47 49 53 53 53 51 52 54 55 56 57 59 57 55 55 59 62 63 62 63 63 64 63 63 63 64 65 65 66 66 67 66 65 66 66 66 66 66 66 66 67 69 69 68 70 70 71 70 69
42 41 38 35 34 39 48 49 52 53 54 53 53 48 44 47 51 52 54 53 53 53 53 54 56 56 53 55 57 59 61 62 63 62 63 63 64 64 64 64 64 65 65 64 66 66 66 65 66 66 66 65 65 66 66 67 68 69 70 70 70 70 70
42 42 37 36 42 40 48 51 53 55 55 51 50 39 39 45 51 53 53 53 53 53 54 55 54 52 50 52 56 61 61 62 62 61 61 62 63 63 64 66 66 64 64 64 65 66 66 65 66 66 66 65 64 64 65 67 67 69 70 69 69 70 70
42 39 41 42 44 49 51 53 54 56 53 51 41 36 44 49 52 53 53 54 54 54 53 54 51 54 55 56 58 60 61 61 61 62 63 63 63 63 64 64 62 63 64 65 64 65 65 65 66 66 66 65 63 64 64 65 66 69 70 71 70 69 70
40 41 38 40 44 50 54 54 55 55 49 40 41 49 52 53 52 54 55 54 54 54 54 54 54 56 58 59 59 59 60 60 59 61 62 62 63 64 64 63 62 63 64 64 64 66 66 66 67 67 65 63 62 63 64 64 67 70 70 70 70 70 70
39 38 35 35 33 45 54 52 52 53 45 47 51 51 52 54 54 54 54 55 55 55 54 55 55 56 57 58 57 58 59 58 58 59 59 59 60 60 61 62 64 64 62 62 63 64 66 67 67 66 65 62 62 62 62 64 68 69 70 70 69 69 69
37 34 32 36 47 51 54 55 47 52 54 55 54 54 52 53 54 54 54 54 55 56 54 54 55 55 55 55 56 57 57 58 59 59 59 59 60 61 62 63 63 63 61 61 61 63 65 65 65 65 63 61 62 62 62 65 67 68 68 69 69 69 69
43 39 45 51 50 52 55 54 55 57 56 56 56 55 55 53 53 56 55 54 55 55 55 54 54 53 54 54 57 55 56 57 57 57 58 58 58 59 59 60 61 61 61 60 61 62 64 64 64 63 63 61 61 61 63 65 65 66 67 68 68 68 69
48 50 51 53 52 51 53 55 55 55 55 57 56 55 54 55 56 56 55 56 56 56 56 53 54 54 54 54 55 56 56 57 57 57 57 58 58 58 59 59 60 60 60 61 61 60 61 63 63 63 63 63 60 61 64 64 65 65 65 65 66 66 68
45 41 49 48 51 53 54 55 57 56 56 56 56 55 56 57 57 56 57 56 56 55 55 54 53 54 55 54 54 55 55 55 55 57 56 56 56 56 56 57 58 58 58 58 58 59 59 62 63 64 63 63 62 63 63 64 64 65 65 64 65 66 66
44 47 50 50 51 52 54 55 55 55 57 56 55 57 58 58 57 57 57 56 55 55 54 54 53 54 55 54 53 54 54 54 55 55 55 55 55 56 57 57 57 57 56 56 57 58 58 60 61 62 62 62 63 63 64 64 65 64 64 64 65 66 67
49 51 52 52 51 52 52 53 54 56 58 58 56 56 56 56 55 56 56 56 56 56 55 55 55 53 54 54 54 54 55 54 55 55 55 55 55 55 55 56 57 56 56 56 56 57 58 60 61 61 61 62 63 63 64 64 64 63 63 64 65 66 68
44 45 50 53 46 48 55 55 56 56 57 56 57 56 55 55 55 55 55 56 56 56 56 55 55 52 52 54 54 53 54 54 54 54 54 55 55 56 57 57 57 56 57 56 56 56 57 59 60 60 61 62 63 65 65 66 65 63 63 63 64 65 65
46 53 55 55 55 54 56 58 58 58 58 57 55 55 55 56 57 57 56 55 55 55 55 57 55 53 53 54 55 53 54 54 54 54 54 54 55 56 57 56 55 55 56 56 57 56 57 59 60 61 61 62 63 64 65 65 65 63 62 62 63 64 64
54 55 57 56 54 52 57 58 58 58 56 56 56 57 58 57 58 58 56 55 54 54 55 56 56 55 55 55 55 53 53 54 54 54 55 55 55 55 55 54 54 54 54 55 56 56 58 59 59 60 62 63 62 64 65 64 65 63 63 61 60 61 63
52 57 57 56 55 57 58 56 57 57 56 56 57 57 57 56 57 57 55 55 55 54 54 54 55 56 55 54 54 53 53 53 54 53 54 54 54 54 54 54 54 54 55 56 57 58 58 58 59 60 60 62 63 64 64 64 64 63 62 62 61 62 63

ECMWFFLT2_sfc_temp_072.txt.gz
Temp
75 76 77 78 80 65 75 77 69 74 84 80 71 73 76 74 70 64 73 64 69 75 76 77 79 79 77 78 78 77 76 77 78 78 79 81 83 85 85 86 88 87 88 90 89 87 90 92 92 92 91 92 90 90 90 88 88 89 88 87 88 88 87
75 77 78 78 80 79 78 69 76 84 85 81 72 63 65 66 61 62 68 61 61 65 58 75 74 76 78 76 75 75 74 76 75 76 77 78 80 82 84 86 87 89 90 88 91 93 90 89 92 91 90 93 92 91 91 89 89 88 89 89 89 89 88
73 77 77 76 79 81 77 75 88 73 62 62 70 67 58 59 59 60 65 66 65 68 61 71 68 70 71 72 74 72 72 72 72 73 75 77 79 81 82 85 87 89 91 92 89 87 93 94 92 91 93 93 93 93 93 94 91 92 92 94 92 90 90
74 76 75 65 72 78 81 80 77 83 77 70 65 68 70 68 61 59 61 64 56 64 61 64 67 68 70 71 71 69 69 69 70 70 71 73 76 78 81 83 85 88 91 94 94 91 91 94 95 93 94 95 95 94 93 92 93 91 88 87 91 90 92
73 66 70 67 69 71 72 73 73 74 75 80 77 77 72 68 64 62 56 56 57 59 63 64 67 69 69 70 68 68 68 68 69 68 68 70 72 75 78 81 83 85 85 88 90 92 94 95 96 96 96 94 94 94 93 92 89 89 90 90 91 88 91
66 64 68 66 67 69 72 74 73 75 71 66 61 61 75 71 66 61 60 58 56 61 63 67 71 72 71 70 68 68 68 68 68 68 68 68 70 72 75 79 81 81 82 84 85 86 86 88 93 95 95 95 91 94 95 95 95 92 92 89 89 90 88
64 66 68 71 70 70 72 73 69 73 73 73 68 56 64 72 72 72 71 58 51 61 65 71 72 73 72 72 71 68 68 69 69 69 69 69 70 71 74 77 79 79 79 80 82 81 81 81 84 88 92 95 93 92 91 93 93 94 94 94 92 89 90
67 68 71 70 70 70 70 71 72 72 70 70 68 67 70 68 69 65 64 55 52 63 68 71 73 73 73 72 73 70 70 69 69 69 69 69 69 70 73 74 76 77 78 78 77 78 77 77 79 83 89 88 87 88 89 91 93 91 93 95 94 90 90
58 62 66 67 71 72 68 67 68 69 70 70 70 71 72 65 69 68 66 55 50 60 70 72 73 73 72 72 73 74 70 70 71 70 69 70 69 70 71 71 71 73 74 73 72 74 73 75 77 79 84 85 81 80 85 89 91 91 94 93 95 94 92
47 47 50 55 59 64 67 67 67 67 67 65 68 63 66 59 62 63 65 58 56 62 68 69 71 71 70 73 75 76 75 73 72 72 72 71 70 69 69 69 68 68 69 71 71 71 73 74 75 75 78 86 86 78 81 87 89 90 92 93 94 93 94
56 53 54 59 65 66 63 61 64 65 67 69 69 67 65 63 63 62 61 58 55 57 63 65 68 70 70 70 72 72 72 73 75 73 73 73 72 71 70 69 68 67 66 67 69 70 73 73 73 73 74 77 83 83 81 82 87 89 89 90 91 93 94
59 61 59 62 65 62 62 62 62 65 65 66 66 65 63 62 65 55 61 61 59 60 62 64 66 69 68 69 70 71 72 72 73 74 73 73 74 72 71 69 67 67 66 65 66 68 70 71 72 71 73 74 77 81 83 83 83 86 89 88 89 89 90
60 62 62 63 62 62 62 62 63 62 64 65 62 60 63 64 62 59 60 64 62 63 65 66 67 68 68 67 66 70 72 73 73 72 73 74 74 73 71 69 68 67 67 66 65 66 67 69 69 70 71 71 73 76 80 83 85 83 83 87 86 87 88
58 59 61 62 61 61 62 62 62 63 64 63 64 63 65 65 60 64 64 65 63 67 65 66 67 70 70 68 69 69 70 70 70 72 72 73 73 73 71 69 69 68 68 67 66 66 66 68 68 69 68 69 71 74 77 80 79 83 83 82 84 86 87
55 58 60 61 61 60 59 61 62 63 64 64 64 64 64 65 64 65 65 63 60 67 69 66 68 70 70 69 67 65 66 69 71 70 70 71 71 72 72 70 70 69 69 68 67 67 67 67 68 68 68 69 71 73 75 77 77 81 83 80 81 85 86
53 57 58 58 60 60 60 59 61 62 62 60 63 62 65 63 59 62 62 59 59 63 67 67 67 66 67 66 65 65 64 67 68 68 69 69 69 70 71 71 71 70 70 68 68 67 68 69 69 69 68 69 70 71 72 73 75 78 80 81 83 82 85
53 56 57 57 58 59 55 56 60 62 62 63 64 64 64 66 67 62 59 62 65 64 67 66 65 68 66 66 65 66 65 64 66 67 68 69 69 70 70 70 69 71 70 70 68 68 69 69 70 70 70 70 68 69 70 71 73 74 75 79 81 81 79
54 55 56 57 55 46 51 61 64 63 61 62 60 60 62 63 67 66 68 64 65 66 67 66 66 69 66 66 63 66 66 65 65 66 68 69 70 71 71 70 70 68 70 70 70 69 69 71 73 72 71 71 71 72 73 72 72 71 72 74 78 79 80
53 55 54 50 43 49 55 63 63 63 62 62 61 60 63 63 65 65 64 64 65 66 68 67 66 66 66 67 67 68 68 67 66 65 66 66 68 68 69 69 71 69 69 69 69 69 69 70 71 72 73 74 73 74 74 74 75 73 72 73 75 77 77
57 53 52 38 46 52 59 61 61 63 64 64 62 58 61 63 65 65 63 63 64 64 65 67 67 67 68 69 68 68 69 69 68 67 67 66 68 68 70 69 69 69 71 70 70 69 70 70 71 72 72 73 74 74 76 75 74 74 73 73 75 74 75
47 53 52 51 52 52 54 54 57 61 58 59 59 54 57 62 64 66 63 63 66 66 67 67 67 68 70 66 65 70 69 68 70 70 69 68 68 70 71 72 72 71 72 72 72 72 73 72 71 70 70 71 73 73 74 75 73 73 74 73 73 73 75
55 51 50 46 48 42 52 57 61 64 63 63 62 59 55 59 63 65 64 62 63 65 66 65 65 67 64 61 63 68 70 71 70 71 71 72 71 71 71 72 73 73 73 73 74 74 74 75 74 72 71 71 71 71 72 74 75 73 75 74 74 73 74
52 50 46 43 41 46 55 56 59 62 64 62 61 58 53 58 62 64 65 64 63 64 64 64 65 63 59 62 65 67 68 70 71 70 70 71 72 71 72 72 72 73 71 70 72 73 74 74 74 73 74 72 71 72 72 73 74 75 75 75 74 73 74
53 52 47 43 53 45 54 58 61 64 65 60 59 46 49 55 62 63 64 64 64 64 63 63 63 61 60 65 61 68 70 71 71 69 69 69 70 71 72 74 73 71 70 71 72 74 74 73 74 74 74 73 71 70 72 74 74 75 75 75 75 75 76
52 47 50 55 54 57 60 60 62 63 62 59 49 44 50 57 62 64 63 65 64 64 62 63 60 64 65 64 65 69 69 69 70 71 71 71 71 70 72 72 68 70 72 72 72 73 73 72 74 75 73 72 71 70 70 72 72 75 76 76 75 75 75
50 53 49 50 56 57 62 63 62 63 57 47 50 55 61 62 61 63 63 63 63 63 62 63 63 65 66 66 67 67 68 68 67 69 70 70 71 72 71 69 69 71 72 71 72 74 73 75 75 75 73 70 69 69 70 71 73 76 75 75 75 75 74
53 51 47 45 39 53 64 61 60 60 52 55 58 60 62 63 63 62 63 63 63 63 62 63 63 63 65 65 65 65 66 66 66 67 67 66 67 67 67 69 71 71 70 69 71 71 73 75 75 74 73 69 68 68 68 70 73 74 75 75 74 74 74
46 46 40 42 54 58 63 61 54 58 62 64 63 63 61 63 64 63 63 63 63 64 62 62 63 63 62 63 64 64 64 65 66 67 66 66 67 68 70 70 70 70 67 67 68 70 72 72 72 72 70 68 67 67 67 70 72 72 73 73 73 73 74
53 45 54 57 60 62 65 64 63 64 65 65 64 64 64 62 63 64 63 63 63 63 63 62 62 61 62 62 64 63 63 64 65 64 65 65 65 66 66 68 68 68 67 66 67 68 70 71 71 70 70 68 67 66 68 70 70 70 71 71 71 72 73
60 61 61 62 63 62 64 65 66 65 64 66 65 64 63 64 65 65 63 64 64 64 63 61 62 61 62 61 63 63 64 64 64 64 64 64 65 66 66 66 67 66 67 67 67 67 67 69 70 69 70 70 67 67 70 70 70 70 70 69 69 70 71
52 47 61 60 61 62 62 64 65 65 65 64 65 64 64 65 65 65 65 64 63 63 63 61 60 61 62 61 61 62 63 62 62 64 63 63 63 63 63 64 64 64 64 64 64 64 64 67 69 70 69 69 69 69 68 70 70 69 69 69 68 69 70
52 54 58 60 63 63 64 65 64 62 63 64 65 65 66 66 65 65 64 64 63 63 62 62 61 61 62 61 60 62 62 62 62 62 62 62 62 63 63 63 63 63 62 62 63 63 63 65 66 67 67 68 68 69 69 70 71 69 68 69 69 70 72
57 60 61 60 60 61 62 64 65 67 67 66 65 65 65 65 64 64 64 64 64 63 62 63 62 61 62 63 62 61 62 62 62 62 62 62 62 62 62 63 62 62 62 62 62 63 63 65 65 65 65 66 68 68 69 69 68 68 67 68 69 70 73
52 54 58 61 52 54 60 63 64 65 66 66 65 64 64 65 63 63 62 63 64 64 64 63 62 60 60 62 62 61 61 61 61 61 62 62 63 62 63 63 63 62 62 62 61 62 63 64 64 64 65 66 67 70 71 71 70 68 68 68 69 69 71
50 59 62 62 61 60 63 64 67 66 67 66 64 63 63 64 65 64 63 62 62 63 64 65 63 61 61 61 63 61 61 61 62 62 61 61 61 62 62 62 62 61 62 62 62 61 62 64 64 65 65 66 67 69 70 70 70 68 67 67 68 70 70
59 62 63 64 60 57 62 66 67 66 67 66 64 65 65 65 65 65 63 63 61 61 63 64 64 64 63 63 63 61 61 62 62 62 63 63 63 63 63 61 60 60 60 60 60 60 62 63 64 65 66 67 67 69 69 70 70 68 67 67 66 68 70
55 62 64 64 62 63 66 66 66 67 67 66 65 65 65 65 65 65 64 63 64 63 62 62 64 65 63 63 62 62 61 60 61 61 60 60 61 61 61 62 60 60 60 61 61 61 62 63 63 64 66 66 67 69 68 69 69 68 67 67 67 68 69

ECMWFFLT2_sfc_temp_075.txt.gz
Temp
84 83 86 85 86 68 80 81 72 78 89 86 76 77 80 78 74 68 81 67 70 76 81 83 84 83 83 84 83 83 82 82 81 81 83 86 89 84 86 85 87 83 82 83 85 86 87 87 89 91 90 91 88 85 86 87 86 87 87 88 89 90 89
83 87 88 86 87 86 81 73 79 88 92 88 77 68 71 71 65 69 76 66 62 67 58 81 81 80 80 80 80 81 80 82 80 80 80 81 83 87 88 86 85 85 81 79 78 81 87 86 88 87 89 91 90 89 90 88 86 86 87 88 89 88 89
81 85 84 81 86 90 81 81 91 78 69 68 74 69 62 63 63 67 73 73 66 69 67 76 77 77 77 76 77 77 78 78 78 79 80 81 84 86 87 89 88 86 86 84 80 81 86 86 81 89 87 91 89 91 90 89 85 83 88 90 89 88 90
80 80 79 67 75 84 86 87 81 87 83 76 68 71 71 73 65 66 63 67 60 72 71 78 74 75 75 75 75 76 77 76 76 76 78 78 80 83 87 84 87 88 87 90 88 83 80 81 77 77 81 86 84 84 81 80 80 81 80 86 89 88 91
79 70 76 73 76 74 76 77 77 80 81 86 81 81 72 70 66 67 62 58 59 66 74 74 74 74 74 74 72 73 75 76 76 75 74 75 77 80 82 86 86 86 87 88 87 84 79 80 82 83 79 79 81 84 83 82 82 83 83 89 86 85 88
69 74 82 77 75 79 80 77 75 79 76 72 66 65 81 77 72 62 65 58 59 67 74 75 75 76 76 76 74 74 75 74 73 73 73 73 75 77 80 82 83 82 84 87 87 85 85 85 81 77 79 78 78 80 81 85 90 84 85 90 86 92 92
73 74 77 81 81 80 79 80 79 82 82 79 72 60 69 76 77 82 72 58 53 70 76 75 76 76 77 76 76 74 74 74 75 74 74 75 74 74 78 80 82 83 83 84 84 84 84 81 79 78 77 78 79 78 81 88 85 88 94 91 89 89 90
75 78 80 80 82 80 77 80 80 81 79 80 77 74 76 72 74 71 66 54 54 70 76 75 76 75 76 76 76 74 75 75 74 72 72 72 73 73 75 76 80 81 81 81 81 80 80 80 77 74 75 76 79 78 79 80 83 85 88 92 93 91 91
65 68 73 75 79 79 76 76 80 80 80 80 80 78 75 66 74 76 68 52 53 67 75 74 75 76 74 74 76 77 74 74 74 73 72 72 72 73 74 73 74 76 78 77 77 79 78 78 77 75 77 79 77 78 79 81 79 79 87 89 92 92 92
50 50 53 57 63 69 75 79 76 76 76 76 74 68 70 60 68 69 66 56 62 68 71 73 74 74 73 75 75 76 76 74 75 76 74 73 73 72 72 72 71 71 73 75 76 77 78 80 80 79 79 77 82 79 79 81 80 78 84 91 93 89 91
57 57 60 72 76 74 70 71 72 74 77 78 75 73 69 65 68 68 61 61 59 62 67 69 71 72 72 73 75 75 75 75 76 75 76 76 74 73 74 73 73 70 70 72 74 76 80 80 80 81 81 82 80 80 83 81 82 85 87 88 88 88 90
66 69 67 72 74 72 73 71 70 73 73 74 73 69 66 71 65 61 61 63 62 62 67 69 69 71 72 73 74 76 78 80 78 76 75 75 77 76 75 74 73 72 70 71 72 74 76 79 80 79 80 80 81 81 80 83 86 87 87 86 88 89 90
68 71 71 72 71 72 70 70 70 70 72 72 71 72 70 70 66 58 60 64 64 66 69 70 70 72 72 73 74 77 79 79 77 77 77 77 77 76 76 74 72 73 72 70 71 72 74 76 76 78 78 79 80 80 80 81 83 84 84 85 83 86 89
67 68 69 71 70 69 70 70 70 70 72 71 71 70 73 74 70 69 66 66 67 69 68 70 71 73 75 74 75 77 77 76 76 77 77 78 77 77 76 75 75 74 73 73 72 71 71 74 74 76 76 76 79 80 80 81 79 80 82 83 83 83 84
63 66 68 70 69 68 67 69 70 71 71 71 71 72 72 73 72 72 70 66 64 71 72 71 73 73 73 73 72 72 73 76 77 76 76 76 76 76 75 74 76 75 74 74 73 72 73 73 74 75 74 76 78 79 79 81 80 81 82 81 84 84 83
61 65 66 67 69 69 68 67 68 69 69 67 70 69 73 71 68 70 67 61 61 68 73 73 73 72 71 70 70 70 70 74 74 74 74 74 74 75 75 75 75 75 76 74 74 74 75 75 75 75 74 76 77 77 78 78 79 81 80 81 83 82 84
58 65 66 65 65 65 62 64 69 70 71 73 73 72 72 73 74 69 60 61 67 68 71 68 68 71 71 71 72 70 69 70 72 73 73 74 74 75 74 73 73 75 75 75 74 75 76 75 74 76 77 77 74 75 75 77 77 76 76 79 79 80 81
59 61 63 64 60 51 55 70 75 73 71 70 67 68 70 73 74 71 76 64 71 70 70 67 68 70 70 69 70 73 71 70 70 72 73 75 75 75 75 75 73 72 74 74 75 75 76 77 79 78 77 78 78 79 78 78 77 75 74 75 78 78 78
59 60 59 54 47 53 64 71 72 73 73 72 71 69 71 71 73 73 72 72 71 73 73 73 72 74 74 74 73 74 74 73 71 70 70 71 73 73 74 74 75 73 73 73 73 73 76 77 77 78 78 80 80 80 80 80 79 76 76 76 76 77 77
63 57 54 40 48 59 66 67 69 71 72 72 69 65 69 71 73 73 71 71 72 74 75 73 72 73 75 75 74 73 74 75 74 72 71 71 73 73 74 74 73 73 76 74 74 73 76 76 77 78 77 79 80 79 81 80 78 78 78 77 77 76 75
53 56 55 54 57 57 59 60 62 66 64 64 64 58 63 70 73 73 69 70 74 78 76 72 73 76 77 71 70 76 75 74 76 75 74 73 72 74 75 77 76 76 76 76 76 76 78 78 77 76 76 76 78 79 79 80 76 76 78 78 77 74 73
61 55 54 50 51 44 54 61 68 71 70 71 71 64 61 68 72 74 71 70 71 74 76 76 74 74 71 67 67 73 76 77 75 76 76 77 75 75 76 76 78 77 76 76 78 78 78 79 79 77 77 77 77 77 77 79 79 77 79 79 79 77 75
58 55 50 48 47 50 60 61 65 68 71 69 68 63 55 66 71 73 73 72 71 72 72 72 73 67 63 64 69 70 74 75 76 75 75 77 77 76 77 77 77 76 75 75 77 78 79 79 78 78 79 77 77 77 76 77 78 78 78 78 77 77 78
57 56 52 49 57 49 58 63 66 70 72 67 64 49 53 64 71 72 72 71 70 71 71 72 68 65 65 63 66 77 77 74 75 74 73 74 75 76 77 78 76 75 74 75 77 78 79 77 78 79 80 77 76 74 75 78 78 78 78 77 77 78 78
57 53 55 60 54 60 64 65 68 69 69 65 52 45 56 65 70 71 72 72 72 70 68 69 66 69 68 67 70 73 75 74 74 75 75 75 75 75 76 75 72 75 76 77 76 77 77 76 79 80 79 77 75 74 74 74 75 77 79 78 78 77 77
55 54 53 55 57 61 66 68 68 69 61 50 52 58 66 67 67 70 72 71 71 70 69 69 70 72 72 72 73 73 72 72 71 73 74 74 75 76 75 72 73 75 76 75 75 77 77 78 79 79 77 74 73 73 73 73 75 78 78 77 77 76 76
59 56 52 50 44 56 69 65 65 65 56 56 62 66 69 69 69 68 68 71 71 70 68 69 68 69 71 71 70 70 71 71 71 71 71 70 71 71 71 73 75 75 73 73 74 74 77 78 78 77 77 73 72 72 71 72 75 76 77 77 76 75 75
52 52 47 48 58 62 67 66 59 64 66 66 68 67 64 68 69 68 68 68 69 70 69 68 69 68 68 68 69 69 70 71 71 71 71 70 71 72 74 75 74 74 71 71 71 74 75 75 75 75 74 71 71 70 70 73 75 75 75 75 74 74 74
58 48 56 59 65 67 69 68 66 68 68 70 70 70 69 67 68 70 69 68 69 69 69 68 67 66 67 67 69 68 69 70 70 69 69 69 69 70 70 71 71 71 71 69 70 72 74 73 73 72 73 71 70 70 72 73 73 73 73 73 73 73 74
65 67 66 67 68 68 69 71 70 68 69 71 71 69 68 70 70 70 69 69 70 69 68 67 67 67 67 66 68 68 69 69 69 68 69 69 69 69 70 69 69 69 70 70 70 70 70 72 72 72 73 73 69 70 72 72 73 73 72 71 70 71 72
57 50 66 65 65 67 68 69 70 70 70 70 71 69 69 70 70 70 70 69 68 68 68 66 66 66 67 65 66 66 66 67 67 68 67 67 67 67 66 67 67 67 67 67 67 67 67 70 71 72 71 72 71 71 71 73 73 72 72 71 70 70 70
57 58 62 65 68 69 69 70 68 67 68 69 69 70 71 71 70 70 69 69 67 68 67 67 65 66 67 65 64 65 66 66 66 66 66 66 66 67 67 67 67 66 66 65 65 66 66 67 69 70 70 70 70 71 71 72 73 71 70 70 71 71 72
62 65 66 65 65 66 67 69 70 71 70 69 68 69 70 70 69 68 69 69 69 68 67 68 66 65 66 67 66 65 67 66 66 66 66 66 66 66 66 66 66 65 65 65 65 65 66 67 68 68 68 69 70 70 71 72 71 70 70 70 70 72 73
57 57 61 64 56 56 64 67 69 70 72 71 71 71 69 69 68 68 67 68 69 69 69 67 67 64 65 66 66 65 65 65 65 65 66 66 66 66 67 67 66 66 65 65 65 65 65 67 67 67 67 68 70 72 72 73 72 70 69 70 70 71 72
56 62 63 61 62 62 65 67 69 71 72 72 70 68 68 69 71 70 67 66 67 67 67 69 67 66 66 66 67 65 65 66 67 66 65 65 66 66 67 66 65 64 65 65 65 65 66 66 67 67 67 68 69 71 71 72 72 70 70 69 70 71 71
61 64 65 65 59 59 65 68 69 70 71 71 70 70 70 69 70 70 68 68 66 66 67 68 69 68 67 67 67 66 66 66 67 67 68 68 67 67 66 65 64 64 64 64 64 64 65 66 67 67 68 69 69 71 71 71 71 70 69 69 68 70 71
59 66 66 67 66 66 68 68 69 70 70 70 69 69 70 69 69 70 69 68 68 67 66 66 68 69 67 67 67 66 66 66 67 67 67 66 66 65 66 66 64 64 64 64 65 65 65 65 66 67 67 68 70 71 70 71 71 69 68 67 67 69 70

ECMWFFLT2_sfc_temp_078.txt.gz
Temp
85 84 87 87 89 67 80 81 72 77 88 83 74 74 79 77 71 67 72 66 70 76 79 80 83 82 82 84 85 83 81 77 77 77 78 79 78 79 80 79 79 79 81 83 81 82 82 82 78 77 77 79 82 84 82 81 83 83 86 86 86 87 87
84 89 88 89 89 86 79 71 78 87 91 86 75 65 68 68 64 67 70 61 62 64 56 78 78 78 79 79 82 83 82 82 79 80 80 77 73 76 77 76 76 79 79 81 83 84 84 82 79 78 75 76 75 76 79 80 78 78 84 86 87 88 87
83 88 87 83 88 89 80 79 91 76 67 65 73 68 59 61 60 65 63 66 66 67 64 73 73 74 76 78 79 80 80 80 79 81 79 81 76 75 73 74 76 80 80 81 83 83 84 83 77 78 77 76 77 78 80 76 74 80 87 88 88 88 87
82 83 80 66 75 87 90 89 81 85 77 73 67 70 71 67 61 64 52 65 58 70 72 75 73 76 76 76 76 75 76 77 77 77 79 80 79 77 76 75 75 79 83 84 82 81 80 78 77 77 76 78 79 80 80 78 80 83 84 84 85 81 85
81 69 75 71 75 72 75 75 74 78 78 85 81 80 74 68 63 64 54 52 56 64 72 73 73 74 76 75 73 72 73 73 74 75 77 78 81 78 78 80 77 79 82 82 82 83 82 81 79 76 76 79 81 81 80 81 81 82 84 86 85 82 84
69 72 81 81 80 80 78 76 74 77 74 69 64 63 81 76 68 57 59 50 58 69 79 77 75 76 76 76 74 72 73 72 72 74 76 76 79 82 82 82 81 80 80 78 77 79 81 83 80 77 77 79 81 80 81 82 83 80 80 79 78 83 84
71 77 83 87 85 84 83 81 78 83 81 78 70 58 68 76 76 76 63 55 54 72 79 80 79 77 78 78 76 74 73 73 73 74 76 77 78 80 82 80 80 80 80 80 80 79 78 80 79 77 78 78 79 79 80 81 82 81 83 84 83 82 82
77 82 84 84 84 83 79 80 82 81 76 79 76 74 75 70 73 65 60 52 55 72 78 79 79 77 78 77 76 74 72 72 72 72 73 74 74 75 76 78 79 79 79 80 79 79 78 78 78 76 77 79 78 78 78 77 78 79 79 80 80 80 82
65 71 73 75 81 81 76 76 80 82 84 83 79 77 72 65 71 69 60 47 56 70 77 77 77 77 75 75 77 76 72 72 72 72 72 72 72 73 75 76 75 76 77 76 76 76 76 78 78 79 79 78 78 77 78 77 78 79 78 78 78 78 80
51 51 53 58 63 69 75 78 79 81 79 78 75 68 69 58 67 66 59 56 61 70 74 74 77 75 73 76 76 78 77 74 74 73 72 71 71 71 72 73 73 73 74 76 76 75 74 78 79 78 77 78 78 77 78 78 78 77 78 82 81 77 78
55 57 60 70 76 74 69 74 77 78 82 80 76 72 65 63 68 63 61 61 60 64 69 71 72 73 72 72 74 75 75 75 75 74 74 73 72 72 72 71 71 71 71 72 74 76 77 77 80 79 80 78 76 74 75 77 79 81 80 80 80 79 78
65 69 68 73 73 71 74 73 73 78 76 76 74 69 66 69 67 53 63 63 62 63 68 71 71 72 72 73 74 74 74 75 75 74 73 74 75 73 73 72 71 70 71 72 73 74 77 75 75 78 80 79 77 76 74 76 79 78 80 81 81 80 78
71 72 71 73 73 72 72 75 76 76 75 74 70 70 73 74 67 56 62 65 63 66 70 73 73 73 74 75 75 77 78 79 78 76 75 75 75 74 73 72 71 71 71 71 72 74 75 76 75 72 74 78 78 76 76 77 78 77 77 80 81 82 79
71 71 72 74 72 72 73 74 72 73 74 73 74 74 76 75 69 66 66 65 66 70 71 73 75 77 78 77 75 74 76 77 78 77 75 75 75 75 74 74 73 72 73 72 72 73 73 74 74 75 75 75 77 77 78 79 78 78 79 77 78 80 77
65 69 71 72 71 70 69 72 73 73 73 74 76 76 77 79 68 72 69 65 62 70 74 74 77 77 78 76 78 77 74 77 77 76 75 75 74 74 75 74 74 74 74 74 73 73 73 74 74 74 75 76 77 78 78 78 78 79 81 77 78 80 77
60 69 68 70 71 70 69 69 72 70 70 68 72 69 74 72 66 67 65 59 58 66 75 74 73 74 73 72 74 73 73 76 75 74 74 73 73 73 74 74 75 74 74 74 74 74 75 76 76 76 74 77 78 77 78 78 78 79 79 81 81 78 79
57 67 70 68 68 66 62 63 70 72 72 74 75 76 76 76 77 64 58 59 68 69 72 70 69 72 72 71 71 70 72 73 74 74 74 74 74 74 72 72 73 74 74 74 74 76 76 75 76 77 78 78 75 76 76 78 77 77 77 79 78 77 77
58 64 68 68 61 49 53 70 75 77 73 72 71 71 72 75 78 70 69 65 69 71 71 70 69 70 69 70 71 73 70 70 71 73 75 75 75 75 75 74 72 72 73 73 74 76 76 78 79 79 78 79 79 80 79 77 76 75 75 75 76 76 75
56 63 64 56 47 51 67 74 75 76 77 77 74 73 74 73 73 68 68 68 69 71 73 72 72 71 72 74 74 75 75 74 72 70 71 73 74 73 73 73 74 73 72 72 72 74 76 77 77 78 78 81 81 81 80 79 79 76 77 75 74 75 74
62 57 56 41 48 63 69 71 71 74 76 75 73 68 71 74 74 72 67 69 69 73 74 75 73 72 74 76 75 76 78 76 74 72 71 72 74 73 74 74 73 73 74 73 74 74 77 77 76 77 77 80 81 80 82 79 78 78 79 76 75 74 73
52 56 55 54 58 59 62 63 65 69 66 67 66 59 65 73 74 73 69 70 71 73 75 75 74 76 74 70 71 77 76 76 78 76 74 73 73 75 76 77 75 75 75 76 76 77 78 78 75 75 76 77 79 80 80 80 76 76 78 76 75 74 73
61 55 54 53 51 44 56 64 71 75 73 75 73 67 63 72 75 75 73 70 71 72 73 73 74 75 67 61 64 74 77 77 76 77 77 77 75 76 77 77 77 76 76 77 78 79 79 78 77 77 78 76 77 76 77 79 80 77 77 76 76 75 75
57 55 50 49 45 51 61 64 69 71 74 71 71 64 57 69 74 76 75 72 72 73 73 73 73 70 66 65 66 73 76 77 78 76 76 77 77 77 77 75 75 76 75 76 78 79 79 77 77 78 79 77 77 75 75 76 78 78 77 75 76 75 76
56 55 51 48 56 48 59 64 69 72 74 71 67 50 53 66 74 74 74 73 74 74 74 72 70 68 64 66 67 76 77 76 76 74 74 74 75 76 77 76 76 75 75 76 76 77 77 74 78 79 79 77 75 73 74 76 76 76 76 75 76 77 76
56 53 53 58 53 61 65 67 69 71 72 67 53 45 59 69 73 75 75 72 75 74 71 73 68 66 66 67 72 75 76 76 74 75 76 75 75 75 75 74 74 75 76 75 75 76 75 75 78 78 76 76 73 72 73 73 73 75 76 76 76 75 75
54 57 52 54 55 62 68 69 70 70 63 51 51 60 68 71 71 74 75 76 76 74 73 72 70 69 74 73 75 74 74 73 72 74 74 74 75 76 75 74 74 74 74 73 74 75 75 77 77 76 75 72 70 71 72 72 73 76 75 75 75 75 74
59 57 53 50 41 56 70 66 67 67 56 57 63 66 69 71 71 72 72 73 72 75 72 74 71 72 73 73 71 71 72 72 72 71 71 70 71 71 72 73 74 73 71 71 72 73 75 76 75 75 74 70 70 70 70 71 74 75 75 75 74 73 73
51 52 48 46 58 63 69 66 59 64 65 68 69 69 68 70 70 70 68 69 74 74 73 72 71 70 69 69 70 70 71 72 72 72 71 70 70 72 73 73 72 72 70 69 70 72 73 73 73 73 71 69 69 69 69 71 73 73 73 73 73 72 72
58 52 54 59 65 68 70 69 67 68 70 72 71 71 68 67 69 71 69 68 70 72 72 70 69 68 69 69 70 70 69 70 70 69 69 69 69 70 69 70 70 70 69 68 69 70 71 71 71 71 71 69 68 68 69 71 70 71 72 72 72 71 72
67 68 68 68 68 68 69 72 71 69 70 73 73 71 68 70 70 70 70 70 70 70 70 69 68 68 68 67 69 70 70 70 69 69 69 69 69 69 69 69 68 68 69 69 68 68 68 70 70 70 70 70 66 67 70 70 70 70 70 69 69 69 70
57 51 66 65 66 68 69 69 70 71 71 71 72 71 71 71 71 71 71 70 70 69 68 68 67 68 68 66 67 67 67 67 67 68 67 67 67 67 66 67 67 67 67 66 66 66 66 68 69 70 69 69 68 68 68 70 70 70 69 69 69 69 69
58 59 65 68 70 69 70 70 67 67 69 70 71 71 73 72 72 71 70 70 69 69 68 68 66 67 68 66 65 66 66 66 67 67 66 66 66 67 67 67 67 66 65 65 65 65 64 66 67 67 67 67 68 68 69 70 71 70 69 69 69 69 70
61 66 67 67 67 68 69 71 71 71 70 69 69 71 71 72 70 70 70 71 69 69 68 69 67 66 67 68 67 66 67 67 66 66 66 66 66 66 66 66 66 65 65 65 64 65 65 66 66 66 66 67 68 68 69 70 70 68 68 68 68 69 71
52 49 53 60 55 57 64 68 70 71 71 70 69 69 70 71 69 69 69 69 71 70 70 69 68 66 65 66 67 65 66 65 65 66 66 66 66 66 67 67 67 66 65 64 64 64 64 66 66 66 67 68 69 71 71 71 70 67 67 67 68 68 69
52 56 58 60 60 62 66 68 70 71 73 72 69 66 67 69 71 71 68 67 67 67 68 70 68 66 65 66 67 66 65 66 67 67 67 66 66 66 67 66 65 65 64 65 64 64 64 65 66 66 66 67 68 70 70 70 70 68 67 66 66 67 67
60 63 62 62 59 55 61 66 67 70 71 71 71 71 70 70 70 70 69 69 67 66 68 70 70 69 68 69 68 65 66 67 67 67 68 68 67 67 67 65 64 64 64 64 64 64 64 65 65 65 67 67 67 69 69 69 69 67 67 66 65 66 67
57 64 64 63 61 63 64 67 68 69 71 71 70 70 71 71 71 72 69 68 69 68 67 67 69 70 69 69 69 67 67 67 68 68 66 66 67 66 66 66 65 64 64 64 64 64 64 64 64 65 65 66 67 68 67 68 68 67 66 65 65 66 66

ECMWFFLT2_sfc_temp_081.txt.gz
Temp
79 78 82 81 79 55 68 71 60 64 75 72 61 63 70 67 60 51 58 58 62 70 70 73 74 75 74 76 75 75 74 75 74 74 75 77 78 79 79 78 77 75 73 76 78 79 79 78 76 75 75 76 76 77 79 80 80 80 81 81 81 81 80
80 84 82 82 82 79 72 65 68 79 82 78 65 55 57 55 49 50 58 53 55 58 51 68 66 69 72 72 73 74 74 75 74 74 75 73 73 74 75 75 76 77 76 77 76 79 78 78 76 75 75 76 76 77 78 79 80 80 80 82 82 82 81
79 84 80 76 81 84 72 70 83 68 56 57 62 60 49 49 48 46 52 56 57 56 57 68 67 68 69 70 72 73 73 73 73 74 74 73 73 73 72 73 73 75 76 76 76 75 72 74 74 74 75 76 76 77 77 78 79 80 79 83 82 83 83
75 76 72 57 66 78 82 80 73 78 67 60 56 59 60 58 48 44 45 48 46 55 56 65 68 69 68 70 69 69 71 73 73 73 72 72 71 70 71 72 73 75 78 73 71 72 73 73 75 75 75 77 77 77 77 76 77 78 78 79 79 79 82
73 59 66 62 65 62 68 69 64 68 68 72 67 67 61 55 50 46 43 41 49 56 61 59 60 69 68 67 66 67 69 70 72 72 71 70 70 70 70 72 74 74 74 70 72 73 73 74 76 76 75 76 78 78 77 77 76 77 79 80 79 79 78
61 63 73 74 73 72 69 65 62 65 62 58 53 49 70 67 54 44 47 42 51 62 68 62 61 69 69 69 68 67 68 69 70 71 70 69 68 69 74 77 77 75 73 71 71 72 74 74 74 74 74 75 76 77 78 78 78 78 80 79 79 78 79
63 72 76 79 80 78 77 72 68 72 68 66 59 45 51 62 62 64 55 48 47 65 69 69 71 71 71 70 69 67 68 70 72 72 72 71 71 71 75 76 77 77 76 73 72 72 72 73 73 73 75 76 76 76 77 78 79 79 80 79 77 77 78
68 75 79 78 78 76 71 73 74 71 65 69 64 60 61 55 60 54 50 46 50 61 64 64 65 72 70 70 69 67 68 69 70 70 71 71 71 71 72 73 74 75 76 75 73 72 71 71 72 74 75 76 76 76 76 76 77 77 75 75 75 74 75
49 59 62 64 73 73 66 64 68 73 73 74 71 66 61 53 57 56 50 42 49 58 67 71 73 71 69 68 69 70 67 68 68 69 70 71 69 69 69 69 70 72 73 73 72 72 70 71 73 73 74 75 75 75 75 76 76 77 75 74 76 76 76
39 41 43 44 49 57 64 70 71 73 74 71 65 55 54 44 55 57 50 47 54 61 63 62 64 70 67 69 69 70 70 67 67 68 69 68 68 66 67 68 68 69 70 73 72 72 72 73 74 74 74 74 74 74 75 76 76 75 75 76 75 74 74
46 46 49 61 65 62 59 65 69 70 73 73 68 59 53 47 52 52 54 54 52 55 60 61 66 69 67 66 68 68 68 69 68 68 69 69 68 67 68 67 68 68 69 71 71 71 72 74 76 76 75 74 73 73 73 74 75 77 76 75 76 74 74
59 63 64 67 68 64 66 65 67 71 71 70 64 58 53 58 54 43 55 57 55 55 61 64 66 67 68 68 68 69 69 69 69 68 68 69 69 68 68 69 69 69 69 70 68 68 70 70 70 74 76 75 74 73 73 75 76 76 77 77 77 76 76
66 68 68 69 66 67 66 67 68 67 70 68 65 61 65 61 51 48 56 58 58 61 64 66 67 67 68 68 69 71 71 71 70 69 68 68 68 68 68 67 67 69 69 67 68 67 67 68 68 68 71 74 75 75 75 75 77 77 75 76 77 76 74
64 65 67 69 66 67 67 67 68 69 69 67 67 67 68 65 57 60 60 59 61 63 64 64 66 71 71 70 71 71 71 70 71 71 70 69 68 68 68 68 69 69 69 69 68 68 66 67 67 68 69 71 73 76 76 77 76 74 75 76 75 74 73
56 64 68 67 67 66 63 66 68 68 68 67 68 68 69 65 63 64 63 59 56 61 68 69 71 72 71 70 70 70 70 71 71 69 69 70 70 69 69 69 71 71 71 71 70 69 68 68 70 69 70 71 72 74 75 75 72 74 77 74 75 74 73
51 61 64 65 66 66 63 62 64 64 64 61 64 60 66 61 57 59 57 53 53 60 67 70 71 69 68 66 66 66 66 69 69 68 68 68 69 70 71 70 71 71 72 72 71 71 73 73 72 71 70 69 70 71 73 73 74 77 76 76 74 74 74
47 59 63 64 64 59 54 55 60 62 65 65 67 67 69 67 65 58 53 53 61 64 68 67 67 68 67 66 66 66 66 66 68 67 67 67 68 69 69 69 70 71 72 73 73 74 73 72 73 74 73 71 69 70 70 73 74 74 74 74 73 73 73
46 57 59 60 51 39 45 61 69 67 64 65 63 63 65 68 67 59 63 63 65 66 66 66 65 64 63 64 65 67 65 64 65 68 68 69 69 69 69 69 68 69 70 70 72 74 74 75 76 76 74 76 75 75 73 71 72 72 71 71 71 71 71
44 52 53 46 38 43 59 68 69 69 68 68 67 64 67 66 67 67 64 65 65 66 67 66 66 65 67 68 68 69 69 68 66 65 66 67 68 68 68 68 69 67 66 68 69 70 72 73 73 74 75 76 75 73 72 73 73 71 71 71 71 72 71
51 46 45 34 41 52 63 65 65 68 71 69 67 63 66 68 66 66 63 63 65 66 67 68 68 67 68 69 69 70 70 70 68 65 65 66 68 67 68 66 65 65 69 68 69 67 69 68 69 71 71 74 74 73 74 72 72 72 71 70 70 70 70
42 47 43 45 53 53 56 58 58 60 55 58 57 49 56 66 66 65 61 61 61 64 67 68 67 68 69 64 64 72 72 71 72 70 68 67 67 69 69 70 68 67 68 70 71 71 69 68 68 69 69 70 73 73 73 72 69 69 70 68 68 68 69
52 44 40 39 40 36 46 57 63 68 65 67 65 57 54 64 67 68 65 62 61 62 65 67 68 70 62 55 57 68 72 72 71 71 71 70 68 69 69 69 69 68 68 70 73 72 71 72 71 69 69 69 70 69 71 72 71 69 70 70 70 69 68
47 44 41 38 38 41 49 55 61 65 67 63 62 54 48 60 65 67 67 64 64 65 65 64 67 62 56 55 59 67 70 71 72 70 70 71 70 69 68 68 68 69 68 69 72 70 69 69 69 70 71 69 69 68 68 69 70 70 70 70 70 70 71
46 45 42 37 46 41 52 59 62 66 66 64 58 42 42 58 65 68 67 64 65 65 60 63 60 57 52 55 60 69 69 69 70 68 67 67 68 68 69 69 69 68 68 68 69 69 69 67 70 70 69 67 67 66 67 69 69 69 69 68 68 69 69
46 48 43 48 46 55 60 60 62 63 63 60 44 34 48 58 62 66 67 67 67 66 61 58 53 58 61 63 67 70 70 69 69 70 70 69 69 68 69 67 70 67 68 68 67 68 65 66 69 68 67 66 64 64 65 65 66 67 68 68 68 67 67
43 45 43 42 47 56 59 60 60 60 56 40 39 53 58 58 61 62 65 65 65 66 63 62 61 63 67 68 68 67 67 66 66 67 68 68 69 70 69 69 68 66 67 66 66 68 67 69 69 68 65 63 63 62 63 64 66 68 67 67 66 66 65
50 49 42 40 31 51 64 59 58 59 47 47 55 57 60 63 62 62 61 64 66 67 64 65 64 64 65 66 65 66 66 66 65 65 64 64 64 64 64 65 67 67 63 64 64 65 68 68 68 68 67 63 63 63 62 63 66 67 67 67 66 66 65
38 41 39 38 47 55 62 58 49 56 56 57 58 59 56 61 61 60 60 62 65 67 65 63 63 63 63 63 64 64 65 66 65 64 64 63 64 65 67 66 65 65 62 61 62 64 65 65 65 65 64 62 63 62 61 63 65 66 65 65 65 65 66
47 42 46 51 54 59 61 60 58 60 62 64 63 62 60 58 59 61 60 61 64 66 65 63 63 62 63 63 64 63 63 64 63 62 62 62 62 63 62 63 63 63 61 60 61 62 63 63 63 62 63 61 61 60 61 63 63 63 64 64 64 64 64
58 59 58 59 59 61 61 63 63 62 63 65 64 62 59 60 60 60 59 61 62 63 64 62 61 61 60 61 63 63 63 63 62 62 61 61 61 62 62 61 61 61 61 61 61 60 60 62 62 62 61 61 59 60 62 63 62 62 63 63 62 63 63
48 42 55 57 58 60 61 62 63 62 63 62 62 61 60 60 62 62 62 61 61 62 62 61 60 60 61 59 59 60 60 60 60 61 59 59 59 58 58 59 60 59 59 59 58 59 58 60 60 62 61 62 61 61 61 62 62 62 62 62 63 62 62
48 47 52 57 61 63 62 61 59 60 61 61 62 61 63 62 62 62 62 62 61 61 60 60 60 61 61 59 57 57 57 58 58 59 58 58 58 58 59 59 60 59 57 56 57 57 57 58 59 60 60 60 61 61 61 62 63 62 62 62 61 61 63
49 54 56 56 58 60 62 62 62 61 61 60 61 62 63 64 62 62 62 62 61 61 60 60 59 60 60 60 58 58 59 59 58 58 57 57 57 58 58 59 59 56 57 56 57 58 58 58 58 58 59 59 60 60 61 62 61 61 61 62 61 61 63
45 47 49 52 47 47 53 56 60 62 63 62 61 61 62 63 61 61 61 62 62 62 61 60 59 57 58 60 59 58 58 57 57 57 57 57 58 59 59 59 57 58 58 58 58 58 58 58 58 58 58 59 60 62 62 62 62 60 61 60 59 59 60
44 51 53 54 52 51 54 55 59 60 64 63 61 61 61 61 62 63 61 60 60 60 61 63 60 57 58 58 60 58 57 57 58 58 58 58 58 57 57 56 57 57 58 59 58 57 56 58 58 59 58 60 60 62 61 61 61 59 58 59 59 58 60
55 57 56 56 54 51 54 57 56 57 61 62 61 61 62 61 61 63 62 61 59 58 59 61 62 61 59 59 60 58 58 59 58 58 58 59 58 59 58 57 58 57 57 56 56 56 56 57 57 57 58 59 58 61 61 61 60 58 58 58 57 58 58
52 58 59 58 57 57 58 59 60 59 61 61 59 59 60 60 62 64 62 61 62 61 59 60 62 62 60 60 60 59 57 59 58 59 59 59 60 58 58 59 56 55 55 55 55 55 55 55 56 57 57 57 59 60 59 60 60 58 58 58 58 58 59

ECMWFFLT2_sfc_temp_084.txt.gz
Temp
75 74 76 74 71 55 58 67 57 58 65 62 51 56 60 57 51 48 56 53 56 62 65 65 67 71 71 73 73 73 71 72 71 71 72 73 74 74 71 70 71 71 69 71 71 72 74 78 78 78 77 78 78 78 78 78 78 78 79 79 79 79 78
74 80 75 74 74 69 65 60 60 67 72 65 54 47 47 44 40 46 52 49 51 52 47 62 64 67 69 70 70 71 71 72 71 72 72 71 70 69 70 70 71 70 71 71 73 73 74 75 78 78 76 78 79 79 78 78 78 77 78 79 79 79 78
73 77 74 71 73 75 67 64 71 66 53 56 52 52 46 42 40 43 47 50 51 50 51 59 61 64 65 67 68 69 69 69 69 69 69 69 68 68 68 69 70 71 71 71 73 73 74 74 75 76 77 78 77 78 78 78 78 79 79 80 80 80 80
70 68 65 53 61 69 75 73 64 67 56 48 53 52 48 48 40 43 45 49 46 52 53 60 58 58 59 62 65 65 66 67 67 67 68 66 65 66 68 69 70 71 72 73 74 73 73 73 74 75 76 78 77 78 79 77 78 79 79 79 78 78 79
72 59 57 54 56 59 62 58 58 63 60 61 59 59 55 45 43 43 43 41 45 53 58 57 58 61 61 63 63 63 64 65 67 67 67 68 68 67 68 69 70 71 72 73 73 74 74 74 74 74 75 75 76 76 77 79 78 78 79 80 79 78 78
56 61 63 66 65 61 62 59 57 55 59 54 51 47 56 58 48 41 43 39 47 57 65 62 61 63 64 66 65 64 65 66 67 68 68 69 69 70 70 70 71 71 71 72 72 72 73 73 73 72 74 73 74 74 75 76 76 76 78 77 76 74 72
58 64 70 72 74 71 69 67 65 65 56 54 46 44 49 55 56 58 50 45 46 60 62 63 64 65 66 67 67 64 65 66 67 68 69 69 69 69 71 72 72 71 71 71 71 71 71 72 72 72 73 73 73 73 73 73 73 73 73 71 72 72 73
57 65 69 70 70 69 65 62 64 64 61 61 53 49 52 49 54 50 45 44 48 59 61 63 64 64 66 67 66 64 65 65 65 65 66 67 67 68 69 70 71 72 72 71 71 70 70 70 71 72 73 73 74 73 73 73 73 73 73 73 73 73 73
45 50 55 59 65 64 59 61 61 66 66 65 61 58 53 51 52 51 47 42 47 56 62 64 65 65 65 66 66 66 63 64 64 64 65 66 66 67 68 68 69 70 70 69 69 70 69 70 72 72 72 72 73 73 73 72 72 74 73 73 73 73 72
34 36 37 42 45 54 58 63 64 65 66 65 55 52 49 40 50 52 47 46 53 58 61 61 62 63 63 65 65 65 65 64 64 64 65 66 67 66 66 66 67 67 67 69 69 69 69 71 71 70 70 71 71 71 72 73 73 73 72 73 74 73 72
37 39 41 49 57 54 55 59 62 63 66 66 59 50 46 43 47 47 49 52 52 55 58 59 61 62 61 61 62 63 63 64 65 64 64 65 66 66 65 65 65 65 65 66 67 68 69 69 70 70 70 70 70 70 71 72 73 73 72 72 73 73 72
52 52 51 60 62 58 59 60 60 64 63 64 59 50 50 54 52 39 48 55 53 55 59 59 59 61 61 62 62 63 63 64 64 64 64 66 67 66 65 65 64 64 63 64 65 66 66 68 69 70 71 71 71 71 70 71 72 73 75 74 73 73 73
59 60 60 61 60 60 59 60 61 61 64 64 59 56 59 55 51 46 51 55 54 56 59 61 61 62 61 62 62 64 65 65 65 64 65 65 66 66 65 64 64 65 64 63 64 64 65 66 67 68 69 71 71 70 71 71 74 75 75 74 73 73 72
58 59 61 61 60 59 61 59 60 62 63 62 61 60 61 56 50 55 55 55 56 59 61 62 63 65 65 64 65 65 64 64 64 64 64 65 66 66 66 67 66 65 65 65 64 65 63 65 66 67 67 68 68 69 70 72 74 74 74 73 72 72 72
53 59 62 61 60 59 56 58 60 61 62 62 62 60 59 58 56 58 57 54 52 54 59 64 66 67 67 65 64 63 63 65 65 64 64 65 66 66 67 66 66 66 66 66 65 65 64 64 65 65 66 67 67 69 71 73 74 74 74 72 72 72 71
49 57 58 58 59 58 57 55 57 58 58 55 59 55 60 57 53 55 54 50 49 55 59 59 65 65 63 62 62 62 62 65 64 63 63 65 65 66 67 67 67 68 69 69 68 66 66 67 67 67 68 68 69 69 72 73 74 74 72 73 72 71 71
43 54 57 57 55 48 47 49 56 58 59 58 59 60 63 62 60 54 51 52 58 57 61 60 62 64 63 61 62 62 61 62 63 63 63 64 65 66 67 67 68 69 69 70 69 68 67 65 66 68 68 68 67 69 70 72 72 72 72 72 70 70 70
42 51 52 51 42 38 42 57 61 60 59 59 58 57 60 62 64 59 61 59 60 60 61 61 61 62 61 61 61 64 63 61 61 63 64 65 67 68 68 68 67 67 68 68 69 69 70 71 71 67 68 69 69 69 71 71 69 69 69 69 69 68 68
41 45 45 43 37 41 55 62 62 63 63 63 59 58 60 60 61 61 59 59 60 60 62 60 60 60 62 64 64 64 65 64 62 62 62 64 67 67 68 68 69 67 66 66 67 68 70 71 70 69 68 69 69 68 70 70 70 69 69 68 68 69 68
40 37 35 30 38 52 56 59 60 63 64 59 59 57 60 61 61 60 56 57 60 61 62 63 63 63 64 65 64 64 65 66 64 63 62 64 67 66 67 66 66 67 69 68 69 68 68 67 67 69 70 72 72 70 71 69 69 69 69 68 69 69 68
38 39 35 37 43 48 50 51 55 57 55 55 52 46 51 58 60 60 57 58 60 61 61 62 63 65 65 60 60 66 66 66 67 66 64 65 66 67 68 69 68 67 69 70 70 70 69 68 68 67 67 69 70 70 70 69 66 66 66 66 66 66 66
42 37 30 29 31 32 41 48 54 61 60 62 58 53 49 56 57 59 60 58 59 59 60 60 61 62 57 53 54 62 67 67 66 65 66 65 65 66 65 65 66 67 67 69 70 69 69 69 68 68 68 68 68 66 67 69 68 66 66 65 66 66 65
38 36 33 32 34 35 41 48 53 59 61 60 56 51 45 53 56 57 57 58 59 59 58 57 60 56 50 49 54 61 66 66 67 65 65 66 65 64 64 65 64 64 64 66 68 66 65 65 66 67 68 67 66 66 66 66 66 66 66 66 66 66 67
39 38 35 33 38 42 50 49 54 59 60 59 56 42 41 51 56 59 60 58 58 58 58 59 56 52 50 52 57 64 65 65 65 64 63 63 64 64 64 64 64 63 64 65 64 64 63 62 64 65 64 64 64 62 63 65 65 65 65 65 65 66 66
40 45 36 39 40 48 52 54 54 57 56 53 44 35 44 56 54 58 57 57 57 58 58 58 53 53 57 60 63 65 65 65 64 64 64 64 64 63 63 63 66 63 63 63 63 62 60 61 64 63 63 63 61 61 62 62 62 63 64 65 65 65 65
38 33 38 36 36 45 54 55 55 55 57 44 35 44 54 53 53 60 61 60 60 59 57 56 56 58 63 64 65 64 64 63 62 63 63 64 64 65 65 66 64 62 62 61 62 63 62 63 64 63 62 61 60 60 60 60 61 64 64 63 63 64 63
39 39 39 36 31 47 56 55 54 51 44 41 46 54 54 55 56 61 61 62 61 62 60 62 61 62 63 63 62 62 62 62 61 61 61 60 60 60 61 62 64 63 60 60 60 61 62 63 63 63 62 60 59 59 58 59 61 62 63 62 62 62 62
32 31 32 33 42 50 52 53 46 52 54 53 52 51 52 55 54 56 58 59 61 62 61 61 61 61 59 59 60 60 60 61 60 60 60 60 60 61 62 63 62 61 58 58 58 60 60 60 60 60 60 59 59 58 57 58 60 62 61 60 60 61 62
42 37 36 42 47 49 53 52 53 54 58 57 56 57 55 55 56 55 57 56 59 62 62 61 60 59 60 59 60 59 59 60 59 58 58 58 58 59 59 60 61 60 59 57 58 58 59 59 58 58 58 58 58 57 57 59 59 59 59 60 60 60 60
48 48 51 51 52 53 56 56 56 57 57 57 57 58 56 56 57 57 57 57 59 59 62 61 58 59 58 58 59 59 59 58 57 58 57 57 57 57 58 58 59 58 58 58 57 57 57 58 58 58 57 57 57 58 58 59 59 58 58 59 60 59 59
44 37 46 50 51 51 54 56 56 55 56 56 55 56 55 56 58 59 59 59 58 58 58 59 57 56 58 57 57 58 57 57 57 57 56 56 56 56 56 57 58 56 56 56 56 56 55 56 56 58 56 57 57 57 58 59 59 58 59 60 59 58 58
45 44 48 50 52 54 54 53 53 55 56 57 55 56 57 57 55 58 58 59 58 58 56 56 56 57 58 57 55 56 56 56 56 55 55 54 55 55 55 55 55 54 54 53 54 54 55 56 56 56 56 56 56 56 57 58 58 58 59 60 58 56 58
42 47 49 49 51 54 52 54 54 54 54 55 56 56 58 59 58 57 56 58 58 59 57 58 58 57 57 57 56 56 55 55 55 55 55 55 54 54 54 54 55 53 53 53 53 55 55 56 54 54 54 55 56 57 57 57 56 57 58 58 58 56 57
40 44 44 49 47 44 49 50 53 53 54 55 56 56 56 57 57 57 58 56 56 58 57 57 58 56 55 55 55 55 55 55 54 54 54 54 54 53 54 56 53 54 54 52 53 54 53 53 54 54 54 55 55 57 57 58 57 57 57 58 56 56 56
38 43 47 46 46 46 48 51 53 53 54 54 53 53 53 56 58 58 57 56 55 55 55 57 57 55 54 54 56 55 54 54 55 55 55 53 53 54 54 53 51 51 52 55 54 53 52 54 54 55 55 55 55 56 56 56 56 55 54 56 57 55 57
47 50 49 49 48 49 49 52 55 55 55 55 53 53 54 53 54 55 57 58 56 54 54 55 58 56 55 55 57 55 55 54 54 55 55 55 56 55 52 52 52 54 53 53 52 53 52 53 53 54 56 55 54 56 56 55 55 54 54 55 53 53 54
48 53 53 50 50 50 50 52 54 54 56 57 56 55 52 52 54 56 55 54 56 57 55 56 56 58 57 56 56 55 54 53 55 55 55 56 56 55 54 54 53 53 52 52 50 50 51 52 53 55 55 53 53 54 55 56 55 55 54 54 54 52 53

ECMWFFLT2_sfc_temp_087.txt.gz
Temp
66 69 69 68 69 54 58 61 54 56 64 64 49 52 58 55 50 47 52 49 52 57 62 64 64 67 67 69 69 71 70 71 70 70 69 67 66 68 69 69 70 70 71 74 76 77 78 79 78 78 77 77 77 76 76 76 75 76 76 76 76 76 75
68 70 70 70 67 64 60 55 57 62 67 62 52 45 45 40 40 43 48 46 48 48 47 60 63 62 64 65 67 68 68 69 69 67 65 67 67 68 70 70 71 71 72 73 73 75 76 78 79 78 77 77 78 78 77 76 76 75 76 76 77 76 75
65 69 69 67 71 67 61 61 65 63 53 56 52 51 40 39 40 41 45 48 47 47 49 56 57 59 59 62 64 65 65 65 63 64 66 67 68 68 69 69 70 70 71 72 72 73 75 75 76 77 78 78 77 78 78 78 77 77 77 78 78 77 77
63 61 59 52 57 67 67 66 64 62 57 49 52 51 45 49 41 43 43 46 43 49 51 58 56 59 59 60 61 62 63 64 64 64 66 66 67 68 69 69 70 71 72 72 72 72 73 73 73 74 75 76 78 78 78 77 78 76 75 76 75 76 76
62 57 52 52 54 55 61 55 53 61 58 60 61 56 50 45 43 44 43 42 45 50 55 56 57 58 60 61 61 61 62 64 65 65 65 66 67 68 68 69 70 71 72 72 73 73 73 73 74 73 73 73 74 74 74 74 72 73 73 74 74 74 75
49 55 58 61 58 60 58 52 58 52 56 55 49 46 53 51 47 42 43 38 43 52 61 60 60 61 62 63 62 61 62 63 63 64 65 65 66 67 68 70 71 71 72 71 71 72 72 72 72 72 73 73 72 72 72 73 74 74 74 74 75 74 74
56 60 63 64 64 64 61 60 62 57 53 49 40 40 46 50 51 54 47 44 44 56 59 60 62 63 64 64 64 62 62 63 63 65 66 67 67 69 71 70 71 70 70 70 71 71 71 71 71 72 71 71 72 72 72 72 72 73 74 74 75 74 73
49 58 60 64 64 61 59 57 57 59 58 61 52 43 47 45 49 45 42 42 46 57 58 60 61 62 63 63 63 62 62 63 64 64 64 65 66 67 69 70 70 69 69 69 69 69 70 70 71 71 70 71 72 72 72 72 72 73 73 73 73 74 73
41 46 54 56 62 60 53 54 56 57 59 58 53 51 48 48 48 47 47 41 47 54 60 60 62 62 62 62 63 63 61 62 63 63 64 65 64 65 66 66 68 68 68 68 68 69 69 70 70 71 71 71 72 72 72 72 72 73 73 73 73 73 74
38 35 34 40 47 52 53 56 57 59 58 57 56 54 45 39 48 48 45 45 51 55 58 59 60 60 60 61 62 63 63 62 63 63 64 63 63 63 64 65 66 66 66 67 66 66 66 67 69 69 71 71 71 71 71 72 72 72 73 73 73 73 73
41 41 42 47 55 52 51 54 56 57 58 56 53 46 43 43 44 45 46 49 51 53 56 56 58 59 58 58 60 60 61 62 62 62 63 63 63 63 64 64 65 65 65 65 65 65 66 67 68 69 69 70 71 71 71 72 73 73 72 72 73 72 72
54 54 51 53 56 54 54 54 55 57 57 56 49 49 48 49 50 40 45 53 50 52 55 56 57 58 58 59 59 60 60 61 62 62 62 64 62 62 62 63 63 63 64 64 65 65 65 65 66 67 69 70 70 70 70 71 72 72 72 72 72 72 71
57 58 57 56 55 55 55 54 56 55 56 54 53 51 53 54 49 47 49 53 52 54 56 58 58 58 58 58 59 61 62 62 62 62 62 61 61 61 61 60 61 63 63 64 64 65 65 65 66 66 67 68 69 70 71 71 71 72 72 72 72 71 71
56 57 57 56 54 54 56 55 56 57 56 54 54 53 53 51 48 52 53 53 51 55 57 59 60 61 61 61 61 61 61 61 61 61 61 62 62 62 61 61 62 62 63 64 64 64 64 65 65 66 66 67 69 70 70 71 71 72 71 71 72 72 71
50 56 59 58 56 55 53 55 56 56 56 56 55 53 54 55 53 55 54 52 51 52 57 60 62 62 62 61 60 59 60 61 61 61 61 62 62 62 62 62 63 63 63 64 64 64 64 64 65 66 66 67 68 69 71 71 70 71 72 71 71 71 71
45 52 53 54 53 54 54 53 54 54 53 52 54 50 54 50 49 52 51 49 49 53 58 61 61 60 59 58 58 58 59 61 61 60 60 62 63 63 64 64 64 64 65 65 66 66 66 67 66 66 67 68 68 68 70 70 70 71 71 71 70 70 71
40 49 50 50 47 46 47 48 53 54 54 54 55 55 57 57 57 52 49 50 55 56 60 58 58 59 59 58 59 58 59 59 60 60 61 62 63 64 64 64 64 65 65 66 67 67 66 66 66 66 67 67 67 67 68 69 69 68 68 69 69 69 69
39 47 48 48 40 36 39 52 58 55 53 53 53 51 54 56 56 53 55 56 57 59 60 58 57 58 58 59 59 61 60 59 59 60 62 64 64 65 65 65 64 64 64 65 68 68 68 68 69 68 67 67 68 69 69 69 68 67 66 66 67 67 68
40 42 45 43 35 39 51 59 59 58 59 60 56 54 54 55 56 57 55 56 57 59 60 60 59 58 59 61 61 61 62 61 60 60 60 62 65 65 65 66 66 64 63 63 64 67 68 68 68 68 67 68 67 68 69 69 69 67 67 67 66 67 67
42 38 35 31 35 49 55 56 56 60 58 56 56 54 56 54 53 55 55 55 56 56 57 58 60 60 60 61 61 62 62 63 62 60 60 61 63 64 65 65 64 66 66 65 65 64 66 66 67 68 67 68 68 67 67 66 67 67 67 66 66 66 66
37 37 37 41 45 47 47 49 52 54 50 51 49 45 48 53 53 53 54 54 56 57 57 59 60 61 61 57 56 62 62 62 64 63 61 62 62 65 66 67 66 66 67 67 66 66 65 64 64 65 66 67 68 67 66 65 63 63 64 64 64 64 64
34 32 34 35 36 35 40 47 52 57 57 56 54 48 47 52 54 55 56 54 55 56 57 58 59 61 56 50 51 58 62 64 62 62 62 62 62 64 64 66 66 66 66 67 68 68 66 65 64 64 66 66 65 64 64 65 64 63 63 63 64 63 63
34 31 28 32 34 39 43 50 55 57 57 54 53 47 41 49 53 55 56 55 56 57 57 57 60 56 49 47 52 57 61 63 64 62 61 63 62 62 63 63 64 65 65 65 66 66 65 64 63 64 65 63 63 62 63 63 63 62 62 62 62 63 63
35 32 31 33 35 42 51 51 54 60 58 56 53 40 38 48 54 57 58 56 56 54 54 54 53 51 49 50 54 60 62 62 61 61 60 60 60 61 61 62 62 63 63 64 64 63 62 61 63 63 63 63 62 61 61 62 61 61 61 61 61 62 63
39 42 33 35 39 47 49 52 56 58 56 55 44 32 41 51 53 55 57 57 57 56 54 53 50 50 52 55 58 61 61 61 60 61 61 61 61 61 62 62 63 61 61 61 60 61 60 61 63 63 62 61 59 60 60 59 59 59 60 61 61 61 62
37 30 36 34 34 42 49 53 53 51 53 40 36 43 48 48 52 55 56 58 58 59 56 53 54 55 58 59 59 59 60 60 59 60 60 60 61 62 62 63 61 59 59 59 59 59 59 61 61 61 59 58 57 57 58 58 57 59 60 60 60 61 61
34 31 33 30 30 46 54 52 51 50 47 41 41 46 50 51 51 56 56 57 58 59 57 56 56 56 57 60 61 60 59 59 59 59 59 58 58 58 58 59 61 60 58 57 57 58 59 59 60 60 60 58 57 57 56 56 58 58 59 59 59 60 60
30 30 31 34 40 44 48 51 46 49 51 50 46 49 50 51 51 57 57 56 57 59 58 57 57 58 58 59 60 59 58 58 57 57 57 57 57 58 59 59 59 59 56 56 56 57 57 58 58 58 59 58 58 57 55 56 57 59 58 58 59 60 60
40 38 35 39 43 46 48 51 49 48 52 52 49 50 51 51 53 52 55 55 55 56 58 59 58 58 59 59 60 58 57 57 57 57 57 58 57 57 57 58 58 58 56 55 56 56 56 56 56 55 56 58 58 56 55 57 57 56 57 58 59 58 57
46 44 46 48 47 48 51 52 51 51 53 54 52 53 52 52 52 54 54 52 53 54 55 55 54 55 56 58 58 58 58 57 56 56 56 56 56 56 56 56 57 56 56 56 56 56 55 55 56 56 55 56 55 54 55 57 56 56 58 58 58 57 57
40 38 42 47 48 48 49 49 51 52 51 50 52 52 51 52 53 54 55 55 55 56 55 55 54 54 54 54 54 56 56 55 55 55 55 55 56 56 55 55 56 55 55 54 54 54 54 53 54 55 54 55 54 54 55 56 56 56 58 58 57 56 55
41 42 45 48 47 49 50 49 50 49 51 51 52 51 52 52 53 54 54 56 55 56 56 57 56 55 56 54 52 53 53 54 54 53 54 53 53 54 54 55 54 53 53 52 53 53 53 52 53 54 54 53 53 54 54 55 55 56 57 58 55 53 55
41 44 45 45 50 52 48 49 50 50 49 49 50 51 52 55 55 54 54 54 56 56 55 57 56 55 55 55 54 53 53 53 53 52 52 53 53 52 52 53 54 52 52 52 52 54 52 51 52 52 52 53 53 53 54 54 54 56 56 56 55 54 54
38 42 44 48 46 42 48 48 50 51 51 50 50 50 51 52 53 53 55 53 53 54 56 57 57 55 55 55 56 55 55 54 53 53 53 53 52 52 53 54 52 52 52 51 52 52 50 50 51 51 52 53 53 54 54 54 53 55 56 55 53 52 53
38 42 41 43 43 40 43 48 51 51 52 51 52 51 49 50 50 51 53 53 51 53 54 55 56 54 54 53 54 54 53 53 54 54 54 52 52 52 52 50 48 50 51 53 53 52 51 52 53 53 53 53 52 53 53 52 53 52 53 55 53 52 54
43 45 44 45 48 52 52 51 49 52 51 50 50 50 50 50 51 50 50 51 53 52 52 53 55 55 54 53 54 53 52 53 53 53 53 53 54 53 50 50 51 52 52 52 52 52 50 52 51 51 53 52 50 52 52 52 51 50 52 53 51 51 52
51 49 46 47 47 48 47 47 48 50 53 53 52 51 50 50 53 51 50 49 50 52 51 54 52 54 54 53 54 54 53 53 54 54 54 54 54 52 51 51 52 52 52 52 51 50 49 48 49 51 50 50 50 52 51 52 52 52 51 51 51 50 51

ECMWFFLT2_sfc_temp_090.txt.gz
Temp
63 66 65 64 66 51 54 57 50 54 60 57 45 50 54 52 48 47 52 49 51 56 61 63 63 65 66 69 69 70 69 69 68 67 66 67 68 70 70 70 71 72 73 75 76 76 76 76 76 76 75 76 75 75 75 74 74 75 75 75 75 75 75
63 63 67 66 67 62 56 49 56 59 62 59 51 42 40 40 39 44 50 47 46 47 48 58 61 61 63 65 67 68 69 69 67 66 66 67 68 70 71 71 71 72 72 74 75 75 75 76 77 76 76 76 76 76 76 75 75 74 75 75 76 75 75
63 62 66 63 66 66 63 61 65 60 49 51 48 47 37 39 38 39 44 49 47 46 48 53 56 58 59 61 64 66 66 68 66 66 68 68 69 69 70 70 70 71 72 72 73 75 75 75 76 76 77 77 76 76 77 76 75 76 76 77 77 76 76
61 57 59 50 55 64 63 64 62 59 54 46 50 50 46 47 37 39 40 44 44 50 48 56 57 59 60 61 63 65 66 66 66 67 68 68 69 69 70 70 69 70 71 72 73 73 73 73 74 75 75 76 76 75 75 75 75 75 76 76 76 75 76
58 54 50 54 54 54 58 56 54 59 54 56 56 51 47 43 39 39 40 40 44 47 53 56 58 60 62 63 62 63 65 65 67 67 67 68 69 69 69 70 70 71 71 72 72 72 72 73 74 74 75 74 74 74 74 75 74 76 75 75 75 75 76
48 50 53 57 54 59 57 53 54 52 50 51 47 45 53 48 44 39 40 38 43 51 61 59 61 63 63 65 64 64 65 66 66 66 67 67 68 69 69 70 70 71 71 71 71 72 72 72 72 73 73 73 73 73 75 75 77 75 75 74 75 75 75
53 59 61 58 59 58 55 57 57 52 50 51 42 38 45 47 48 50 45 43 45 56 59 61 63 64 64 65 65 64 65 64 65 66 67 67 67 68 70 70 71 70 70 71 71 71 71 71 71 72 73 73 73 73 74 74 75 74 75 75 75 75 75
47 54 56 58 58 55 58 56 52 55 57 55 48 41 48 46 47 44 42 42 44 56 59 61 62 64 64 64 65 64 64 64 64 64 65 66 67 68 70 70 70 69 69 70 70 70 70 70 70 71 72 72 72 72 73 73 73 73 75 75 74 75 74
45 47 46 57 58 56 49 52 51 54 53 53 50 50 47 47 47 45 47 41 43 52 58 61 63 63 62 62 63 64 62 63 64 65 65 66 66 67 68 68 68 68 68 68 68 70 70 70 71 71 71 71 71 71 72 73 74 74 74 74 74 74 74
37 37 35 40 43 47 50 51 51 53 54 54 54 51 45 40 46 46 44 42 47 56 59 60 61 61 60 62 63 64 64 63 63 64 64 65 65 65 66 66 66 65 66 67 67 68 69 71 70 70 70 70 71 71 72 73 74 73 74 74 74 74 74
38 40 40 44 52 46 47 50 50 52 52 53 49 45 45 45 44 46 43 47 50 53 56 57 59 60 59 59 61 61 62 62 63 63 63 64 64 64 64 64 64 65 65 66 66 68 69 69 70 70 70 71 71 72 72 73 74 73 73 73 73 73 73
49 50 47 50 53 49 49 48 50 52 51 51 50 49 46 47 50 42 43 50 50 52 56 57 57 59 60 60 60 60 61 61 61 62 62 63 64 64 64 64 64 63 64 65 64 65 66 67 69 70 71 71 72 72 72 72 73 73 73 73 72 72 72
52 54 54 53 50 51 51 50 51 50 51 50 52 48 51 50 48 47 47 50 50 54 58 59 59 60 60 60 59 60 61 61 61 61 61 62 62 63 63 63 63 65 65 64 64 64 65 66 67 68 70 70 71 71 72 72 72 72 72 72 72 72 71
53 54 54 53 51 51 52 52 52 52 52 51 50 49 49 51 48 47 49 51 50 55 59 60 61 63 62 61 60 60 60 60 60 60 60 61 62 62 62 63 64 64 65 64 64 64 64 65 66 67 68 69 69 70 70 71 72 73 72 71 71 70 70
47 52 54 54 51 51 52 53 53 53 52 52 52 50 52 52 50 51 52 51 49 54 60 61 63 63 62 59 59 58 58 59 60 59 59 59 60 62 63 63 64 64 64 65 65 64 65 65 66 66 67 68 69 70 70 71 71 71 71 71 71 71 71
45 49 50 52 52 51 53 52 52 51 50 48 49 47 52 48 47 49 50 48 48 53 60 61 61 60 59 57 57 57 57 60 60 59 59 59 60 62 63 64 64 65 65 65 65 66 66 66 67 67 66 67 68 68 69 69 70 70 70 70 69 70 71
42 47 49 49 47 48 46 47 50 50 50 49 51 51 53 51 52 49 47 46 52 56 59 57 57 58 57 56 57 57 57 58 59 59 59 60 62 63 63 64 65 66 66 66 65 65 65 65 66 66 66 65 65 66 66 67 67 68 68 68 68 68 69
41 45 46 47 41 37 39 53 55 52 50 49 48 47 49 51 52 50 52 52 55 57 57 56 55 56 56 58 58 60 59 58 58 59 60 61 63 64 65 65 64 65 66 66 67 67 66 67 68 68 67 66 66 68 68 67 66 65 65 65 65 66 66
40 42 44 42 32 35 50 54 56 56 55 54 52 51 51 51 52 53 53 54 56 56 57 58 58 58 59 60 60 61 61 61 60 59 59 61 64 64 65 65 66 64 64 64 65 65 67 68 69 69 69 69 68 68 69 68 66 63 64 64 64 66 66
39 37 35 32 35 47 52 54 56 58 56 56 53 52 54 53 51 51 51 51 53 56 56 58 59 58 59 60 60 60 61 62 61 60 60 62 64 65 65 65 64 65 66 65 65 64 66 66 67 68 68 69 68 66 66 66 67 66 65 64 65 65 66
34 37 38 40 43 48 49 49 53 53 49 50 48 44 49 52 53 52 52 52 54 55 56 58 59 60 60 56 55 60 61 61 63 63 62 62 62 65 66 67 65 66 66 66 66 66 66 66 65 65 66 66 66 66 66 65 64 64 65 64 64 65 65
35 33 33 36 40 36 39 49 52 54 54 54 53 50 47 53 54 56 55 53 54 55 56 57 58 59 55 50 52 58 61 62 60 60 61 62 62 63 64 65 66 66 66 67 67 67 66 65 65 65 66 65 65 63 63 64 64 63 63 63 64 64 64
32 33 31 33 34 38 43 48 52 54 54 52 52 49 44 49 53 55 56 54 55 56 56 56 58 55 49 47 51 57 60 61 62 61 61 62 62 62 63 64 64 65 65 66 66 66 65 64 64 66 65 64 63 63 63 63 63 62 62 62 63 63 64
33 29 30 34 36 42 49 50 53 57 53 52 47 38 39 49 52 56 56 55 55 55 56 56 53 52 49 49 54 58 60 60 61 61 60 60 60 61 62 63 64 64 65 64 64 63 63 63 65 65 65 64 62 61 62 63 62 61 61 61 62 63 64
37 39 33 36 39 47 50 52 55 56 55 50 37 31 44 51 51 55 55 55 56 56 55 55 53 49 53 56 58 59 59 60 59 60 61 60 61 61 61 62 64 62 61 61 60 60 60 61 64 64 64 62 61 61 61 60 60 60 61 62 62 62 62
35 34 36 35 35 42 49 54 53 52 55 44 37 45 48 49 51 53 56 56 57 57 57 55 53 54 57 59 59 59 59 59 58 59 59 60 60 61 62 63 62 61 61 60 59 59 59 61 62 62 62 60 59 60 59 58 59 60 60 61 61 61 61
33 27 28 28 30 46 50 50 53 53 48 45 47 49 50 51 50 53 55 56 57 56 53 55 55 56 58 59 59 59 58 58 58 58 58 58 58 58 58 59 62 62 60 59 59 59 60 60 60 61 62 60 59 59 58 57 59 60 60 60 61 61 60
30 30 30 32 38 42 46 49 47 52 53 54 50 52 52 50 50 53 54 54 56 56 55 55 56 58 58 57 58 58 58 58 58 58 57 57 57 58 59 60 60 61 58 59 59 60 60 60 60 61 61 59 58 58 56 58 59 60 60 59 59 60 60
37 36 32 36 38 44 46 47 47 47 51 51 50 50 52 52 52 53 55 55 53 55 56 55 55 55 56 56 57 57 57 57 57 55 56 57 57 57 57 58 59 59 58 57 58 58 58 58 59 58 60 59 59 56 57 58 58 59 59 59 59 58 58
44 44 45 46 46 46 48 48 48 49 51 51 51 53 52 52 50 52 55 52 53 54 56 55 53 54 55 55 56 56 56 56 55 56 56 56 56 56 57 57 58 57 57 57 57 55 55 57 58 58 58 59 57 56 57 58 58 59 59 58 58 57 57
39 38 43 44 48 46 47 48 50 50 49 49 49 50 50 51 52 53 54 55 54 55 54 54 53 52 53 53 53 54 54 54 54 55 55 55 56 56 55 56 57 56 56 56 55 55 54 55 56 56 56 57 57 57 57 58 59 59 58 57 57 56 56
42 44 46 48 46 46 47 46 49 49 50 50 50 49 50 51 52 53 54 55 56 57 56 55 54 53 54 53 52 52 52 53 53 54 54 54 54 55 56 56 56 55 55 54 54 54 54 53 54 55 55 55 55 56 57 58 58 59 58 58 55 55 56
39 42 43 43 47 51 48 48 49 49 48 50 51 50 51 51 52 52 53 53 55 55 56 56 56 55 55 55 54 53 52 53 53 53 53 53 54 53 54 55 56 54 55 54 54 55 53 53 53 54 54 54 54 55 56 56 57 58 58 57 56 55 56
38 44 44 46 46 42 48 51 51 51 51 50 51 51 52 51 51 49 51 52 53 53 55 55 56 55 53 54 54 54 53 53 53 53 53 54 54 54 55 56 55 55 55 54 54 54 52 52 53 54 54 54 54 56 56 56 57 59 58 57 55 55 56
35 40 42 43 43 39 41 47 53 48 49 49 51 51 51 51 50 51 51 51 51 53 53 55 55 54 54 53 54 54 54 53 53 53 53 53 53 54 54 53 53 54 53 55 54 54 52 53 55 55 54 53 53 55 54 55 56 56 56 57 56 55 56
41 44 42 44 48 53 53 49 48 48 48 50 51 50 49 50 52 50 50 52 53 50 51 53 55 55 53 54 55 54 53 54 54 54 54 55 56 55 53 53 53 53 54 54 54 54 52 54 54 53 53 52 52 54 54 54 54 54 56 56 54 54 54
53 49 45 46 47 49 47 49 48 48 51 52 53 53 51 51 52 51 51 50 51 52 51 52 53 55 55 54 55 55 54 54 55 55 55 55 56 54 53 53 53 54 54 54 54 53 52 52 51 52 51 52 53 54 53 54 54 54 53 54 53 53 54

ECMWFFLT2_sfc_temp_093.txt.gz
Temp
74 77 76 74 78 60 67 68 62 68 76 73 61 61 63 62 60 56 64 64 68 73 71 71 73 72 73 75 77 76 73 71 68 68 72 77 78 78 79 79 80 81 82 83 83 83 84 85 84 83 83 83 82 82 82 81 82 83 83 82 83 83 83
74 77 79 78 78 78 69 63 69 73 76 74 67 57 57 58 54 56 62 61 64 63 62 69 70 70 71 73 75 76 73 72 67 67 69 73 76 77 78 79 80 81 81 82 82 83 83 84 85 83 82 83 83 83 82 82 82 81 83 84 84 84 83
72 72 76 72 74 77 74 73 78 69 58 59 62 62 51 51 51 55 59 61 62 64 66 67 66 68 69 72 74 74 72 72 70 69 68 70 73 76 77 78 79 79 80 81 81 82 83 83 84 84 83 83 83 83 84 83 82 83 84 86 86 85 85
70 73 73 62 68 74 73 76 74 75 72 65 59 64 63 63 54 53 56 58 59 66 69 69 68 68 69 72 73 73 74 73 72 71 69 68 69 70 72 75 77 78 80 81 81 81 80 81 82 83 82 85 84 83 83 82 83 83 83 84 84 84 85
68 63 68 68 70 66 68 70 68 69 69 73 73 67 64 61 56 56 57 54 62 64 63 64 68 68 70 72 72 73 74 75 75 74 71 68 68 68 69 70 71 73 75 78 80 81 81 81 82 82 82 83 83 83 83 82 81 83 83 84 83 83 85
64 68 71 70 75 75 72 71 68 70 66 63 59 56 65 63 62 52 56 56 65 63 63 64 68 70 71 74 74 73 75 76 75 74 74 71 68 68 70 70 71 71 72 75 78 80 81 81 80 79 82 82 82 82 84 83 85 83 82 82 82 82 83
65 67 69 68 69 72 75 76 73 75 74 72 65 54 58 63 63 63 63 60 61 63 64 64 68 70 71 73 74 72 73 74 74 75 76 74 72 70 71 71 71 72 73 73 75 77 79 80 79 79 80 81 81 81 81 82 82 81 82 82 82 82 82
68 70 70 69 69 72 72 70 70 72 71 72 71 69 67 64 61 60 61 58 61 63 65 66 68 69 70 72 73 71 71 72 73 73 74 73 72 72 72 73 72 72 72 73 74 73 75 77 77 79 79 79 80 80 80 80 81 81 81 81 81 80 81
60 64 68 69 71 72 67 66 67 64 66 68 68 67 67 64 63 64 62 55 62 63 65 66 67 67 68 68 70 71 67 68 70 71 73 73 73 73 72 71 71 72 72 72 72 72 74 76 77 78 77 77 78 79 79 79 80 81 81 81 79 78 77
47 47 50 54 58 61 64 65 64 65 66 68 67 64 62 57 59 58 62 63 59 61 63 64 65 66 66 68 69 70 70 68 68 70 71 72 72 71 71 71 71 71 71 71 71 71 72 74 76 76 76 75 75 76 78 80 80 80 80 80 80 79 77
50 53 54 60 60 62 60 61 62 62 64 64 66 68 63 61 59 59 63 64 57 54 61 61 62 63 63 63 65 66 66 67 67 68 68 68 67 68 69 69 70 70 71 71 71 71 71 73 75 75 75 75 75 76 77 79 80 79 77 76 77 76 75
57 58 57 61 62 59 59 60 60 63 63 62 65 67 65 65 62 58 62 59 60 58 60 62 61 62 62 63 63 65 65 65 66 66 66 67 68 67 67 68 69 68 67 68 70 71 71 73 74 74 75 75 75 76 76 77 78 80 78 77 77 76 75
61 62 62 63 62 61 61 61 61 60 62 64 64 60 60 64 66 63 63 60 62 63 63 64 63 62 62 63 64 66 67 66 66 66 67 67 67 67 68 68 68 67 67 67 66 68 69 70 71 72 73 75 75 76 77 78 79 79 79 77 76 77 75
61 62 62 63 62 62 63 62 62 62 62 61 62 61 63 63 60 59 61 61 62 65 65 65 64 65 66 66 67 66 66 66 66 67 66 67 67 68 68 69 70 69 69 69 68 68 69 69 69 70 72 74 74 73 73 75 76 75 75 75 75 74 74
60 61 63 63 62 64 61 62 62 63 63 63 62 62 61 61 61 61 61 60 59 66 69 66 67 67 67 65 64 65 65 66 67 67 67 67 67 68 69 69 70 70 70 70 70 69 69 70 70 70 71 73 72 71 72 73 74 74 74 71 71 71 71
57 61 60 62 61 63 64 59 59 60 59 57 58 57 59 59 58 59 61 59 58 61 66 66 65 63 63 63 64 64 65 68 68 68 67 66 67 68 69 70 71 71 70 69 69 69 70 70 70 70 69 69 70 70 72 73 73 73 74 74 73 73 74
51 60 59 61 62 63 59 55 57 58 61 60 61 62 62 60 60 61 61 61 64 63 64 62 62 62 63 64 66 66 67 68 69 68 68 68 68 69 69 70 71 73 72 70 68 68 68 69 69 69 69 68 67 68 69 71 73 73 73 73 74 73 74
49 57 56 61 57 47 47 60 62 60 59 59 59 58 59 62 62 63 63 64 65 65 64 63 60 60 61 64 66 69 67 66 67 69 70 71 72 72 72 71 70 70 71 71 69 68 68 68 69 69 68 67 66 67 68 68 68 68 68 69 70 70 71
46 52 56 53 42 46 59 63 65 64 64 63 60 59 61 62 63 63 63 63 64 65 67 66 64 63 64 65 66 68 70 70 69 68 69 70 71 71 71 71 71 69 68 68 69 69 69 68 68 69 69 69 68 68 69 69 68 66 67 67 67 69 69
52 48 49 39 43 56 59 62 62 65 64 65 60 59 62 62 62 61 62 62 64 64 64 66 65 64 65 66 66 68 69 71 71 70 70 70 72 72 72 70 69 69 70 69 70 69 70 69 69 71 70 70 68 68 70 70 70 68 67 66 67 67 67
50 51 50 48 53 55 58 56 58 59 57 57 58 56 58 59 62 62 63 62 63 64 64 63 63 64 65 62 62 68 70 70 73 73 72 72 72 72 72 72 71 71 71 71 71 71 70 68 67 67 67 68 68 67 66 68 67 68 68 66 65 65 66
52 52 49 49 49 45 52 58 62 63 62 62 62 59 58 61 63 64 64 63 63 63 63 62 63 64 60 57 59 66 70 71 71 72 73 73 72 72 72 71 71 71 71 72 72 71 68 66 66 66 66 65 64 63 64 64 65 64 66 66 66 65 65
51 52 49 46 45 48 54 56 61 64 63 61 60 59 57 59 62 64 64 64 65 65 64 63 64 62 57 56 61 66 69 71 72 71 72 73 73 73 73 73 72 73 72 73 73 71 70 66 65 67 68 67 65 64 64 64 65 64 63 65 66 66 67
51 51 50 46 51 49 56 59 62 65 63 57 58 52 53 58 62 63 64 64 64 65 65 66 66 65 62 61 63 68 68 68 68 68 69 70 72 72 73 73 73 71 71 71 71 71 70 69 71 70 71 69 66 65 66 69 68 67 66 64 66 67 68
51 51 49 51 52 58 60 60 62 64 60 58 51 43 53 59 61 63 64 64 66 66 64 65 64 64 64 64 64 65 62 62 62 63 66 69 72 72 72 70 70 71 71 71 71 70 68 68 70 70 68 67 65 65 66 66 66 67 67 67 66 66 67
52 51 50 49 53 58 59 62 61 60 59 54 49 58 60 59 61 64 64 65 65 66 66 65 64 64 66 65 64 63 62 63 62 65 68 70 70 72 70 69 69 70 70 69 70 70 70 70 70 68 66 63 63 63 63 63 65 67 67 67 68 67 67
50 51 50 47 41 54 58 57 62 64 58 56 62 62 63 62 62 64 64 65 65 66 65 66 65 65 65 62 63 63 64 63 63 64 67 67 68 68 68 69 70 70 68 69 69 70 72 72 72 71 69 65 64 63 62 62 64 66 67 67 67 66 66
49 48 46 46 54 58 59 58 57 58 60 61 61 60 63 64 62 64 66 66 66 67 66 65 65 66 64 64 64 64 63 63 62 63 64 66 67 68 70 71 70 70 67 66 66 67 68 69 70 70 69 65 64 63 62 65 67 66 66 65 66 66 66
53 51 54 58 58 58 59 57 60 60 60 60 60 61 62 62 64 62 65 65 66 67 67 65 65 64 66 65 66 64 62 60 63 63 64 65 66 68 68 68 68 69 67 65 66 65 66 66 67 68 68 65 63 62 63 65 65 66 66 67 66 66 66
56 57 57 57 60 59 60 61 59 59 60 61 61 61 63 63 61 62 64 65 66 66 67 65 64 65 64 64 65 64 63 63 63 63 63 63 64 65 66 66 67 67 67 66 65 64 63 65 65 66 67 67 63 63 65 65 65 64 65 65 65 65 66
53 49 58 57 58 59 59 60 61 60 60 60 61 62 61 61 62 63 63 65 65 65 65 64 62 62 64 64 64 64 64 62 62 63 63 62 63 64 64 64 65 67 67 66 65 65 64 66 67 67 66 66 65 65 65 67 66 65 64 63 63 64 64
55 54 58 58 59 58 59 60 62 62 62 61 61 61 61 61 61 62 63 64 65 66 65 64 63 63 64 63 61 61 61 61 62 62 62 62 62 63 63 63 64 65 65 65 64 64 62 64 65 65 65 65 66 66 67 68 68 66 65 65 65 65 66
57 57 58 58 59 60 61 61 61 62 62 63 63 62 64 65 63 63 63 64 64 66 67 66 65 64 64 65 63 63 62 61 61 61 61 62 62 62 62 62 63 64 64 64 64 64 63 64 64 64 64 65 66 65 66 67 66 65 63 63 64 65 66
53 56 57 58 55 56 60 61 62 62 61 61 64 65 64 65 64 63 63 63 64 64 64 65 65 63 62 63 64 63 63 62 61 62 62 63 62 62 63 62 62 62 62 62 62 62 62 63 64 64 64 64 66 68 68 67 66 64 63 63 63 63 64
54 59 59 60 60 60 62 62 63 62 62 62 63 62 62 63 63 64 64 62 62 62 63 65 65 64 62 63 64 63 62 62 62 63 63 63 63 62 62 61 61 61 61 61 62 62 62 63 64 64 63 64 65 66 66 66 66 64 64 63 63 63 63
60 61 61 60 61 60 61 63 62 62 62 62 63 63 62 62 63 63 64 65 63 61 62 63 65 65 63 63 64 63 63 63 62 63 64 65 65 64 63 62 61 60 60 60 62 62 63 63 64 64 65 65 65 67 65 66 65 64 63 63 62 62 63
60 63 61 60 62 62 63 62 62 62 61 61 63 63 63 63 63 63 63 63 64 64 62 62 62 63 64 64 64 63 62 62 63 63 63 63 64 63 64 64 62 61 60 60 60 62 62 63 63 64 64 64 65 67 65 65 65 63 63 63 63 63 62

ECMWFFLT2_sfc_temp_096.txt.gz
Temp
82 82 84 83 86 66 76 78 70 74 85 81 65 67 72 72 69 64 73 72 78 82 82 83 84 84 83 85 86 86 82 80 76 74 73 77 83 86 87 86 88 88 89 90 90 91 91 92 92 91 90 90 88 88 89 88 88 89 89 88 89 89 89
83 87 87 86 86 86 81 71 77 85 88 82 72 62 61 61 57 63 72 68 72 72 66 79 80 81 83 82 84 86 82 81 76 75 74 73 78 83 85 86 87 88 89 89 90 91 91 92 93 91 89 90 89 89 89 88 89 87 90 90 91 90 88
81 87 86 82 86 88 81 78 89 75 64 63 72 67 56 56 57 62 66 71 72 75 71 76 76 79 80 81 83 83 80 80 79 77 76 77 78 81 83 84 86 87 88 89 89 90 91 91 91 91 90 90 90 90 91 90 89 91 92 94 93 92 91
81 81 80 68 75 84 87 86 83 87 79 72 66 69 69 68 59 60 63 68 66 76 80 76 78 80 80 81 82 82 82 80 79 79 77 77 78 79 82 84 85 86 88 89 89 89 89 89 90 91 90 92 92 91 90 89 90 90 91 93 92 91 93
80 69 76 74 76 72 74 76 76 77 77 84 80 78 71 68 62 62 62 62 70 73 75 78 77 78 81 82 80 81 82 82 81 80 78 76 75 76 79 83 85 87 88 89 89 89 89 90 91 91 90 90 90 91 90 88 88 91 91 93 91 91 92
70 74 81 82 82 81 78 76 74 78 73 70 65 62 79 75 67 59 63 61 70 71 78 79 80 81 82 83 81 80 82 83 82 80 80 78 74 72 74 80 84 87 87 89 89 88 90 90 88 87 88 89 89 89 90 89 93 89 90 90 89 89 90
73 78 84 86 84 86 83 82 78 82 80 78 70 58 66 73 73 75 73 66 66 73 76 78 80 82 83 83 83 81 82 84 84 82 82 80 78 74 72 73 75 78 80 83 86 88 88 89 87 87 88 87 87 87 87 87 88 88 89 89 89 88 89
77 79 82 83 84 84 81 82 84 83 77 79 76 74 76 69 71 68 67 62 68 73 75 77 77 78 82 83 84 82 83 83 84 83 82 80 78 77 74 71 71 74 77 74 75 80 84 86 86 87 87 86 86 86 86 86 86 87 87 88 88 87 88
66 70 75 76 82 82 78 78 81 83 83 83 83 82 81 69 71 71 66 59 68 70 75 77 76 76 76 79 82 82 78 78 82 83 83 82 79 77 73 71 72 73 73 72 73 76 78 80 83 84 85 85 85 85 86 86 86 87 86 86 85 85 86
52 52 55 59 64 70 78 79 78 77 78 77 75 69 70 62 69 72 67 68 71 71 73 73 74 73 72 74 76 77 77 76 77 80 81 80 80 77 76 72 71 71 71 72 73 74 75 75 75 78 80 82 83 84 85 86 86 86 85 85 84 84 84
60 60 62 69 74 77 70 73 75 76 78 81 79 76 71 66 70 68 70 73 67 67 70 71 71 72 70 70 71 71 71 73 76 76 78 79 79 78 79 75 74 72 72 72 73 74 75 76 76 76 77 77 78 79 81 83 85 84 84 84 84 83 83
66 69 68 73 74 71 73 72 73 75 76 76 75 72 70 75 71 62 73 75 74 73 72 71 71 72 70 70 71 70 70 71 73 73 73 74 75 75 76 75 73 72 72 72 72 72 72 73 75 76 75 75 75 76 78 81 83 84 84 83 82 82 82
71 72 73 75 74 74 73 73 73 73 75 74 72 74 73 71 68 66 72 74 73 75 76 76 74 71 69 69 69 71 72 72 72 72 71 72 72 72 72 71 70 69 69 71 72 73 73 73 73 73 74 75 76 76 78 80 83 83 82 81 81 82 81
70 71 72 74 73 72 72 72 73 73 74 73 73 72 73 73 68 71 73 71 72 76 76 76 72 73 75 72 71 70 70 71 71 72 72 72 72 71 68 69 69 71 71 71 72 73 73 74 73 72 72 73 74 75 76 79 81 81 80 79 78 78 77
67 70 72 73 74 71 69 71 72 73 73 73 72 73 72 74 72 73 73 70 68 74 77 73 72 75 76 73 71 69 69 70 71 72 72 72 69 67 70 71 74 74 74 73 72 73 73 73 70 71 73 74 74 74 75 78 79 80 80 79 79 79 77
63 69 70 71 73 73 69 67 68 69 70 67 69 67 70 69 66 68 70 69 68 73 73 70 69 71 70 70 69 68 68 70 71 72 72 71 68 69 70 75 74 73 73 73 72 73 73 72 72 72 72 72 72 72 74 75 75 76 77 77 77 77 77
63 67 70 69 70 70 65 63 65 68 70 71 72 72 72 71 71 70 68 61 71 72 71 67 66 70 70 71 72 70 70 70 71 72 72 71 70 74 75 74 73 75 74 74 73 72 72 71 72 73 74 73 71 72 73 74 75 75 76 76 76 76 77
62 66 67 69 65 56 54 67 72 70 68 70 67 67 69 71 73 70 70 73 74 71 70 68 67 67 70 71 72 74 72 71 71 74 75 76 76 77 77 77 75 72 72 72 72 72 72 73 72 71 72 72 72 73 72 72 71 71 72 71 72 73 74
58 61 64 60 52 53 64 72 73 73 73 73 71 69 70 71 74 76 73 73 73 71 73 71 69 71 75 76 74 75 77 76 74 74 75 76 76 76 77 77 75 71 70 70 70 70 72 72 72 72 72 72 72 72 72 71 71 69 70 69 69 70 69
60 57 57 43 50 61 68 70 71 72 74 72 71 69 69 70 74 74 69 69 70 72 71 70 70 73 74 73 71 73 76 77 77 77 76 76 78 77 77 76 74 73 74 72 70 68 70 71 71 72 71 72 72 70 71 70 70 70 69 68 68 68 68
55 55 52 54 61 62 63 63 63 66 63 65 64 61 63 69 72 71 68 68 69 70 71 70 72 74 73 65 62 74 75 77 80 80 79 78 74 76 77 78 76 76 75 74 71 70 69 68 69 69 70 70 67 66 67 69 68 68 68 66 66 67 67
63 56 50 50 52 46 55 62 68 71 70 70 69 67 62 69 72 74 71 69 69 70 72 72 72 74 67 57 59 70 74 77 77 79 79 80 79 78 77 78 78 76 75 75 75 74 71 70 69 69 68 68 67 66 66 66 67 66 67 67 67 67 67
60 58 52 49 45 52 59 63 67 70 71 68 66 65 60 66 70 73 71 70 71 71 73 73 72 65 60 60 63 69 73 76 78 76 75 76 76 76 76 77 78 79 76 75 74 73 71 68 70 71 71 69 69 66 66 66 67 67 66 67 68 67 67
60 59 56 52 58 52 58 64 67 70 70 66 64 55 55 64 70 72 73 71 71 72 72 72 68 61 60 65 68 74 73 73 74 74 75 75 76 77 78 79 79 77 75 75 74 72 71 70 73 73 73 71 69 67 68 70 70 68 66 67 67 68 68
60 57 60 59 56 63 65 66 69 71 68 64 56 48 57 66 69 71 72 72 72 72 71 70 63 65 67 65 67 71 68 67 66 67 70 75 77 77 77 75 76 77 78 78 77 76 74 74 74 73 73 72 71 71 72 71 70 69 68 70 70 70 73
61 62 57 57 58 61 65 71 70 69 63 57 54 60 68 67 67 69 71 73 73 73 71 71 70 68 71 71 73 71 71 71 69 70 71 72 74 75 75 74 75 76 77 75 75 76 76 77 75 74 73 71 70 70 70 70 71 73 71 70 71 72 72
63 62 58 52 44 59 68 66 69 70 61 60 66 69 71 71 69 69 68 70 71 74 72 74 71 70 69 71 72 73 73 72 72 73 73 72 72 71 72 73 75 76 76 76 77 76 77 77 76 75 74 70 69 69 69 70 73 74 74 73 71 70 71
56 57 53 50 59 64 68 67 62 64 65 68 69 70 70 72 73 72 72 70 71 72 73 74 73 71 69 70 70 71 72 73 74 74 74 75 76 75 76 75 74 76 74 75 75 76 77 76 76 75 72 69 68 67 67 71 73 73 73 73 72 72 71
60 55 60 63 67 67 69 67 66 68 69 70 69 70 71 71 71 71 73 72 72 73 73 73 72 69 71 72 73 71 70 72 73 73 74 75 76 77 76 77 75 75 74 73 74 73 74 74 75 74 74 70 68 67 69 71 71 72 72 73 72 72 72
66 67 67 68 69 68 68 70 69 69 69 72 72 71 71 71 70 72 71 72 74 73 74 73 72 72 72 73 75 73 72 73 72 73 74 74 75 76 75 74 74 74 74 74 74 72 72 73 72 72 72 72 68 68 71 71 72 72 72 71 70 70 71
61 52 66 66 65 68 68 69 69 69 70 70 72 71 70 70 71 72 72 72 72 73 73 73 72 73 74 72 73 72 70 71 71 72 72 72 73 73 73 73 73 75 74 73 71 72 71 73 74 74 71 71 70 70 70 72 72 71 71 70 69 70 70
63 60 64 66 68 67 69 72 70 69 70 70 71 71 72 72 71 71 71 72 72 73 73 73 72 72 73 72 70 70 70 70 70 71 71 71 72 73 73 73 73 73 72 71 70 69 68 70 71 72 71 71 71 72 73 74 73 71 70 70 71 71 72
65 65 66 67 67 68 68 70 71 71 71 71 70 72 73 74 73 72 72 72 72 73 73 73 73 72 72 74 72 72 72 70 70 71 71 71 71 71 71 71 72 71 71 71 69 69 68 69 69 70 70 70 71 71 72 72 71 70 69 69 70 72 73
62 63 64 66 62 63 67 68 69 69 70 71 71 71 71 72 71 71 72 72 72 72 73 73 73 71 71 72 72 72 73 71 71 70 70 71 71 71 72 72 72 71 71 70 70 69 69 69 69 69 69 70 72 74 74 73 71 69 68 69 69 70 72
62 65 67 69 68 66 68 68 70 70 71 71 69 69 69 70 72 72 71 71 71 71 72 74 73 72 71 72 73 72 72 72 72 71 70 71 71 71 71 70 69 69 68 68 68 67 68 69 70 70 69 71 71 73 72 71 71 69 69 69 70 70 69
67 69 69 70 68 67 67 70 70 70 71 71 70 70 70 70 71 71 71 71 69 70 71 72 73 72 72 73 74 72 73 73 72 71 72 73 74 73 72 70 69 68 67 67 66 66 68 69 71 70 71 71 70 72 71 71 70 69 68 68 68 70 71
66 70 71 70 69 70 71 71 71 71 70 70 70 69 69 70 70 72 70 70 71 70 70 70 71 72 71 72 72 72 71 72 72 71 70 71 73 72 73 72 69 69 69 69 69 68 68 68 68 70 71 71 72 73 71 71 70 68 68 68 69 69 69

ECMWFFLT2_sfc_temp_099.txt.gz
Temp
86 85 88 87 90 69 79 79 72 78 86 75 66 69 73 71 67 62 64 68 69 81 84 86 87 88 89 89 88 83 84 84 81 81 81 83 84 86 87 87 90 90 91 93 92 92 94 94 93 93 91 91 91 90 91 90 90 91 91 89 91 90 90
87 91 90 90 90 89 80 70 78 87 88 81 69 59 64 62 51 57 69 65 66 69 62 84 83 84 87 86 87 79 82 82 81 79 79 82 82 83 84 86 89 91 91 91 92 93 93 93 93 91 91 92 92 92 91 91 91 89 92 92 92 91 90
86 90 89 85 90 91 81 81 91 76 66 64 71 67 57 59 55 62 68 70 65 69 67 75 79 82 84 85 83 82 78 79 79 79 82 81 81 81 79 86 88 89 90 91 90 91 92 92 90 93 93 93 92 93 93 92 92 93 95 96 95 93 92
86 86 83 70 78 88 90 90 85 88 78 72 68 67 68 64 60 58 63 68 66 66 74 78 78 77 79 84 81 80 80 81 82 82 83 79 81 81 79 85 87 89 91 91 91 91 91 89 91 93 92 94 94 93 92 92 93 92 94 95 94 93 95
84 72 79 76 79 76 78 79 78 84 82 86 80 78 68 64 59 59 56 55 63 72 80 81 79 79 81 83 82 82 83 81 83 83 83 81 81 78 75 83 86 88 89 93 91 91 91 92 93 93 92 92 92 91 93 92 91 93 94 95 93 93 94
75 77 85 85 85 85 82 80 77 80 76 73 66 63 78 75 66 58 63 58 61 73 80 78 85 85 85 86 85 79 81 85 83 82 84 82 81 80 80 83 87 82 86 92 91 92 94 93 91 90 91 90 92 91 94 93 96 92 93 92 92 91 92
78 82 87 90 90 90 87 85 81 84 85 82 73 60 68 75 75 78 74 67 63 78 82 86 82 88 89 89 89 84 85 85 84 84 85 84 83 81 81 81 84 87 84 81 82 84 91 90 90 89 86 84 83 90 91 91 91 90 92 92 91 91 91
82 87 90 89 90 90 86 86 86 85 80 83 79 77 78 72 73 69 71 65 62 75 82 84 86 87 90 88 88 79 83 84 84 81 83 82 81 80 80 80 79 79 79 79 77 75 81 88 87 85 83 79 83 90 90 90 90 90 91 91 91 90 90
67 75 82 83 88 86 82 82 84 85 86 85 86 85 83 72 74 72 67 60 63 74 82 82 85 87 86 87 82 83 80 81 84 81 82 82 81 80 80 79 77 76 76 73 75 78 82 86 85 85 85 88 88 88 88 89 89 90 90 90 89 89 89
52 52 58 63 69 75 81 84 84 84 84 82 80 72 74 65 71 74 69 69 69 77 78 78 84 84 84 82 83 84 80 77 81 83 83 81 80 79 79 78 77 77 75 73 74 73 74 81 85 85 85 86 86 86 87 87 87 87 88 89 88 87 88
63 65 66 76 80 79 74 79 82 83 84 87 85 81 75 70 74 72 73 74 67 72 74 76 78 82 80 80 81 80 80 80 83 82 82 81 80 79 79 78 78 76 75 75 74 73 76 80 82 83 84 85 85 85 85 86 86 87 86 87 87 86 87
71 73 73 79 80 78 79 79 79 84 84 84 80 76 73 75 72 66 75 76 73 70 74 75 77 77 78 77 76 75 77 79 81 82 81 80 81 81 80 79 77 77 76 76 75 75 77 77 79 81 82 84 83 84 85 85 86 87 88 88 86 86 86
75 77 77 79 80 81 81 81 83 80 81 81 77 76 80 78 71 69 71 73 74 75 74 77 75 79 76 75 73 75 76 78 80 80 80 81 81 79 80 78 77 76 76 75 73 73 74 76 76 76 76 78 80 81 84 85 86 87 87 86 86 86 84
75 76 77 80 79 79 80 79 80 82 82 80 80 80 82 80 73 76 71 70 68 69 72 76 80 80 78 75 75 74 74 74 75 78 77 79 80 80 78 75 74 75 76 74 73 73 73 74 75 76 76 75 75 76 78 80 82 84 84 84 84 84 84
71 76 78 77 78 77 72 75 78 79 81 82 82 81 80 76 76 78 75 70 65 71 74 77 81 80 78 76 75 72 72 73 75 77 78 76 74 73 73 75 77 77 77 77 76 76 75 74 74 74 75 75 75 75 75 75 76 78 80 80 82 83 82
63 75 76 75 76 75 72 72 73 76 77 73 74 73 75 76 71 75 69 66 68 72 76 76 77 75 73 72 72 72 72 73 74 75 75 74 71 69 68 72 76 76 76 76 76 76 76 75 75 76 77 78 78 76 76 75 75 77 77 77 78 79 81
57 72 76 74 74 71 67 65 71 71 66 73 77 75 76 76 73 70 65 64 73 72 75 73 73 75 74 73 73 72 72 73 73 72 72 71 70 72 72 73 74 75 75 74 74 76 76 75 76 76 76 76 76 77 76 77 76 76 76 76 77 77 76
58 66 73 71 62 54 49 70 77 74 66 66 72 72 76 77 77 65 71 69 75 76 75 73 73 74 72 73 74 76 73 70 70 72 70 71 77 77 75 74 73 71 72 74 76 76 75 75 76 75 74 73 72 74 75 76 76 75 75 74 73 73 73
57 56 65 60 51 47 68 76 77 78 72 72 70 72 75 76 76 74 71 74 76 77 78 76 75 72 73 74 73 72 73 69 66 66 66 69 75 74 75 73 73 72 72 73 73 74 75 75 75 76 75 75 73 72 73 74 75 73 71 71 71 72 72
64 59 59 46 48 64 72 74 75 77 80 75 75 65 71 73 74 74 71 74 76 76 74 74 75 74 75 77 77 77 74 71 69 67 66 68 70 75 76 75 72 72 73 72 72 71 73 73 74 74 73 73 71 69 69 67 68 70 70 70 69 70 70
51 54 58 51 60 62 66 67 68 71 65 68 64 59 63 70 71 73 72 73 74 74 74 74 74 78 78 73 74 78 76 74 74 72 70 71 74 76 76 75 74 75 75 73 72 72 72 71 70 69 69 69 68 67 67 67 67 67 69 68 69 69 70
63 61 55 52 52 44 54 65 73 78 76 77 76 72 65 70 75 77 74 72 72 73 73 73 75 74 69 65 66 73 76 77 76 77 78 76 77 77 77 76 77 77 77 76 74 73 70 70 70 71 71 71 70 68 67 66 66 65 65 66 66 66 67
62 55 55 53 49 48 63 65 71 76 79 75 74 69 62 70 74 73 75 72 74 72 72 73 74 67 59 58 64 72 74 77 77 72 69 70 72 74 77 78 78 78 76 75 75 74 72 71 72 74 74 72 70 67 66 65 65 64 63 64 66 68 69
56 55 55 54 59 55 61 67 71 76 78 75 71 55 54 69 74 76 77 74 73 74 75 73 68 62 58 59 63 70 72 75 77 75 73 73 72 72 74 75 77 76 75 75 76 75 74 74 76 76 75 73 71 69 69 71 69 67 66 65 66 68 68
53 57 59 59 57 63 66 68 72 75 74 70 59 51 61 71 73 75 74 73 73 74 73 67 61 64 67 68 68 72 71 70 70 75 78 77 77 75 76 75 75 78 79 79 78 78 75 75 76 75 76 75 73 72 73 72 71 70 70 70 68 68 68
61 63 56 47 58 64 69 72 72 73 66 57 54 65 72 73 72 75 76 76 77 72 71 71 70 72 75 74 75 74 74 75 75 76 77 76 76 76 76 77 77 75 77 77 78 79 77 76 75 75 74 71 71 72 72 72 72 73 73 73 72 72 71
65 59 55 49 44 61 73 70 69 72 62 60 69 71 73 75 74 74 75 76 77 77 74 76 74 75 76 76 75 76 76 76 76 77 77 78 77 76 77 78 79 79 77 76 76 77 78 79 78 77 75 71 71 71 70 72 75 75 75 74 73 73 73
50 60 53 48 60 66 73 71 61 64 68 72 73 75 72 75 75 74 74 75 76 77 75 76 76 77 76 76 77 76 76 77 77 77 77 78 79 78 80 81 80 81 78 78 78 79 79 78 77 75 72 70 71 71 70 74 75 75 75 74 74 74 73
62 58 60 66 70 71 74 72 70 71 73 75 76 77 75 74 74 77 73 71 73 76 76 76 75 75 77 77 78 77 77 78 78 77 77 77 79 79 78 80 79 79 77 75 76 76 77 75 75 73 73 70 70 69 71 73 73 74 74 75 75 75 75
71 71 71 72 73 73 72 75 75 74 75 78 78 76 74 75 76 76 74 76 76 76 76 73 73 74 75 76 78 77 78 78 78 78 78 78 80 80 80 78 78 78 78 77 77 76 75 75 74 73 73 72 69 70 73 73 74 73 73 72 71 72 73
65 55 70 69 69 72 73 73 74 75 75 75 77 75 75 75 76 76 77 76 76 75 76 75 74 75 76 75 76 76 76 76 76 77 77 77 80 77 77 77 77 78 78 77 75 75 74 76 76 76 74 73 72 72 73 74 74 73 72 71 71 72 72
66 63 68 71 73 73 75 76 73 72 73 75 76 76 77 76 76 77 77 78 77 78 77 76 75 76 76 76 75 75 75 75 75 76 76 75 76 77 77 76 77 77 76 75 74 73 72 73 74 74 73 73 74 74 76 77 76 74 72 73 74 74 74
66 69 71 72 72 72 73 75 76 76 75 74 75 76 77 78 77 77 77 78 77 77 77 77 76 76 76 78 76 75 76 75 74 74 74 75 75 75 75 76 75 75 74 74 73 73 73 73 73 73 73 73 74 74 74 75 74 73 72 72 73 76 78
65 65 66 70 64 64 69 72 74 74 75 75 75 75 75 76 75 75 76 76 78 78 77 77 76 74 74 76 76 75 77 75 75 75 75 75 76 75 76 76 75 74 74 73 73 72 72 73 73 72 73 73 74 77 76 75 74 72 71 72 73 74 76
61 67 71 72 70 69 71 71 74 75 76 75 73 72 73 74 76 75 75 74 75 75 76 78 77 75 74 75 76 75 75 71 73 76 75 75 74 74 75 75 74 73 73 73 72 71 72 72 73 72 72 73 75 76 75 74 74 72 72 72 73 74 73
71 73 72 73 73 70 70 73 74 74 76 75 73 73 74 74 75 75 74 74 73 73 75 76 77 76 75 75 76 75 76 77 76 75 76 77 76 76 76 74 72 72 72 72 71 71 72 72 73 72 73 74 73 75 74 74 74 72 72 72 72 74 74
71 75 75 74 74 73 75 74 75 75 75 76 74 73 73 73 74 75 74 73 74 74 73 74 75 77 75 75 75 74 74 75 75 75 73 73 76 76 76 75 72 71 71 72 72 72 72 73 73 73 74 73 74 75 73 73 72 71 71 72 74 73 73

ECMWFFLT2_sfc_temp_102.txt.gz
Temp
86 85 89 88 89 68 79 80 72 77 86 78 69 66 68 67 66 60 63 61 64 71 72 73 73 72 76 81 82 81 79 78 79 78 79 82 83 84 86 86 88 88 89 90 90 90 91 92 92 91 88 88 87 86 87 86 86 87 87 87 87 87 87
87 91 90 90 91 89 80 72 79 88 89 83 71 60 64 63 58 55 64 58 59 62 56 74 73 69 70 76 79 81 80 80 78 78 79 80 83 84 85 86 87 88 88 89 89 90 90 91 92 90 87 89 88 88 87 87 87 86 88 89 89 88 87
87 90 89 84 90 92 84 79 91 76 65 63 70 66 55 58 54 59 64 63 56 58 61 69 66 65 66 72 78 79 78 78 78 79 80 82 84 84 80 80 83 86 87 88 87 89 90 90 90 91 90 90 90 90 90 89 88 89 90 91 91 89 89
86 86 82 69 77 87 90 91 83 88 79 69 64 67 68 66 54 55 57 64 54 63 70 70 65 65 68 73 77 80 80 79 79 80 80 80 79 74 75 77 77 84 87 89 88 88 87 89 89 90 89 92 92 91 90 90 89 89 90 91 90 89 90
84 72 78 75 78 75 78 78 77 80 78 83 76 74 69 65 55 52 51 50 57 67 74 69 66 67 72 76 78 79 81 81 81 81 80 80 77 75 76 79 80 81 88 89 88 87 87 90 90 90 90 90 90 90 90 89 88 90 91 92 90 89 90
72 77 84 83 84 83 80 78 76 79 76 69 63 61 77 74 63 52 58 54 61 71 76 76 77 75 70 68 80 79 80 81 81 82 82 80 79 78 79 78 77 74 77 88 88 87 87 88 88 87 89 89 89 89 90 90 93 90 90 89 87 87 88
73 80 88 89 88 88 86 85 80 83 81 77 68 57 66 73 72 74 69 60 59 76 77 77 77 73 71 75 81 80 81 81 82 82 82 77 77 76 75 75 73 74 74 75 75 73 77 85 84 86 87 84 86 86 85 87 88 88 89 89 88 87 88
78 82 85 89 88 87 84 85 87 83 76 80 77 74 75 69 70 64 63 58 57 73 73 74 74 74 75 74 78 81 80 81 81 82 75 73 73 70 70 72 73 74 77 78 77 77 78 76 75 73 72 78 82 82 83 80 80 86 88 88 88 87 88
65 73 78 81 86 85 80 81 85 85 85 84 83 82 80 67 70 70 60 53 58 72 77 74 71 70 70 71 78 81 79 80 81 78 73 73 71 70 71 72 74 75 75 74 74 75 75 75 75 76 75 73 78 80 80 80 77 76 84 88 87 87 88
51 53 57 62 69 74 80 82 84 84 83 81 76 70 71 60 68 71 64 63 68 73 75 74 70 67 67 70 73 81 82 80 80 78 74 71 71 71 72 71 71 71 71 74 75 75 76 76 76 77 79 79 80 80 82 81 81 81 79 87 87 87 87
57 62 61 71 76 78 73 78 80 84 85 84 82 77 71 68 71 70 68 65 64 69 72 71 69 69 65 66 68 76 80 80 80 76 74 72 70 69 71 70 70 72 71 72 74 76 76 77 77 79 80 81 81 81 83 84 85 82 81 83 86 86 86
69 71 72 75 75 73 78 79 79 81 83 82 79 74 71 72 70 62 62 68 68 68 72 69 68 68 66 64 66 68 75 80 79 77 73 72 71 71 72 73 72 72 71 71 72 74 77 79 80 81 81 81 80 81 83 84 86 86 83 81 82 86 85
74 76 75 77 77 78 77 79 80 79 82 82 76 76 80 78 72 60 63 66 66 66 69 68 65 69 70 68 69 70 73 77 80 77 74 75 75 72 72 74 74 73 73 74 73 72 76 78 79 80 79 80 79 82 83 84 86 87 87 86 85 86 84
71 73 75 77 76 76 76 77 82 82 81 81 81 81 83 81 75 69 69 68 66 69 70 73 72 73 74 72 74 72 70 70 73 78 76 76 78 77 76 75 75 75 76 76 76 76 77 77 77 77 77 79 78 80 82 83 84 85 85 84 83 83 83
67 72 75 76 77 76 73 77 79 76 76 77 83 85 83 82 82 75 72 66 65 70 75 74 75 76 77 77 75 70 68 67 69 71 75 75 75 76 76 76 78 77 77 77 76 76 76 76 77 77 78 77 77 78 80 81 82 82 83 83 83 84 83
63 71 72 71 77 76 72 67 68 70 71 67 68 69 78 76 72 72 69 65 63 69 74 75 76 76 75 73 73 70 68 69 64 66 66 67 69 72 74 76 77 77 76 76 76 76 76 77 77 76 76 77 78 78 78 79 79 80 80 79 80 80 80
61 70 69 65 65 66 63 64 66 67 69 68 71 73 74 71 74 71 67 63 70 71 74 73 73 72 72 72 73 73 68 66 66 67 65 66 67 71 71 74 74 76 75 75 76 76 76 74 74 74 74 72 70 72 75 78 79 79 78 77 78 78 77
59 66 67 66 58 48 48 65 73 70 65 65 64 64 67 70 72 65 69 71 74 75 73 72 68 66 66 67 69 72 69 67 66 66 65 65 70 73 72 72 73 73 73 73 74 75 75 75 75 74 73 72 71 72 73 73 72 72 73 73 73 73 73
59 63 63 58 47 46 65 72 71 74 70 69 66 65 67 67 69 69 67 65 70 69 68 66 65 65 68 69 69 68 69 68 66 65 67 69 70 72 73 72 73 72 71 71 72 73 74 75 75 75 74 75 74 73 72 72 72 71 71 71 71 71 71
65 60 55 44 46 61 66 72 72 74 74 71 67 62 66 67 65 65 64 67 69 70 67 66 67 67 71 73 71 69 70 71 69 69 69 70 72 72 73 73 72 72 72 72 71 71 72 72 72 74 73 74 73 71 71 69 68 69 69 68 68 71 71
53 57 53 50 57 60 62 59 67 71 63 66 63 53 60 68 65 62 61 62 66 67 67 66 72 73 75 69 68 73 73 72 73 73 72 72 71 72 73 74 73 73 74 73 73 72 72 71 71 71 71 72 70 69 68 68 67 67 67 67 67 67 68
63 54 53 51 51 45 52 65 73 77 77 76 72 67 59 65 65 65 61 60 62 66 65 64 73 73 66 62 63 70 74 75 73 74 74 74 74 74 74 74 73 72 72 73 72 72 71 72 72 72 71 70 69 68 67 67 67 66 66 66 66 67 66
58 55 48 49 46 48 60 62 70 74 77 76 75 69 57 67 70 67 64 60 61 59 63 69 72 67 58 58 62 68 71 70 72 72 73 74 74 73 73 72 71 71 71 71 72 73 73 71 73 73 73 71 70 68 68 67 67 66 65 65 65 65 66
59 55 49 46 49 49 61 67 73 76 73 75 70 54 53 67 73 68 68 65 64 62 61 59 58 59 58 59 62 70 73 75 73 71 71 72 72 73 74 74 74 72 71 72 73 73 73 73 76 75 74 72 70 70 70 71 69 67 66 67 68 68 67
58 55 54 51 50 62 67 69 73 76 75 70 58 46 58 70 72 71 69 68 67 68 66 64 59 60 65 67 70 75 74 74 74 75 76 75 75 74 74 73 73 73 73 73 72 73 74 75 77 77 76 74 71 70 70 69 68 69 69 70 69 68 67
55 54 52 49 50 59 67 73 74 74 68 54 50 64 73 73 73 75 73 71 71 71 69 68 66 66 72 72 74 74 75 76 76 76 76 76 76 77 75 75 75 76 76 74 74 75 75 76 76 76 74 71 70 70 70 69 70 72 72 72 72 71 69
55 52 48 45 39 58 72 70 71 73 62 58 69 72 74 75 73 74 73 73 74 74 69 72 71 72 73 74 75 75 76 77 76 75 76 76 76 74 74 75 77 77 75 75 76 76 78 78 77 76 74 71 71 71 70 70 73 73 73 73 73 72 70
49 50 48 47 57 65 71 70 58 67 69 73 74 74 70 74 74 73 72 72 71 73 72 71 72 73 74 74 76 75 77 78 78 76 77 77 77 77 79 79 78 79 76 76 76 77 77 76 76 75 73 71 70 69 69 72 73 73 72 72 72 72 72
54 52 59 64 69 70 72 71 70 73 75 77 76 75 74 72 72 75 73 73 76 74 72 73 73 72 73 74 76 76 76 77 77 76 75 77 78 78 78 79 78 78 77 75 76 75 75 74 74 73 73 70 69 68 70 73 72 72 73 73 72 72 72
69 70 70 71 71 71 72 75 75 74 75 78 77 76 73 74 74 75 73 74 75 75 74 73 71 72 73 74 76 77 77 78 77 77 77 77 78 79 79 78 77 77 77 77 76 74 74 74 73 73 73 72 69 69 72 73 73 72 71 71 70 70 71
62 53 68 68 68 71 72 72 74 75 76 75 76 74 74 75 76 76 77 76 75 75 74 72 69 69 70 72 74 76 76 77 77 77 77 75 75 75 76 77 77 77 77 76 74 74 73 75 75 75 73 73 72 72 72 73 73 72 72 71 70 71 70
64 60 68 70 73 73 74 74 72 72 74 75 76 75 76 76 76 77 77 78 77 77 75 73 71 70 71 72 71 73 73 74 75 76 76 75 76 76 77 76 76 76 75 74 73 73 72 73 73 73 73 73 73 74 75 76 75 73 72 73 72 71 73
66 70 71 72 72 73 73 74 75 75 75 74 76 77 77 77 76 76 77 78 77 77 76 77 76 74 72 74 74 74 74 74 74 74 75 75 75 74 75 76 75 74 74 73 72 72 72 73 73 72 72 73 74 74 74 74 73 73 72 73 74 76 76
63 62 65 70 63 62 69 72 74 74 76 76 75 75 75 76 75 75 75 76 78 78 78 77 76 73 72 73 75 74 74 73 74 74 74 75 75 75 76 76 75 74 74 72 72 71 71 72 72 72 72 73 74 76 76 75 74 71 72 73 74 74 74
61 68 71 71 69 69 70 72 75 76 77 75 73 72 73 74 75 76 74 73 74 74 76 79 77 74 74 75 72 68 70 73 73 73 73 74 73 74 75 74 73 73 73 73 72 71 71 72 72 72 72 73 74 76 75 74 74 72 72 71 72 73 72
71 74 72 74 72 67 70 73 75 75 76 75 73 74 74 74 75 75 74 74 73 73 74 76 77 76 75 76 75 70 71 73 72 73 75 75 76 76 76 74 72 72 72 72 71 71 71 72 72 72 74 74 74 75 74 74 74 72 72 71 71 73 72
70 75 75 75 73 73 74 75 75 76 75 76 74 73 73 73 74 75 74 73 74 74 73 73 76 76 76 76 76 74 73 73 73 72 71 73 76 75 76 75 73 72 71 72 72 72 72 72 72 73 73 73 74 76 73 74 73 72 71 72 74 73 72

ECMWFFLT2_sfc_temp_105.txt.gz
Temp
79 78 82 82 84 58 68 72 61 67 76 71 57 58 62 59 53 48 55 54 58 63 66 68 70 71 73 76 77 77 76 76 75 74 76 78 79 80 81 80 80 81 82 83 83 85 84 85 85 82 82 82 82 81 81 81 80 81 81 81 81 80 80
80 84 82 82 84 81 72 62 67 78 79 76 64 51 51 51 46 48 54 52 54 56 50 67 66 67 71 72 75 77 75 76 74 74 75 77 78 78 81 82 81 82 81 82 82 83 84 84 85 82 81 83 82 82 82 82 81 80 82 82 82 82 80
81 84 81 77 83 83 74 72 84 69 55 57 60 58 48 48 48 44 50 56 54 55 53 62 64 66 68 70 73 76 75 75 74 75 76 77 79 78 76 78 80 81 81 81 81 83 84 83 84 82 83 83 82 83 84 83 82 83 83 85 84 83 83
79 79 73 57 66 79 84 84 77 79 70 60 56 60 57 56 46 48 46 53 47 59 60 65 65 67 67 69 70 73 75 75 75 75 76 77 77 76 76 74 74 77 81 82 83 83 83 82 82 82 83 84 84 83 83 83 83 83 84 84 83 82 84
78 64 67 63 65 63 67 68 66 71 70 73 67 65 60 54 48 48 45 44 51 60 69 68 68 68 68 69 70 71 75 76 77 77 77 76 75 71 71 72 71 70 71 73 75 78 81 81 82 83 83 83 83 83 83 83 82 84 84 85 83 82 84
65 70 77 76 76 74 69 67 64 66 63 59 53 51 70 64 54 43 47 44 52 65 72 70 69 71 69 70 69 69 72 76 77 77 79 75 68 68 70 72 71 70 72 73 73 74 75 76 75 76 81 83 83 83 83 84 85 84 84 83 82 82 83
65 71 77 82 81 80 78 74 69 73 70 67 56 43 54 65 63 64 56 50 52 67 70 69 70 70 71 70 69 70 70 70 77 76 70 68 70 71 71 71 71 70 70 70 73 74 74 74 75 75 74 76 78 82 82 83 83 83 83 82 82 82 81
69 75 79 80 81 80 75 75 76 74 69 70 65 60 64 59 58 54 51 49 52 66 69 69 71 70 70 68 71 70 69 69 70 67 68 70 69 71 70 70 71 71 71 71 72 72 72 73 74 74 74 75 77 79 81 80 81 82 82 81 82 82 81
52 60 66 68 77 77 69 68 73 77 76 76 74 71 65 57 60 61 55 46 52 63 69 70 70 70 69 68 66 67 67 67 68 68 69 70 70 69 69 69 70 70 71 71 71 72 72 73 74 75 75 75 75 77 78 79 78 77 79 82 82 81 81
40 42 43 46 52 59 66 72 74 75 76 75 68 61 62 53 57 62 55 52 58 65 67 66 66 65 65 66 67 67 67 68 68 68 68 69 70 68 69 69 70 70 70 71 72 72 73 73 74 75 75 75 75 76 77 78 78 78 77 79 81 82 81
47 50 53 64 66 64 61 69 72 74 76 79 74 67 60 53 56 54 55 58 57 61 64 64 64 64 64 64 64 65 66 67 68 68 67 67 68 69 69 69 70 70 70 71 71 72 73 73 74 74 74 74 75 76 77 78 78 78 77 78 79 80 80
61 65 65 69 70 66 68 68 69 73 74 74 72 61 55 59 55 48 57 61 58 58 63 64 64 65 63 63 63 63 65 66 67 67 68 69 68 68 68 69 69 70 70 71 71 71 71 71 73 74 74 74 76 76 77 78 78 78 79 77 76 79 80
68 70 70 71 71 71 70 70 66 65 66 66 66 65 69 65 56 52 59 60 59 61 64 66 64 65 64 64 64 64 65 67 68 67 66 67 67 66 68 68 68 69 69 70 70 70 70 72 73 75 76 76 76 77 78 78 79 78 77 76 76 77 77
66 67 69 71 69 67 68 65 65 66 67 65 65 64 65 69 61 64 62 60 61 64 65 67 67 69 68 66 66 65 65 65 66 66 65 66 66 67 68 68 68 69 69 69 69 71 72 72 73 73 74 74 74 74 73 73 72 74 76 75 76 76 74
60 66 69 70 69 65 62 63 64 65 66 66 65 64 65 65 64 65 63 60 59 64 67 68 70 70 70 66 63 63 64 65 66 66 66 66 66 67 67 68 68 69 70 70 70 69 70 70 70 71 71 71 72 72 73 73 74 75 76 73 74 73 71
54 64 67 66 66 66 60 60 62 62 62 58 60 58 62 61 59 62 61 56 56 63 68 68 69 69 66 63 62 63 63 65 65 64 65 66 67 67 67 68 68 69 69 69 69 69 70 70 70 70 69 70 71 71 73 73 73 73 74 73 72 72 72
49 62 66 63 63 59 53 54 59 62 61 62 62 63 63 61 62 55 53 53 59 61 64 64 63 64 65 64 63 62 63 64 64 63 64 65 65 66 67 67 68 68 68 68 68 69 69 69 70 70 70 69 68 69 70 71 72 72 72 72 71 71 72
49 60 62 61 52 41 42 61 69 66 60 59 57 57 60 59 59 56 60 61 62 64 64 63 62 62 62 64 65 67 64 62 62 62 64 66 67 67 68 68 67 68 68 68 69 69 69 70 71 71 70 68 68 69 70 70 69 69 69 69 70 70 71
47 54 56 48 38 41 58 66 70 71 68 65 60 59 61 60 58 59 60 61 61 62 63 62 63 63 64 65 64 63 64 63 62 63 65 66 66 67 67 68 68 68 68 68 68 69 70 71 71 71 70 70 69 68 69 69 69 68 68 69 69 69 69
53 48 45 38 38 54 63 66 68 71 71 68 63 57 60 61 59 59 58 60 62 61 61 63 63 65 65 65 65 65 65 65 64 65 66 67 67 66 66 66 67 68 68 67 67 67 69 69 69 70 69 70 68 67 68 67 67 68 68 67 68 68 68
44 45 44 45 53 55 56 57 60 63 59 60 56 48 53 61 61 60 58 59 60 60 62 64 66 66 64 60 61 66 67 68 69 68 67 68 68 68 68 68 67 68 69 69 68 69 68 68 67 67 68 68 67 66 66 66 65 65 65 64 65 66 66
48 41 39 41 44 38 47 55 62 70 69 69 67 59 52 61 63 63 60 58 59 59 60 60 64 66 60 54 56 62 65 66 67 68 68 68 68 68 70 70 70 70 70 70 70 69 68 68 67 67 67 66 66 65 64 64 64 64 64 63 64 65 65
48 44 39 37 38 42 49 54 61 66 67 65 63 58 48 57 62 64 62 59 60 60 59 60 62 59 53 53 57 62 65 65 67 66 66 67 67 68 69 68 68 68 68 69 70 69 68 66 66 66 67 66 65 65 65 64 64 63 63 63 63 64 64
48 46 42 38 46 45 52 56 61 67 66 63 59 44 43 57 63 65 64 60 59 59 59 60 58 56 52 53 56 63 66 66 68 67 67 67 68 69 69 69 69 69 69 69 69 68 68 67 69 69 69 67 66 65 65 66 65 64 64 64 63 64 64
48 49 45 48 48 56 58 59 64 65 64 59 46 38 49 62 64 66 66 64 62 61 59 60 55 58 60 61 64 66 68 66 66 68 69 69 70 69 70 69 70 68 69 69 69 69 68 69 70 69 68 67 65 65 66 65 65 65 65 65 64 63 64
44 46 45 44 48 55 59 64 65 66 59 46 44 56 63 64 65 69 69 67 67 65 62 60 59 62 66 67 69 69 68 68 68 70 71 71 71 71 71 71 70 68 68 67 69 70 70 71 71 69 67 65 65 65 65 64 65 67 67 66 65 65 64
50 49 45 40 36 54 65 63 63 65 54 53 60 64 67 68 67 67 67 68 68 68 64 66 65 66 67 68 69 71 71 70 70 70 70 69 69 69 68 70 71 71 68 68 69 69 71 72 71 70 69 65 65 65 64 64 67 67 68 68 67 65 65
40 44 42 40 51 59 65 63 53 60 61 64 66 66 63 66 66 66 65 66 68 70 67 67 67 67 67 68 69 70 71 72 71 71 70 70 70 71 72 73 72 72 68 68 68 69 70 69 69 68 67 65 65 64 63 65 67 67 67 66 67 67 67
51 46 50 57 61 63 66 64 63 64 66 69 69 69 66 64 65 67 66 66 68 69 70 69 68 67 68 68 71 70 71 71 71 71 71 70 70 71 71 72 71 71 69 67 67 67 67 67 66 66 65 64 63 62 64 66 65 65 66 67 67 66 66
61 62 63 64 64 65 66 68 66 67 68 71 70 68 65 66 66 67 66 67 66 65 65 65 65 66 66 67 69 70 71 71 70 70 71 71 70 71 71 70 70 70 70 69 68 66 65 66 65 65 65 64 63 63 65 66 65 65 66 65 66 65 65
51 45 61 62 63 64 65 67 68 68 67 67 68 66 65 66 68 68 68 67 67 66 65 65 64 64 65 65 67 68 69 70 70 70 68 68 69 70 69 69 69 69 69 67 66 66 65 66 66 66 65 64 63 64 65 66 66 65 66 66 67 65 63
53 53 60 64 66 65 66 65 64 65 66 67 67 66 68 68 68 68 68 69 68 69 67 66 66 65 67 66 65 66 66 67 68 68 68 68 68 69 68 67 68 67 66 65 65 64 63 64 64 65 64 65 66 65 65 66 67 66 67 67 65 65 66
59 62 64 64 66 65 65 66 65 66 66 66 66 68 68 69 68 68 69 69 68 68 68 68 67 67 67 68 67 67 66 67 67 66 66 66 67 67 67 67 67 66 65 65 65 65 65 64 64 64 64 65 66 65 65 66 65 65 67 69 69 67 68
53 53 57 62 55 55 61 65 67 67 68 68 68 67 67 68 66 66 67 68 69 69 70 68 67 65 64 65 66 66 66 66 66 67 67 67 67 67 67 67 66 65 65 64 64 63 62 63 63 64 64 65 66 68 67 66 66 65 66 66 65 63 63
52 59 62 61 62 61 62 65 67 68 69 68 65 65 65 66 67 67 65 65 65 66 69 70 69 65 65 65 66 65 65 65 66 67 68 67 66 66 67 66 65 64 64 64 63 62 62 63 64 64 64 65 66 66 65 66 66 64 63 64 64 62 62
64 66 65 65 64 61 63 66 67 68 68 67 66 66 66 66 67 67 65 64 64 64 66 68 69 67 66 66 66 65 66 67 66 66 68 68 68 68 66 65 64 64 64 64 63 63 62 63 64 64 65 66 64 67 66 65 64 64 64 64 63 63 62
62 67 67 67 66 66 67 67 68 68 68 68 66 65 64 65 66 67 65 65 65 65 64 65 67 68 67 67 67 66 65 66 66 67 67 68 70 68 68 67 65 64 64 64 63 63 63 63 63 64 65 65 66 67 65 66 66 65 63 62 63 63 63

ECMWFFLT2_sfc_temp_108.txt.gz
Temp
71 71 75 74 75 53 61 67 58 65 72 64 53 55 59 57 50 46 55 52 56 62 63 67 68 69 70 73 73 74 74 74 73 73 74 75 75 76 75 76 76 78 80 81 82 81 81 82 81 80 80 80 80 79 79 78 78 79 79 79 78 77 77
74 74 76 75 76 70 65 58 63 71 75 70 56 45 49 46 42 46 51 50 52 54 49 64 64 65 69 70 72 73 74 74 72 73 73 75 75 76 76 77 77 79 79 80 81 81 81 82 81 80 80 80 80 80 80 78 78 77 79 79 79 77 77
73 76 75 72 74 76 71 68 72 64 52 54 54 53 42 42 43 43 48 54 52 53 52 59 62 64 66 68 72 72 72 73 73 73 74 75 77 76 75 75 75 77 78 80 80 80 81 82 81 81 81 81 80 80 81 80 79 80 80 81 80 79 78
71 70 66 55 56 69 76 79 68 68 57 49 52 55 54 53 43 44 45 51 45 56 58 61 62 66 67 68 68 71 73 73 73 74 74 74 74 75 74 73 73 76 79 80 80 80 79 80 80 80 80 81 81 81 81 80 80 80 80 81 80 79 79
69 54 61 57 57 61 59 65 63 67 61 66 62 59 57 50 45 44 43 43 49 57 64 63 64 66 67 69 68 68 72 74 75 75 74 73 73 69 68 70 71 73 74 77 79 80 80 80 81 81 80 80 81 81 80 80 79 80 80 81 80 79 80
54 61 70 70 69 65 60 59 58 58 57 56 52 47 62 59 51 42 44 43 50 60 68 68 68 70 68 69 69 64 65 66 64 65 70 72 69 68 71 72 71 71 72 73 74 75 77 79 79 79 80 80 80 80 80 81 81 80 80 80 79 79 80
58 66 72 73 72 71 70 68 64 63 59 57 47 41 52 59 58 60 53 48 51 62 67 66 69 69 69 69 68 65 64 66 68 68 68 67 68 69 71 71 70 70 71 72 74 75 76 77 77 78 79 79 79 79 80 80 80 80 80 80 79 79 79
57 64 68 70 72 73 65 64 67 67 61 60 58 54 58 55 55 50 49 47 49 62 65 67 67 68 68 67 67 64 65 67 69 67 67 68 69 68 69 69 69 70 70 71 72 72 73 75 76 77 78 78 79 79 79 80 79 80 80 80 79 79 79
45 50 56 61 67 67 59 59 62 67 68 66 64 61 59 54 57 56 52 44 51 59 67 66 67 66 65 65 66 66 65 65 67 66 67 68 68 68 68 68 68 68 69 69 71 72 73 74 75 77 77 77 78 78 79 79 79 79 80 80 80 79 79
37 39 39 45 51 56 60 62 64 66 65 64 62 56 54 45 54 56 51 49 54 60 64 64 63 62 61 62 64 65 65 66 66 66 66 67 67 67 67 68 68 67 68 69 70 71 73 74 74 75 76 77 78 78 79 80 80 79 79 79 80 79 79
43 44 48 55 59 57 55 61 63 63 64 65 61 53 54 52 52 54 51 55 54 57 61 61 61 61 61 61 62 63 64 66 66 66 66 67 67 67 68 68 68 68 68 68 69 69 72 73 74 73 74 75 77 77 78 79 80 79 78 78 79 79 79
56 59 56 62 64 58 60 60 60 62 61 61 59 54 52 54 55 46 52 56 56 57 59 60 59 59 59 60 61 63 64 65 65 66 67 68 67 67 68 68 68 68 68 68 68 69 69 70 71 71 72 72 73 74 73 73 75 73 72 73 74 77 78
62 62 59 63 62 62 61 60 60 59 60 59 56 55 58 58 54 52 52 55 55 57 59 60 59 59 60 60 61 63 65 65 66 66 66 66 66 67 67 67 67 68 68 68 69 69 69 70 69 69 69 69 70 71 71 72 72 72 73 74 73 73 74
60 60 58 61 62 61 60 59 60 60 60 58 57 57 59 59 53 56 56 56 56 59 60 61 61 62 62 61 62 63 64 64 65 65 65 65 66 67 67 67 67 68 68 68 69 69 69 69 69 69 70 70 71 70 71 71 72 72 72 72 72 71 70
54 59 61 61 62 60 56 58 59 59 59 58 58 57 56 59 58 58 57 56 55 59 62 63 64 63 64 63 62 62 63 65 65 65 65 65 65 66 66 67 67 68 69 69 69 68 68 69 69 69 69 70 70 70 70 71 71 72 72 71 71 70 71
49 57 59 59 60 59 56 55 56 56 56 53 54 51 54 53 52 57 58 55 54 59 62 63 63 62 62 61 62 62 63 65 65 64 64 65 65 66 67 67 68 68 68 68 68 68 69 69 69 69 69 69 70 70 71 70 71 71 71 70 70 70 70
45 54 58 58 57 52 48 49 54 56 56 56 56 56 56 55 58 54 53 53 58 60 63 61 61 62 62 62 62 62 62 62 63 64 64 65 66 66 67 67 66 67 67 67 67 67 67 68 68 68 69 69 68 69 70 70 71 71 70 70 70 70 70
42 52 53 52 44 37 39 54 59 59 54 53 52 52 54 56 58 56 58 58 60 61 61 60 59 60 60 61 62 64 62 61 63 64 65 66 66 66 66 66 66 66 66 66 66 67 67 67 68 68 68 68 68 69 69 70 69 69 69 69 70 70 71
43 46 48 43 36 38 52 61 59 60 60 58 55 55 57 57 58 59 58 58 58 59 59 60 60 61 62 63 62 62 63 63 63 64 65 65 65 65 65 65 66 66 66 66 66 66 67 67 68 68 68 68 68 68 68 68 69 68 68 68 68 69 69
43 39 38 35 36 48 58 60 62 64 64 60 58 54 56 57 57 58 56 58 59 59 60 61 62 62 62 63 63 63 64 66 65 64 63 63 64 64 64 64 64 64 65 65 65 65 67 66 66 66 66 67 67 66 68 67 67 68 68 67 67 68 68
40 40 36 39 49 49 52 53 55 56 53 54 52 47 52 57 56 56 55 57 59 60 60 61 61 63 64 60 60 64 65 65 65 64 64 64 64 65 65 66 65 66 66 66 66 66 66 65 65 64 65 66 65 65 65 65 65 65 65 64 64 65 66
41 35 33 34 36 35 43 52 57 63 64 64 59 52 48 56 58 60 58 56 57 59 60 60 61 61 60 55 56 61 64 65 65 66 65 66 65 66 65 66 66 66 66 67 67 66 65 65 65 65 65 65 65 64 63 64 64 63 63 62 63 64 64
40 37 32 31 33 37 44 50 56 60 63 62 60 53 46 55 57 59 59 58 58 58 59 59 59 55 53 53 56 61 63 64 65 64 64 65 65 65 65 65 64 65 65 66 66 66 65 64 65 65 65 65 64 63 63 63 63 62 62 62 63 63 64
40 36 33 34 42 41 47 51 56 60 62 60 57 41 42 55 58 59 59 58 58 58 58 58 55 54 52 54 57 63 64 65 65 64 63 63 64 64 66 66 66 66 66 66 66 66 66 65 67 67 67 66 65 64 64 64 63 63 62 63 64 65 65
43 44 39 40 41 50 53 54 57 58 60 55 43 36 46 56 58 60 60 60 60 59 57 57 54 56 59 61 63 64 64 64 64 65 66 65 67 67 67 67 68 66 67 67 66 66 65 66 67 66 65 63 62 63 64 63 63 63 64 65 64 64 65
40 39 36 37 39 46 53 57 59 60 56 41 39 51 56 58 58 59 61 59 60 60 59 58 59 60 62 63 63 63 64 64 64 66 67 67 68 68 69 69 68 67 67 66 66 67 66 67 67 66 65 64 63 63 63 63 63 65 64 63 64 64 63
41 40 37 36 33 50 60 57 58 60 48 46 54 59 61 61 61 61 61 61 63 63 60 62 62 62 63 63 63 64 65 65 65 65 66 66 66 66 66 66 68 68 66 66 66 66 67 67 67 66 65 63 63 62 62 62 64 64 65 64 63 63 64
34 38 35 34 42 47 56 58 49 53 58 61 62 62 58 62 62 62 62 63 64 64 63 62 62 63 63 63 64 64 64 65 65 65 65 65 66 66 68 68 67 67 64 64 64 66 66 65 64 64 63 62 62 61 61 62 64 65 63 62 62 64 65
45 40 43 53 54 56 59 57 57 60 63 65 64 64 62 61 62 64 63 62 64 65 65 64 63 62 63 64 66 65 64 65 65 64 65 65 66 66 66 67 67 66 64 62 63 63 63 63 63 62 61 62 61 60 61 63 63 63 63 63 63 63 63
55 54 55 58 59 60 61 63 63 64 64 66 65 64 62 62 63 64 63 63 64 63 63 63 62 62 62 64 65 66 66 65 65 65 65 64 64 64 65 65 65 65 64 63 63 62 61 62 62 61 60 60 61 60 62 63 61 61 62 63 63 62 62
45 42 57 58 58 60 61 63 64 64 64 63 63 63 63 63 64 64 64 64 64 63 63 62 60 60 61 63 65 64 65 65 64 65 64 63 64 65 64 64 65 64 63 62 61 61 60 61 61 62 60 59 60 61 62 62 62 63 64 65 65 64 62
44 50 55 58 60 59 60 61 63 62 63 64 64 63 63 63 63 63 64 65 64 64 63 63 64 62 62 63 61 62 62 63 63 63 63 63 63 64 64 64 64 62 61 60 60 60 59 59 60 61 60 61 60 61 62 63 62 63 66 66 64 62 61
52 55 57 57 60 60 60 61 60 60 61 62 63 64 64 65 64 64 64 64 64 63 63 64 64 63 62 63 63 63 62 62 62 63 63 63 62 62 63 63 63 61 61 61 60 61 60 59 58 59 60 61 60 60 61 61 60 62 65 67 63 60 61
47 48 52 58 53 50 57 60 61 62 63 64 63 63 63 63 63 63 63 64 64 64 64 64 63 62 61 63 64 63 62 62 61 62 62 62 62 62 62 62 62 62 62 61 61 60 58 58 59 59 60 60 61 62 62 61 60 62 63 61 59 59 59
49 52 58 55 57 57 58 60 61 63 64 64 63 62 61 62 62 63 63 62 62 62 63 63 64 62 62 62 63 63 62 62 62 62 63 62 62 62 62 61 60 60 60 61 60 60 58 59 60 60 60 61 61 62 62 61 60 59 59 62 60 59 61
55 60 59 61 60 58 58 61 62 62 63 63 61 61 62 62 62 62 61 61 61 60 62 62 63 63 62 63 64 61 61 62 62 62 62 63 63 63 62 62 60 60 59 60 60 60 57 59 60 60 62 61 59 62 60 60 59 58 58 59 58 59 58
59 61 62 62 61 61 60 61 62 62 63 64 61 60 61 62 62 63 62 60 61 62 61 61 62 62 62 61 63 62 61 62 64 64 64 65 64 63 63 62 61 60 60 60 59 59 58 58 58 60 61 61 60 62 60 60 59 58 57 57 58 59 60

ECMWFFLT2_sfc_temp_111.txt.gz
Temp
66 67 71 69 72 53 59 62 54 56 63 59 49 50 54 53 50 46 54 51 55 61 62 64 65 67 70 71 71 71 71 73 71 70 70 71 71 72 73 74 75 76 77 78 78 79 79 79 79 78 78 78 78 77 77 77 76 76 77 77 77 77 76
69 72 73 71 71 65 61 53 57 65 68 64 54 42 44 43 42 46 51 49 51 52 48 62 62 63 66 69 70 71 71 72 71 71 71 71 71 72 73 74 75 77 77 77 78 79 79 79 79 79 78 78 79 78 78 77 77 75 77 77 77 77 76
69 72 71 65 71 70 66 61 67 60 49 52 54 51 40 42 41 43 47 52 51 52 51 57 59 61 64 66 69 70 70 71 72 72 72 72 73 72 71 72 74 75 76 77 77 78 79 79 80 80 79 79 79 79 79 79 77 78 78 79 78 77 77
66 63 63 52 56 68 67 69 66 61 56 50 52 53 51 49 41 44 45 51 44 55 57 59 60 63 65 67 67 68 69 71 72 72 72 71 71 71 71 71 73 75 77 78 78 78 78 78 79 79 79 79 79 79 79 78 79 78 78 78 78 77 77
63 57 58 59 57 56 53 61 58 63 58 61 61 58 52 45 42 42 42 43 48 55 62 62 62 64 67 68 68 69 71 73 73 72 71 70 70 71 70 70 72 75 76 78 78 78 79 79 80 79 79 79 79 79 78 78 77 78 78 78 78 77 77
52 57 61 65 62 60 59 55 56 56 56 54 49 45 55 53 45 40 44 43 50 59 65 66 64 66 68 68 69 69 71 69 68 68 69 69 69 68 70 71 72 74 76 77 78 78 79 78 78 78 78 78 78 78 79 78 79 78 78 78 77 77 77
57 61 65 65 66 65 64 63 59 61 56 53 43 41 48 53 54 56 50 48 50 60 64 65 67 66 68 68 69 68 69 69 69 70 70 70 71 70 70 69 68 68 68 69 72 76 76 77 77 78 78 78 78 78 78 78 78 77 78 78 78 77 77
53 59 62 63 68 65 59 58 60 60 56 58 53 48 51 51 51 49 48 47 48 61 64 64 66 67 68 67 69 67 68 69 70 68 68 68 68 68 68 67 68 69 70 69 69 68 69 71 75 77 77 77 77 77 77 78 77 78 78 78 77 77 76
46 51 57 60 66 63 55 55 58 60 59 58 57 55 52 50 52 50 49 44 49 59 64 64 66 66 66 65 66 68 66 66 68 68 68 68 67 67 67 68 68 69 70 70 68 68 68 69 70 72 75 76 77 77 77 77 77 78 78 78 77 77 76
35 36 36 42 48 52 56 58 60 60 59 56 55 56 51 45 49 53 48 47 52 59 62 61 62 62 62 63 64 66 66 67 67 68 67 67 67 66 67 67 68 69 70 70 69 69 70 69 68 68 69 73 76 77 77 77 77 76 77 77 77 76 76
39 43 47 55 57 52 51 56 57 57 59 58 54 47 47 46 44 51 50 50 52 55 58 59 59 60 60 61 63 64 64 65 66 65 67 67 67 67 67 67 68 69 69 69 70 70 70 69 69 69 69 68 68 69 70 71 73 73 73 75 75 75 76
49 51 51 59 60 54 54 54 55 58 56 55 53 48 48 50 48 44 49 53 52 53 57 58 58 60 61 62 63 64 64 63 64 65 65 67 66 66 66 66 66 67 68 69 69 69 69 69 69 70 70 70 71 72 73 73 73 73 73 72 72 73 74
56 56 57 60 57 57 55 54 54 53 55 54 52 50 52 51 48 50 51 53 53 55 57 59 59 60 61 62 63 65 66 65 65 65 65 64 65 65 66 66 66 66 67 68 68 69 69 69 69 69 70 71 72 73 73 73 73 73 72 73 72 71 70
55 57 57 59 57 55 55 54 54 55 55 53 54 54 56 54 50 53 55 56 55 58 59 60 60 62 62 63 65 65 65 65 66 66 65 65 65 66 66 66 66 66 67 68 68 69 68 69 69 69 70 71 72 71 71 72 72 72 72 72 71 71 71
52 56 57 57 56 54 51 54 54 54 54 54 54 56 56 59 57 58 57 56 55 60 62 61 63 64 65 65 65 64 64 65 65 65 65 66 66 66 66 66 67 67 68 68 68 68 68 69 69 69 69 70 70 71 71 71 71 71 72 71 71 71 71
48 53 55 55 55 54 51 51 52 51 51 50 52 51 56 55 53 57 58 55 55 59 62 62 62 63 62 62 62 63 64 65 65 64 64 65 65 66 67 67 67 67 67 67 67 68 67 68 69 68 68 69 70 70 71 71 71 71 71 71 71 71 71
41 48 52 52 52 50 46 45 50 51 51 53 55 57 57 55 57 55 53 53 58 60 62 60 60 61 61 61 61 61 62 63 64 64 64 65 66 66 67 67 67 67 67 66 66 67 67 68 68 69 69 69 69 69 70 70 71 71 71 71 70 70 70
39 45 48 47 44 38 37 50 56 54 51 51 51 52 54 55 57 54 56 56 58 60 60 59 58 59 59 60 61 63 62 63 64 65 65 65 65 65 65 65 65 65 65 65 65 66 66 67 68 69 69 69 69 70 70 70 69 70 70 70 70 70 70
43 42 41 40 35 35 48 56 57 57 57 56 54 55 57 57 57 57 56 56 56 57 58 58 59 60 62 63 63 63 65 65 64 63 64 64 64 63 63 63 63 64 64 64 64 65 65 66 67 68 68 69 69 69 69 69 69 68 69 69 69 69 69
39 39 35 34 31 43 52 55 57 58 58 56 54 52 56 57 57 57 55 56 58 58 58 59 61 61 62 63 63 63 64 65 64 63 63 63 64 62 62 62 63 63 63 63 63 63 65 65 66 67 67 68 67 66 68 68 68 68 68 67 67 68 68
41 38 32 40 44 48 49 51 52 53 50 51 49 43 49 56 57 57 55 56 58 58 58 60 61 63 64 60 60 63 63 63 64 64 63 64 63 64 64 64 63 64 64 64 64 65 64 64 64 64 65 66 65 65 65 65 65 65 65 64 65 65 66
37 33 35 35 35 34 40 47 53 58 58 59 55 48 46 52 56 58 58 57 57 58 59 59 60 61 60 55 57 61 63 64 63 64 64 64 64 64 63 64 64 64 64 65 65 65 64 64 64 64 65 65 64 64 63 64 64 63 63 63 64 64 64
39 36 30 30 32 35 44 50 54 57 58 57 55 48 43 49 55 58 59 58 59 58 58 57 58 55 52 53 57 61 63 63 63 62 62 64 64 64 63 63 62 63 63 64 65 65 64 63 63 64 65 65 64 62 62 62 63 62 62 62 63 63 64
38 33 34 35 37 43 50 49 53 56 58 59 52 39 38 50 56 58 57 58 57 56 55 56 55 55 52 54 57 63 63 64 63 62 62 62 62 63 63 64 64 64 64 64 64 63 63 63 65 65 66 65 64 63 63 64 63 62 62 62 63 64 64
41 43 35 36 40 48 50 50 53 54 57 55 42 36 44 54 56 57 57 57 57 56 56 55 53 55 58 60 61 63 63 62 62 63 64 64 64 64 64 65 66 64 64 64 63 63 62 63 65 65 64 63 62 63 63 62 62 62 63 64 63 63 64
37 35 37 36 36 43 50 53 54 57 56 43 39 48 52 56 56 57 58 57 57 57 57 55 55 58 62 62 62 62 62 61 61 63 63 63 64 65 66 67 65 64 64 64 64 64 64 64 65 65 64 63 62 62 62 61 62 63 63 63 63 64 64
39 34 34 35 35 50 56 57 55 57 47 45 50 55 57 57 57 57 58 57 57 57 56 58 59 60 61 61 61 62 62 62 62 62 63 62 62 62 63 64 66 66 64 64 64 64 65 65 65 64 64 63 62 62 61 61 62 62 63 63 63 64 64
33 35 36 35 41 45 50 55 48 50 52 55 56 59 56 58 57 57 56 56 59 59 59 59 59 60 60 60 61 61 61 62 62 62 62 62 63 64 66 66 65 65 63 62 62 63 63 63 62 62 62 62 62 61 59 60 62 63 62 61 62 65 65
41 38 37 43 47 52 53 54 50 54 58 60 59 60 57 57 58 58 57 58 60 61 61 60 60 59 60 61 61 61 60 61 61 61 61 62 62 63 63 64 64 64 62 61 61 61 61 62 61 61 61 62 62 60 59 62 61 61 62 63 63 61 61
49 48 51 53 53 54 56 57 58 60 60 62 62 62 59 60 59 59 60 60 61 61 62 60 58 60 60 60 61 61 61 61 61 60 60 60 60 61 62 62 63 62 62 62 61 60 60 61 61 61 61 62 61 59 60 62 60 61 62 62 63 61 61
42 43 50 51 51 52 53 55 59 59 59 59 60 60 60 60 61 61 61 61 61 61 61 61 60 60 61 60 60 60 60 60 60 60 59 59 59 60 59 60 62 61 61 60 60 60 59 59 60 60 59 59 59 61 61 60 61 61 63 63 63 60 58
41 43 51 53 52 54 55 54 54 57 58 58 59 59 60 60 61 61 61 62 61 62 62 61 62 61 61 61 59 59 59 59 59 59 59 59 59 59 59 59 59 58 58 58 58 58 58 57 58 59 59 58 58 58 59 60 61 62 63 65 59 58 59
49 53 55 54 55 56 56 57 56 57 59 60 60 61 61 62 61 61 61 62 61 62 61 62 63 62 61 62 61 61 59 59 59 58 58 59 59 58 59 58 59 58 57 57 57 58 57 56 57 58 58 58 57 59 59 59 60 62 63 63 60 57 58
44 46 50 55 50 49 54 57 58 59 60 61 60 60 61 61 61 61 61 61 62 62 62 63 63 61 59 60 61 61 60 60 59 58 58 58 59 58 58 59 58 58 58 57 57 57 56 55 56 57 57 58 58 60 59 59 60 62 62 60 57 57 57
47 50 55 56 56 56 56 57 58 59 61 61 60 58 58 60 61 62 62 61 60 60 61 62 63 61 60 59 60 59 58 58 59 60 60 59 59 58 58 58 57 57 56 58 57 57 56 56 58 58 57 57 58 60 58 58 59 59 59 60 59 57 59
54 56 58 56 58 57 58 58 59 59 60 61 59 59 59 60 60 61 60 60 60 58 60 60 62 62 61 60 61 59 58 59 60 59 59 60 60 59 58 58 57 58 57 57 57 58 55 57 57 56 58 58 57 60 57 56 57 57 58 59 58 58 56
58 58 58 56 57 59 58 58 59 60 61 63 60 59 60 59 60 61 60 59 59 60 59 59 59 60 60 60 61 61 60 60 61 61 62 62 61 60 59 58 58 58 58 58 57 56 55 56 55 57 57 59 58 60 58 56 56 56 56 56 56 56 58

ECMWFFLT2_sfc_temp_114.txt.gz
Temp
66 65 68 65 70 52 57 59 53 54 58 55 46 48 49 48 46 42 50 49 52 58 61 62 64 65 65 66 67 67 69 70 68 68 68 69 70 71 72 72 73 74 75 76 76 76 77 77 77 76 76 76 76 76 76 75 75 76 76 76 76 76 76
64 65 66 69 66 61 56 51 55 60 64 59 48 41 40 39 39 40 48 46 47 52 47 60 61 61 63 64 66 68 69 70 68 69 69 68 69 71 73 74 74 75 75 75 76 77 77 77 78 77 76 77 77 77 76 76 76 75 76 77 77 77 76
64 65 68 64 68 66 58 53 62 53 40 47 48 47 38 39 37 38 42 47 47 49 51 56 58 59 61 64 66 67 68 69 69 70 70 69 70 71 70 72 73 74 74 75 75 76 77 77 78 78 78 77 77 77 78 77 76 77 77 78 78 78 77
62 61 58 50 52 62 65 64 59 58 53 48 47 48 46 47 38 42 41 48 42 52 55 58 59 61 62 64 64 66 69 70 71 71 70 69 68 69 70 71 72 74 75 76 76 76 76 76 77 78 77 78 78 78 78 77 78 77 77 78 78 77 77
61 52 57 55 55 54 52 57 55 57 55 56 58 55 49 45 39 37 36 40 43 52 59 60 61 62 63 64 64 66 69 71 73 73 72 69 69 69 70 70 72 73 75 77 77 77 77 78 78 78 77 77 78 78 77 77 77 77 77 78 77 77 77
47 52 59 60 59 57 55 52 52 56 55 53 47 43 52 49 44 39 41 40 44 57 63 62 63 65 65 66 67 68 70 72 71 72 73 71 70 70 71 72 72 73 74 76 77 77 78 77 77 76 77 77 77 77 78 78 79 77 77 77 77 77 77
54 59 62 62 62 62 58 57 56 57 52 50 42 41 43 50 50 51 45 46 48 60 62 62 65 65 67 68 69 68 70 71 71 71 73 72 71 70 70 71 72 72 73 74 75 76 75 76 76 76 77 77 77 77 77 77 77 77 78 78 77 77 77
50 58 60 59 62 60 56 53 56 56 51 53 50 45 46 49 49 48 45 45 45 57 63 63 63 65 65 66 70 69 70 71 70 69 68 68 69 69 70 70 70 71 71 72 72 73 73 73 74 74 75 75 76 76 76 77 77 77 77 77 77 77 76
43 49 53 54 58 58 52 51 54 56 56 54 53 54 49 52 47 46 45 41 47 57 63 63 64 65 65 65 65 67 65 65 67 68 68 68 68 68 68 68 68 69 69 69 70 71 72 73 74 74 75 75 75 75 76 76 77 77 77 78 77 76 76
36 38 33 38 46 50 53 55 55 56 55 52 50 51 48 45 46 49 46 43 49 60 61 61 61 62 62 63 64 65 66 66 65 66 66 66 67 67 67 67 67 68 69 70 70 70 71 71 72 73 74 74 75 75 75 76 76 76 76 77 77 76 76
42 42 39 47 54 49 48 52 52 53 55 55 49 45 45 45 41 49 44 49 53 57 58 58 59 60 61 62 63 63 64 65 66 65 66 67 66 66 67 67 67 69 69 69 70 70 71 71 71 72 72 73 74 74 74 75 76 75 75 76 76 76 76
49 49 49 54 56 49 51 49 51 53 53 54 52 47 47 48 48 39 44 50 53 55 58 58 59 60 61 62 63 63 63 63 64 65 65 67 66 66 66 67 67 68 68 69 69 69 70 70 70 71 72 73 73 73 74 74 75 75 76 76 75 75 75
50 51 52 53 53 52 51 51 50 50 52 54 52 52 55 51 48 45 50 52 53 56 59 60 60 60 61 62 63 65 65 64 64 64 65 65 65 66 66 66 66 67 67 67 68 69 69 69 69 70 70 71 73 74 74 74 75 75 75 75 75 75 75
49 52 52 53 52 51 50 50 50 50 52 53 55 55 57 55 52 54 55 55 55 58 59 61 61 63 64 64 65 66 65 65 65 64 64 65 65 66 66 66 66 66 67 67 68 68 68 69 69 69 70 71 72 73 73 73 74 75 74 75 75 75 74
49 52 52 52 51 49 49 50 50 50 50 52 54 56 56 58 58 59 57 56 55 59 62 62 64 65 66 66 64 64 64 66 66 64 64 65 65 66 66 66 66 67 67 67 68 68 68 68 69 69 70 71 72 73 73 73 74 74 74 73 74 74 74
45 50 50 50 51 50 48 45 48 49 48 49 52 51 55 54 53 56 58 55 54 59 62 62 64 63 62 61 62 63 63 65 65 65 64 65 66 67 67 66 67 67 67 67 67 68 68 69 69 70 70 71 71 72 72 73 73 73 73 73 73 72 72
39 46 46 48 46 45 46 45 48 48 47 49 51 56 57 55 54 53 51 52 56 60 62 60 60 61 61 61 61 63 64 64 65 65 65 65 66 67 67 67 67 67 67 67 68 68 68 68 69 69 70 70 70 71 71 71 71 71 71 72 71 70 71
40 43 43 45 43 37 34 46 53 52 49 49 51 52 54 57 56 54 56 55 57 59 59 58 58 59 60 61 63 64 64 64 64 65 64 64 64 65 66 66 65 65 66 66 67 68 68 69 69 69 70 70 69 70 70 70 70 70 70 69 70 70 70
42 39 39 42 35 34 46 52 54 55 54 54 54 55 57 57 58 57 56 56 55 57 58 58 58 59 61 63 63 63 64 65 64 63 63 63 63 62 63 63 64 64 64 65 65 66 67 68 68 69 69 69 69 69 70 69 69 69 69 69 69 69 69
39 37 35 32 31 42 50 53 55 57 55 53 53 51 54 56 56 56 54 56 56 57 57 59 60 60 61 62 62 62 63 64 64 63 62 62 62 62 62 63 63 63 64 64 64 65 67 68 68 69 68 69 68 68 69 68 68 68 68 68 67 68 68
40 35 29 40 41 46 49 52 52 51 49 49 48 44 46 51 55 55 55 56 58 59 59 60 60 61 62 59 60 62 62 63 64 64 63 63 62 63 63 63 63 64 64 64 65 65 65 65 65 66 67 67 67 67 67 67 67 66 66 66 66 67 67
36 35 35 33 32 34 38 46 53 57 55 56 52 49 45 50 54 56 57 56 58 58 60 59 59 60 58 55 56 61 63 63 63 64 63 63 63 63 63 64 64 64 64 65 65 65 65 65 65 66 66 66 65 65 65 65 65 65 65 65 65 65 65
37 35 30 31 33 35 42 49 53 56 57 57 51 49 44 48 54 57 58 58 59 59 58 57 57 56 54 54 57 60 62 62 63 62 62 62 62 62 62 62 61 62 63 64 65 65 65 64 64 65 65 65 64 63 63 64 64 64 63 63 64 64 64
38 33 34 34 36 42 51 49 51 54 55 56 52 41 37 47 55 57 59 58 58 58 57 56 55 55 53 54 58 62 62 62 63 62 61 61 62 62 63 63 63 63 64 63 63 62 62 63 65 65 66 65 64 62 62 63 62 62 62 63 64 64 64
40 43 33 34 39 48 48 49 51 53 55 54 42 35 44 51 55 57 58 58 58 57 56 55 53 55 57 60 61 63 63 62 61 63 63 63 63 63 63 64 65 62 62 62 62 62 63 64 65 65 64 63 62 63 62 61 61 61 62 63 63 63 63
36 36 39 37 34 42 48 50 52 53 54 43 39 47 50 53 55 56 59 58 59 59 57 55 55 58 62 63 63 62 62 61 61 62 62 63 63 63 65 66 65 62 63 63 64 64 64 65 66 65 64 62 61 61 60 59 60 62 63 63 63 63 63
37 32 34 35 35 49 52 53 53 57 48 46 46 51 54 56 56 57 57 57 58 57 56 58 60 61 62 62 62 62 63 62 62 62 62 61 61 61 62 63 65 64 62 62 63 63 64 64 65 66 65 62 61 61 59 60 62 63 64 64 63 63 63
33 35 35 33 41 46 50 53 47 50 51 53 52 54 54 55 56 57 56 55 57 58 59 60 60 61 60 61 61 61 61 62 62 61 61 61 62 63 64 64 64 64 61 62 62 63 63 64 64 64 64 63 62 61 60 61 63 63 63 63 64 64 64
39 35 37 41 44 49 51 51 50 50 54 55 55 56 55 55 56 56 57 57 58 60 61 61 61 60 60 60 61 60 60 60 60 60 60 61 61 62 61 62 63 63 61 60 61 61 62 62 62 62 64 63 63 61 61 63 62 63 64 64 64 63 62
47 46 48 50 50 50 51 54 54 54 56 58 58 58 57 56 57 59 58 58 59 60 61 60 59 59 59 59 60 60 60 60 59 59 60 60 60 61 61 61 62 62 61 61 61 61 61 62 62 62 61 63 61 60 61 63 62 63 64 63 63 62 62
43 42 47 49 50 51 52 53 55 56 57 55 55 56 57 58 59 60 61 60 60 60 60 60 59 58 59 59 59 59 59 59 59 60 59 59 59 60 60 61 62 61 61 60 60 60 59 60 61 62 61 61 61 62 62 63 63 64 64 63 63 62 61
43 44 50 51 51 51 54 53 53 54 55 57 57 56 58 59 60 61 61 61 60 61 60 60 60 59 60 59 58 58 58 58 58 58 58 58 58 58 59 59 60 59 59 59 59 60 59 59 60 61 61 60 60 61 62 63 63 65 65 64 61 61 62
48 48 51 50 51 53 54 55 55 55 56 56 57 57 57 59 59 59 60 63 62 62 61 61 61 60 59 60 60 59 58 58 58 58 57 58 57 57 58 58 59 58 58 58 59 59 58 58 59 59 60 60 60 60 61 62 63 63 64 64 61 60 61
43 46 48 50 48 47 51 54 55 56 57 58 57 57 58 58 57 57 58 59 61 61 61 62 63 61 59 60 60 59 58 58 57 58 58 58 58 57 58 58 58 59 58 58 59 59 57 57 59 59 59 60 60 61 61 62 63 63 63 62 60 60 61
45 49 51 52 50 52 51 54 56 57 58 57 56 56 57 57 59 58 58 58 59 59 60 62 63 62 61 60 60 59 58 57 57 58 59 59 59 58 59 59 58 58 58 59 59 59 58 59 59 60 60 59 59 60 59 61 62 61 61 61 61 60 61
50 52 56 55 56 55 55 56 57 57 56 57 57 57 58 58 59 59 59 58 58 57 59 60 62 61 60 60 61 58 58 59 59 59 58 59 59 59 59 58 58 58 58 59 59 58 57 58 58 59 60 59 58 60 59 59 60 60 61 61 60 60 58
55 55 57 55 57 59 59 58 58 58 59 59 58 57 58 58 59 59 58 58 59 60 59 59 60 62 61 60 60 59 58 59 60 60 61 61 61 59 59 59 59 59 59 58 56 56 56 57 58 59 59 60 59 60 58 58 59 61 60 60 59 59 61

ECMWFFLT2_sfc_temp_117.txt.gz
Temp
73 74 75 73 77 57 65 68 62 66 71 69 60 59 59 59 57 54 62 59 62 68 69 72 70 69 69 70 69 67 67 72 75 75 76 78 78 79 80 80 81 81 82 83 83 83 84 85 85 84 83 83 82 82 83 82 82 84 83 82 83 84 84
74 74 76 77 74 75 69 62 68 71 73 71 64 53 55 56 51 55 59 58 59 58 57 67 68 67 69 69 69 71 70 70 73 75 75 75 76 77 79 80 81 82 82 82 83 84 84 85 85 84 83 84 83 83 83 83 83 82 84 84 85 85 83
73 75 75 72 75 76 72 69 74 65 56 58 62 60 48 49 49 54 58 59 59 59 61 64 65 66 69 68 70 71 72 72 73 76 76 76 78 78 78 79 80 81 81 81 82 82 84 84 84 85 84 84 84 84 85 85 84 85 86 87 87 85 86
70 73 72 59 64 73 74 75 69 68 65 55 55 57 59 57 49 50 55 58 58 65 67 66 67 69 69 70 69 70 73 74 75 76 76 76 77 77 77 79 80 81 82 83 82 83 82 82 84 85 84 86 86 85 85 84 85 85 86 86 86 85 87
71 64 68 64 66 64 67 68 63 65 64 62 64 59 60 55 52 52 53 53 62 66 67 65 66 68 70 72 70 71 74 74 74 74 76 76 77 77 77 78 79 81 82 84 83 83 84 84 85 85 84 85 85 86 85 84 83 85 86 87 86 85 86
65 65 70 67 67 68 68 68 64 65 62 58 53 52 65 63 58 49 53 53 64 67 69 68 68 70 72 73 73 73 75 73 71 73 76 78 77 78 79 80 81 81 81 83 83 83 85 85 84 83 84 84 84 85 86 85 87 85 85 85 84 84 85
66 69 71 70 69 71 69 69 64 66 66 66 60 46 55 62 64 64 62 57 61 67 71 69 70 71 72 74 75 74 74 73 72 73 76 78 78 78 78 80 80 81 81 82 82 82 83 83 83 84 84 83 83 83 84 84 84 84 85 85 84 84 84
68 69 69 70 71 71 67 67 67 66 64 63 62 59 60 60 61 57 59 54 63 67 70 70 71 70 71 71 73 72 73 73 74 73 75 77 77 78 79 79 79 80 81 81 81 81 81 81 81 82 82 82 82 82 82 83 83 83 83 84 84 83 83
61 63 66 68 70 70 66 64 64 63 64 62 62 61 61 58 62 62 59 52 62 66 71 71 71 70 69 69 70 70 68 68 70 72 73 75 76 77 77 77 78 79 79 79 79 79 79 80 81 82 82 81 82 82 82 83 82 83 84 84 83 83 83
48 47 50 55 59 63 65 65 62 63 62 62 61 59 59 54 58 57 59 59 66 68 69 68 69 68 66 66 66 66 66 65 66 69 70 71 73 75 76 76 76 76 77 78 79 79 79 80 80 81 81 82 82 81 82 83 83 83 83 84 83 83 83
57 59 60 64 66 64 63 62 62 61 63 64 63 62 60 58 56 57 61 58 61 64 65 64 65 65 65 64 64 64 66 66 66 67 68 69 70 71 74 75 75 75 75 76 78 79 79 80 80 80 81 81 81 81 82 83 84 83 83 83 82 82 82
60 60 60 63 65 63 62 62 62 62 62 63 62 59 56 56 53 57 57 58 58 63 64 64 63 64 65 65 65 64 65 66 67 67 68 68 69 70 72 73 74 75 75 75 76 77 78 79 80 81 81 81 81 81 81 82 83 83 84 83 82 82 82
62 62 63 64 63 62 61 61 61 61 61 63 60 57 57 56 56 57 57 58 57 62 63 64 63 64 64 65 64 65 66 66 66 67 67 66 66 68 70 71 73 74 75 75 76 76 77 78 78 79 80 80 81 81 82 82 82 82 83 82 82 83 81
62 63 63 63 62 60 60 60 60 60 63 62 62 61 61 61 58 59 59 59 58 60 62 64 64 66 67 66 68 70 67 65 65 66 65 66 66 67 67 68 70 71 74 76 76 76 76 77 77 77 78 78 80 80 81 81 81 82 82 81 81 81 81
60 62 62 62 62 60 60 60 59 59 61 62 62 62 61 62 62 63 62 60 59 64 66 65 66 67 68 67 67 67 66 66 65 65 65 65 66 67 67 68 69 70 72 74 75 75 76 76 76 76 76 77 78 79 80 80 80 81 81 80 80 81 81
58 61 60 61 61 61 60 60 60 59 59 61 60 60 62 60 57 57 60 59 60 63 65 65 65 65 64 63 63 65 66 66 66 64 65 66 67 68 68 68 68 69 70 70 72 74 75 75 76 75 75 76 76 76 78 78 79 79 80 80 80 80 80
56 58 58 58 59 59 56 59 61 58 57 58 61 62 62 62 61 59 58 59 60 62 65 63 63 65 64 64 62 63 65 67 67 67 67 67 68 69 70 69 69 69 70 70 71 72 73 74 74 75 75 75 74 76 77 77 78 78 78 78 78 76 75
56 57 57 58 56 47 51 60 60 59 58 58 58 59 60 61 62 63 64 61 60 61 64 64 62 61 59 61 62 64 63 65 67 66 66 65 66 67 68 69 69 68 69 70 71 72 72 73 74 74 75 76 76 76 76 75 76 77 76 75 75 75 75
56 56 56 53 46 50 59 63 63 62 62 61 60 61 61 62 63 63 62 61 59 60 62 63 62 61 62 64 63 63 63 64 64 63 63 64 65 65 66 66 66 67 68 69 70 71 72 73 73 73 74 75 75 74 73 73 74 75 75 75 72 72 73
57 55 54 43 48 58 61 63 64 64 63 63 60 59 62 64 65 65 64 63 64 63 63 64 63 62 64 65 64 64 63 63 63 62 62 63 63 62 63 63 63 64 65 65 66 66 68 71 72 72 72 74 74 73 74 73 73 73 73 73 72 71 70
52 52 52 53 57 56 57 57 60 61 59 60 59 57 63 65 66 66 64 64 64 64 63 63 64 65 66 64 61 64 63 63 64 63 62 62 63 63 64 65 64 66 66 66 67 67 66 66 67 67 70 72 71 71 71 72 73 72 70 69 69 70 69
54 51 50 52 52 46 56 61 65 67 68 67 66 61 61 65 67 67 65 63 63 63 63 63 64 64 62 59 59 61 62 63 62 63 63 63 63 64 64 65 65 65 66 67 68 68 66 66 66 67 67 68 67 67 67 68 68 67 67 68 68 67 67
53 52 49 47 46 53 61 62 63 66 67 68 66 61 58 66 66 67 67 65 64 64 63 64 65 63 59 57 60 62 62 62 63 62 63 64 64 64 64 64 64 64 65 66 67 68 67 65 66 67 67 67 67 65 65 65 65 64 64 64 65 65 66
55 55 50 48 54 56 59 61 65 67 67 66 62 51 55 63 64 67 67 65 65 65 64 65 64 63 58 57 59 62 62 62 62 62 63 64 64 65 65 65 65 64 65 65 65 64 64 65 68 69 69 67 66 64 63 63 63 62 62 63 64 65 65
52 51 53 54 56 61 61 62 65 64 65 64 54 48 60 63 65 67 68 66 66 66 63 65 64 63 64 62 62 63 63 61 62 63 65 66 68 68 68 67 67 65 64 63 63 63 65 66 67 67 67 65 63 63 62 61 61 61 62 63 63 63 63
54 54 52 53 57 62 63 63 64 64 62 52 52 62 60 63 65 67 69 67 67 66 65 64 64 64 65 64 64 63 62 63 64 65 66 67 68 69 69 68 67 65 64 63 63 64 66 68 68 67 66 64 63 62 61 60 62 63 63 62 62 63 63
52 51 51 48 43 58 62 64 63 63 58 61 64 63 64 66 67 67 67 67 66 67 65 65 63 64 65 65 64 64 65 65 65 65 66 67 67 67 68 69 69 68 64 62 62 63 64 66 68 68 67 64 64 63 62 62 64 64 64 63 63 63 63
53 50 48 49 60 60 61 62 61 63 64 63 64 65 64 65 68 68 68 68 67 68 68 64 63 65 65 65 65 65 66 66 66 66 66 67 69 70 71 71 70 70 67 65 64 64 64 66 66 68 67 64 64 64 63 65 65 65 64 64 64 64 63
58 56 60 61 60 61 63 61 62 62 63 64 64 65 66 65 67 69 69 67 68 69 69 66 64 64 67 67 68 66 66 67 67 66 65 66 68 69 69 70 70 71 69 67 66 66 68 67 68 69 69 66 65 63 64 67 67 67 67 66 66 66 65
58 59 61 60 61 61 62 64 63 63 63 65 66 66 65 66 67 67 67 68 68 68 68 66 65 66 67 67 68 68 68 67 66 66 66 66 67 68 69 69 70 70 70 69 68 68 68 69 68 68 69 69 66 66 69 70 69 69 68 68 67 66 66
56 52 59 59 60 61 61 63 63 63 64 63 65 64 62 63 64 64 64 65 68 67 68 67 66 66 68 67 68 68 67 67 67 68 66 66 66 66 66 68 69 70 70 69 68 68 67 70 71 71 69 70 69 69 69 72 71 70 69 69 68 68 67
59 57 58 60 61 61 61 63 64 63 63 64 65 64 64 63 63 62 61 62 64 67 67 68 67 67 68 67 66 66 66 66 66 66 66 66 65 65 65 66 68 69 68 68 67 67 66 68 69 69 69 70 71 71 72 74 74 72 70 69 69 69 70
58 59 60 60 61 62 61 61 63 65 65 64 64 66 66 66 63 62 62 61 60 62 66 69 69 67 68 69 68 68 67 66 66 65 66 66 66 66 66 66 66 67 67 68 67 67 67 68 69 68 68 69 71 72 72 73 72 71 70 70 69 70 71
57 59 59 60 59 58 61 62 62 62 64 65 64 64 65 65 62 62 61 61 62 61 61 64 68 67 67 68 68 68 68 67 66 66 65 66 67 66 67 67 66 66 67 67 67 67 67 68 69 68 68 68 70 73 73 74 73 71 70 71 71 71 72
61 64 64 64 65 64 64 64 64 64 65 66 64 63 62 62 61 60 60 60 61 61 61 60 64 67 66 68 69 67 67 67 67 68 67 67 67 66 67 67 66 66 66 67 67 67 68 70 70 70 69 70 70 71 70 71 72 71 71 70 71 72 71
64 65 67 65 66 64 63 65 64 65 65 65 62 63 63 62 61 60 59 59 59 59 60 61 61 62 66 69 70 67 67 67 67 68 69 70 69 69 69 68 67 67 67 66 66 66 68 70 70 71 71 71 70 73 72 72 72 70 70 70 69 71 72
67 66 67 66 67 67 67 66 65 64 64 65 63 62 63 62 61 61 59 59 60 60 59 59 61 62 62 64 67 67 67 68 68 68 67 68 69 69 70 69 67 66 66 66 66 66 67 68 69 70 69 69 70 71 71 72 72 71 70 70 71 71 71